<?xml version="1.0" encoding="UTF-8" standalone="no" ?>
<gpx xmlns="http://www.topografix.com/GPX/1/1" xmlns:xsi="http://www.w3.org/2001/XMLSchema-instance" xsi:schemaLocation="http://www.topografix.com/GPX/1/1 http://www.topografix.com/GPX/1/1/gpx.xsd" version="1.1" creator="VisuGPX - https://www.visugpx.com">
  <metadata>
    <name>Edirne-Mostar</name>
  </metadata>
  <trk>
    <name><![CDATA[Tour d'Europe: étape 698]]></name>
    <extensions>
      <line xmlns="http://www.topografix.com/GPX/gpx_style/0/2">
        <color>000088</color>
        <width>4</width>
      </line>
    </extensions>
    <trkseg>
      <trkpt lat="42.10763" lon="19.08928">
        <ele>52.587396</ele>
        <time>2022-05-27T08:20:16.714Z</time>
      </trkpt>
      <trkpt lat="42.10777" lon="19.08903">
        <ele>52.587396</ele>
        <time>2022-05-27T08:21:38.885Z</time>
      </trkpt>
      <trkpt lat="42.10785" lon="19.08892">
        <ele>52.587396</ele>
        <time>2022-05-27T08:21:41.855Z</time>
      </trkpt>
      <trkpt lat="42.10792" lon="19.0888">
        <ele>52.587396</ele>
        <time>2022-05-27T08:21:44.873Z</time>
      </trkpt>
      <trkpt lat="42.10799" lon="19.08868">
        <ele>52.587396</ele>
        <time>2022-05-27T08:21:47.865Z</time>
      </trkpt>
      <trkpt lat="42.10807" lon="19.08856">
        <ele>52.587396</ele>
        <time>2022-05-27T08:21:50.905Z</time>
      </trkpt>
      <trkpt lat="42.10816" lon="19.08844">
        <ele>52.587396</ele>
        <time>2022-05-27T08:21:53.868Z</time>
      </trkpt>
      <trkpt lat="42.10825" lon="19.08834">
        <ele>52.464359</ele>
        <time>2022-05-27T08:21:56.901Z</time>
      </trkpt>
      <trkpt lat="42.10833" lon="19.08825">
        <ele>52.031802</ele>
        <time>2022-05-27T08:21:59.875Z</time>
      </trkpt>
      <trkpt lat="42.10843" lon="19.08814">
        <ele>51.521927</ele>
        <time>2022-05-27T08:22:02.865Z</time>
      </trkpt>
      <trkpt lat="42.10853" lon="19.08802">
        <ele>51.010488</ele>
        <time>2022-05-27T08:22:05.863Z</time>
      </trkpt>
      <trkpt lat="42.10863" lon="19.08792">
        <ele>50.50717</ele>
        <time>2022-05-27T08:22:08.869Z</time>
      </trkpt>
      <trkpt lat="42.10872" lon="19.08782">
        <ele>50.023984</ele>
        <time>2022-05-27T08:22:11.862Z</time>
      </trkpt>
      <trkpt lat="42.10882" lon="19.08772">
        <ele>49.55364</ele>
        <time>2022-05-27T08:22:14.881Z</time>
      </trkpt>
      <trkpt lat="42.10891" lon="19.08761">
        <ele>49.070736</ele>
        <time>2022-05-27T08:22:17.866Z</time>
      </trkpt>
      <trkpt lat="42.10899" lon="19.08751">
        <ele>48.623399</ele>
        <time>2022-05-27T08:22:20.863Z</time>
      </trkpt>
      <trkpt lat="42.10908" lon="19.08741">
        <ele>48.160508</ele>
        <time>2022-05-27T08:22:23.865Z</time>
      </trkpt>
      <trkpt lat="42.10918" lon="19.08732">
        <ele>47.690042</ele>
        <time>2022-05-27T08:22:26.870Z</time>
      </trkpt>
      <trkpt lat="42.10927" lon="19.08722">
        <ele>47.212315</ele>
        <time>2022-05-27T08:22:29.862Z</time>
      </trkpt>
      <trkpt lat="42.10937" lon="19.08714">
        <ele>46.75753</ele>
        <time>2022-05-27T08:22:32.855Z</time>
      </trkpt>
      <trkpt lat="42.10947" lon="19.08706">
        <ele>46.30107</ele>
        <time>2022-05-27T08:22:35.859Z</time>
      </trkpt>
      <trkpt lat="42.10958" lon="19.08696">
        <ele>45.789978</ele>
        <time>2022-05-27T08:22:38.859Z</time>
      </trkpt>
      <trkpt lat="42.10969" lon="19.08688">
        <ele>45.422365</ele>
        <time>2022-05-27T08:22:41.868Z</time>
      </trkpt>
      <trkpt lat="42.1098" lon="19.08679">
        <ele>45.368522</ele>
        <time>2022-05-27T08:22:44.866Z</time>
      </trkpt>
      <trkpt lat="42.1099" lon="19.08671">
        <ele>45.322629</ele>
        <time>2022-05-27T08:22:47.866Z</time>
      </trkpt>
      <trkpt lat="42.11" lon="19.08662">
        <ele>45.271078</ele>
        <time>2022-05-27T08:22:50.841Z</time>
      </trkpt>
      <trkpt lat="42.11007" lon="19.08654">
        <ele>45.23149</ele>
        <time>2022-05-27T08:22:52.861Z</time>
      </trkpt>
      <trkpt lat="42.11018" lon="19.08644">
        <ele>45.177489</ele>
        <time>2022-05-27T08:22:55.848Z</time>
      </trkpt>
      <trkpt lat="42.11029" lon="19.08634">
        <ele>45.124218</ele>
        <time>2022-05-27T08:22:58.868Z</time>
      </trkpt>
      <trkpt lat="42.11039" lon="19.08625">
        <ele>45.074214</ele>
        <time>2022-05-27T08:23:01.845Z</time>
      </trkpt>
      <trkpt lat="42.11048" lon="19.08616">
        <ele>45.026739</ele>
        <time>2022-05-27T08:23:04.909Z</time>
      </trkpt>
      <trkpt lat="42.11058" lon="19.08608">
        <ele>44.979243</ele>
        <time>2022-05-27T08:23:07.863Z</time>
      </trkpt>
      <trkpt lat="42.11067" lon="19.086">
        <ele>44.932141</ele>
        <time>2022-05-27T08:23:10.928Z</time>
      </trkpt>
      <trkpt lat="42.11076" lon="19.08592">
        <ele>44.88832</ele>
        <time>2022-05-27T08:23:13.871Z</time>
      </trkpt>
      <trkpt lat="42.11085" lon="19.08583">
        <ele>44.842937</ele>
        <time>2022-05-27T08:23:16.868Z</time>
      </trkpt>
      <trkpt lat="42.11095" lon="19.08575">
        <ele>44.792561</ele>
        <time>2022-05-27T08:23:19.858Z</time>
      </trkpt>
      <trkpt lat="42.11106" lon="19.08566">
        <ele>44.739262</ele>
        <time>2022-05-27T08:23:22.883Z</time>
      </trkpt>
      <trkpt lat="42.11117" lon="19.08556">
        <ele>44.711815</ele>
        <time>2022-05-27T08:23:25.864Z</time>
      </trkpt>
      <trkpt lat="42.11126" lon="19.08548">
        <ele>44.841029</ele>
        <time>2022-05-27T08:23:28.867Z</time>
      </trkpt>
      <trkpt lat="42.11137" lon="19.0854">
        <ele>44.982608</ele>
        <time>2022-05-27T08:23:31.857Z</time>
      </trkpt>
      <trkpt lat="42.11144" lon="19.08533">
        <ele>45.089558</ele>
        <time>2022-05-27T08:23:33.846Z</time>
      </trkpt>
      <trkpt lat="42.11152" lon="19.08526">
        <ele>45.195568</ele>
        <time>2022-05-27T08:23:35.871Z</time>
      </trkpt>
      <trkpt lat="42.11163" lon="19.08517">
        <ele>45.348818</ele>
        <time>2022-05-27T08:23:38.899Z</time>
      </trkpt>
      <trkpt lat="42.11174" lon="19.08508">
        <ele>45.494703</ele>
        <time>2022-05-27T08:23:41.870Z</time>
      </trkpt>
      <trkpt lat="42.11185" lon="19.08499">
        <ele>45.641043</ele>
        <time>2022-05-27T08:23:44.866Z</time>
      </trkpt>
      <trkpt lat="42.11196" lon="19.0849">
        <ele>45.793299</ele>
        <time>2022-05-27T08:23:47.869Z</time>
      </trkpt>
      <trkpt lat="42.11207" lon="19.08481">
        <ele>45.942251</ele>
        <time>2022-05-27T08:23:50.868Z</time>
      </trkpt>
      <trkpt lat="42.11218" lon="19.08471">
        <ele>46.092841</ele>
        <time>2022-05-27T08:23:53.879Z</time>
      </trkpt>
      <trkpt lat="42.11226" lon="19.08464">
        <ele>46.200756</ele>
        <time>2022-05-27T08:23:55.882Z</time>
      </trkpt>
      <trkpt lat="42.11237" lon="19.08454">
        <ele>46.355284</ele>
        <time>2022-05-27T08:23:58.887Z</time>
      </trkpt>
      <trkpt lat="42.11248" lon="19.08443">
        <ele>46.509718</ele>
        <time>2022-05-27T08:24:01.866Z</time>
      </trkpt>
      <trkpt lat="42.11259" lon="19.08435">
        <ele>46.654291</ele>
        <time>2022-05-27T08:24:04.853Z</time>
      </trkpt>
      <trkpt lat="42.11268" lon="19.08428">
        <ele>46.813829</ele>
        <time>2022-05-27T08:24:07.874Z</time>
      </trkpt>
      <trkpt lat="42.11277" lon="19.0842">
        <ele>47.245915</ele>
        <time>2022-05-27T08:24:10.880Z</time>
      </trkpt>
      <trkpt lat="42.11287" lon="19.08411">
        <ele>47.737757</ele>
        <time>2022-05-27T08:24:13.882Z</time>
      </trkpt>
      <trkpt lat="42.11297" lon="19.08402">
        <ele>48.250217</ele>
        <time>2022-05-27T08:24:16.867Z</time>
      </trkpt>
      <trkpt lat="42.11306" lon="19.08393">
        <ele>48.704561</ele>
        <time>2022-05-27T08:24:19.874Z</time>
      </trkpt>
      <trkpt lat="42.11315" lon="19.08385">
        <ele>49.123598</ele>
        <time>2022-05-27T08:24:23.870Z</time>
      </trkpt>
      <trkpt lat="42.11322" lon="19.08378">
        <ele>49.501257</ele>
        <time>2022-05-27T08:24:26.872Z</time>
      </trkpt>
      <trkpt lat="42.11332" lon="19.08369">
        <ele>49.974292</ele>
        <time>2022-05-27T08:24:30.851Z</time>
      </trkpt>
      <trkpt lat="42.11341" lon="19.08361">
        <ele>50.420285</ele>
        <time>2022-05-27T08:24:35.861Z</time>
      </trkpt>
      <trkpt lat="42.11351" lon="19.08357">
        <ele>50.846671</ele>
        <time>2022-05-27T08:24:40.865Z</time>
      </trkpt>
      <trkpt lat="42.1136" lon="19.08353">
        <ele>51.264209</ele>
        <time>2022-05-27T08:24:44.868Z</time>
      </trkpt>
      <trkpt lat="42.11369" lon="19.08346">
        <ele>51.701411</ele>
        <time>2022-05-27T08:24:48.897Z</time>
      </trkpt>
      <trkpt lat="42.11376" lon="19.08336">
        <ele>52.126525</ele>
        <time>2022-05-27T08:24:52.873Z</time>
      </trkpt>
      <trkpt lat="42.11383" lon="19.08326">
        <ele>52.547226</ele>
        <time>2022-05-27T08:24:56.922Z</time>
      </trkpt>
      <trkpt lat="42.11389" lon="19.08315">
        <ele>52.949687</ele>
        <time>2022-05-27T08:25:00.878Z</time>
      </trkpt>
      <trkpt lat="42.11395" lon="19.08304">
        <ele>53.366995</ele>
        <time>2022-05-27T08:25:04.872Z</time>
      </trkpt>
      <trkpt lat="42.11401" lon="19.08293">
        <ele>53.791699</ele>
        <time>2022-05-27T08:25:08.877Z</time>
      </trkpt>
      <trkpt lat="42.11407" lon="19.08282">
        <ele>54.201945</ele>
        <time>2022-05-27T08:25:12.855Z</time>
      </trkpt>
      <trkpt lat="42.11413" lon="19.08272">
        <ele>54.550003</ele>
        <time>2022-05-27T08:25:16.877Z</time>
      </trkpt>
      <trkpt lat="42.11418" lon="19.08262">
        <ele>54.897968</ele>
        <time>2022-05-27T08:25:20.875Z</time>
      </trkpt>
      <trkpt lat="42.11422" lon="19.08251">
        <ele>55.234828</ele>
        <time>2022-05-27T08:25:24.861Z</time>
      </trkpt>
      <trkpt lat="42.11428" lon="19.08238">
        <ele>55.638254</ele>
        <time>2022-05-27T08:25:29.878Z</time>
      </trkpt>
      <trkpt lat="42.11433" lon="19.08226">
        <ele>56.027083</ele>
        <time>2022-05-27T08:25:34.924Z</time>
      </trkpt>
      <trkpt lat="42.11439" lon="19.08216">
        <ele>56.3929</ele>
        <time>2022-05-27T08:25:39.883Z</time>
      </trkpt>
      <trkpt lat="42.11445" lon="19.08204">
        <ele>56.783186</ele>
        <time>2022-05-27T08:25:44.882Z</time>
      </trkpt>
      <trkpt lat="42.11448" lon="19.08191">
        <ele>57.161965</ele>
        <time>2022-05-27T08:25:50.874Z</time>
      </trkpt>
      <trkpt lat="42.11452" lon="19.08179">
        <ele>57.526526</ele>
        <time>2022-05-27T08:25:55.882Z</time>
      </trkpt>
      <trkpt lat="42.11457" lon="19.08166">
        <ele>57.92995</ele>
        <time>2022-05-27T08:26:00.889Z</time>
      </trkpt>
      <trkpt lat="42.11463" lon="19.08155">
        <ele>58.315797</ele>
        <time>2022-05-27T08:26:05.875Z</time>
      </trkpt>
      <trkpt lat="42.11469" lon="19.08143">
        <ele>58.72612</ele>
        <time>2022-05-27T08:26:10.870Z</time>
      </trkpt>
      <trkpt lat="42.11475" lon="19.08131">
        <ele>59.134864</ele>
        <time>2022-05-27T08:26:15.872Z</time>
      </trkpt>
      <trkpt lat="42.1148" lon="19.0812">
        <ele>59.487897</ele>
        <time>2022-05-27T08:26:19.918Z</time>
      </trkpt>
      <trkpt lat="42.11484" lon="19.08107">
        <ele>59.861859</ele>
        <time>2022-05-27T08:26:23.875Z</time>
      </trkpt>
      <trkpt lat="42.11489" lon="19.08095">
        <ele>60.263496</ele>
        <time>2022-05-27T08:26:28.868Z</time>
      </trkpt>
      <trkpt lat="42.11495" lon="19.08083">
        <ele>60.651729</ele>
        <time>2022-05-27T08:26:32.871Z</time>
      </trkpt>
      <trkpt lat="42.11501" lon="19.08071">
        <ele>60.972426</ele>
        <time>2022-05-27T08:26:37.870Z</time>
      </trkpt>
      <trkpt lat="42.11507" lon="19.08059">
        <ele>61.14419</ele>
        <time>2022-05-27T08:26:41.876Z</time>
      </trkpt>
      <trkpt lat="42.11514" lon="19.08046">
        <ele>61.331108</ele>
        <time>2022-05-27T08:26:45.867Z</time>
      </trkpt>
      <trkpt lat="42.1152" lon="19.08035">
        <ele>61.491931</ele>
        <time>2022-05-27T08:26:48.866Z</time>
      </trkpt>
      <trkpt lat="42.11527" lon="19.08025">
        <ele>61.647263</ele>
        <time>2022-05-27T08:26:51.864Z</time>
      </trkpt>
      <trkpt lat="42.11533" lon="19.08014">
        <ele>61.807885</ele>
        <time>2022-05-27T08:26:54.884Z</time>
      </trkpt>
      <trkpt lat="42.11539" lon="19.08004">
        <ele>61.966803</ele>
        <time>2022-05-27T08:26:57.876Z</time>
      </trkpt>
      <trkpt lat="42.11546" lon="19.07993">
        <ele>62.130433</ele>
        <time>2022-05-27T08:27:00.878Z</time>
      </trkpt>
      <trkpt lat="42.11552" lon="19.07982">
        <ele>62.292942</ele>
        <time>2022-05-27T08:27:03.908Z</time>
      </trkpt>
      <trkpt lat="42.11559" lon="19.07972">
        <ele>62.455056</ele>
        <time>2022-05-27T08:27:06.881Z</time>
      </trkpt>
      <trkpt lat="42.11565" lon="19.07961">
        <ele>62.616641</ele>
        <time>2022-05-27T08:27:09.878Z</time>
      </trkpt>
      <trkpt lat="42.1157" lon="19.0795">
        <ele>62.767898</ele>
        <time>2022-05-27T08:27:12.872Z</time>
      </trkpt>
      <trkpt lat="42.11576" lon="19.07939">
        <ele>62.925713</ele>
        <time>2022-05-27T08:27:15.913Z</time>
      </trkpt>
      <trkpt lat="42.11581" lon="19.07928">
        <ele>63.078843</ele>
        <time>2022-05-27T08:27:18.858Z</time>
      </trkpt>
      <trkpt lat="42.11588" lon="19.07917">
        <ele>63.2432</ele>
        <time>2022-05-27T08:27:21.886Z</time>
      </trkpt>
      <trkpt lat="42.11594" lon="19.07907">
        <ele>63.397801</ele>
        <time>2022-05-27T08:27:24.856Z</time>
      </trkpt>
      <trkpt lat="42.116" lon="19.07896">
        <ele>63.559386</ele>
        <time>2022-05-27T08:27:27.870Z</time>
      </trkpt>
      <trkpt lat="42.11607" lon="19.07884">
        <ele>63.727501</ele>
        <time>2022-05-27T08:27:30.887Z</time>
      </trkpt>
      <trkpt lat="42.11613" lon="19.07872">
        <ele>63.658295</ele>
        <time>2022-05-27T08:27:33.923Z</time>
      </trkpt>
      <trkpt lat="42.11618" lon="19.07861">
        <ele>63.561104</ele>
        <time>2022-05-27T08:27:36.872Z</time>
      </trkpt>
      <trkpt lat="42.11625" lon="19.07848">
        <ele>63.455881</ele>
        <time>2022-05-27T08:27:39.899Z</time>
      </trkpt>
      <trkpt lat="42.1163" lon="19.07837">
        <ele>63.35637</ele>
        <time>2022-05-27T08:27:42.870Z</time>
      </trkpt>
      <trkpt lat="42.11635" lon="19.07825">
        <ele>63.260658</ele>
        <time>2022-05-27T08:27:45.880Z</time>
      </trkpt>
      <trkpt lat="42.11641" lon="19.07814">
        <ele>63.163467</ele>
        <time>2022-05-27T08:27:48.879Z</time>
      </trkpt>
      <trkpt lat="42.11647" lon="19.07802">
        <ele>63.058418</ele>
        <time>2022-05-27T08:27:51.878Z</time>
      </trkpt>
      <trkpt lat="42.11654" lon="19.07789">
        <ele>62.949266</ele>
        <time>2022-05-27T08:27:54.898Z</time>
      </trkpt>
      <trkpt lat="42.1166" lon="19.07777">
        <ele>62.837829</ele>
        <time>2022-05-27T08:27:57.877Z</time>
      </trkpt>
      <trkpt lat="42.11667" lon="19.07762">
        <ele>62.714072</ele>
        <time>2022-05-27T08:28:00.869Z</time>
      </trkpt>
      <trkpt lat="42.11672" lon="19.07751">
        <ele>62.620972</ele>
        <time>2022-05-27T08:28:02.868Z</time>
      </trkpt>
      <trkpt lat="42.11677" lon="19.07741">
        <ele>62.531274</ele>
        <time>2022-05-27T08:28:04.873Z</time>
      </trkpt>
      <trkpt lat="42.11683" lon="19.0773">
        <ele>62.441515</ele>
        <time>2022-05-27T08:28:06.868Z</time>
      </trkpt>
      <trkpt lat="42.11688" lon="19.07718">
        <ele>62.33708</ele>
        <time>2022-05-27T08:28:08.891Z</time>
      </trkpt>
      <trkpt lat="42.11693" lon="19.07706">
        <ele>62.239841</ele>
        <time>2022-05-27T08:28:10.863Z</time>
      </trkpt>
      <trkpt lat="42.11698" lon="19.07693">
        <ele>62.13844</ele>
        <time>2022-05-27T08:28:12.882Z</time>
      </trkpt>
      <trkpt lat="42.11703" lon="19.0768">
        <ele>62.031787</ele>
        <time>2022-05-27T08:28:14.872Z</time>
      </trkpt>
      <trkpt lat="42.11708" lon="19.07664">
        <ele>61.437609</ele>
        <time>2022-05-27T08:28:16.876Z</time>
      </trkpt>
      <trkpt lat="42.11713" lon="19.07648">
        <ele>60.805876</ele>
        <time>2022-05-27T08:28:18.885Z</time>
      </trkpt>
      <trkpt lat="42.11719" lon="19.07634">
        <ele>60.170173</ele>
        <time>2022-05-27T08:28:20.879Z</time>
      </trkpt>
      <trkpt lat="42.11725" lon="19.07618">
        <ele>59.513669</ele>
        <time>2022-05-27T08:28:22.920Z</time>
      </trkpt>
      <trkpt lat="42.11732" lon="19.07599">
        <ele>58.702759</ele>
        <time>2022-05-27T08:28:24.866Z</time>
      </trkpt>
      <trkpt lat="42.11742" lon="19.07582">
        <ele>57.899471</ele>
        <time>2022-05-27T08:28:26.866Z</time>
      </trkpt>
      <trkpt lat="42.11751" lon="19.07566">
        <ele>57.114364</ele>
        <time>2022-05-27T08:28:28.884Z</time>
      </trkpt>
      <trkpt lat="42.1176" lon="19.0755">
        <ele>56.371487</ele>
        <time>2022-05-27T08:28:30.856Z</time>
      </trkpt>
      <trkpt lat="42.11769" lon="19.07534">
        <ele>55.60433</ele>
        <time>2022-05-27T08:28:32.885Z</time>
      </trkpt>
      <trkpt lat="42.11779" lon="19.07519">
        <ele>54.863337</ele>
        <time>2022-05-27T08:28:34.862Z</time>
      </trkpt>
      <trkpt lat="42.11786" lon="19.07507">
        <ele>54.247209</ele>
        <time>2022-05-27T08:28:36.880Z</time>
      </trkpt>
      <trkpt lat="42.11794" lon="19.07495">
        <ele>53.657875</ele>
        <time>2022-05-27T08:28:38.867Z</time>
      </trkpt>
      <trkpt lat="42.11802" lon="19.07482">
        <ele>53.053324</ele>
        <time>2022-05-27T08:28:40.872Z</time>
      </trkpt>
      <trkpt lat="42.11808" lon="19.07471">
        <ele>53.078695</ele>
        <time>2022-05-27T08:28:42.879Z</time>
      </trkpt>
      <trkpt lat="42.11815" lon="19.0746">
        <ele>53.383961</ele>
        <time>2022-05-27T08:28:44.872Z</time>
      </trkpt>
      <trkpt lat="42.1182" lon="19.07449">
        <ele>53.690946</ele>
        <time>2022-05-27T08:28:46.878Z</time>
      </trkpt>
      <trkpt lat="42.11829" lon="19.07439">
        <ele>54.031282</ele>
        <time>2022-05-27T08:28:48.869Z</time>
      </trkpt>
      <trkpt lat="42.11837" lon="19.07426">
        <ele>54.401662</ele>
        <time>2022-05-27T08:28:51.896Z</time>
      </trkpt>
      <trkpt lat="42.11844" lon="19.07417">
        <ele>54.702604</ele>
        <time>2022-05-27T08:28:54.859Z</time>
      </trkpt>
      <trkpt lat="42.11852" lon="19.07406">
        <ele>55.064293</ele>
        <time>2022-05-27T08:28:58.869Z</time>
      </trkpt>
      <trkpt lat="42.1186" lon="19.07396">
        <ele>55.405317</ele>
        <time>2022-05-27T08:29:02.876Z</time>
      </trkpt>
      <trkpt lat="42.11867" lon="19.07387">
        <ele>55.683243</ele>
        <time>2022-05-27T08:29:06.901Z</time>
      </trkpt>
      <trkpt lat="42.11875" lon="19.07377">
        <ele>56.013787</ele>
        <time>2022-05-27T08:29:13.874Z</time>
      </trkpt>
      <trkpt lat="42.11883" lon="19.07367">
        <ele>56.343011</ele>
        <time>2022-05-27T08:29:17.906Z</time>
      </trkpt>
      <trkpt lat="42.1189" lon="19.07357">
        <ele>56.648311</ele>
        <time>2022-05-27T08:29:20.881Z</time>
      </trkpt>
      <trkpt lat="42.11896" lon="19.07348">
        <ele>56.932231</ele>
        <time>2022-05-27T08:29:23.874Z</time>
      </trkpt>
      <trkpt lat="42.11904" lon="19.07337">
        <ele>57.264721</ele>
        <time>2022-05-27T08:29:27.877Z</time>
      </trkpt>
      <trkpt lat="42.11912" lon="19.07325">
        <ele>57.617412</ele>
        <time>2022-05-27T08:29:31.866Z</time>
      </trkpt>
      <trkpt lat="42.11919" lon="19.07315">
        <ele>57.947838</ele>
        <time>2022-05-27T08:29:35.870Z</time>
      </trkpt>
      <trkpt lat="42.11925" lon="19.07304">
        <ele>58.256509</ele>
        <time>2022-05-27T08:29:39.909Z</time>
      </trkpt>
      <trkpt lat="42.11931" lon="19.07292">
        <ele>58.490318</ele>
        <time>2022-05-27T08:29:43.876Z</time>
      </trkpt>
      <trkpt lat="42.11937" lon="19.07282">
        <ele>58.678427</ele>
        <time>2022-05-27T08:29:47.876Z</time>
      </trkpt>
      <trkpt lat="42.11943" lon="19.07271">
        <ele>58.884356</ele>
        <time>2022-05-27T08:29:51.869Z</time>
      </trkpt>
      <trkpt lat="42.1195" lon="19.07258">
        <ele>59.108099</ele>
        <time>2022-05-27T08:29:55.865Z</time>
      </trkpt>
      <trkpt lat="42.11957" lon="19.07247">
        <ele>59.331912</ele>
        <time>2022-05-27T08:29:59.884Z</time>
      </trkpt>
      <trkpt lat="42.11963" lon="19.07236">
        <ele>59.525921</ele>
        <time>2022-05-27T08:30:02.859Z</time>
      </trkpt>
      <trkpt lat="42.11969" lon="19.07227">
        <ele>59.710655</ele>
        <time>2022-05-27T08:30:05.880Z</time>
      </trkpt>
      <trkpt lat="42.11975" lon="19.07217">
        <ele>59.900091</ele>
        <time>2022-05-27T08:30:08.852Z</time>
      </trkpt>
      <trkpt lat="42.11981" lon="19.07207">
        <ele>60.092457</ele>
        <time>2022-05-27T08:30:11.855Z</time>
      </trkpt>
      <trkpt lat="42.11987" lon="19.07197">
        <ele>60.284823</ele>
        <time>2022-05-27T08:30:14.877Z</time>
      </trkpt>
      <trkpt lat="42.11996" lon="19.07186">
        <ele>60.514865</ele>
        <time>2022-05-27T08:30:17.882Z</time>
      </trkpt>
      <trkpt lat="42.12003" lon="19.07177">
        <ele>60.713036</ele>
        <time>2022-05-27T08:30:19.956Z</time>
      </trkpt>
      <trkpt lat="42.1201" lon="19.07167">
        <ele>60.920255</ele>
        <time>2022-05-27T08:30:21.866Z</time>
      </trkpt>
      <trkpt lat="42.12019" lon="19.07157">
        <ele>61.152134</ele>
        <time>2022-05-27T08:30:23.874Z</time>
      </trkpt>
      <trkpt lat="42.12028" lon="19.07146">
        <ele>61.399427</ele>
        <time>2022-05-27T08:30:25.872Z</time>
      </trkpt>
      <trkpt lat="42.1204" lon="19.07132">
        <ele>61.721957</ele>
        <time>2022-05-27T08:30:27.873Z</time>
      </trkpt>
      <trkpt lat="42.12053" lon="19.07117">
        <ele>61.728404</ele>
        <time>2022-05-27T08:30:29.866Z</time>
      </trkpt>
      <trkpt lat="42.12066" lon="19.07101">
        <ele>61.329999</ele>
        <time>2022-05-27T08:30:31.874Z</time>
      </trkpt>
      <trkpt lat="42.12076" lon="19.07082">
        <ele>60.928911</ele>
        <time>2022-05-27T08:30:33.854Z</time>
      </trkpt>
      <trkpt lat="42.12082" lon="19.0706">
        <ele>60.526007</ele>
        <time>2022-05-27T08:30:35.881Z</time>
      </trkpt>
      <trkpt lat="42.12084" lon="19.07048">
        <ele>60.31448</ele>
        <time>2022-05-27T08:30:36.878Z</time>
      </trkpt>
      <trkpt lat="42.12087" lon="19.07035">
        <ele>60.08524</ele>
        <time>2022-05-27T08:30:37.878Z</time>
      </trkpt>
      <trkpt lat="42.12088" lon="19.07022">
        <ele>59.855823</ele>
        <time>2022-05-27T08:30:38.904Z</time>
      </trkpt>
      <trkpt lat="42.12089" lon="19.07008">
        <ele>59.624575</ele>
        <time>2022-05-27T08:30:39.917Z</time>
      </trkpt>
      <trkpt lat="42.1209" lon="19.06995">
        <ele>59.39379</ele>
        <time>2022-05-27T08:30:40.898Z</time>
      </trkpt>
      <trkpt lat="42.12091" lon="19.06982">
        <ele>59.166198</ele>
        <time>2022-05-27T08:30:41.925Z</time>
      </trkpt>
      <trkpt lat="42.12092" lon="19.06967">
        <ele>58.920783</ele>
        <time>2022-05-27T08:30:42.860Z</time>
      </trkpt>
      <trkpt lat="42.12095" lon="19.06954">
        <ele>58.692573</ele>
        <time>2022-05-27T08:30:43.861Z</time>
      </trkpt>
      <trkpt lat="42.12097" lon="19.06941">
        <ele>58.45808</ele>
        <time>2022-05-27T08:30:44.864Z</time>
      </trkpt>
      <trkpt lat="42.12101" lon="19.06928">
        <ele>58.214433</ele>
        <time>2022-05-27T08:30:45.845Z</time>
      </trkpt>
      <trkpt lat="42.12106" lon="19.06914">
        <ele>57.954546</ele>
        <time>2022-05-27T08:30:46.849Z</time>
      </trkpt>
      <trkpt lat="42.12112" lon="19.06903">
        <ele>57.700367</ele>
        <time>2022-05-27T08:30:47.854Z</time>
      </trkpt>
      <trkpt lat="42.12119" lon="19.06892">
        <ele>57.360843</ele>
        <time>2022-05-27T08:30:48.865Z</time>
      </trkpt>
      <trkpt lat="42.12127" lon="19.06882">
        <ele>56.998818</ele>
        <time>2022-05-27T08:30:49.877Z</time>
      </trkpt>
      <trkpt lat="42.12137" lon="19.06873">
        <ele>56.640525</ele>
        <time>2022-05-27T08:30:50.855Z</time>
      </trkpt>
      <trkpt lat="42.12146" lon="19.06865">
        <ele>56.287357</ele>
        <time>2022-05-27T08:30:51.871Z</time>
      </trkpt>
      <trkpt lat="42.12156" lon="19.06857">
        <ele>55.918359</ele>
        <time>2022-05-27T08:30:52.851Z</time>
      </trkpt>
      <trkpt lat="42.12166" lon="19.06849">
        <ele>55.55581</ele>
        <time>2022-05-27T08:30:53.880Z</time>
      </trkpt>
      <trkpt lat="42.12175" lon="19.06841">
        <ele>55.205121</ele>
        <time>2022-05-27T08:30:54.863Z</time>
      </trkpt>
      <trkpt lat="42.12184" lon="19.06834">
        <ele>54.867505</ele>
        <time>2022-05-27T08:30:55.866Z</time>
      </trkpt>
      <trkpt lat="42.12193" lon="19.06826">
        <ele>54.534384</ele>
        <time>2022-05-27T08:30:56.862Z</time>
      </trkpt>
      <trkpt lat="42.12201" lon="19.06818">
        <ele>54.214244</ele>
        <time>2022-05-27T08:30:57.863Z</time>
      </trkpt>
      <trkpt lat="42.12209" lon="19.0681">
        <ele>53.894104</ele>
        <time>2022-05-27T08:30:58.884Z</time>
      </trkpt>
      <trkpt lat="42.12216" lon="19.06802">
        <ele>53.597561</ele>
        <time>2022-05-27T08:30:59.867Z</time>
      </trkpt>
      <trkpt lat="42.12223" lon="19.06794">
        <ele>53.310487</ele>
        <time>2022-05-27T08:31:00.884Z</time>
      </trkpt>
      <trkpt lat="42.12234" lon="19.06776">
        <ele>52.753325</ele>
        <time>2022-05-27T08:31:02.903Z</time>
      </trkpt>
      <trkpt lat="42.12244" lon="19.06761">
        <ele>52.268585</ele>
        <time>2022-05-27T08:31:04.861Z</time>
      </trkpt>
      <trkpt lat="42.12253" lon="19.06749">
        <ele>52.130108</ele>
        <time>2022-05-27T08:31:06.873Z</time>
      </trkpt>
      <trkpt lat="42.12259" lon="19.06738">
        <ele>52.433572</ele>
        <time>2022-05-27T08:31:08.872Z</time>
      </trkpt>
      <trkpt lat="42.12267" lon="19.06723">
        <ele>52.833438</ele>
        <time>2022-05-27T08:31:11.880Z</time>
      </trkpt>
      <trkpt lat="42.12273" lon="19.0671">
        <ele>53.169626</ele>
        <time>2022-05-27T08:31:14.881Z</time>
      </trkpt>
      <trkpt lat="42.12278" lon="19.06699">
        <ele>53.459718</ele>
        <time>2022-05-27T08:31:17.854Z</time>
      </trkpt>
      <trkpt lat="42.12283" lon="19.06688">
        <ele>53.735454</ele>
        <time>2022-05-27T08:31:20.886Z</time>
      </trkpt>
      <trkpt lat="42.12287" lon="19.06676">
        <ele>54.024718</ele>
        <time>2022-05-27T08:31:24.897Z</time>
      </trkpt>
      <trkpt lat="42.12291" lon="19.06664">
        <ele>54.301614</ele>
        <time>2022-05-27T08:31:27.862Z</time>
      </trkpt>
      <trkpt lat="42.12293" lon="19.06653">
        <ele>54.565909</ele>
        <time>2022-05-27T08:31:32.865Z</time>
      </trkpt>
      <trkpt lat="42.12296" lon="19.0664">
        <ele>54.862331</ele>
        <time>2022-05-27T08:31:36.865Z</time>
      </trkpt>
      <trkpt lat="42.12298" lon="19.06628">
        <ele>55.131238</ele>
        <time>2022-05-27T08:31:40.846Z</time>
      </trkpt>
      <trkpt lat="42.12299" lon="19.06613">
        <ele>55.452324</ele>
        <time>2022-05-27T08:31:45.879Z</time>
      </trkpt>
      <trkpt lat="42.12299" lon="19.06601">
        <ele>55.721158</ele>
        <time>2022-05-27T08:31:49.882Z</time>
      </trkpt>
      <trkpt lat="42.12299" lon="19.06586">
        <ele>56.037826</ele>
        <time>2022-05-27T08:31:54.874Z</time>
      </trkpt>
      <trkpt lat="42.12299" lon="19.06574">
        <ele>56.308601</ele>
        <time>2022-05-27T08:31:58.865Z</time>
      </trkpt>
      <trkpt lat="42.12298" lon="19.06562">
        <ele>56.576005</ele>
        <time>2022-05-27T08:32:02.877Z</time>
      </trkpt>
      <trkpt lat="42.12296" lon="19.06549">
        <ele>56.856809</ele>
        <time>2022-05-27T08:32:07.864Z</time>
      </trkpt>
      <trkpt lat="42.12294" lon="19.06536">
        <ele>57.151501</ele>
        <time>2022-05-27T08:32:13.877Z</time>
      </trkpt>
      <trkpt lat="42.12292" lon="19.06522">
        <ele>57.766426</ele>
        <time>2022-05-27T08:32:18.882Z</time>
      </trkpt>
      <trkpt lat="42.1229" lon="19.06508">
        <ele>58.83757</ele>
        <time>2022-05-27T08:32:24.868Z</time>
      </trkpt>
      <trkpt lat="42.12287" lon="19.06494">
        <ele>59.884064</ele>
        <time>2022-05-27T08:32:29.878Z</time>
      </trkpt>
      <trkpt lat="42.12286" lon="19.06481">
        <ele>60.845387</ele>
        <time>2022-05-27T08:32:35.867Z</time>
      </trkpt>
      <trkpt lat="42.12286" lon="19.06467">
        <ele>61.869234</ele>
        <time>2022-05-27T08:32:41.870Z</time>
      </trkpt>
      <trkpt lat="42.12287" lon="19.06452">
        <ele>62.899658</ele>
        <time>2022-05-27T08:32:47.876Z</time>
      </trkpt>
      <trkpt lat="42.1229" lon="19.0644">
        <ele>63.82612</ele>
        <time>2022-05-27T08:32:53.880Z</time>
      </trkpt>
      <trkpt lat="42.12293" lon="19.06428">
        <ele>64.738824</ele>
        <time>2022-05-27T08:33:00.877Z</time>
      </trkpt>
      <trkpt lat="42.12297" lon="19.06416">
        <ele>65.67956</ele>
        <time>2022-05-27T08:33:07.858Z</time>
      </trkpt>
      <trkpt lat="42.12303" lon="19.06405">
        <ele>66.635236</ele>
        <time>2022-05-27T08:33:12.881Z</time>
      </trkpt>
      <trkpt lat="42.12309" lon="19.06396">
        <ele>67.552997</ele>
        <time>2022-05-27T08:33:16.866Z</time>
      </trkpt>
      <trkpt lat="42.12316" lon="19.06387">
        <ele>68.469223</ele>
        <time>2022-05-27T08:33:21.866Z</time>
      </trkpt>
      <trkpt lat="42.12324" lon="19.0638">
        <ele>69.400203</ele>
        <time>2022-05-27T08:33:27.855Z</time>
      </trkpt>
      <trkpt lat="42.12333" lon="19.06373">
        <ele>70.392672</ele>
        <time>2022-05-27T08:33:33.863Z</time>
      </trkpt>
      <trkpt lat="42.12342" lon="19.06368">
        <ele>71.368607</ele>
        <time>2022-05-27T08:33:38.863Z</time>
      </trkpt>
      <trkpt lat="42.12351" lon="19.06364">
        <ele>72.318494</ele>
        <time>2022-05-27T08:33:43.861Z</time>
      </trkpt>
      <trkpt lat="42.12361" lon="19.06362">
        <ele>73.263761</ele>
        <time>2022-05-27T08:33:48.870Z</time>
      </trkpt>
      <trkpt lat="42.1237" lon="19.0636">
        <ele>74.192719</ele>
        <time>2022-05-27T08:33:53.865Z</time>
      </trkpt>
      <trkpt lat="42.1238" lon="19.0636">
        <ele>74.977084</ele>
        <time>2022-05-27T08:33:58.856Z</time>
      </trkpt>
      <trkpt lat="42.1239" lon="19.0636">
        <ele>75.504729</ele>
        <time>2022-05-27T08:34:03.876Z</time>
      </trkpt>
      <trkpt lat="42.124" lon="19.06362">
        <ele>76.076333</ele>
        <time>2022-05-27T08:34:09.883Z</time>
      </trkpt>
      <trkpt lat="42.1241" lon="19.06364">
        <ele>76.626288</ele>
        <time>2022-05-27T08:34:15.849Z</time>
      </trkpt>
      <trkpt lat="42.1242" lon="19.06367">
        <ele>77.170156</ele>
        <time>2022-05-27T08:34:21.864Z</time>
      </trkpt>
      <trkpt lat="42.12429" lon="19.06371">
        <ele>77.684771</ele>
        <time>2022-05-27T08:34:26.904Z</time>
      </trkpt>
      <trkpt lat="42.12439" lon="19.06376">
        <ele>78.218467</ele>
        <time>2022-05-27T08:34:31.874Z</time>
      </trkpt>
      <trkpt lat="42.12448" lon="19.06382">
        <ele>78.796761</ele>
        <time>2022-05-27T08:34:36.874Z</time>
      </trkpt>
      <trkpt lat="42.12457" lon="19.0639">
        <ele>79.327404</ele>
        <time>2022-05-27T08:34:41.864Z</time>
      </trkpt>
      <trkpt lat="42.12465" lon="19.06396">
        <ele>79.831665</ele>
        <time>2022-05-27T08:34:46.888Z</time>
      </trkpt>
      <trkpt lat="42.12472" lon="19.06404">
        <ele>80.314162</ele>
        <time>2022-05-27T08:34:51.884Z</time>
      </trkpt>
      <trkpt lat="42.1248" lon="19.06413">
        <ele>80.891379</ele>
        <time>2022-05-27T08:34:57.871Z</time>
      </trkpt>
      <trkpt lat="42.12489" lon="19.06421">
        <ele>81.451121</ele>
        <time>2022-05-27T08:35:02.888Z</time>
      </trkpt>
      <trkpt lat="42.12497" lon="19.06429">
        <ele>82.017744</ele>
        <time>2022-05-27T08:35:07.884Z</time>
      </trkpt>
      <trkpt lat="42.12505" lon="19.06438">
        <ele>82.57539</ele>
        <time>2022-05-27T08:35:13.847Z</time>
      </trkpt>
      <trkpt lat="42.12513" lon="19.06446">
        <ele>83.092051</ele>
        <time>2022-05-27T08:35:20.883Z</time>
      </trkpt>
      <trkpt lat="42.1252" lon="19.06453">
        <ele>83.580225</ele>
        <time>2022-05-27T08:35:26.879Z</time>
      </trkpt>
      <trkpt lat="42.12529" lon="19.0646">
        <ele>84.138269</ele>
        <time>2022-05-27T08:35:31.879Z</time>
      </trkpt>
      <trkpt lat="42.12538" lon="19.06467">
        <ele>84.411207</ele>
        <time>2022-05-27T08:35:36.876Z</time>
      </trkpt>
      <trkpt lat="42.12548" lon="19.06472">
        <ele>84.294286</ele>
        <time>2022-05-27T08:35:41.870Z</time>
      </trkpt>
      <trkpt lat="42.12557" lon="19.06477">
        <ele>84.184195</ele>
        <time>2022-05-27T08:35:46.866Z</time>
      </trkpt>
      <trkpt lat="42.12567" lon="19.06481">
        <ele>84.068499</ele>
        <time>2022-05-27T08:35:50.846Z</time>
      </trkpt>
      <trkpt lat="42.12576" lon="19.06485">
        <ele>83.967309</ele>
        <time>2022-05-27T08:35:53.924Z</time>
      </trkpt>
      <trkpt lat="42.12587" lon="19.06489">
        <ele>83.84174</ele>
        <time>2022-05-27T08:35:57.876Z</time>
      </trkpt>
      <trkpt lat="42.12597" lon="19.06491">
        <ele>83.72855</ele>
        <time>2022-05-27T08:36:01.858Z</time>
      </trkpt>
      <trkpt lat="42.12607" lon="19.06493">
        <ele>83.606272</ele>
        <time>2022-05-27T08:36:05.879Z</time>
      </trkpt>
      <trkpt lat="42.12618" lon="19.06495">
        <ele>83.485813</ele>
        <time>2022-05-27T08:36:09.876Z</time>
      </trkpt>
      <trkpt lat="42.12628" lon="19.06497">
        <ele>83.373411</ele>
        <time>2022-05-27T08:36:13.872Z</time>
      </trkpt>
      <trkpt lat="42.1264" lon="19.06499">
        <ele>83.241762</ele>
        <time>2022-05-27T08:36:17.926Z</time>
      </trkpt>
      <trkpt lat="42.12652" lon="19.06499">
        <ele>83.107706</ele>
        <time>2022-05-27T08:36:21.865Z</time>
      </trkpt>
      <trkpt lat="42.12664" lon="19.06499">
        <ele>82.971376</ele>
        <time>2022-05-27T08:36:25.884Z</time>
      </trkpt>
      <trkpt lat="42.12675" lon="19.06498">
        <ele>82.848391</ele>
        <time>2022-05-27T08:36:28.902Z</time>
      </trkpt>
      <trkpt lat="42.12686" lon="19.06498">
        <ele>82.723262</ele>
        <time>2022-05-27T08:36:31.881Z</time>
      </trkpt>
      <trkpt lat="42.12697" lon="19.06497">
        <ele>82.596332</ele>
        <time>2022-05-27T08:36:34.898Z</time>
      </trkpt>
      <trkpt lat="42.12709" lon="19.06495">
        <ele>82.464071</ele>
        <time>2022-05-27T08:36:37.864Z</time>
      </trkpt>
      <trkpt lat="42.12718" lon="19.06493">
        <ele>81.992483</ele>
        <time>2022-05-27T08:36:39.868Z</time>
      </trkpt>
      <trkpt lat="42.12729" lon="19.0649">
        <ele>81.401992</ele>
        <time>2022-05-27T08:36:41.953Z</time>
      </trkpt>
      <trkpt lat="42.12739" lon="19.06485">
        <ele>80.795272</ele>
        <time>2022-05-27T08:36:43.866Z</time>
      </trkpt>
      <trkpt lat="42.12749" lon="19.06479">
        <ele>80.164841</ele>
        <time>2022-05-27T08:36:45.917Z</time>
      </trkpt>
      <trkpt lat="42.1276" lon="19.06472">
        <ele>79.474601</ele>
        <time>2022-05-27T08:36:47.875Z</time>
      </trkpt>
      <trkpt lat="42.12771" lon="19.06464">
        <ele>78.788055</ele>
        <time>2022-05-27T08:36:49.873Z</time>
      </trkpt>
      <trkpt lat="42.12783" lon="19.06454">
        <ele>78.013626</ele>
        <time>2022-05-27T08:36:51.878Z</time>
      </trkpt>
      <trkpt lat="42.12795" lon="19.06445">
        <ele>77.215141</ele>
        <time>2022-05-27T08:36:53.941Z</time>
      </trkpt>
      <trkpt lat="42.12807" lon="19.06434">
        <ele>76.394626</ele>
        <time>2022-05-27T08:36:55.871Z</time>
      </trkpt>
      <trkpt lat="42.1282" lon="19.06423">
        <ele>75.567156</ele>
        <time>2022-05-27T08:36:57.871Z</time>
      </trkpt>
      <trkpt lat="42.12832" lon="19.06413">
        <ele>74.751032</ele>
        <time>2022-05-27T08:36:59.857Z</time>
      </trkpt>
      <trkpt lat="42.12844" lon="19.06403">
        <ele>73.969656</ele>
        <time>2022-05-27T08:37:01.878Z</time>
      </trkpt>
      <trkpt lat="42.12856" lon="19.06394">
        <ele>73.212771</ele>
        <time>2022-05-27T08:37:03.865Z</time>
      </trkpt>
      <trkpt lat="42.12868" lon="19.06386">
        <ele>72.459422</ele>
        <time>2022-05-27T08:37:05.882Z</time>
      </trkpt>
      <trkpt lat="42.12882" lon="19.06378">
        <ele>72.111503</ele>
        <time>2022-05-27T08:37:07.855Z</time>
      </trkpt>
      <trkpt lat="42.12895" lon="19.06372">
        <ele>71.827145</ele>
        <time>2022-05-27T08:37:09.866Z</time>
      </trkpt>
      <trkpt lat="42.12909" lon="19.06365">
        <ele>71.539156</ele>
        <time>2022-05-27T08:37:11.885Z</time>
      </trkpt>
      <trkpt lat="42.12923" lon="19.0636">
        <ele>71.249649</ele>
        <time>2022-05-27T08:37:13.910Z</time>
      </trkpt>
      <trkpt lat="42.12937" lon="19.06355">
        <ele>70.973563</ele>
        <time>2022-05-27T08:37:15.873Z</time>
      </trkpt>
      <trkpt lat="42.12951" lon="19.06351">
        <ele>70.691576</ele>
        <time>2022-05-27T08:37:17.864Z</time>
      </trkpt>
      <trkpt lat="42.12964" lon="19.06347">
        <ele>70.42213</ele>
        <time>2022-05-27T08:37:19.869Z</time>
      </trkpt>
      <trkpt lat="42.12978" lon="19.06344">
        <ele>70.161417</ele>
        <time>2022-05-27T08:37:21.869Z</time>
      </trkpt>
      <trkpt lat="42.12991" lon="19.06341">
        <ele>69.902399</ele>
        <time>2022-05-27T08:37:23.875Z</time>
      </trkpt>
      <trkpt lat="42.13002" lon="19.06339">
        <ele>69.668039</ele>
        <time>2022-05-27T08:37:25.877Z</time>
      </trkpt>
      <trkpt lat="42.13014" lon="19.06336">
        <ele>69.442663</ele>
        <time>2022-05-27T08:37:27.890Z</time>
      </trkpt>
      <trkpt lat="42.13025" lon="19.06334">
        <ele>69.219947</ele>
        <time>2022-05-27T08:37:29.881Z</time>
      </trkpt>
      <trkpt lat="42.13036" lon="19.06332">
        <ele>69.00605</ele>
        <time>2022-05-27T08:37:31.881Z</time>
      </trkpt>
      <trkpt lat="42.13046" lon="19.06331">
        <ele>68.86965</ele>
        <time>2022-05-27T08:37:33.908Z</time>
      </trkpt>
      <trkpt lat="42.13056" lon="19.06329">
        <ele>68.984114</ele>
        <time>2022-05-27T08:37:35.917Z</time>
      </trkpt>
      <trkpt lat="42.13067" lon="19.06327">
        <ele>69.109146</ele>
        <time>2022-05-27T08:37:37.874Z</time>
      </trkpt>
      <trkpt lat="42.13076" lon="19.06326">
        <ele>69.214297</ele>
        <time>2022-05-27T08:37:39.880Z</time>
      </trkpt>
      <trkpt lat="42.13088" lon="19.06324">
        <ele>69.36151</ele>
        <time>2022-05-27T08:37:42.917Z</time>
      </trkpt>
      <trkpt lat="42.13101" lon="19.06321">
        <ele>69.513431</ele>
        <time>2022-05-27T08:37:45.899Z</time>
      </trkpt>
      <trkpt lat="42.13111" lon="19.0632">
        <ele>69.62176</ele>
        <time>2022-05-27T08:37:47.897Z</time>
      </trkpt>
      <trkpt lat="42.1312" lon="19.06319">
        <ele>69.727781</ele>
        <time>2022-05-27T08:37:49.892Z</time>
      </trkpt>
      <trkpt lat="42.13132" lon="19.06318">
        <ele>69.872065</ele>
        <time>2022-05-27T08:37:52.908Z</time>
      </trkpt>
      <trkpt lat="42.13144" lon="19.06316">
        <ele>70.009668</ele>
        <time>2022-05-27T08:37:55.884Z</time>
      </trkpt>
      <trkpt lat="42.13157" lon="19.06314">
        <ele>70.158806</ele>
        <time>2022-05-27T08:37:58.873Z</time>
      </trkpt>
      <trkpt lat="42.1317" lon="19.06313">
        <ele>70.314869</ele>
        <time>2022-05-27T08:38:01.862Z</time>
      </trkpt>
      <trkpt lat="42.1318" lon="19.06312">
        <ele>70.422983</ele>
        <time>2022-05-27T08:38:03.910Z</time>
      </trkpt>
      <trkpt lat="42.13189" lon="19.06311">
        <ele>70.538165</ele>
        <time>2022-05-27T08:38:05.876Z</time>
      </trkpt>
      <trkpt lat="42.13199" lon="19.0631">
        <ele>70.647283</ele>
        <time>2022-05-27T08:38:07.962Z</time>
      </trkpt>
      <trkpt lat="42.13209" lon="19.06309">
        <ele>70.761076</ele>
        <time>2022-05-27T08:38:09.902Z</time>
      </trkpt>
      <trkpt lat="42.13222" lon="19.06308">
        <ele>70.916691</ele>
        <time>2022-05-27T08:38:12.875Z</time>
      </trkpt>
      <trkpt lat="42.13231" lon="19.06308">
        <ele>71.014185</ele>
        <time>2022-05-27T08:38:14.883Z</time>
      </trkpt>
      <trkpt lat="42.13242" lon="19.06308">
        <ele>71.123978</ele>
        <time>2022-05-27T08:38:16.859Z</time>
      </trkpt>
      <trkpt lat="42.13253" lon="19.06308">
        <ele>71.243077</ele>
        <time>2022-05-27T08:38:18.875Z</time>
      </trkpt>
      <trkpt lat="42.13265" lon="19.06309">
        <ele>71.365427</ele>
        <time>2022-05-27T08:38:20.874Z</time>
      </trkpt>
      <trkpt lat="42.13277" lon="19.0631">
        <ele>71.490227</ele>
        <time>2022-05-27T08:38:22.874Z</time>
      </trkpt>
      <trkpt lat="42.13289" lon="19.06313">
        <ele>71.610087</ele>
        <time>2022-05-27T08:38:24.876Z</time>
      </trkpt>
      <trkpt lat="42.13299" lon="19.06316">
        <ele>71.722959</ele>
        <time>2022-05-27T08:38:26.904Z</time>
      </trkpt>
      <trkpt lat="42.13309" lon="19.06318">
        <ele>71.826104</ele>
        <time>2022-05-27T08:38:28.869Z</time>
      </trkpt>
      <trkpt lat="42.13319" lon="19.06321">
        <ele>71.928992</ele>
        <time>2022-05-27T08:38:30.876Z</time>
      </trkpt>
      <trkpt lat="42.13328" lon="19.06324">
        <ele>72.027009</ele>
        <time>2022-05-27T08:38:32.834Z</time>
      </trkpt>
      <trkpt lat="42.1334" lon="19.06328">
        <ele>72.155394</ele>
        <time>2022-05-27T08:38:35.876Z</time>
      </trkpt>
      <trkpt lat="42.13351" lon="19.06332">
        <ele>72.269595</ele>
        <time>2022-05-27T08:38:38.840Z</time>
      </trkpt>
      <trkpt lat="42.13361" lon="19.06336">
        <ele>72.383012</ele>
        <time>2022-05-27T08:38:41.861Z</time>
      </trkpt>
      <trkpt lat="42.13372" lon="19.0634">
        <ele>72.500618</ele>
        <time>2022-05-27T08:38:45.882Z</time>
      </trkpt>
      <trkpt lat="42.13381" lon="19.06344">
        <ele>72.600486</ele>
        <time>2022-05-27T08:38:49.871Z</time>
      </trkpt>
      <trkpt lat="42.13392" lon="19.06349">
        <ele>72.714814</ele>
        <time>2022-05-27T08:38:53.913Z</time>
      </trkpt>
      <trkpt lat="42.13402" lon="19.06353">
        <ele>72.703052</ele>
        <time>2022-05-27T08:38:56.862Z</time>
      </trkpt>
      <trkpt lat="42.13415" lon="19.06358">
        <ele>72.38081</ele>
        <time>2022-05-27T08:38:59.873Z</time>
      </trkpt>
      <trkpt lat="42.13424" lon="19.06363">
        <ele>72.146412</ele>
        <time>2022-05-27T08:39:01.916Z</time>
      </trkpt>
      <trkpt lat="42.13434" lon="19.06362">
        <ele>71.885676</ele>
        <time>2022-05-27T08:39:08.902Z</time>
      </trkpt>
      <trkpt lat="42.13454" lon="19.06371">
        <ele>71.37395</ele>
        <time>2022-05-27T08:40:29.882Z</time>
      </trkpt>
      <trkpt lat="42.13465" lon="19.06374">
        <ele>71.104217</ele>
        <time>2022-05-27T08:40:32.861Z</time>
      </trkpt>
      <trkpt lat="42.13476" lon="19.06377">
        <ele>70.83267</ele>
        <time>2022-05-27T08:40:35.874Z</time>
      </trkpt>
      <trkpt lat="42.13486" lon="19.06379">
        <ele>70.570363</ele>
        <time>2022-05-27T08:40:38.865Z</time>
      </trkpt>
      <trkpt lat="42.13498" lon="19.0638">
        <ele>70.287075</ele>
        <time>2022-05-27T08:40:41.874Z</time>
      </trkpt>
      <trkpt lat="42.1351" lon="19.06379">
        <ele>69.991691</ele>
        <time>2022-05-27T08:40:44.863Z</time>
      </trkpt>
      <trkpt lat="42.13522" lon="19.06378">
        <ele>69.682728</ele>
        <time>2022-05-27T08:40:47.901Z</time>
      </trkpt>
      <trkpt lat="42.13535" lon="19.06374">
        <ele>69.360489</ele>
        <time>2022-05-27T08:40:50.882Z</time>
      </trkpt>
      <trkpt lat="42.13547" lon="19.06368">
        <ele>69.047889</ele>
        <time>2022-05-27T08:40:53.864Z</time>
      </trkpt>
      <trkpt lat="42.13558" lon="19.06361">
        <ele>68.74577</ele>
        <time>2022-05-27T08:40:56.864Z</time>
      </trkpt>
      <trkpt lat="42.13569" lon="19.06354">
        <ele>68.444002</ele>
        <time>2022-05-27T08:40:59.863Z</time>
      </trkpt>
      <trkpt lat="42.1358" lon="19.06345">
        <ele>68.106255</ele>
        <time>2022-05-27T08:41:02.868Z</time>
      </trkpt>
      <trkpt lat="42.13587" lon="19.06338">
        <ele>67.85887</ele>
        <time>2022-05-27T08:41:04.869Z</time>
      </trkpt>
      <trkpt lat="42.13597" lon="19.06327">
        <ele>67.506862</ele>
        <time>2022-05-27T08:41:07.867Z</time>
      </trkpt>
      <trkpt lat="42.13608" lon="19.06315">
        <ele>67.141529</ele>
        <time>2022-05-27T08:41:10.869Z</time>
      </trkpt>
      <trkpt lat="42.13617" lon="19.06302">
        <ele>66.775205</ele>
        <time>2022-05-27T08:41:13.872Z</time>
      </trkpt>
      <trkpt lat="42.13624" lon="19.06292">
        <ele>66.494479</ele>
        <time>2022-05-27T08:41:15.865Z</time>
      </trkpt>
      <trkpt lat="42.1363" lon="19.06283">
        <ele>66.24337</ele>
        <time>2022-05-27T08:41:17.886Z</time>
      </trkpt>
      <trkpt lat="42.13639" lon="19.06268">
        <ele>65.869897</ele>
        <time>2022-05-27T08:41:20.875Z</time>
      </trkpt>
      <trkpt lat="42.13645" lon="19.06258">
        <ele>65.614919</ele>
        <time>2022-05-27T08:41:22.868Z</time>
      </trkpt>
      <trkpt lat="42.13651" lon="19.06248">
        <ele>65.342336</ele>
        <time>2022-05-27T08:41:24.876Z</time>
      </trkpt>
      <trkpt lat="42.13656" lon="19.06236">
        <ele>65.063077</ele>
        <time>2022-05-27T08:41:26.870Z</time>
      </trkpt>
      <trkpt lat="42.13662" lon="19.06226">
        <ele>64.804971</ele>
        <time>2022-05-27T08:41:28.873Z</time>
      </trkpt>
      <trkpt lat="42.13667" lon="19.06215">
        <ele>64.550638</ele>
        <time>2022-05-27T08:41:30.862Z</time>
      </trkpt>
      <trkpt lat="42.13672" lon="19.06203">
        <ele>64.255948</ele>
        <time>2022-05-27T08:41:32.877Z</time>
      </trkpt>
      <trkpt lat="42.13677" lon="19.0619">
        <ele>63.970843</ele>
        <time>2022-05-27T08:41:34.879Z</time>
      </trkpt>
      <trkpt lat="42.13683" lon="19.06175">
        <ele>63.620713</ele>
        <time>2022-05-27T08:41:37.879Z</time>
      </trkpt>
      <trkpt lat="42.13689" lon="19.0616">
        <ele>63.342826</ele>
        <time>2022-05-27T08:41:39.869Z</time>
      </trkpt>
      <trkpt lat="42.13693" lon="19.06145">
        <ele>63.133097</ele>
        <time>2022-05-27T08:41:41.886Z</time>
      </trkpt>
      <trkpt lat="42.13698" lon="19.06131">
        <ele>62.924616</ele>
        <time>2022-05-27T08:41:43.863Z</time>
      </trkpt>
      <trkpt lat="42.13701" lon="19.06117">
        <ele>62.716408</ele>
        <time>2022-05-27T08:41:45.861Z</time>
      </trkpt>
      <trkpt lat="42.13705" lon="19.06104">
        <ele>62.534239</ele>
        <time>2022-05-27T08:41:47.998Z</time>
      </trkpt>
      <trkpt lat="42.13707" lon="19.06092">
        <ele>62.363644</ele>
        <time>2022-05-27T08:41:49.875Z</time>
      </trkpt>
      <trkpt lat="42.13709" lon="19.0608">
        <ele>62.193996</ele>
        <time>2022-05-27T08:41:51.867Z</time>
      </trkpt>
      <trkpt lat="42.13712" lon="19.06067">
        <ele>62.008924</ele>
        <time>2022-05-27T08:41:53.879Z</time>
      </trkpt>
      <trkpt lat="42.13714" lon="19.06054">
        <ele>61.825177</ele>
        <time>2022-05-27T08:41:55.873Z</time>
      </trkpt>
      <trkpt lat="42.13716" lon="19.0604">
        <ele>61.634551</ele>
        <time>2022-05-27T08:41:57.880Z</time>
      </trkpt>
      <trkpt lat="42.13717" lon="19.06027">
        <ele>61.453703</ele>
        <time>2022-05-27T08:41:59.885Z</time>
      </trkpt>
      <trkpt lat="42.13719" lon="19.06011">
        <ele>61.240703</ele>
        <time>2022-05-27T08:42:01.905Z</time>
      </trkpt>
      <trkpt lat="42.13721" lon="19.05995">
        <ele>61.020088</ele>
        <time>2022-05-27T08:42:03.881Z</time>
      </trkpt>
      <trkpt lat="42.13721" lon="19.0598">
        <ele>60.817428</ele>
        <time>2022-05-27T08:42:05.875Z</time>
      </trkpt>
      <trkpt lat="42.13722" lon="19.05965">
        <ele>60.610983</ele>
        <time>2022-05-27T08:42:07.880Z</time>
      </trkpt>
      <trkpt lat="42.13721" lon="19.05951">
        <ele>60.418119</ele>
        <time>2022-05-27T08:42:09.950Z</time>
      </trkpt>
      <trkpt lat="42.13721" lon="19.05937">
        <ele>60.227759</ele>
        <time>2022-05-27T08:42:11.863Z</time>
      </trkpt>
      <trkpt lat="42.13719" lon="19.05923">
        <ele>60.006638</ele>
        <time>2022-05-27T08:42:13.865Z</time>
      </trkpt>
      <trkpt lat="42.13718" lon="19.05905">
        <ele>59.725042</ele>
        <time>2022-05-27T08:42:15.876Z</time>
      </trkpt>
      <trkpt lat="42.13716" lon="19.05892">
        <ele>59.511247</ele>
        <time>2022-05-27T08:42:17.869Z</time>
      </trkpt>
      <trkpt lat="42.13713" lon="19.05879">
        <ele>59.282303</ele>
        <time>2022-05-27T08:42:19.872Z</time>
      </trkpt>
      <trkpt lat="42.13709" lon="19.05865">
        <ele>59.040856</ele>
        <time>2022-05-27T08:42:21.877Z</time>
      </trkpt>
      <trkpt lat="42.13705" lon="19.05851">
        <ele>58.804843</ele>
        <time>2022-05-27T08:42:23.923Z</time>
      </trkpt>
      <trkpt lat="42.13702" lon="19.05838">
        <ele>58.583174</ele>
        <time>2022-05-27T08:42:25.926Z</time>
      </trkpt>
      <trkpt lat="42.13698" lon="19.05825">
        <ele>58.362285</ele>
        <time>2022-05-27T08:42:27.866Z</time>
      </trkpt>
      <trkpt lat="42.13695" lon="19.05812">
        <ele>58.139887</ele>
        <time>2022-05-27T08:42:29.892Z</time>
      </trkpt>
      <trkpt lat="42.13691" lon="19.05798">
        <ele>57.896695</ele>
        <time>2022-05-27T08:42:31.862Z</time>
      </trkpt>
      <trkpt lat="42.13688" lon="19.05782">
        <ele>57.626723</ele>
        <time>2022-05-27T08:42:33.864Z</time>
      </trkpt>
      <trkpt lat="42.13686" lon="19.05765">
        <ele>57.361732</ele>
        <time>2022-05-27T08:42:35.865Z</time>
      </trkpt>
      <trkpt lat="42.13685" lon="19.05749">
        <ele>57.08683</ele>
        <time>2022-05-27T08:42:37.867Z</time>
      </trkpt>
      <trkpt lat="42.13684" lon="19.05731">
        <ele>56.807272</ele>
        <time>2022-05-27T08:42:39.878Z</time>
      </trkpt>
      <trkpt lat="42.13684" lon="19.05714">
        <ele>56.524902</ele>
        <time>2022-05-27T08:42:41.853Z</time>
      </trkpt>
      <trkpt lat="42.13684" lon="19.05696">
        <ele>56.235628</ele>
        <time>2022-05-27T08:42:43.865Z</time>
      </trkpt>
      <trkpt lat="42.13685" lon="19.05679">
        <ele>55.741392</ele>
        <time>2022-05-27T08:42:45.872Z</time>
      </trkpt>
      <trkpt lat="42.13687" lon="19.05661">
        <ele>55.242172</ele>
        <time>2022-05-27T08:42:47.861Z</time>
      </trkpt>
      <trkpt lat="42.13689" lon="19.05643">
        <ele>54.740923</ele>
        <time>2022-05-27T08:42:49.908Z</time>
      </trkpt>
      <trkpt lat="42.13691" lon="19.05625">
        <ele>54.229633</ele>
        <time>2022-05-27T08:42:51.866Z</time>
      </trkpt>
      <trkpt lat="42.13694" lon="19.05607">
        <ele>53.721786</ele>
        <time>2022-05-27T08:42:53.895Z</time>
      </trkpt>
      <trkpt lat="42.13697" lon="19.05591">
        <ele>53.250514</ele>
        <time>2022-05-27T08:42:55.882Z</time>
      </trkpt>
      <trkpt lat="42.137" lon="19.05573">
        <ele>52.753163</ele>
        <time>2022-05-27T08:42:57.879Z</time>
      </trkpt>
      <trkpt lat="42.13704" lon="19.05556">
        <ele>52.240118</ele>
        <time>2022-05-27T08:42:59.848Z</time>
      </trkpt>
      <trkpt lat="42.13708" lon="19.05537">
        <ele>51.688578</ele>
        <time>2022-05-27T08:43:01.882Z</time>
      </trkpt>
      <trkpt lat="42.13713" lon="19.05517">
        <ele>51.112399</ele>
        <time>2022-05-27T08:43:03.907Z</time>
      </trkpt>
      <trkpt lat="42.13718" lon="19.05499">
        <ele>50.592831</ele>
        <time>2022-05-27T08:43:05.920Z</time>
      </trkpt>
      <trkpt lat="42.13722" lon="19.05482">
        <ele>50.066803</ele>
        <time>2022-05-27T08:43:07.906Z</time>
      </trkpt>
      <trkpt lat="42.13728" lon="19.05462">
        <ele>49.506034</ele>
        <time>2022-05-27T08:43:09.905Z</time>
      </trkpt>
      <trkpt lat="42.13734" lon="19.05444">
        <ele>49.496298</ele>
        <time>2022-05-27T08:43:11.850Z</time>
      </trkpt>
      <trkpt lat="42.13741" lon="19.05426">
        <ele>49.486433</ele>
        <time>2022-05-27T08:43:13.886Z</time>
      </trkpt>
      <trkpt lat="42.13749" lon="19.05408">
        <ele>49.476202</ele>
        <time>2022-05-27T08:43:15.906Z</time>
      </trkpt>
      <trkpt lat="42.13757" lon="19.05388">
        <ele>49.465283</ele>
        <time>2022-05-27T08:43:17.888Z</time>
      </trkpt>
      <trkpt lat="42.13761" lon="19.05377">
        <ele>49.459372</ele>
        <time>2022-05-27T08:43:18.881Z</time>
      </trkpt>
      <trkpt lat="42.1377" lon="19.05358">
        <ele>49.448348</ele>
        <time>2022-05-27T08:43:20.861Z</time>
      </trkpt>
      <trkpt lat="42.13779" lon="19.05339">
        <ele>49.437496</ele>
        <time>2022-05-27T08:43:22.871Z</time>
      </trkpt>
      <trkpt lat="42.13787" lon="19.05321">
        <ele>49.427146</ele>
        <time>2022-05-27T08:43:24.867Z</time>
      </trkpt>
      <trkpt lat="42.13795" lon="19.05303">
        <ele>49.417283</ele>
        <time>2022-05-27T08:43:26.912Z</time>
      </trkpt>
      <trkpt lat="42.13802" lon="19.05287">
        <ele>49.408037</ele>
        <time>2022-05-27T08:43:28.879Z</time>
      </trkpt>
      <trkpt lat="42.13807" lon="19.05272">
        <ele>49.39991</ele>
        <time>2022-05-27T08:43:30.875Z</time>
      </trkpt>
      <trkpt lat="42.13813" lon="19.05258">
        <ele>49.392291</ele>
        <time>2022-05-27T08:43:32.854Z</time>
      </trkpt>
      <trkpt lat="42.13817" lon="19.05244">
        <ele>49.49043</ele>
        <time>2022-05-27T08:43:34.880Z</time>
      </trkpt>
      <trkpt lat="42.13821" lon="19.05231">
        <ele>49.661138</ele>
        <time>2022-05-27T08:43:36.868Z</time>
      </trkpt>
      <trkpt lat="42.13825" lon="19.05219">
        <ele>49.828676</ele>
        <time>2022-05-27T08:43:38.873Z</time>
      </trkpt>
      <trkpt lat="42.13829" lon="19.05207">
        <ele>49.987305</ele>
        <time>2022-05-27T08:43:40.859Z</time>
      </trkpt>
      <trkpt lat="42.13832" lon="19.05195">
        <ele>50.145872</ele>
        <time>2022-05-27T08:43:42.869Z</time>
      </trkpt>
      <trkpt lat="42.13835" lon="19.05182">
        <ele>50.318009</ele>
        <time>2022-05-27T08:43:44.845Z</time>
      </trkpt>
      <trkpt lat="42.1384" lon="19.05165">
        <ele>50.547337</ele>
        <time>2022-05-27T08:43:47.856Z</time>
      </trkpt>
      <trkpt lat="42.13843" lon="19.05152">
        <ele>50.72772</ele>
        <time>2022-05-27T08:43:49.872Z</time>
      </trkpt>
      <trkpt lat="42.13847" lon="19.05138">
        <ele>50.908724</ele>
        <time>2022-05-27T08:43:51.861Z</time>
      </trkpt>
      <trkpt lat="42.13851" lon="19.05126">
        <ele>51.081056</ele>
        <time>2022-05-27T08:43:53.857Z</time>
      </trkpt>
      <trkpt lat="42.13855" lon="19.05113">
        <ele>51.247627</ele>
        <time>2022-05-27T08:43:55.882Z</time>
      </trkpt>
      <trkpt lat="42.1386" lon="19.05101">
        <ele>51.419713</ele>
        <time>2022-05-27T08:43:57.886Z</time>
      </trkpt>
      <trkpt lat="42.13866" lon="19.05087">
        <ele>51.62799</ele>
        <time>2022-05-27T08:44:00.869Z</time>
      </trkpt>
      <trkpt lat="42.13872" lon="19.05075">
        <ele>51.805818</ele>
        <time>2022-05-27T08:44:03.882Z</time>
      </trkpt>
      <trkpt lat="42.13878" lon="19.05064">
        <ele>51.986678</ele>
        <time>2022-05-27T08:44:06.879Z</time>
      </trkpt>
      <trkpt lat="42.13883" lon="19.05054">
        <ele>52.139268</ele>
        <time>2022-05-27T08:44:09.858Z</time>
      </trkpt>
      <trkpt lat="42.13891" lon="19.05042">
        <ele>52.332774</ele>
        <time>2022-05-27T08:44:13.882Z</time>
      </trkpt>
      <trkpt lat="42.13898" lon="19.05032">
        <ele>52.550922</ele>
        <time>2022-05-27T08:44:16.884Z</time>
      </trkpt>
      <trkpt lat="42.13906" lon="19.05021">
        <ele>52.859048</ele>
        <time>2022-05-27T08:44:19.877Z</time>
      </trkpt>
      <trkpt lat="42.13914" lon="19.05008">
        <ele>53.209924</ele>
        <time>2022-05-27T08:44:22.876Z</time>
      </trkpt>
      <trkpt lat="42.13923" lon="19.04998">
        <ele>53.527798</ele>
        <time>2022-05-27T08:44:25.901Z</time>
      </trkpt>
      <trkpt lat="42.13931" lon="19.04987">
        <ele>53.834143</ele>
        <time>2022-05-27T08:44:28.878Z</time>
      </trkpt>
      <trkpt lat="42.13938" lon="19.04978">
        <ele>54.103318</ele>
        <time>2022-05-27T08:44:31.876Z</time>
      </trkpt>
      <trkpt lat="42.13945" lon="19.0497">
        <ele>54.353402</ele>
        <time>2022-05-27T08:44:34.869Z</time>
      </trkpt>
      <trkpt lat="42.13952" lon="19.04962">
        <ele>54.612679</ele>
        <time>2022-05-27T08:44:37.879Z</time>
      </trkpt>
      <trkpt lat="42.13961" lon="19.04954">
        <ele>54.907416</ele>
        <time>2022-05-27T08:44:40.924Z</time>
      </trkpt>
      <trkpt lat="42.13971" lon="19.04945">
        <ele>55.224765</ele>
        <time>2022-05-27T08:44:44.884Z</time>
      </trkpt>
      <trkpt lat="42.13981" lon="19.04938">
        <ele>55.526989</ele>
        <time>2022-05-27T08:44:48.900Z</time>
      </trkpt>
      <trkpt lat="42.13991" lon="19.04931">
        <ele>55.833051</ele>
        <time>2022-05-27T08:44:52.870Z</time>
      </trkpt>
      <trkpt lat="42.14001" lon="19.04924">
        <ele>56.140132</ele>
        <time>2022-05-27T08:44:55.866Z</time>
      </trkpt>
      <trkpt lat="42.14009" lon="19.04919">
        <ele>56.396995</ele>
        <time>2022-05-27T08:44:58.875Z</time>
      </trkpt>
      <trkpt lat="42.1402" lon="19.04912">
        <ele>56.71369</ele>
        <time>2022-05-27T08:45:02.885Z</time>
      </trkpt>
      <trkpt lat="42.1403" lon="19.04904">
        <ele>57.039011</ele>
        <time>2022-05-27T08:45:06.863Z</time>
      </trkpt>
      <trkpt lat="42.1404" lon="19.04897">
        <ele>57.336399</ele>
        <time>2022-05-27T08:45:10.884Z</time>
      </trkpt>
      <trkpt lat="42.14049" lon="19.0489">
        <ele>57.89547</ele>
        <time>2022-05-27T08:45:14.884Z</time>
      </trkpt>
      <trkpt lat="42.14059" lon="19.04882">
        <ele>58.495903</ele>
        <time>2022-05-27T08:45:18.893Z</time>
      </trkpt>
      <trkpt lat="42.14068" lon="19.04873">
        <ele>59.087273</ele>
        <time>2022-05-27T08:45:22.877Z</time>
      </trkpt>
      <trkpt lat="42.14076" lon="19.04866">
        <ele>59.583754</ele>
        <time>2022-05-27T08:45:25.875Z</time>
      </trkpt>
      <trkpt lat="42.14084" lon="19.04857">
        <ele>60.128526</ele>
        <time>2022-05-27T08:45:29.886Z</time>
      </trkpt>
      <trkpt lat="42.14091" lon="19.04846">
        <ele>60.691515</ele>
        <time>2022-05-27T08:45:33.857Z</time>
      </trkpt>
      <trkpt lat="42.14098" lon="19.04837">
        <ele>61.161337</ele>
        <time>2022-05-27T08:45:36.867Z</time>
      </trkpt>
      <trkpt lat="42.14105" lon="19.04828">
        <ele>61.660076</ele>
        <time>2022-05-27T08:45:39.863Z</time>
      </trkpt>
      <trkpt lat="42.14111" lon="19.0482">
        <ele>62.133807</ele>
        <time>2022-05-27T08:45:42.876Z</time>
      </trkpt>
      <trkpt lat="42.14118" lon="19.04811">
        <ele>62.616998</ele>
        <time>2022-05-27T08:45:45.875Z</time>
      </trkpt>
      <trkpt lat="42.14121" lon="19.04797">
        <ele>63.17789</ele>
        <time>2022-05-27T08:45:50.870Z</time>
      </trkpt>
      <trkpt lat="42.14115" lon="19.04786">
        <ele>63.72388</ele>
        <time>2022-05-27T08:45:53.875Z</time>
      </trkpt>
      <trkpt lat="42.1411" lon="19.04769">
        <ele>64.397155</ele>
        <time>2022-05-27T08:45:56.885Z</time>
      </trkpt>
      <trkpt lat="42.14105" lon="19.04756">
        <ele>64.97989</ele>
        <time>2022-05-27T08:45:58.855Z</time>
      </trkpt>
      <trkpt lat="42.14112" lon="19.04738">
        <ele>65.739076</ele>
        <time>2022-05-27T08:46:03.885Z</time>
      </trkpt>
      <trkpt lat="42.14119" lon="19.04726">
        <ele>66.352216</ele>
        <time>2022-05-27T08:46:05.933Z</time>
      </trkpt>
      <trkpt lat="42.14127" lon="19.04717">
        <ele>66.801529</ele>
        <time>2022-05-27T08:46:08.877Z</time>
      </trkpt>
      <trkpt lat="42.14134" lon="19.04708">
        <ele>67.07668</ele>
        <time>2022-05-27T08:46:12.894Z</time>
      </trkpt>
      <trkpt lat="42.14142" lon="19.04698">
        <ele>67.391252</ele>
        <time>2022-05-27T08:46:17.861Z</time>
      </trkpt>
      <trkpt lat="42.14149" lon="19.04689">
        <ele>67.665199</ele>
        <time>2022-05-27T08:46:21.871Z</time>
      </trkpt>
      <trkpt lat="42.14156" lon="19.04679">
        <ele>67.964052</ele>
        <time>2022-05-27T08:46:25.884Z</time>
      </trkpt>
      <trkpt lat="42.14163" lon="19.04669">
        <ele>68.2415</ele>
        <time>2022-05-27T08:46:29.902Z</time>
      </trkpt>
      <trkpt lat="42.1417" lon="19.04661">
        <ele>68.511069</ele>
        <time>2022-05-27T08:46:33.874Z</time>
      </trkpt>
      <trkpt lat="42.14177" lon="19.04651">
        <ele>68.785502</ele>
        <time>2022-05-27T08:46:37.864Z</time>
      </trkpt>
      <trkpt lat="42.14184" lon="19.04642">
        <ele>69.055071</ele>
        <time>2022-05-27T08:46:41.880Z</time>
      </trkpt>
      <trkpt lat="42.14191" lon="19.04633">
        <ele>69.356241</ele>
        <time>2022-05-27T08:46:45.878Z</time>
      </trkpt>
      <trkpt lat="42.142" lon="19.04622">
        <ele>69.690465</ele>
        <time>2022-05-27T08:46:50.860Z</time>
      </trkpt>
      <trkpt lat="42.14208" lon="19.04612">
        <ele>69.996577</ele>
        <time>2022-05-27T08:46:55.942Z</time>
      </trkpt>
      <trkpt lat="42.14216" lon="19.04602">
        <ele>70.309714</ele>
        <time>2022-05-27T08:47:00.872Z</time>
      </trkpt>
      <trkpt lat="42.14223" lon="19.04592">
        <ele>70.600609</ele>
        <time>2022-05-27T08:47:07.851Z</time>
      </trkpt>
      <trkpt lat="42.14218" lon="19.0458">
        <ele>70.900446</ele>
        <time>2022-05-27T08:47:17.878Z</time>
      </trkpt>
      <trkpt lat="42.14211" lon="19.04568">
        <ele>71.218658</ele>
        <time>2022-05-27T08:47:23.865Z</time>
      </trkpt>
      <trkpt lat="42.14202" lon="19.04555">
        <ele>71.591464</ele>
        <time>2022-05-27T08:47:26.866Z</time>
      </trkpt>
      <trkpt lat="42.14196" lon="19.04544">
        <ele>71.776519</ele>
        <time>2022-05-27T08:47:28.874Z</time>
      </trkpt>
      <trkpt lat="42.1419" lon="19.04532">
        <ele>71.5226</ele>
        <time>2022-05-27T08:47:30.856Z</time>
      </trkpt>
      <trkpt lat="42.14183" lon="19.04517">
        <ele>71.202761</ele>
        <time>2022-05-27T08:47:32.867Z</time>
      </trkpt>
      <trkpt lat="42.14188" lon="19.04504">
        <ele>70.956724</ele>
        <time>2022-05-27T08:47:36.877Z</time>
      </trkpt>
      <trkpt lat="42.14195" lon="19.04497">
        <ele>70.739998</ele>
        <time>2022-05-27T08:47:38.865Z</time>
      </trkpt>
      <trkpt lat="42.14204" lon="19.04486">
        <ele>70.465645</ele>
        <time>2022-05-27T08:47:41.932Z</time>
      </trkpt>
      <trkpt lat="42.1421" lon="19.04476">
        <ele>70.231319</ele>
        <time>2022-05-27T08:47:44.886Z</time>
      </trkpt>
      <trkpt lat="42.14218" lon="19.04466">
        <ele>69.981296</ele>
        <time>2022-05-27T08:47:47.893Z</time>
      </trkpt>
      <trkpt lat="42.14225" lon="19.04454">
        <ele>69.71463</ele>
        <time>2022-05-27T08:47:50.873Z</time>
      </trkpt>
      <trkpt lat="42.14232" lon="19.04444">
        <ele>69.467821</ele>
        <time>2022-05-27T08:47:53.884Z</time>
      </trkpt>
      <trkpt lat="42.1424" lon="19.04432">
        <ele>69.195402</ele>
        <time>2022-05-27T08:47:56.875Z</time>
      </trkpt>
      <trkpt lat="42.14247" lon="19.04422">
        <ele>68.949875</ele>
        <time>2022-05-27T08:47:59.876Z</time>
      </trkpt>
      <trkpt lat="42.14254" lon="19.04413">
        <ele>68.723085</ele>
        <time>2022-05-27T08:48:02.881Z</time>
      </trkpt>
      <trkpt lat="42.14262" lon="19.04403">
        <ele>68.468031</ele>
        <time>2022-05-27T08:48:06.872Z</time>
      </trkpt>
      <trkpt lat="42.1427" lon="19.04393">
        <ele>68.214115</ele>
        <time>2022-05-27T08:48:10.880Z</time>
      </trkpt>
      <trkpt lat="42.14276" lon="19.04382">
        <ele>67.963082</ele>
        <time>2022-05-27T08:48:14.888Z</time>
      </trkpt>
      <trkpt lat="42.14281" lon="19.04371">
        <ele>67.738064</ele>
        <time>2022-05-27T08:48:18.868Z</time>
      </trkpt>
      <trkpt lat="42.14276" lon="19.0436">
        <ele>67.507701</ele>
        <time>2022-05-27T08:48:22.874Z</time>
      </trkpt>
      <trkpt lat="42.14267" lon="19.04346">
        <ele>67.19858</ele>
        <time>2022-05-27T08:48:25.868Z</time>
      </trkpt>
      <trkpt lat="42.14259" lon="19.04335">
        <ele>66.946017</ele>
        <time>2022-05-27T08:48:27.944Z</time>
      </trkpt>
      <trkpt lat="42.14251" lon="19.04324">
        <ele>66.682282</ele>
        <time>2022-05-27T08:48:29.881Z</time>
      </trkpt>
      <trkpt lat="42.14244" lon="19.04313">
        <ele>66.434766</ele>
        <time>2022-05-27T08:48:31.860Z</time>
      </trkpt>
      <trkpt lat="42.14238" lon="19.04303">
        <ele>66.223434</ele>
        <time>2022-05-27T08:48:33.905Z</time>
      </trkpt>
      <trkpt lat="42.14231" lon="19.04292">
        <ele>65.982745</ele>
        <time>2022-05-27T08:48:35.866Z</time>
      </trkpt>
      <trkpt lat="42.14226" lon="19.04281">
        <ele>65.763706</ele>
        <time>2022-05-27T08:48:37.871Z</time>
      </trkpt>
      <trkpt lat="42.14225" lon="19.04264">
        <ele>65.47921</ele>
        <time>2022-05-27T08:48:40.867Z</time>
      </trkpt>
      <trkpt lat="42.1423" lon="19.04246">
        <ele>65.149305</ele>
        <time>2022-05-27T08:48:42.857Z</time>
      </trkpt>
      <trkpt lat="42.14234" lon="19.04231">
        <ele>64.882718</ele>
        <time>2022-05-27T08:48:44.982Z</time>
      </trkpt>
      <trkpt lat="42.14238" lon="19.04216">
        <ele>64.621241</ele>
        <time>2022-05-27T08:48:46.871Z</time>
      </trkpt>
      <trkpt lat="42.14245" lon="19.04199">
        <ele>64.289514</ele>
        <time>2022-05-27T08:48:49.874Z</time>
      </trkpt>
      <trkpt lat="42.14248" lon="19.04186">
        <ele>64.060346</ele>
        <time>2022-05-27T08:48:51.883Z</time>
      </trkpt>
      <trkpt lat="42.14252" lon="19.04174">
        <ele>63.839479</ele>
        <time>2022-05-27T08:48:53.867Z</time>
      </trkpt>
      <trkpt lat="42.14256" lon="19.04163">
        <ele>63.623706</ele>
        <time>2022-05-27T08:48:55.899Z</time>
      </trkpt>
      <trkpt lat="42.1426" lon="19.04151">
        <ele>63.490245</ele>
        <time>2022-05-27T08:48:57.876Z</time>
      </trkpt>
      <trkpt lat="42.14264" lon="19.04139">
        <ele>63.452421</ele>
        <time>2022-05-27T08:48:59.940Z</time>
      </trkpt>
      <trkpt lat="42.14267" lon="19.04127">
        <ele>63.416182</ele>
        <time>2022-05-27T08:49:01.861Z</time>
      </trkpt>
      <trkpt lat="42.14272" lon="19.04111">
        <ele>63.364961</ele>
        <time>2022-05-27T08:49:04.881Z</time>
      </trkpt>
      <trkpt lat="42.14277" lon="19.04097">
        <ele>63.318931</ele>
        <time>2022-05-27T08:49:07.874Z</time>
      </trkpt>
      <trkpt lat="42.14281" lon="19.04083">
        <ele>63.277081</ele>
        <time>2022-05-27T08:49:10.860Z</time>
      </trkpt>
      <trkpt lat="42.14286" lon="19.0407">
        <ele>63.234225</ele>
        <time>2022-05-27T08:49:13.890Z</time>
      </trkpt>
      <trkpt lat="42.1429" lon="19.04056">
        <ele>63.190525</ele>
        <time>2022-05-27T08:49:16.883Z</time>
      </trkpt>
      <trkpt lat="42.14295" lon="19.04044">
        <ele>63.150307</ele>
        <time>2022-05-27T08:49:19.880Z</time>
      </trkpt>
      <trkpt lat="42.14299" lon="19.04029">
        <ele>63.104371</ele>
        <time>2022-05-27T08:49:22.857Z</time>
      </trkpt>
      <trkpt lat="42.14303" lon="19.04016">
        <ele>63.064526</ele>
        <time>2022-05-27T08:49:25.875Z</time>
      </trkpt>
      <trkpt lat="42.14308" lon="19.04002">
        <ele>63.020449</ele>
        <time>2022-05-27T08:49:28.867Z</time>
      </trkpt>
      <trkpt lat="42.14312" lon="19.03988">
        <ele>62.975182</ele>
        <time>2022-05-27T08:49:31.876Z</time>
      </trkpt>
      <trkpt lat="42.14316" lon="19.03973">
        <ele>62.930457</ele>
        <time>2022-05-27T08:49:34.876Z</time>
      </trkpt>
      <trkpt lat="42.14319" lon="19.03961">
        <ele>62.893358</ele>
        <time>2022-05-27T08:49:37.859Z</time>
      </trkpt>
      <trkpt lat="42.14317" lon="19.03947">
        <ele>62.85074</ele>
        <time>2022-05-27T08:49:40.874Z</time>
      </trkpt>
      <trkpt lat="42.14308" lon="19.03938">
        <ele>62.807452</ele>
        <time>2022-05-27T08:49:44.861Z</time>
      </trkpt>
      <trkpt lat="42.14298" lon="19.03934">
        <ele>62.772131</ele>
        <time>2022-05-27T08:49:47.872Z</time>
      </trkpt>
      <trkpt lat="42.14289" lon="19.0393">
        <ele>62.73602</ele>
        <time>2022-05-27T08:49:50.900Z</time>
      </trkpt>
      <trkpt lat="42.1428" lon="19.03922">
        <ele>62.697686</ele>
        <time>2022-05-27T08:49:54.886Z</time>
      </trkpt>
      <trkpt lat="42.14278" lon="19.0391">
        <ele>62.665539</ele>
        <time>2022-05-27T08:49:58.855Z</time>
      </trkpt>
      <trkpt lat="42.14282" lon="19.03898">
        <ele>62.630159</ele>
        <time>2022-05-27T08:50:00.958Z</time>
      </trkpt>
      <trkpt lat="42.14286" lon="19.03885">
        <ele>62.592793</ele>
        <time>2022-05-27T08:50:03.869Z</time>
      </trkpt>
      <trkpt lat="42.1429" lon="19.03874">
        <ele>62.560175</ele>
        <time>2022-05-27T08:50:06.884Z</time>
      </trkpt>
      <trkpt lat="42.14293" lon="19.03863">
        <ele>62.527651</ele>
        <time>2022-05-27T08:50:09.871Z</time>
      </trkpt>
      <trkpt lat="42.14297" lon="19.03851">
        <ele>62.493251</ele>
        <time>2022-05-27T08:50:12.979Z</time>
      </trkpt>
      <trkpt lat="42.143" lon="19.03836">
        <ele>62.453609</ele>
        <time>2022-05-27T08:50:15.865Z</time>
      </trkpt>
      <trkpt lat="42.14303" lon="19.03824">
        <ele>62.419655</ele>
        <time>2022-05-27T08:50:18.880Z</time>
      </trkpt>
      <trkpt lat="42.14306" lon="19.03811">
        <ele>62.382917</ele>
        <time>2022-05-27T08:50:22.901Z</time>
      </trkpt>
      <trkpt lat="42.1431" lon="19.03799">
        <ele>62.347891</ele>
        <time>2022-05-27T08:50:26.868Z</time>
      </trkpt>
      <trkpt lat="42.14315" lon="19.03785">
        <ele>62.308415</ele>
        <time>2022-05-27T08:50:30.888Z</time>
      </trkpt>
      <trkpt lat="42.14319" lon="19.03772">
        <ele>62.270736</ele>
        <time>2022-05-27T08:50:34.873Z</time>
      </trkpt>
      <trkpt lat="42.14323" lon="19.03758">
        <ele>62.230761</ele>
        <time>2022-05-27T08:50:38.857Z</time>
      </trkpt>
      <trkpt lat="42.14328" lon="19.03745">
        <ele>62.193469</ele>
        <time>2022-05-27T08:50:42.882Z</time>
      </trkpt>
      <trkpt lat="42.14331" lon="19.03732">
        <ele>62.172443</ele>
        <time>2022-05-27T08:50:46.866Z</time>
      </trkpt>
      <trkpt lat="42.14335" lon="19.0372">
        <ele>62.243638</ele>
        <time>2022-05-27T08:50:50.966Z</time>
      </trkpt>
      <trkpt lat="42.1434" lon="19.03707">
        <ele>62.318236</ele>
        <time>2022-05-27T08:50:54.868Z</time>
      </trkpt>
      <trkpt lat="42.14347" lon="19.03695">
        <ele>62.396595</ele>
        <time>2022-05-27T08:50:58.875Z</time>
      </trkpt>
      <trkpt lat="42.14355" lon="19.03684">
        <ele>62.476654</ele>
        <time>2022-05-27T08:51:02.878Z</time>
      </trkpt>
      <trkpt lat="42.14365" lon="19.03678">
        <ele>62.554105</ele>
        <time>2022-05-27T08:51:06.864Z</time>
      </trkpt>
      <trkpt lat="42.14375" lon="19.03672">
        <ele>62.628373</ele>
        <time>2022-05-27T08:51:10.867Z</time>
      </trkpt>
      <trkpt lat="42.14384" lon="19.03668">
        <ele>62.697391</ele>
        <time>2022-05-27T08:51:14.884Z</time>
      </trkpt>
      <trkpt lat="42.14393" lon="19.03663">
        <ele>62.767717</ele>
        <time>2022-05-27T08:51:18.904Z</time>
      </trkpt>
      <trkpt lat="42.14402" lon="19.03658">
        <ele>62.831993</ele>
        <time>2022-05-27T08:51:22.879Z</time>
      </trkpt>
      <trkpt lat="42.14411" lon="19.03654">
        <ele>62.89868</ele>
        <time>2022-05-27T08:51:26.883Z</time>
      </trkpt>
      <trkpt lat="42.14421" lon="19.03648">
        <ele>62.977306</ele>
        <time>2022-05-27T08:51:31.882Z</time>
      </trkpt>
      <trkpt lat="42.14432" lon="19.03643">
        <ele>63.055466</ele>
        <time>2022-05-27T08:51:36.883Z</time>
      </trkpt>
      <trkpt lat="42.1444" lon="19.03638">
        <ele>63.119168</ele>
        <time>2022-05-27T08:51:40.909Z</time>
      </trkpt>
      <trkpt lat="42.14449" lon="19.03634">
        <ele>63.182408</ele>
        <time>2022-05-27T08:51:44.864Z</time>
      </trkpt>
      <trkpt lat="42.14459" lon="19.03628">
        <ele>63.260759</ele>
        <time>2022-05-27T08:51:49.855Z</time>
      </trkpt>
      <trkpt lat="42.14467" lon="19.03623">
        <ele>63.324388</ele>
        <time>2022-05-27T08:51:53.877Z</time>
      </trkpt>
      <trkpt lat="42.14477" lon="19.03617">
        <ele>63.398861</ele>
        <time>2022-05-27T08:51:58.864Z</time>
      </trkpt>
      <trkpt lat="42.14486" lon="19.03612">
        <ele>63.661201</ele>
        <time>2022-05-27T08:52:03.880Z</time>
      </trkpt>
      <trkpt lat="42.14497" lon="19.03607">
        <ele>64.046359</ele>
        <time>2022-05-27T08:52:08.917Z</time>
      </trkpt>
      <trkpt lat="42.14506" lon="19.03602">
        <ele>64.368969</ele>
        <time>2022-05-27T08:52:12.865Z</time>
      </trkpt>
      <trkpt lat="42.14515" lon="19.03598">
        <ele>64.684793</ele>
        <time>2022-05-27T08:52:16.881Z</time>
      </trkpt>
      <trkpt lat="42.14523" lon="19.03593">
        <ele>65.005007</ele>
        <time>2022-05-27T08:52:20.858Z</time>
      </trkpt>
      <trkpt lat="42.14533" lon="19.03588">
        <ele>65.35226</ele>
        <time>2022-05-27T08:52:25.873Z</time>
      </trkpt>
      <trkpt lat="42.14542" lon="19.03583">
        <ele>65.696298</ele>
        <time>2022-05-27T08:52:30.913Z</time>
      </trkpt>
      <trkpt lat="42.14551" lon="19.03578">
        <ele>66.008923</ele>
        <time>2022-05-27T08:52:35.866Z</time>
      </trkpt>
      <trkpt lat="42.14559" lon="19.03573">
        <ele>66.343667</ele>
        <time>2022-05-27T08:52:40.876Z</time>
      </trkpt>
      <trkpt lat="42.1457" lon="19.03569">
        <ele>66.70246</ele>
        <time>2022-05-27T08:52:45.885Z</time>
      </trkpt>
      <trkpt lat="42.14579" lon="19.03564">
        <ele>67.040543</ele>
        <time>2022-05-27T08:52:50.865Z</time>
      </trkpt>
      <trkpt lat="42.14588" lon="19.03558">
        <ele>67.392921</ele>
        <time>2022-05-27T08:52:55.899Z</time>
      </trkpt>
      <trkpt lat="42.14598" lon="19.03554">
        <ele>67.729693</ele>
        <time>2022-05-27T08:53:00.875Z</time>
      </trkpt>
      <trkpt lat="42.14606" lon="19.03549">
        <ele>68.049136</ele>
        <time>2022-05-27T08:53:05.864Z</time>
      </trkpt>
      <trkpt lat="42.14616" lon="19.03545">
        <ele>68.386658</ele>
        <time>2022-05-27T08:53:10.882Z</time>
      </trkpt>
      <trkpt lat="42.14625" lon="19.03539">
        <ele>68.747491</ele>
        <time>2022-05-27T08:53:15.925Z</time>
      </trkpt>
      <trkpt lat="42.14635" lon="19.03534">
        <ele>69.096006</ele>
        <time>2022-05-27T08:53:20.867Z</time>
      </trkpt>
      <trkpt lat="42.14645" lon="19.03529">
        <ele>69.467679</ele>
        <time>2022-05-27T08:53:25.859Z</time>
      </trkpt>
      <trkpt lat="42.14655" lon="19.03525">
        <ele>69.850143</ele>
        <time>2022-05-27T08:53:30.868Z</time>
      </trkpt>
      <trkpt lat="42.14665" lon="19.03521">
        <ele>70.238194</ele>
        <time>2022-05-27T08:53:35.882Z</time>
      </trkpt>
      <trkpt lat="42.14675" lon="19.03517">
        <ele>70.62848</ele>
        <time>2022-05-27T08:53:40.875Z</time>
      </trkpt>
      <trkpt lat="42.14685" lon="19.03514">
        <ele>71.015071</ele>
        <time>2022-05-27T08:53:45.862Z</time>
      </trkpt>
      <trkpt lat="42.14695" lon="19.03512">
        <ele>71.382185</ele>
        <time>2022-05-27T08:53:50.886Z</time>
      </trkpt>
      <trkpt lat="42.14704" lon="19.0351">
        <ele>71.722184</ele>
        <time>2022-05-27T08:53:55.882Z</time>
      </trkpt>
      <trkpt lat="42.14713" lon="19.03509">
        <ele>72.065905</ele>
        <time>2022-05-27T08:54:00.888Z</time>
      </trkpt>
      <trkpt lat="42.14722" lon="19.03508">
        <ele>72.422475</ele>
        <time>2022-05-27T08:54:05.872Z</time>
      </trkpt>
      <trkpt lat="42.14732" lon="19.03508">
        <ele>72.767586</ele>
        <time>2022-05-27T08:54:10.869Z</time>
      </trkpt>
      <trkpt lat="42.14741" lon="19.03508">
        <ele>73.127515</ele>
        <time>2022-05-27T08:54:15.868Z</time>
      </trkpt>
      <trkpt lat="42.1475" lon="19.03509">
        <ele>73.470065</ele>
        <time>2022-05-27T08:54:20.907Z</time>
      </trkpt>
      <trkpt lat="42.1476" lon="19.0351">
        <ele>73.828364</ele>
        <time>2022-05-27T08:54:25.875Z</time>
      </trkpt>
      <trkpt lat="42.1477" lon="19.03511">
        <ele>74.200051</ele>
        <time>2022-05-27T08:54:30.902Z</time>
      </trkpt>
      <trkpt lat="42.1478" lon="19.03514">
        <ele>74.587211</ele>
        <time>2022-05-27T08:54:35.913Z</time>
      </trkpt>
      <trkpt lat="42.1479" lon="19.03516">
        <ele>74.98697</ele>
        <time>2022-05-27T08:54:40.878Z</time>
      </trkpt>
      <trkpt lat="42.148" lon="19.03519">
        <ele>75.355218</ele>
        <time>2022-05-27T08:54:45.866Z</time>
      </trkpt>
      <trkpt lat="42.14809" lon="19.03522">
        <ele>75.699165</ele>
        <time>2022-05-27T08:54:50.881Z</time>
      </trkpt>
      <trkpt lat="42.14817" lon="19.03526">
        <ele>76.041181</ele>
        <time>2022-05-27T08:54:55.919Z</time>
      </trkpt>
      <trkpt lat="42.14827" lon="19.0353">
        <ele>76.475416</ele>
        <time>2022-05-27T08:55:00.873Z</time>
      </trkpt>
      <trkpt lat="42.14835" lon="19.03534">
        <ele>77.007061</ele>
        <time>2022-05-27T08:55:05.873Z</time>
      </trkpt>
      <trkpt lat="42.14846" lon="19.03538">
        <ele>77.622026</ele>
        <time>2022-05-27T08:55:10.879Z</time>
      </trkpt>
      <trkpt lat="42.14855" lon="19.03543">
        <ele>78.22967</ele>
        <time>2022-05-27T08:55:15.868Z</time>
      </trkpt>
      <trkpt lat="42.14865" lon="19.03547">
        <ele>78.806891</ele>
        <time>2022-05-27T08:55:20.886Z</time>
      </trkpt>
      <trkpt lat="42.14873" lon="19.03551">
        <ele>79.342491</ele>
        <time>2022-05-27T08:55:25.896Z</time>
      </trkpt>
      <trkpt lat="42.14882" lon="19.03555">
        <ele>79.871187</ele>
        <time>2022-05-27T08:55:30.877Z</time>
      </trkpt>
      <trkpt lat="42.14891" lon="19.03559">
        <ele>80.410092</ele>
        <time>2022-05-27T08:55:35.925Z</time>
      </trkpt>
      <trkpt lat="42.149" lon="19.03564">
        <ele>81.006599</ele>
        <time>2022-05-27T08:55:41.876Z</time>
      </trkpt>
      <trkpt lat="42.1491" lon="19.03568">
        <ele>81.607334</ele>
        <time>2022-05-27T08:55:47.872Z</time>
      </trkpt>
      <trkpt lat="42.14919" lon="19.03573">
        <ele>82.19453</ele>
        <time>2022-05-27T08:55:54.894Z</time>
      </trkpt>
      <trkpt lat="42.14929" lon="19.03576">
        <ele>82.752976</ele>
        <time>2022-05-27T08:56:00.844Z</time>
      </trkpt>
      <trkpt lat="42.14938" lon="19.03581">
        <ele>83.309791</ele>
        <time>2022-05-27T08:56:05.844Z</time>
      </trkpt>
      <trkpt lat="42.14947" lon="19.03584">
        <ele>83.883085</ele>
        <time>2022-05-27T08:56:11.844Z</time>
      </trkpt>
      <trkpt lat="42.14956" lon="19.03589">
        <ele>84.418917</ele>
        <time>2022-05-27T08:56:18.843Z</time>
      </trkpt>
      <trkpt lat="42.14966" lon="19.03594">
        <ele>85.084843</ele>
        <time>2022-05-27T08:56:26.865Z</time>
      </trkpt>
      <trkpt lat="42.14975" lon="19.03599">
        <ele>85.658893</ele>
        <time>2022-05-27T08:56:33.835Z</time>
      </trkpt>
      <trkpt lat="42.14984" lon="19.03603">
        <ele>86.184955</ele>
        <time>2022-05-27T08:56:39.840Z</time>
      </trkpt>
      <trkpt lat="42.14993" lon="19.03607">
        <ele>86.722308</ele>
        <time>2022-05-27T08:56:45.841Z</time>
      </trkpt>
      <trkpt lat="42.15002" lon="19.03612">
        <ele>87.477079</ele>
        <time>2022-05-27T08:56:53.858Z</time>
      </trkpt>
      <trkpt lat="42.15012" lon="19.03616">
        <ele>88.319381</ele>
        <time>2022-05-27T08:57:01.850Z</time>
      </trkpt>
      <trkpt lat="42.15021" lon="19.0362">
        <ele>89.114295</ele>
        <time>2022-05-27T08:57:08.844Z</time>
      </trkpt>
      <trkpt lat="42.15031" lon="19.03625">
        <ele>89.903458</ele>
        <time>2022-05-27T08:57:16.868Z</time>
      </trkpt>
      <trkpt lat="42.15039" lon="19.03629">
        <ele>90.64817</ele>
        <time>2022-05-27T08:57:23.845Z</time>
      </trkpt>
      <trkpt lat="42.15048" lon="19.03634">
        <ele>91.381193</ele>
        <time>2022-05-27T08:57:29.841Z</time>
      </trkpt>
      <trkpt lat="42.15057" lon="19.03637">
        <ele>92.152272</ele>
        <time>2022-05-27T08:57:36.841Z</time>
      </trkpt>
      <trkpt lat="42.15066" lon="19.03642">
        <ele>92.904409</ele>
        <time>2022-05-27T08:57:44.848Z</time>
      </trkpt>
      <trkpt lat="42.15075" lon="19.03646">
        <ele>93.640823</ele>
        <time>2022-05-27T08:57:52.849Z</time>
      </trkpt>
      <trkpt lat="42.15084" lon="19.03651">
        <ele>94.409957</ele>
        <time>2022-05-27T08:57:59.843Z</time>
      </trkpt>
      <trkpt lat="42.15092" lon="19.03654">
        <ele>95.129352</ele>
        <time>2022-05-27T08:58:07.843Z</time>
      </trkpt>
      <trkpt lat="42.15101" lon="19.03659">
        <ele>95.877299</ele>
        <time>2022-05-27T08:58:16.846Z</time>
      </trkpt>
      <trkpt lat="42.1511" lon="19.03664">
        <ele>96.650777</ele>
        <time>2022-05-27T08:58:23.842Z</time>
      </trkpt>
      <trkpt lat="42.15119" lon="19.03666">
        <ele>97.40325</ele>
        <time>2022-05-27T08:58:29.874Z</time>
      </trkpt>
      <trkpt lat="42.15128" lon="19.0367">
        <ele>98.122666</ele>
        <time>2022-05-27T08:58:35.839Z</time>
      </trkpt>
      <trkpt lat="42.15137" lon="19.03673">
        <ele>98.890568</ele>
        <time>2022-05-27T08:58:42.854Z</time>
      </trkpt>
      <trkpt lat="42.15146" lon="19.03678">
        <ele>99.657071</ele>
        <time>2022-05-27T08:58:51.863Z</time>
      </trkpt>
      <trkpt lat="42.15155" lon="19.03681">
        <ele>100.380596</ele>
        <time>2022-05-27T08:59:01.847Z</time>
      </trkpt>
      <trkpt lat="42.15172" lon="19.03651">
        <ele>102.272531</ele>
        <time>2022-05-27T08:59:42.886Z</time>
      </trkpt>
      <trkpt lat="42.15175" lon="19.03639">
        <ele>102.847311</ele>
        <time>2022-05-27T08:59:47.845Z</time>
      </trkpt>
      <trkpt lat="42.15179" lon="19.03625">
        <ele>103.497154</ele>
        <time>2022-05-27T08:59:53.865Z</time>
      </trkpt>
      <trkpt lat="42.15182" lon="19.03613">
        <ele>104.100405</ele>
        <time>2022-05-27T08:59:58.844Z</time>
      </trkpt>
      <trkpt lat="42.15186" lon="19.03601">
        <ele>104.686305</ele>
        <time>2022-05-27T09:00:04.848Z</time>
      </trkpt>
      <trkpt lat="42.1519" lon="19.03589">
        <ele>105.256846</ele>
        <time>2022-05-27T09:00:10.862Z</time>
      </trkpt>
      <trkpt lat="42.15194" lon="19.03577">
        <ele>105.86468</ele>
        <time>2022-05-27T09:00:16.842Z</time>
      </trkpt>
      <trkpt lat="42.15197" lon="19.03564">
        <ele>106.483894</ele>
        <time>2022-05-27T09:00:22.868Z</time>
      </trkpt>
      <trkpt lat="42.15202" lon="19.03552">
        <ele>107.103571</ele>
        <time>2022-05-27T09:00:28.839Z</time>
      </trkpt>
      <trkpt lat="42.15207" lon="19.0354">
        <ele>107.692521</ele>
        <time>2022-05-27T09:00:34.839Z</time>
      </trkpt>
      <trkpt lat="42.15212" lon="19.03529">
        <ele>108.28564</ele>
        <time>2022-05-27T09:00:40.841Z</time>
      </trkpt>
      <trkpt lat="42.15216" lon="19.03518">
        <ele>108.854856</ele>
        <time>2022-05-27T09:00:46.848Z</time>
      </trkpt>
      <trkpt lat="42.15223" lon="19.03506">
        <ele>109.517468</ele>
        <time>2022-05-27T09:00:52.846Z</time>
      </trkpt>
      <trkpt lat="42.15229" lon="19.03495">
        <ele>110.136722</ele>
        <time>2022-05-27T09:00:58.853Z</time>
      </trkpt>
      <trkpt lat="42.15235" lon="19.03486">
        <ele>110.688984</ele>
        <time>2022-05-27T09:01:04.864Z</time>
      </trkpt>
      <trkpt lat="42.1524" lon="19.03476">
        <ele>111.254485</ele>
        <time>2022-05-27T09:01:10.853Z</time>
      </trkpt>
      <trkpt lat="42.15247" lon="19.03467">
        <ele>111.811524</ele>
        <time>2022-05-27T09:01:15.857Z</time>
      </trkpt>
      <trkpt lat="42.15253" lon="19.03457">
        <ele>112.249751</ele>
        <time>2022-05-27T09:01:21.849Z</time>
      </trkpt>
      <trkpt lat="42.15259" lon="19.03446">
        <ele>112.586564</ele>
        <time>2022-05-27T09:01:27.844Z</time>
      </trkpt>
      <trkpt lat="42.15266" lon="19.03435">
        <ele>112.939335</ele>
        <time>2022-05-27T09:01:33.836Z</time>
      </trkpt>
      <trkpt lat="42.15271" lon="19.03425">
        <ele>113.247615</ele>
        <time>2022-05-27T09:01:38.846Z</time>
      </trkpt>
      <trkpt lat="42.15277" lon="19.03416">
        <ele>113.574813</ele>
        <time>2022-05-27T09:01:44.853Z</time>
      </trkpt>
      <trkpt lat="42.15283" lon="19.03406">
        <ele>113.879078</ele>
        <time>2022-05-27T09:01:50.844Z</time>
      </trkpt>
      <trkpt lat="42.15289" lon="19.03396">
        <ele>114.20191</ele>
        <time>2022-05-27T09:01:56.843Z</time>
      </trkpt>
      <trkpt lat="42.15295" lon="19.03387">
        <ele>114.521563</ele>
        <time>2022-05-27T09:02:03.837Z</time>
      </trkpt>
      <trkpt lat="42.15302" lon="19.03376">
        <ele>114.876654</ele>
        <time>2022-05-27T09:02:09.841Z</time>
      </trkpt>
      <trkpt lat="42.15308" lon="19.03366">
        <ele>115.190314</ele>
        <time>2022-05-27T09:02:14.847Z</time>
      </trkpt>
      <trkpt lat="42.15315" lon="19.03358">
        <ele>115.496348</ele>
        <time>2022-05-27T09:02:20.857Z</time>
      </trkpt>
      <trkpt lat="42.15321" lon="19.0335">
        <ele>115.803229</ele>
        <time>2022-05-27T09:02:26.838Z</time>
      </trkpt>
      <trkpt lat="42.15329" lon="19.03342">
        <ele>116.123615</ele>
        <time>2022-05-27T09:02:32.853Z</time>
      </trkpt>
      <trkpt lat="42.15337" lon="19.03333">
        <ele>116.476135</ele>
        <time>2022-05-27T09:02:38.845Z</time>
      </trkpt>
      <trkpt lat="42.15345" lon="19.03324">
        <ele>116.842159</ele>
        <time>2022-05-27T09:02:44.841Z</time>
      </trkpt>
      <trkpt lat="42.15354" lon="19.03316">
        <ele>117.192916</ele>
        <time>2022-05-27T09:02:50.849Z</time>
      </trkpt>
      <trkpt lat="42.15362" lon="19.03309">
        <ele>117.524687</ele>
        <time>2022-05-27T09:02:55.845Z</time>
      </trkpt>
      <trkpt lat="42.1537" lon="19.03301">
        <ele>117.864287</ele>
        <time>2022-05-27T09:03:00.859Z</time>
      </trkpt>
      <trkpt lat="42.1538" lon="19.03295">
        <ele>118.219945</ele>
        <time>2022-05-27T09:03:06.879Z</time>
      </trkpt>
      <trkpt lat="42.15388" lon="19.03288">
        <ele>118.494045</ele>
        <time>2022-05-27T09:03:11.876Z</time>
      </trkpt>
      <trkpt lat="42.15396" lon="19.03282">
        <ele>118.77113</ele>
        <time>2022-05-27T09:03:16.877Z</time>
      </trkpt>
      <trkpt lat="42.15406" lon="19.03277">
        <ele>119.076917</ele>
        <time>2022-05-27T09:03:22.869Z</time>
      </trkpt>
      <trkpt lat="42.15415" lon="19.03273">
        <ele>119.355546</ele>
        <time>2022-05-27T09:03:27.887Z</time>
      </trkpt>
      <trkpt lat="42.15424" lon="19.03265">
        <ele>119.67826</ele>
        <time>2022-05-27T09:03:34.875Z</time>
      </trkpt>
      <trkpt lat="42.15434" lon="19.03259">
        <ele>119.998847</ele>
        <time>2022-05-27T09:03:40.881Z</time>
      </trkpt>
      <trkpt lat="42.15444" lon="19.03254">
        <ele>120.293267</ele>
        <time>2022-05-27T09:03:46.864Z</time>
      </trkpt>
      <trkpt lat="42.15452" lon="19.03249">
        <ele>120.558115</ele>
        <time>2022-05-27T09:03:52.900Z</time>
      </trkpt>
      <trkpt lat="42.15461" lon="19.03244">
        <ele>120.830295</ele>
        <time>2022-05-27T09:03:59.927Z</time>
      </trkpt>
      <trkpt lat="42.1547" lon="19.0324">
        <ele>121.122121</ele>
        <time>2022-05-27T09:04:05.864Z</time>
      </trkpt>
      <trkpt lat="42.15479" lon="19.03235">
        <ele>121.394733</ele>
        <time>2022-05-27T09:04:09.948Z</time>
      </trkpt>
      <trkpt lat="42.15487" lon="19.03229">
        <ele>121.680611</ele>
        <time>2022-05-27T09:04:15.883Z</time>
      </trkpt>
      <trkpt lat="42.15496" lon="19.03225">
        <ele>121.946213</ele>
        <time>2022-05-27T09:04:20.919Z</time>
      </trkpt>
      <trkpt lat="42.15506" lon="19.03219">
        <ele>122.260197</ele>
        <time>2022-05-27T09:04:26.861Z</time>
      </trkpt>
      <trkpt lat="42.15515" lon="19.03214">
        <ele>122.555038</ele>
        <time>2022-05-27T09:04:31.905Z</time>
      </trkpt>
      <trkpt lat="42.15524" lon="19.03208">
        <ele>122.839317</ele>
        <time>2022-05-27T09:04:36.854Z</time>
      </trkpt>
      <trkpt lat="42.15532" lon="19.03201">
        <ele>123.134592</ele>
        <time>2022-05-27T09:04:41.884Z</time>
      </trkpt>
      <trkpt lat="42.15542" lon="19.03196">
        <ele>123.436281</ele>
        <time>2022-05-27T09:04:46.864Z</time>
      </trkpt>
      <trkpt lat="42.15551" lon="19.0319">
        <ele>123.659747</ele>
        <time>2022-05-27T09:04:50.862Z</time>
      </trkpt>
      <trkpt lat="42.15558" lon="19.03183">
        <ele>123.868536</ele>
        <time>2022-05-27T09:04:55.883Z</time>
      </trkpt>
      <trkpt lat="42.15567" lon="19.03177">
        <ele>124.09361</ele>
        <time>2022-05-27T09:05:00.863Z</time>
      </trkpt>
      <trkpt lat="42.15575" lon="19.0317">
        <ele>124.324446</ele>
        <time>2022-05-27T09:05:05.877Z</time>
      </trkpt>
      <trkpt lat="42.15584" lon="19.03164">
        <ele>124.544665</ele>
        <time>2022-05-27T09:05:10.903Z</time>
      </trkpt>
      <trkpt lat="42.15592" lon="19.03156">
        <ele>124.771619</ele>
        <time>2022-05-27T09:05:16.876Z</time>
      </trkpt>
      <trkpt lat="42.15599" lon="19.03149">
        <ele>124.980612</ele>
        <time>2022-05-27T09:05:22.870Z</time>
      </trkpt>
      <trkpt lat="42.15608" lon="19.03142">
        <ele>125.21135</ele>
        <time>2022-05-27T09:05:29.870Z</time>
      </trkpt>
      <trkpt lat="42.15615" lon="19.03134">
        <ele>125.423206</ele>
        <time>2022-05-27T09:05:34.867Z</time>
      </trkpt>
      <trkpt lat="42.15623" lon="19.03126">
        <ele>125.647778</ele>
        <time>2022-05-27T09:05:40.874Z</time>
      </trkpt>
      <trkpt lat="42.1563" lon="19.03118">
        <ele>125.868742</ele>
        <time>2022-05-27T09:05:45.902Z</time>
      </trkpt>
      <trkpt lat="42.15638" lon="19.0311">
        <ele>126.087673</ele>
        <time>2022-05-27T09:05:50.867Z</time>
      </trkpt>
      <trkpt lat="42.15646" lon="19.031">
        <ele>126.335162</ele>
        <time>2022-05-27T09:05:56.911Z</time>
      </trkpt>
      <trkpt lat="42.15655" lon="19.03094">
        <ele>126.578625</ele>
        <time>2022-05-27T09:06:04.873Z</time>
      </trkpt>
      <trkpt lat="42.15675" lon="19.03063">
        <ele>127.275875</ele>
        <time>2022-05-27T09:10:36.880Z</time>
      </trkpt>
      <trkpt lat="42.15683" lon="19.03052">
        <ele>127.52691</ele>
        <time>2022-05-27T09:10:41.873Z</time>
      </trkpt>
      <trkpt lat="42.15689" lon="19.03042">
        <ele>127.887108</ele>
        <time>2022-05-27T09:10:46.887Z</time>
      </trkpt>
      <trkpt lat="42.15694" lon="19.03032">
        <ele>128.251384</ele>
        <time>2022-05-27T09:10:51.921Z</time>
      </trkpt>
      <trkpt lat="42.157" lon="19.03023">
        <ele>128.625439</ele>
        <time>2022-05-27T09:10:56.868Z</time>
      </trkpt>
      <trkpt lat="42.15706" lon="19.03013">
        <ele>128.99662</ele>
        <time>2022-05-27T09:11:01.897Z</time>
      </trkpt>
      <trkpt lat="42.15713" lon="19.03002">
        <ele>129.408818</ele>
        <time>2022-05-27T09:11:06.870Z</time>
      </trkpt>
      <trkpt lat="42.15718" lon="19.02991">
        <ele>129.796545</ele>
        <time>2022-05-27T09:11:11.873Z</time>
      </trkpt>
      <trkpt lat="42.15724" lon="19.02981">
        <ele>130.155901</ele>
        <time>2022-05-27T09:11:16.860Z</time>
      </trkpt>
      <trkpt lat="42.1573" lon="19.0297">
        <ele>130.565069</ele>
        <time>2022-05-27T09:11:22.865Z</time>
      </trkpt>
      <trkpt lat="42.15736" lon="19.02958">
        <ele>130.991291</ele>
        <time>2022-05-27T09:11:28.868Z</time>
      </trkpt>
      <trkpt lat="42.15741" lon="19.02947">
        <ele>131.377111</ele>
        <time>2022-05-27T09:11:33.871Z</time>
      </trkpt>
      <trkpt lat="42.15746" lon="19.02935">
        <ele>131.782225</ele>
        <time>2022-05-27T09:11:38.858Z</time>
      </trkpt>
      <trkpt lat="42.15751" lon="19.02924">
        <ele>132.175415</ele>
        <time>2022-05-27T09:11:43.896Z</time>
      </trkpt>
      <trkpt lat="42.15756" lon="19.02912">
        <ele>132.583096</ele>
        <time>2022-05-27T09:11:48.878Z</time>
      </trkpt>
      <trkpt lat="42.15762" lon="19.02899">
        <ele>133.005831</ele>
        <time>2022-05-27T09:11:54.871Z</time>
      </trkpt>
      <trkpt lat="42.15767" lon="19.02887">
        <ele>133.414892</ele>
        <time>2022-05-27T09:11:59.905Z</time>
      </trkpt>
      <trkpt lat="42.15771" lon="19.02877">
        <ele>133.77108</ele>
        <time>2022-05-27T09:12:04.898Z</time>
      </trkpt>
      <trkpt lat="42.15775" lon="19.02865">
        <ele>134.149277</ele>
        <time>2022-05-27T09:12:09.866Z</time>
      </trkpt>
      <trkpt lat="42.1578" lon="19.02852">
        <ele>134.57151</ele>
        <time>2022-05-27T09:12:15.879Z</time>
      </trkpt>
      <trkpt lat="42.15783" lon="19.0284">
        <ele>134.906333</ele>
        <time>2022-05-27T09:12:20.881Z</time>
      </trkpt>
      <trkpt lat="42.15787" lon="19.02828">
        <ele>135.199043</ele>
        <time>2022-05-27T09:12:25.878Z</time>
      </trkpt>
      <trkpt lat="42.1579" lon="19.02817">
        <ele>135.483943</ele>
        <time>2022-05-27T09:12:30.876Z</time>
      </trkpt>
      <trkpt lat="42.15794" lon="19.02805">
        <ele>135.782173</ele>
        <time>2022-05-27T09:12:35.857Z</time>
      </trkpt>
      <trkpt lat="42.15797" lon="19.02792">
        <ele>136.097886</ele>
        <time>2022-05-27T09:12:40.876Z</time>
      </trkpt>
      <trkpt lat="42.15799" lon="19.02778">
        <ele>136.44127</ele>
        <time>2022-05-27T09:12:46.875Z</time>
      </trkpt>
      <trkpt lat="42.15803" lon="19.02766">
        <ele>136.739326</ele>
        <time>2022-05-27T09:12:51.865Z</time>
      </trkpt>
      <trkpt lat="42.15805" lon="19.02753">
        <ele>137.039662</ele>
        <time>2022-05-27T09:12:56.842Z</time>
      </trkpt>
      <trkpt lat="42.15808" lon="19.02739">
        <ele>137.384549</ele>
        <time>2022-05-27T09:13:02.867Z</time>
      </trkpt>
      <trkpt lat="42.1581" lon="19.02727">
        <ele>137.682156</ele>
        <time>2022-05-27T09:13:07.871Z</time>
      </trkpt>
      <trkpt lat="42.15812" lon="19.02712">
        <ele>138.025159</ele>
        <time>2022-05-27T09:13:13.876Z</time>
      </trkpt>
      <trkpt lat="42.15812" lon="19.02699">
        <ele>138.346343</ele>
        <time>2022-05-27T09:13:20.866Z</time>
      </trkpt>
      <trkpt lat="42.15813" lon="19.02686">
        <ele>138.636991</ele>
        <time>2022-05-27T09:13:26.859Z</time>
      </trkpt>
      <trkpt lat="42.15814" lon="19.02672">
        <ele>138.964741</ele>
        <time>2022-05-27T09:13:32.873Z</time>
      </trkpt>
      <trkpt lat="42.15814" lon="19.02657">
        <ele>139.310771</ele>
        <time>2022-05-27T09:13:37.865Z</time>
      </trkpt>
      <trkpt lat="42.15814" lon="19.02644">
        <ele>139.614619</ele>
        <time>2022-05-27T09:13:42.871Z</time>
      </trkpt>
      <trkpt lat="42.15813" lon="19.02632">
        <ele>139.900189</ele>
        <time>2022-05-27T09:13:47.889Z</time>
      </trkpt>
      <trkpt lat="42.15813" lon="19.02619">
        <ele>140.202491</ele>
        <time>2022-05-27T09:13:53.869Z</time>
      </trkpt>
      <trkpt lat="42.15813" lon="19.02606">
        <ele>140.266209</ele>
        <time>2022-05-27T09:14:00.868Z</time>
      </trkpt>
      <trkpt lat="42.15808" lon="19.02569">
        <ele>139.656225</ele>
        <time>2022-05-27T09:20:00.860Z</time>
      </trkpt>
      <trkpt lat="42.15808" lon="19.02555">
        <ele>139.432724</ele>
        <time>2022-05-27T09:20:06.846Z</time>
      </trkpt>
      <trkpt lat="42.15806" lon="19.02542">
        <ele>139.223927</ele>
        <time>2022-05-27T09:20:12.862Z</time>
      </trkpt>
      <trkpt lat="42.15807" lon="19.0253">
        <ele>139.021058</ele>
        <time>2022-05-27T09:20:21.849Z</time>
      </trkpt>
      <trkpt lat="42.15843" lon="19.02451">
        <ele>137.520983</ele>
        <time>2022-05-27T09:21:22.857Z</time>
      </trkpt>
      <trkpt lat="42.1585" lon="19.02434">
        <ele>137.210831</ele>
        <time>2022-05-27T09:21:24.842Z</time>
      </trkpt>
      <trkpt lat="42.15878" lon="19.02359">
        <ele>138.914713</ele>
        <time>2022-05-27T09:21:28.846Z</time>
      </trkpt>
      <trkpt lat="42.15887" lon="19.02335">
        <ele>140.803214</ele>
        <time>2022-05-27T09:21:29.838Z</time>
      </trkpt>
      <trkpt lat="42.15894" lon="19.02315">
        <ele>142.326436</ele>
        <time>2022-05-27T09:21:30.834Z</time>
      </trkpt>
      <trkpt lat="42.15899" lon="19.02299">
        <ele>143.466535</ele>
        <time>2022-05-27T09:21:31.871Z</time>
      </trkpt>
      <trkpt lat="42.15904" lon="19.02284">
        <ele>144.628941</ele>
        <time>2022-05-27T09:21:32.838Z</time>
      </trkpt>
      <trkpt lat="42.1591" lon="19.0227">
        <ele>145.765696</ele>
        <time>2022-05-27T09:21:33.843Z</time>
      </trkpt>
      <trkpt lat="42.15915" lon="19.02259">
        <ele>146.624275</ele>
        <time>2022-05-27T09:21:34.846Z</time>
      </trkpt>
      <trkpt lat="42.15925" lon="19.02238">
        <ele>148.324293</ele>
        <time>2022-05-27T09:21:36.843Z</time>
      </trkpt>
      <trkpt lat="42.15936" lon="19.02222">
        <ele>149.870143</ele>
        <time>2022-05-27T09:21:38.845Z</time>
      </trkpt>
      <trkpt lat="42.15943" lon="19.02213">
        <ele>150.757706</ele>
        <time>2022-05-27T09:21:39.851Z</time>
      </trkpt>
      <trkpt lat="42.15952" lon="19.02197">
        <ele>152.137521</ele>
        <time>2022-05-27T09:21:40.842Z</time>
      </trkpt>
      <trkpt lat="42.15964" lon="19.02181">
        <ele>152.310649</ele>
        <time>2022-05-27T09:21:42.868Z</time>
      </trkpt>
      <trkpt lat="42.15976" lon="19.0217">
        <ele>150.518513</ele>
        <time>2022-05-27T09:21:44.842Z</time>
      </trkpt>
      <trkpt lat="42.15988" lon="19.02161">
        <ele>148.770506</ele>
        <time>2022-05-27T09:21:46.854Z</time>
      </trkpt>
      <trkpt lat="42.16002" lon="19.02152">
        <ele>146.852362</ele>
        <time>2022-05-27T09:21:48.861Z</time>
      </trkpt>
      <trkpt lat="42.16016" lon="19.02144">
        <ele>144.896997</ele>
        <time>2022-05-27T09:21:50.846Z</time>
      </trkpt>
      <trkpt lat="42.1603" lon="19.02137">
        <ele>143.015694</ele>
        <time>2022-05-27T09:21:52.836Z</time>
      </trkpt>
      <trkpt lat="42.16044" lon="19.0213">
        <ele>141.117845</ele>
        <time>2022-05-27T09:21:54.863Z</time>
      </trkpt>
      <trkpt lat="42.1606" lon="19.02124">
        <ele>139.04281</ele>
        <time>2022-05-27T09:21:56.837Z</time>
      </trkpt>
      <trkpt lat="42.16075" lon="19.02117">
        <ele>137.022346</ele>
        <time>2022-05-27T09:21:58.836Z</time>
      </trkpt>
      <trkpt lat="42.1609" lon="19.0211">
        <ele>135.049526</ele>
        <time>2022-05-27T09:22:00.859Z</time>
      </trkpt>
      <trkpt lat="42.16103" lon="19.02103">
        <ele>133.227063</ele>
        <time>2022-05-27T09:22:02.836Z</time>
      </trkpt>
      <trkpt lat="42.16116" lon="19.02095">
        <ele>131.471607</ele>
        <time>2022-05-27T09:22:04.848Z</time>
      </trkpt>
      <trkpt lat="42.16127" lon="19.02087">
        <ele>130.051719</ele>
        <time>2022-05-27T09:22:06.844Z</time>
      </trkpt>
      <trkpt lat="42.16138" lon="19.02074">
        <ele>128.823467</ele>
        <time>2022-05-27T09:22:08.846Z</time>
      </trkpt>
      <trkpt lat="42.1615" lon="19.0206">
        <ele>127.51858</ele>
        <time>2022-05-27T09:22:10.847Z</time>
      </trkpt>
      <trkpt lat="42.16161" lon="19.02042">
        <ele>126.12359</ele>
        <time>2022-05-27T09:22:12.846Z</time>
      </trkpt>
      <trkpt lat="42.16169" lon="19.02025">
        <ele>124.896443</ele>
        <time>2022-05-27T09:22:14.839Z</time>
      </trkpt>
      <trkpt lat="42.16174" lon="19.02015">
        <ele>124.140618</ele>
        <time>2022-05-27T09:22:15.853Z</time>
      </trkpt>
      <trkpt lat="42.16184" lon="19.01996">
        <ele>122.732633</ele>
        <time>2022-05-27T09:22:17.843Z</time>
      </trkpt>
      <trkpt lat="42.16195" lon="19.01979">
        <ele>121.343351</ele>
        <time>2022-05-27T09:22:19.847Z</time>
      </trkpt>
      <trkpt lat="42.16201" lon="19.01969">
        <ele>120.566708</ele>
        <time>2022-05-27T09:22:20.837Z</time>
      </trkpt>
      <trkpt lat="42.16213" lon="19.01953">
        <ele>119.172001</ele>
        <time>2022-05-27T09:22:22.867Z</time>
      </trkpt>
      <trkpt lat="42.16227" lon="19.01938">
        <ele>117.659788</ele>
        <time>2022-05-27T09:22:24.839Z</time>
      </trkpt>
      <trkpt lat="42.16242" lon="19.01925">
        <ele>116.224806</ele>
        <time>2022-05-27T09:22:26.847Z</time>
      </trkpt>
      <trkpt lat="42.16257" lon="19.01915">
        <ele>115.279454</ele>
        <time>2022-05-27T09:22:28.872Z</time>
      </trkpt>
      <trkpt lat="42.16265" lon="19.0191">
        <ele>114.982217</ele>
        <time>2022-05-27T09:22:29.843Z</time>
      </trkpt>
      <trkpt lat="42.16274" lon="19.01904">
        <ele>114.672032</ele>
        <time>2022-05-27T09:22:30.839Z</time>
      </trkpt>
      <trkpt lat="42.16289" lon="19.01895">
        <ele>114.130202</ele>
        <time>2022-05-27T09:22:32.837Z</time>
      </trkpt>
      <trkpt lat="42.16302" lon="19.01887">
        <ele>113.653811</ele>
        <time>2022-05-27T09:22:34.863Z</time>
      </trkpt>
      <trkpt lat="42.16315" lon="19.01876">
        <ele>113.162404</ele>
        <time>2022-05-27T09:22:36.853Z</time>
      </trkpt>
      <trkpt lat="42.16328" lon="19.01864">
        <ele>112.636317</ele>
        <time>2022-05-27T09:22:38.846Z</time>
      </trkpt>
      <trkpt lat="42.16342" lon="19.01848">
        <ele>112.048523</ele>
        <time>2022-05-27T09:22:40.838Z</time>
      </trkpt>
      <trkpt lat="42.16353" lon="19.01831">
        <ele>111.491445</ele>
        <time>2022-05-27T09:22:42.840Z</time>
      </trkpt>
      <trkpt lat="42.16363" lon="19.01815">
        <ele>110.988135</ele>
        <time>2022-05-27T09:22:44.880Z</time>
      </trkpt>
      <trkpt lat="42.16373" lon="19.01797">
        <ele>110.452555</ele>
        <time>2022-05-27T09:22:46.876Z</time>
      </trkpt>
      <trkpt lat="42.1638" lon="19.01781">
        <ele>110.002641</ele>
        <time>2022-05-27T09:22:48.868Z</time>
      </trkpt>
      <trkpt lat="42.16386" lon="19.01764">
        <ele>109.693578</ele>
        <time>2022-05-27T09:22:50.876Z</time>
      </trkpt>
      <trkpt lat="42.16391" lon="19.01748">
        <ele>109.725012</ele>
        <time>2022-05-27T09:22:52.870Z</time>
      </trkpt>
      <trkpt lat="42.16396" lon="19.01731">
        <ele>109.755621</ele>
        <time>2022-05-27T09:22:54.864Z</time>
      </trkpt>
      <trkpt lat="42.16401" lon="19.01715">
        <ele>109.784954</ele>
        <time>2022-05-27T09:22:56.862Z</time>
      </trkpt>
      <trkpt lat="42.16406" lon="19.01699">
        <ele>109.814309</ele>
        <time>2022-05-27T09:22:58.872Z</time>
      </trkpt>
      <trkpt lat="42.16411" lon="19.01685">
        <ele>109.841106</ele>
        <time>2022-05-27T09:23:00.869Z</time>
      </trkpt>
      <trkpt lat="42.16416" lon="19.01673">
        <ele>109.86596</ele>
        <time>2022-05-27T09:23:02.839Z</time>
      </trkpt>
      <trkpt lat="42.16422" lon="19.0166">
        <ele>109.891464</ele>
        <time>2022-05-27T09:23:04.879Z</time>
      </trkpt>
      <trkpt lat="42.16427" lon="19.01649">
        <ele>109.913974</ele>
        <time>2022-05-27T09:23:06.861Z</time>
      </trkpt>
      <trkpt lat="42.16433" lon="19.01639">
        <ele>109.936193</ele>
        <time>2022-05-27T09:23:08.863Z</time>
      </trkpt>
      <trkpt lat="42.16442" lon="19.01625">
        <ele>109.96796</ele>
        <time>2022-05-27T09:23:11.868Z</time>
      </trkpt>
      <trkpt lat="42.1645" lon="19.01612">
        <ele>109.996853</ele>
        <time>2022-05-27T09:23:14.902Z</time>
      </trkpt>
      <trkpt lat="42.16456" lon="19.01603">
        <ele>110.017752</ele>
        <time>2022-05-27T09:23:16.886Z</time>
      </trkpt>
      <trkpt lat="42.16464" lon="19.01589">
        <ele>110.048014</ele>
        <time>2022-05-27T09:23:19.881Z</time>
      </trkpt>
      <trkpt lat="42.16472" lon="19.01575">
        <ele>110.078241</ele>
        <time>2022-05-27T09:23:22.872Z</time>
      </trkpt>
      <trkpt lat="42.16478" lon="19.01561">
        <ele>110.155426</ele>
        <time>2022-05-27T09:23:25.918Z</time>
      </trkpt>
      <trkpt lat="42.16483" lon="19.01547">
        <ele>110.477029</ele>
        <time>2022-05-27T09:23:28.875Z</time>
      </trkpt>
      <trkpt lat="42.16489" lon="19.01533">
        <ele>110.809226</ele>
        <time>2022-05-27T09:23:31.861Z</time>
      </trkpt>
      <trkpt lat="42.16494" lon="19.01517">
        <ele>111.15335</ele>
        <time>2022-05-27T09:23:34.872Z</time>
      </trkpt>
      <trkpt lat="42.16498" lon="19.01502">
        <ele>111.464347</ele>
        <time>2022-05-27T09:23:37.884Z</time>
      </trkpt>
      <trkpt lat="42.16501" lon="19.01488">
        <ele>111.766926</ele>
        <time>2022-05-27T09:23:40.869Z</time>
      </trkpt>
      <trkpt lat="42.16505" lon="19.01473">
        <ele>112.080809</ele>
        <time>2022-05-27T09:23:43.893Z</time>
      </trkpt>
      <trkpt lat="42.16509" lon="19.01458">
        <ele>112.406927</ele>
        <time>2022-05-27T09:23:46.876Z</time>
      </trkpt>
      <trkpt lat="42.16513" lon="19.01446">
        <ele>112.664981</ele>
        <time>2022-05-27T09:23:48.903Z</time>
      </trkpt>
      <trkpt lat="42.16518" lon="19.01431">
        <ele>112.99819</ele>
        <time>2022-05-27T09:23:51.881Z</time>
      </trkpt>
      <trkpt lat="42.16524" lon="19.01416">
        <ele>113.344125</ele>
        <time>2022-05-27T09:23:54.875Z</time>
      </trkpt>
      <trkpt lat="42.1653" lon="19.01402">
        <ele>113.667467</ele>
        <time>2022-05-27T09:23:57.875Z</time>
      </trkpt>
      <trkpt lat="42.16537" lon="19.0139">
        <ele>113.98012</ele>
        <time>2022-05-27T09:24:00.870Z</time>
      </trkpt>
      <trkpt lat="42.16545" lon="19.01379">
        <ele>114.288499</ele>
        <time>2022-05-27T09:24:03.868Z</time>
      </trkpt>
      <trkpt lat="42.16553" lon="19.01369">
        <ele>114.589846</ele>
        <time>2022-05-27T09:24:06.852Z</time>
      </trkpt>
      <trkpt lat="42.16562" lon="19.01361">
        <ele>114.872912</ele>
        <time>2022-05-27T09:24:09.868Z</time>
      </trkpt>
      <trkpt lat="42.16571" lon="19.01352">
        <ele>115.213719</ele>
        <time>2022-05-27T09:24:12.866Z</time>
      </trkpt>
      <trkpt lat="42.16581" lon="19.01344">
        <ele>115.58588</ele>
        <time>2022-05-27T09:24:15.892Z</time>
      </trkpt>
      <trkpt lat="42.1659" lon="19.01336">
        <ele>115.954431</ele>
        <time>2022-05-27T09:24:18.864Z</time>
      </trkpt>
      <trkpt lat="42.166" lon="19.01328">
        <ele>116.312255</ele>
        <time>2022-05-27T09:24:21.907Z</time>
      </trkpt>
      <trkpt lat="42.16609" lon="19.0132">
        <ele>116.660433</ele>
        <time>2022-05-27T09:24:24.876Z</time>
      </trkpt>
      <trkpt lat="42.16618" lon="19.01312">
        <ele>116.996544</ele>
        <time>2022-05-27T09:24:27.876Z</time>
      </trkpt>
      <trkpt lat="42.16625" lon="19.01304">
        <ele>117.310707</ele>
        <time>2022-05-27T09:24:30.880Z</time>
      </trkpt>
      <trkpt lat="42.16632" lon="19.01296">
        <ele>117.612345</ele>
        <time>2022-05-27T09:24:33.873Z</time>
      </trkpt>
      <trkpt lat="42.16641" lon="19.01285">
        <ele>117.983371</ele>
        <time>2022-05-27T09:24:37.875Z</time>
      </trkpt>
      <trkpt lat="42.16648" lon="19.01274">
        <ele>118.330497</ele>
        <time>2022-05-27T09:24:41.859Z</time>
      </trkpt>
      <trkpt lat="42.16654" lon="19.01261">
        <ele>118.683271</ele>
        <time>2022-05-27T09:24:45.871Z</time>
      </trkpt>
      <trkpt lat="42.16659" lon="19.0125">
        <ele>119.017724</ele>
        <time>2022-05-27T09:24:49.880Z</time>
      </trkpt>
      <trkpt lat="42.16663" lon="19.01238">
        <ele>119.327172</ele>
        <time>2022-05-27T09:24:53.878Z</time>
      </trkpt>
      <trkpt lat="42.16667" lon="19.01225">
        <ele>119.657023</ele>
        <time>2022-05-27T09:24:57.868Z</time>
      </trkpt>
      <trkpt lat="42.1667" lon="19.01212">
        <ele>119.985789</ele>
        <time>2022-05-27T09:25:01.879Z</time>
      </trkpt>
      <trkpt lat="42.16673" lon="19.01199">
        <ele>120.305688</ele>
        <time>2022-05-27T09:25:05.873Z</time>
      </trkpt>
      <trkpt lat="42.16676" lon="19.01187">
        <ele>120.608428</ele>
        <time>2022-05-27T09:25:09.871Z</time>
      </trkpt>
      <trkpt lat="42.16679" lon="19.01173">
        <ele>121.234199</ele>
        <time>2022-05-27T09:25:14.864Z</time>
      </trkpt>
      <trkpt lat="42.16681" lon="19.01162">
        <ele>122.05793</ele>
        <time>2022-05-27T09:25:20.889Z</time>
      </trkpt>
      <trkpt lat="42.16685" lon="19.01148">
        <ele>123.005215</ele>
        <time>2022-05-27T09:25:26.869Z</time>
      </trkpt>
      <trkpt lat="42.16688" lon="19.01137">
        <ele>123.821037</ele>
        <time>2022-05-27T09:25:31.881Z</time>
      </trkpt>
      <trkpt lat="42.16692" lon="19.01125">
        <ele>124.675977</ele>
        <time>2022-05-27T09:25:37.880Z</time>
      </trkpt>
      <trkpt lat="42.16697" lon="19.01113">
        <ele>125.614927</ele>
        <time>2022-05-27T09:25:43.938Z</time>
      </trkpt>
      <trkpt lat="42.16701" lon="19.01102">
        <ele>126.465731</ele>
        <time>2022-05-27T09:25:49.879Z</time>
      </trkpt>
      <trkpt lat="42.16706" lon="19.01091">
        <ele>127.344443</ele>
        <time>2022-05-27T09:25:55.869Z</time>
      </trkpt>
      <trkpt lat="42.16712" lon="19.0108">
        <ele>128.196419</ele>
        <time>2022-05-27T09:26:01.866Z</time>
      </trkpt>
      <trkpt lat="42.16718" lon="19.0107">
        <ele>129.059966</ele>
        <time>2022-05-27T09:26:07.912Z</time>
      </trkpt>
      <trkpt lat="42.16724" lon="19.01061">
        <ele>129.891849</ele>
        <time>2022-05-27T09:26:14.856Z</time>
      </trkpt>
      <trkpt lat="42.16731" lon="19.01052">
        <ele>130.796343</ele>
        <time>2022-05-27T09:26:22.867Z</time>
      </trkpt>
      <trkpt lat="42.16738" lon="19.01044">
        <ele>131.645271</ele>
        <time>2022-05-27T09:26:29.869Z</time>
      </trkpt>
      <trkpt lat="42.16746" lon="19.01037">
        <ele>132.519983</ele>
        <time>2022-05-27T09:26:37.975Z</time>
      </trkpt>
      <trkpt lat="42.16755" lon="19.0103">
        <ele>133.390282</ele>
        <time>2022-05-27T09:26:44.877Z</time>
      </trkpt>
      <trkpt lat="42.16764" lon="19.01024">
        <ele>134.338746</ele>
        <time>2022-05-27T09:26:51.881Z</time>
      </trkpt>
      <trkpt lat="42.16774" lon="19.01019">
        <ele>135.268214</ele>
        <time>2022-05-27T09:26:59.909Z</time>
      </trkpt>
      <trkpt lat="42.16783" lon="19.01015">
        <ele>136.186344</ele>
        <time>2022-05-27T09:27:07.874Z</time>
      </trkpt>
      <trkpt lat="42.16793" lon="19.01011">
        <ele>137.085805</ele>
        <time>2022-05-27T09:27:14.861Z</time>
      </trkpt>
      <trkpt lat="42.16803" lon="19.01009">
        <ele>137.611515</ele>
        <time>2022-05-27T09:27:21.894Z</time>
      </trkpt>
      <trkpt lat="42.16813" lon="19.01007">
        <ele>138.086687</ele>
        <time>2022-05-27T09:27:28.867Z</time>
      </trkpt>
      <trkpt lat="42.16823" lon="19.01008">
        <ele>138.623264</ele>
        <time>2022-05-27T09:27:35.875Z</time>
      </trkpt>
      <trkpt lat="42.16833" lon="19.01009">
        <ele>139.097918</ele>
        <time>2022-05-27T09:27:43.902Z</time>
      </trkpt>
      <trkpt lat="42.16841" lon="19.01011">
        <ele>139.550675</ele>
        <time>2022-05-27T09:27:50.860Z</time>
      </trkpt>
      <trkpt lat="42.16851" lon="19.01013">
        <ele>140.02036</ele>
        <time>2022-05-27T09:27:57.870Z</time>
      </trkpt>
      <trkpt lat="42.1686" lon="19.01016">
        <ele>140.519818</ele>
        <time>2022-05-27T09:28:04.855Z</time>
      </trkpt>
      <trkpt lat="42.16869" lon="19.0102">
        <ele>141.00868</ele>
        <time>2022-05-27T09:28:12.904Z</time>
      </trkpt>
      <trkpt lat="42.16878" lon="19.01023">
        <ele>141.478599</ele>
        <time>2022-05-27T09:28:20.882Z</time>
      </trkpt>
      <trkpt lat="42.16888" lon="19.01028">
        <ele>141.974821</ele>
        <time>2022-05-27T09:28:27.870Z</time>
      </trkpt>
      <trkpt lat="42.16897" lon="19.01033">
        <ele>142.4793</ele>
        <time>2022-05-27T09:28:34.897Z</time>
      </trkpt>
      <trkpt lat="42.16906" lon="19.01038">
        <ele>142.98157</ele>
        <time>2022-05-27T09:28:41.872Z</time>
      </trkpt>
      <trkpt lat="42.16915" lon="19.01042">
        <ele>143.470431</ele>
        <time>2022-05-27T09:28:48.853Z</time>
      </trkpt>
      <trkpt lat="42.16925" lon="19.01045">
        <ele>143.967519</ele>
        <time>2022-05-27T09:28:55.877Z</time>
      </trkpt>
      <trkpt lat="42.16935" lon="19.01048">
        <ele>144.50884</ele>
        <time>2022-05-27T09:29:03.881Z</time>
      </trkpt>
      <trkpt lat="42.16945" lon="19.01049">
        <ele>145.000343</ele>
        <time>2022-05-27T09:29:10.877Z</time>
      </trkpt>
      <trkpt lat="42.16954" lon="19.01048">
        <ele>145.471237</ele>
        <time>2022-05-27T09:29:18.866Z</time>
      </trkpt>
      <trkpt lat="42.16965" lon="19.01047">
        <ele>145.995195</ele>
        <time>2022-05-27T09:29:26.863Z</time>
      </trkpt>
      <trkpt lat="42.16974" lon="19.01044">
        <ele>146.999764</ele>
        <time>2022-05-27T09:29:33.861Z</time>
      </trkpt>
      <trkpt lat="42.16982" lon="19.01039">
        <ele>148.297611</ele>
        <time>2022-05-27T09:29:40.890Z</time>
      </trkpt>
      <trkpt lat="42.16991" lon="19.01033">
        <ele>149.711049</ele>
        <time>2022-05-27T09:29:48.906Z</time>
      </trkpt>
      <trkpt lat="42.16999" lon="19.01027">
        <ele>151.039896</ele>
        <time>2022-05-27T09:29:56.876Z</time>
      </trkpt>
      <trkpt lat="42.17007" lon="19.01018">
        <ele>152.524704</ele>
        <time>2022-05-27T09:30:04.880Z</time>
      </trkpt>
      <trkpt lat="42.17014" lon="19.0101">
        <ele>153.866739</ele>
        <time>2022-05-27T09:30:10.865Z</time>
      </trkpt>
      <trkpt lat="42.17021" lon="19.01001">
        <ele>155.173267</ele>
        <time>2022-05-27T09:30:16.902Z</time>
      </trkpt>
      <trkpt lat="42.17028" lon="19.00992">
        <ele>156.560432</ele>
        <time>2022-05-27T09:30:24.873Z</time>
      </trkpt>
      <trkpt lat="42.17033" lon="19.00981">
        <ele>157.868808</ele>
        <time>2022-05-27T09:30:32.869Z</time>
      </trkpt>
      <trkpt lat="42.17039" lon="19.00971">
        <ele>159.218928</ele>
        <time>2022-05-27T09:30:39.867Z</time>
      </trkpt>
      <trkpt lat="42.17044" lon="19.0096">
        <ele>160.614607</ele>
        <time>2022-05-27T09:30:46.877Z</time>
      </trkpt>
      <trkpt lat="42.1705" lon="19.0095">
        <ele>161.924471</ele>
        <time>2022-05-27T09:30:53.868Z</time>
      </trkpt>
      <trkpt lat="42.17058" lon="19.00941">
        <ele>163.340068</ele>
        <time>2022-05-27T09:31:02.874Z</time>
      </trkpt>
      <trkpt lat="42.17064" lon="19.00933">
        <ele>164.630177</ele>
        <time>2022-05-27T09:31:09.868Z</time>
      </trkpt>
      <trkpt lat="42.17072" lon="19.00924">
        <ele>166.015794</ele>
        <time>2022-05-27T09:31:17.912Z</time>
      </trkpt>
      <trkpt lat="42.17079" lon="19.00916">
        <ele>167.340226</ele>
        <time>2022-05-27T09:31:26.870Z</time>
      </trkpt>
      <trkpt lat="42.17086" lon="19.00908">
        <ele>168.750092</ele>
        <time>2022-05-27T09:31:33.860Z</time>
      </trkpt>
      <trkpt lat="42.17094" lon="19.009">
        <ele>170.095251</ele>
        <time>2022-05-27T09:31:40.869Z</time>
      </trkpt>
      <trkpt lat="42.17102" lon="19.00893">
        <ele>171.464879</ele>
        <time>2022-05-27T09:31:47.885Z</time>
      </trkpt>
      <trkpt lat="42.1711" lon="19.00886">
        <ele>171.939171</ele>
        <time>2022-05-27T09:31:55.870Z</time>
      </trkpt>
      <trkpt lat="42.17118" lon="19.00881">
        <ele>172.289449</ele>
        <time>2022-05-27T09:32:02.870Z</time>
      </trkpt>
      <trkpt lat="42.17127" lon="19.00876">
        <ele>172.627792</ele>
        <time>2022-05-27T09:32:09.850Z</time>
      </trkpt>
      <trkpt lat="42.17136" lon="19.00872">
        <ele>172.976978</ele>
        <time>2022-05-27T09:32:16.865Z</time>
      </trkpt>
      <trkpt lat="42.17145" lon="19.00868">
        <ele>173.329668</ele>
        <time>2022-05-27T09:32:24.869Z</time>
      </trkpt>
      <trkpt lat="42.17154" lon="19.00864">
        <ele>173.676225</ele>
        <time>2022-05-27T09:32:32.845Z</time>
      </trkpt>
      <trkpt lat="42.17163" lon="19.00862">
        <ele>174.010743</ele>
        <time>2022-05-27T09:32:40.878Z</time>
      </trkpt>
      <trkpt lat="42.17174" lon="19.00858">
        <ele>174.40211</ele>
        <time>2022-05-27T09:32:49.876Z</time>
      </trkpt>
      <trkpt lat="42.17183" lon="19.00856">
        <ele>174.754188</ele>
        <time>2022-05-27T09:32:57.878Z</time>
      </trkpt>
      <trkpt lat="42.17193" lon="19.00854">
        <ele>175.112668</ele>
        <time>2022-05-27T09:33:06.894Z</time>
      </trkpt>
      <trkpt lat="42.17203" lon="19.00852">
        <ele>175.491345</ele>
        <time>2022-05-27T09:33:16.874Z</time>
      </trkpt>
      <trkpt lat="42.17212" lon="19.0085">
        <ele>175.832158</ele>
        <time>2022-05-27T09:33:25.877Z</time>
      </trkpt>
      <trkpt lat="42.17221" lon="19.00846">
        <ele>176.166602</ele>
        <time>2022-05-27T09:33:33.867Z</time>
      </trkpt>
      <trkpt lat="42.1723" lon="19.00844">
        <ele>176.503805</ele>
        <time>2022-05-27T09:33:42.914Z</time>
      </trkpt>
      <trkpt lat="42.17239" lon="19.00839">
        <ele>176.857745</ele>
        <time>2022-05-27T09:33:51.873Z</time>
      </trkpt>
      <trkpt lat="42.17248" lon="19.00835">
        <ele>177.206931</ele>
        <time>2022-05-27T09:33:57.859Z</time>
      </trkpt>
      <trkpt lat="42.17256" lon="19.0083">
        <ele>177.541616</ele>
        <time>2022-05-27T09:34:06.879Z</time>
      </trkpt>
      <trkpt lat="42.17264" lon="19.00824">
        <ele>177.87699</ele>
        <time>2022-05-27T09:34:17.877Z</time>
      </trkpt>
      <trkpt lat="42.17273" lon="19.00817">
        <ele>178.233411</ele>
        <time>2022-05-27T09:34:26.865Z</time>
      </trkpt>
      <trkpt lat="42.1728" lon="19.0081">
        <ele>178.25933</ele>
        <time>2022-05-27T09:34:35.882Z</time>
      </trkpt>
      <trkpt lat="42.17289" lon="19.00802">
        <ele>178.288676</ele>
        <time>2022-05-27T09:34:40.888Z</time>
      </trkpt>
      <trkpt lat="42.17296" lon="19.00795">
        <ele>178.314803</ele>
        <time>2022-05-27T09:34:48.872Z</time>
      </trkpt>
      <trkpt lat="42.173" lon="19.00783">
        <ele>178.342091</ele>
        <time>2022-05-27T09:34:54.923Z</time>
      </trkpt>
      <trkpt lat="42.17307" lon="19.00775">
        <ele>178.369547</ele>
        <time>2022-05-27T09:35:02.877Z</time>
      </trkpt>
      <trkpt lat="42.17314" lon="19.00766">
        <ele>178.396108</ele>
        <time>2022-05-27T09:35:14.881Z</time>
      </trkpt>
      <trkpt lat="42.17316" lon="19.00753">
        <ele>178.424341</ele>
        <time>2022-05-27T09:35:21.867Z</time>
      </trkpt>
      <trkpt lat="42.17321" lon="19.00743">
        <ele>178.451776</ele>
        <time>2022-05-27T09:35:28.869Z</time>
      </trkpt>
      <trkpt lat="42.17325" lon="19.00732">
        <ele>178.478293</ele>
        <time>2022-05-27T09:35:36.870Z</time>
      </trkpt>
      <trkpt lat="42.17328" lon="19.00718">
        <ele>178.507423</ele>
        <time>2022-05-27T09:35:44.883Z</time>
      </trkpt>
      <trkpt lat="42.1733" lon="19.00706">
        <ele>178.534053</ele>
        <time>2022-05-27T09:35:50.905Z</time>
      </trkpt>
      <trkpt lat="42.17334" lon="19.00694">
        <ele>178.561853</ele>
        <time>2022-05-27T09:35:57.859Z</time>
      </trkpt>
      <trkpt lat="42.17339" lon="19.00683">
        <ele>178.589863</ele>
        <time>2022-05-27T09:36:03.878Z</time>
      </trkpt>
      <trkpt lat="42.17342" lon="19.0067">
        <ele>178.617977</ele>
        <time>2022-05-27T09:36:11.856Z</time>
      </trkpt>
      <trkpt lat="42.17343" lon="19.00657">
        <ele>178.645617</ele>
        <time>2022-05-27T09:36:19.868Z</time>
      </trkpt>
      <trkpt lat="42.17344" lon="19.00644">
        <ele>178.673282</ele>
        <time>2022-05-27T09:36:27.869Z</time>
      </trkpt>
      <trkpt lat="42.17344" lon="19.00631">
        <ele>178.701886</ele>
        <time>2022-05-27T09:36:35.855Z</time>
      </trkpt>
      <trkpt lat="42.17343" lon="19.00618">
        <ele>178.730429</ele>
        <time>2022-05-27T09:36:42.868Z</time>
      </trkpt>
      <trkpt lat="42.17341" lon="19.00606">
        <ele>178.822294</ele>
        <time>2022-05-27T09:36:49.883Z</time>
      </trkpt>
      <trkpt lat="42.17338" lon="19.00594">
        <ele>179.131766</ele>
        <time>2022-05-27T09:36:56.885Z</time>
      </trkpt>
      <trkpt lat="42.17335" lon="19.00581">
        <ele>179.461791</ele>
        <time>2022-05-27T09:37:04.934Z</time>
      </trkpt>
      <trkpt lat="42.17331" lon="19.0057">
        <ele>179.759587</ele>
        <time>2022-05-27T09:37:10.882Z</time>
      </trkpt>
      <trkpt lat="42.17326" lon="19.0056">
        <ele>180.068868</ele>
        <time>2022-05-27T09:37:17.935Z</time>
      </trkpt>
      <trkpt lat="42.17319" lon="19.00549">
        <ele>180.410759</ele>
        <time>2022-05-27T09:37:24.885Z</time>
      </trkpt>
      <trkpt lat="42.17313" lon="19.00538">
        <ele>180.745989</ele>
        <time>2022-05-27T09:37:32.868Z</time>
      </trkpt>
      <trkpt lat="42.17306" lon="19.00528">
        <ele>181.079839</ele>
        <time>2022-05-27T09:37:39.910Z</time>
      </trkpt>
      <trkpt lat="42.173" lon="19.00518">
        <ele>181.393628</ele>
        <time>2022-05-27T09:37:46.863Z</time>
      </trkpt>
      <trkpt lat="42.17294" lon="19.00508">
        <ele>181.717077</ele>
        <time>2022-05-27T09:37:54.880Z</time>
      </trkpt>
      <trkpt lat="42.17288" lon="19.00498">
        <ele>182.022408</ele>
        <time>2022-05-27T09:38:01.907Z</time>
      </trkpt>
      <trkpt lat="42.17282" lon="19.00489">
        <ele>182.332778</ele>
        <time>2022-05-27T09:38:08.897Z</time>
      </trkpt>
      <trkpt lat="42.17276" lon="19.00479">
        <ele>182.640158</ele>
        <time>2022-05-27T09:38:15.866Z</time>
      </trkpt>
      <trkpt lat="42.17271" lon="19.00469">
        <ele>182.953556</ele>
        <time>2022-05-27T09:38:22.875Z</time>
      </trkpt>
      <trkpt lat="42.17265" lon="19.00458">
        <ele>183.276737</ele>
        <time>2022-05-27T09:38:29.846Z</time>
      </trkpt>
      <trkpt lat="42.17259" lon="19.00448">
        <ele>183.584645</ele>
        <time>2022-05-27T09:38:36.861Z</time>
      </trkpt>
      <trkpt lat="42.17253" lon="19.00438">
        <ele>183.911902</ele>
        <time>2022-05-27T09:38:44.872Z</time>
      </trkpt>
      <trkpt lat="42.17247" lon="19.00427">
        <ele>184.232994</ele>
        <time>2022-05-27T09:38:52.858Z</time>
      </trkpt>
      <trkpt lat="42.17241" lon="19.00417">
        <ele>184.554086</ele>
        <time>2022-05-27T09:39:00.877Z</time>
      </trkpt>
      <trkpt lat="42.17236" lon="19.00406">
        <ele>185.336921</ele>
        <time>2022-05-27T09:39:07.881Z</time>
      </trkpt>
      <trkpt lat="42.17232" lon="19.00394">
        <ele>186.548335</ele>
        <time>2022-05-27T09:39:15.875Z</time>
      </trkpt>
      <trkpt lat="42.17228" lon="19.00381">
        <ele>187.875524</ele>
        <time>2022-05-27T09:39:22.866Z</time>
      </trkpt>
      <trkpt lat="42.17223" lon="19.00369">
        <ele>189.170156</ele>
        <time>2022-05-27T09:39:30.919Z</time>
      </trkpt>
      <trkpt lat="42.1722" lon="19.00357">
        <ele>190.334723</ele>
        <time>2022-05-27T09:39:37.875Z</time>
      </trkpt>
      <trkpt lat="42.17218" lon="19.00344">
        <ele>191.570895</ele>
        <time>2022-05-27T09:39:44.880Z</time>
      </trkpt>
      <trkpt lat="42.17215" lon="19.00332">
        <ele>192.699785</ele>
        <time>2022-05-27T09:39:51.876Z</time>
      </trkpt>
      <trkpt lat="42.17214" lon="19.0032">
        <ele>193.853489</ele>
        <time>2022-05-27T09:39:59.861Z</time>
      </trkpt>
      <trkpt lat="42.17213" lon="19.00307">
        <ele>195.072107</ele>
        <time>2022-05-27T09:40:07.870Z</time>
      </trkpt>
      <trkpt lat="42.17213" lon="19.00293">
        <ele>196.314486</ele>
        <time>2022-05-27T09:40:15.868Z</time>
      </trkpt>
      <trkpt lat="42.17214" lon="19.0028">
        <ele>197.506505</ele>
        <time>2022-05-27T09:40:23.873Z</time>
      </trkpt>
      <trkpt lat="42.17215" lon="19.00268">
        <ele>198.677061</ele>
        <time>2022-05-27T09:40:31.864Z</time>
      </trkpt>
      <trkpt lat="42.17216" lon="19.00255">
        <ele>199.867432</ele>
        <time>2022-05-27T09:40:39.876Z</time>
      </trkpt>
      <trkpt lat="42.17218" lon="19.00243">
        <ele>200.988691</ele>
        <time>2022-05-27T09:40:46.877Z</time>
      </trkpt>
      <trkpt lat="42.1722" lon="19.0023">
        <ele>202.212767</ele>
        <time>2022-05-27T09:40:54.887Z</time>
      </trkpt>
      <trkpt lat="42.17222" lon="19.00216">
        <ele>203.560322</ele>
        <time>2022-05-27T09:41:02.878Z</time>
      </trkpt>
      <trkpt lat="42.17226" lon="19.00204">
        <ele>204.77511</ele>
        <time>2022-05-27T09:41:09.907Z</time>
      </trkpt>
      <trkpt lat="42.1723" lon="19.00192">
        <ele>206.059382</ele>
        <time>2022-05-27T09:41:16.861Z</time>
      </trkpt>
      <trkpt lat="42.17233" lon="19.0018">
        <ele>207.212069</ele>
        <time>2022-05-27T09:41:23.881Z</time>
      </trkpt>
      <trkpt lat="42.1724" lon="19.00168">
        <ele>208.218122</ele>
        <time>2022-05-27T09:41:31.912Z</time>
      </trkpt>
      <trkpt lat="42.17245" lon="19.00158">
        <ele>209.082183</ele>
        <time>2022-05-27T09:41:38.862Z</time>
      </trkpt>
      <trkpt lat="42.1725" lon="19.00147">
        <ele>210.031957</ele>
        <time>2022-05-27T09:41:46.869Z</time>
      </trkpt>
      <trkpt lat="42.17256" lon="19.00137">
        <ele>210.935651</ele>
        <time>2022-05-27T09:41:54.922Z</time>
      </trkpt>
      <trkpt lat="42.17262" lon="19.00128">
        <ele>211.80354</ele>
        <time>2022-05-27T09:42:01.859Z</time>
      </trkpt>
      <trkpt lat="42.17269" lon="19.00118">
        <ele>212.746606</ele>
        <time>2022-05-27T09:42:09.880Z</time>
      </trkpt>
      <trkpt lat="42.17276" lon="19.00109">
        <ele>213.679223</ele>
        <time>2022-05-27T09:42:17.865Z</time>
      </trkpt>
      <trkpt lat="42.17283" lon="19.001">
        <ele>214.577993</ele>
        <time>2022-05-27T09:42:25.880Z</time>
      </trkpt>
      <trkpt lat="42.1729" lon="19.00092">
        <ele>215.464937</ele>
        <time>2022-05-27T09:42:33.901Z</time>
      </trkpt>
      <trkpt lat="42.17297" lon="19.00085">
        <ele>216.340741</ele>
        <time>2022-05-27T09:42:41.885Z</time>
      </trkpt>
      <trkpt lat="42.17305" lon="19.00079">
        <ele>217.195745</ele>
        <time>2022-05-27T09:42:48.856Z</time>
      </trkpt>
      <trkpt lat="42.17313" lon="19.00073">
        <ele>218.083365</ele>
        <time>2022-05-27T09:42:55.884Z</time>
      </trkpt>
      <trkpt lat="42.17321" lon="19.00066">
        <ele>218.986438</ele>
        <time>2022-05-27T09:43:02.864Z</time>
      </trkpt>
      <trkpt lat="42.1733" lon="19.0006">
        <ele>219.939143</ele>
        <time>2022-05-27T09:43:10.870Z</time>
      </trkpt>
      <trkpt lat="42.17338" lon="19.00054">
        <ele>220.823176</ele>
        <time>2022-05-27T09:43:17.860Z</time>
      </trkpt>
      <trkpt lat="42.17346" lon="19.00048">
        <ele>221.705687</ele>
        <time>2022-05-27T09:43:25.862Z</time>
      </trkpt>
      <trkpt lat="42.17355" lon="19.00043">
        <ele>222.576516</ele>
        <time>2022-05-27T09:43:32.883Z</time>
      </trkpt>
      <trkpt lat="42.17363" lon="19.00037">
        <ele>223.507097</ele>
        <time>2022-05-27T09:43:39.904Z</time>
      </trkpt>
      <trkpt lat="42.17371" lon="19.0003">
        <ele>224.38397</ele>
        <time>2022-05-27T09:43:46.857Z</time>
      </trkpt>
      <trkpt lat="42.17379" lon="19.00024">
        <ele>224.919689</ele>
        <time>2022-05-27T09:43:53.867Z</time>
      </trkpt>
      <trkpt lat="42.17387" lon="19.00017">
        <ele>225.453239</ele>
        <time>2022-05-27T09:44:01.862Z</time>
      </trkpt>
      <trkpt lat="42.17395" lon="19.00008">
        <ele>226.062498</ele>
        <time>2022-05-27T09:44:09.880Z</time>
      </trkpt>
      <trkpt lat="42.17402" lon="19">
        <ele>226.638894</ele>
        <time>2022-05-27T09:44:17.876Z</time>
      </trkpt>
      <trkpt lat="42.1741" lon="18.99991">
        <ele>227.235342</ele>
        <time>2022-05-27T09:44:25.899Z</time>
      </trkpt>
      <trkpt lat="42.17417" lon="18.99982">
        <ele>227.828064</ele>
        <time>2022-05-27T09:44:32.878Z</time>
      </trkpt>
      <trkpt lat="42.17424" lon="18.99973">
        <ele>228.388959</ele>
        <time>2022-05-27T09:44:40.874Z</time>
      </trkpt>
      <trkpt lat="42.17431" lon="18.99964">
        <ele>228.960124</ele>
        <time>2022-05-27T09:44:47.896Z</time>
      </trkpt>
      <trkpt lat="42.17438" lon="18.99953">
        <ele>229.565994</ele>
        <time>2022-05-27T09:44:54.871Z</time>
      </trkpt>
      <trkpt lat="42.17444" lon="18.99942">
        <ele>230.139942</ele>
        <time>2022-05-27T09:45:01.874Z</time>
      </trkpt>
      <trkpt lat="42.1745" lon="18.99933">
        <ele>230.684686</ele>
        <time>2022-05-27T09:45:08.869Z</time>
      </trkpt>
      <trkpt lat="42.17455" lon="18.99922">
        <ele>231.283917</ele>
        <time>2022-05-27T09:45:16.879Z</time>
      </trkpt>
      <trkpt lat="42.17461" lon="18.99912">
        <ele>231.812529</ele>
        <time>2022-05-27T09:45:23.884Z</time>
      </trkpt>
      <trkpt lat="42.17467" lon="18.99902">
        <ele>232.379326</ele>
        <time>2022-05-27T09:45:30.858Z</time>
      </trkpt>
      <trkpt lat="42.17472" lon="18.99892">
        <ele>232.907642</ele>
        <time>2022-05-27T09:45:38.894Z</time>
      </trkpt>
      <trkpt lat="42.17478" lon="18.99882">
        <ele>233.443096</ele>
        <time>2022-05-27T09:45:45.871Z</time>
      </trkpt>
      <trkpt lat="42.17483" lon="18.99873">
        <ele>233.979101</ele>
        <time>2022-05-27T09:45:52.872Z</time>
      </trkpt>
      <trkpt lat="42.17489" lon="18.99863">
        <ele>234.529781</ele>
        <time>2022-05-27T09:46:00.866Z</time>
      </trkpt>
      <trkpt lat="42.17496" lon="18.99854">
        <ele>234.929242</ele>
        <time>2022-05-27T09:46:08.881Z</time>
      </trkpt>
      <trkpt lat="42.17502" lon="18.99844">
        <ele>234.906164</ele>
        <time>2022-05-27T09:46:15.871Z</time>
      </trkpt>
      <trkpt lat="42.17508" lon="18.99835">
        <ele>234.883039</ele>
        <time>2022-05-27T09:46:23.870Z</time>
      </trkpt>
      <trkpt lat="42.17515" lon="18.99824">
        <ele>234.857852</ele>
        <time>2022-05-27T09:46:31.873Z</time>
      </trkpt>
      <trkpt lat="42.17522" lon="18.99814">
        <ele>234.833199</ele>
        <time>2022-05-27T09:46:39.876Z</time>
      </trkpt>
      <trkpt lat="42.17529" lon="18.99805">
        <ele>234.808468</ele>
        <time>2022-05-27T09:46:47.862Z</time>
      </trkpt>
      <trkpt lat="42.17536" lon="18.99796">
        <ele>234.786359</ele>
        <time>2022-05-27T09:46:53.851Z</time>
      </trkpt>
      <trkpt lat="42.17542" lon="18.99787">
        <ele>234.763432</ele>
        <time>2022-05-27T09:46:58.889Z</time>
      </trkpt>
      <trkpt lat="42.1755" lon="18.99777">
        <ele>234.737771</ele>
        <time>2022-05-27T09:47:04.869Z</time>
      </trkpt>
      <trkpt lat="42.17557" lon="18.99769">
        <ele>234.71506</ele>
        <time>2022-05-27T09:47:10.888Z</time>
      </trkpt>
      <trkpt lat="42.17559" lon="18.99754">
        <ele>234.68777</ele>
        <time>2022-05-27T09:47:15.876Z</time>
      </trkpt>
      <trkpt lat="42.17564" lon="18.99743">
        <ele>234.664159</ele>
        <time>2022-05-27T09:47:20.902Z</time>
      </trkpt>
      <trkpt lat="42.17574" lon="18.99737">
        <ele>234.638137</ele>
        <time>2022-05-27T09:47:25.869Z</time>
      </trkpt>
      <trkpt lat="42.17603" lon="18.99726">
        <ele>234.56445</ele>
        <time>2022-05-27T09:49:39.870Z</time>
      </trkpt>
      <trkpt lat="42.17613" lon="18.99735">
        <ele>234.534403</ele>
        <time>2022-05-27T09:49:43.869Z</time>
      </trkpt>
      <trkpt lat="42.17627" lon="18.99737">
        <ele>234.499638</ele>
        <time>2022-05-27T09:49:46.850Z</time>
      </trkpt>
      <trkpt lat="42.17638" lon="18.99739">
        <ele>234.252051</ele>
        <time>2022-05-27T09:49:48.872Z</time>
      </trkpt>
      <trkpt lat="42.17649" lon="18.99742">
        <ele>233.948753</ele>
        <time>2022-05-27T09:49:50.904Z</time>
      </trkpt>
      <trkpt lat="42.1766" lon="18.99745">
        <ele>233.638207</ele>
        <time>2022-05-27T09:49:52.858Z</time>
      </trkpt>
      <trkpt lat="42.17671" lon="18.99746">
        <ele>233.331761</ele>
        <time>2022-05-27T09:49:54.874Z</time>
      </trkpt>
      <trkpt lat="42.17683" lon="18.99746">
        <ele>233.031324</ele>
        <time>2022-05-27T09:49:56.888Z</time>
      </trkpt>
      <trkpt lat="42.17695" lon="18.99745">
        <ele>232.692913</ele>
        <time>2022-05-27T09:49:58.870Z</time>
      </trkpt>
      <trkpt lat="42.17708" lon="18.99743">
        <ele>232.328952</ele>
        <time>2022-05-27T09:50:00.876Z</time>
      </trkpt>
      <trkpt lat="42.17722" lon="18.99738">
        <ele>231.961486</ele>
        <time>2022-05-27T09:50:02.871Z</time>
      </trkpt>
      <trkpt lat="42.17734" lon="18.99733">
        <ele>231.603122</ele>
        <time>2022-05-27T09:50:04.856Z</time>
      </trkpt>
      <trkpt lat="42.17748" lon="18.99726">
        <ele>231.21269</ele>
        <time>2022-05-27T09:50:06.864Z</time>
      </trkpt>
      <trkpt lat="42.17762" lon="18.99719">
        <ele>230.788811</ele>
        <time>2022-05-27T09:50:08.902Z</time>
      </trkpt>
      <trkpt lat="42.17778" lon="18.99711">
        <ele>230.342573</ele>
        <time>2022-05-27T09:50:10.881Z</time>
      </trkpt>
      <trkpt lat="42.17794" lon="18.99702">
        <ele>229.879253</ele>
        <time>2022-05-27T09:50:12.854Z</time>
      </trkpt>
      <trkpt lat="42.1781" lon="18.99693">
        <ele>229.1669</ele>
        <time>2022-05-27T09:50:14.880Z</time>
      </trkpt>
      <trkpt lat="42.17818" lon="18.99688">
        <ele>228.657751</ele>
        <time>2022-05-27T09:50:15.870Z</time>
      </trkpt>
      <trkpt lat="42.17826" lon="18.99682">
        <ele>228.147584</ele>
        <time>2022-05-27T09:50:16.855Z</time>
      </trkpt>
      <trkpt lat="42.17842" lon="18.99671">
        <ele>227.162188</ele>
        <time>2022-05-27T09:50:18.873Z</time>
      </trkpt>
      <trkpt lat="42.17857" lon="18.9966">
        <ele>226.196114</ele>
        <time>2022-05-27T09:50:20.873Z</time>
      </trkpt>
      <trkpt lat="42.17873" lon="18.9965">
        <ele>225.212476</ele>
        <time>2022-05-27T09:50:22.892Z</time>
      </trkpt>
      <trkpt lat="42.17882" lon="18.99645">
        <ele>224.702058</ele>
        <time>2022-05-27T09:50:23.873Z</time>
      </trkpt>
      <trkpt lat="42.17891" lon="18.9964">
        <ele>224.152181</ele>
        <time>2022-05-27T09:50:24.914Z</time>
      </trkpt>
      <trkpt lat="42.17901" lon="18.99636">
        <ele>223.577979</ele>
        <time>2022-05-27T09:50:25.878Z</time>
      </trkpt>
      <trkpt lat="42.17911" lon="18.99632">
        <ele>222.990407</ele>
        <time>2022-05-27T09:50:26.862Z</time>
      </trkpt>
      <trkpt lat="42.17921" lon="18.99628">
        <ele>222.420378</ele>
        <time>2022-05-27T09:50:27.868Z</time>
      </trkpt>
      <trkpt lat="42.17931" lon="18.99625">
        <ele>221.85085</ele>
        <time>2022-05-27T09:50:28.874Z</time>
      </trkpt>
      <trkpt lat="42.17941" lon="18.99622">
        <ele>221.266712</ele>
        <time>2022-05-27T09:50:29.887Z</time>
      </trkpt>
      <trkpt lat="42.17951" lon="18.9962">
        <ele>220.68883</ele>
        <time>2022-05-27T09:50:30.900Z</time>
      </trkpt>
      <trkpt lat="42.17961" lon="18.99618">
        <ele>220.14554</ele>
        <time>2022-05-27T09:50:31.883Z</time>
      </trkpt>
      <trkpt lat="42.17971" lon="18.99617">
        <ele>219.566571</ele>
        <time>2022-05-27T09:50:32.881Z</time>
      </trkpt>
      <trkpt lat="42.17982" lon="18.99615">
        <ele>218.952988</ele>
        <time>2022-05-27T09:50:33.874Z</time>
      </trkpt>
      <trkpt lat="42.17992" lon="18.99612">
        <ele>218.291971</ele>
        <time>2022-05-27T09:50:34.865Z</time>
      </trkpt>
      <trkpt lat="42.18004" lon="18.99609">
        <ele>217.59069</ele>
        <time>2022-05-27T09:50:35.873Z</time>
      </trkpt>
      <trkpt lat="42.18013" lon="18.99605">
        <ele>217.000912</ele>
        <time>2022-05-27T09:50:36.868Z</time>
      </trkpt>
      <trkpt lat="42.18028" lon="18.99595">
        <ele>216.042259</ele>
        <time>2022-05-27T09:50:38.873Z</time>
      </trkpt>
      <trkpt lat="42.18035" lon="18.99588">
        <ele>215.485996</ele>
        <time>2022-05-27T09:50:39.856Z</time>
      </trkpt>
      <trkpt lat="42.18043" lon="18.9958">
        <ele>214.902825</ele>
        <time>2022-05-27T09:50:40.872Z</time>
      </trkpt>
      <trkpt lat="42.18051" lon="18.99571">
        <ele>214.293556</ele>
        <time>2022-05-27T09:50:41.883Z</time>
      </trkpt>
      <trkpt lat="42.1806" lon="18.99562">
        <ele>213.631541</ele>
        <time>2022-05-27T09:50:42.883Z</time>
      </trkpt>
      <trkpt lat="42.18068" lon="18.99553">
        <ele>213.001085</ele>
        <time>2022-05-27T09:50:43.862Z</time>
      </trkpt>
      <trkpt lat="42.18076" lon="18.99544">
        <ele>212.380827</ele>
        <time>2022-05-27T09:50:44.849Z</time>
      </trkpt>
      <trkpt lat="42.18083" lon="18.99536">
        <ele>211.810598</ele>
        <time>2022-05-27T09:50:45.886Z</time>
      </trkpt>
      <trkpt lat="42.18096" lon="18.99524">
        <ele>210.86121</ele>
        <time>2022-05-27T09:50:47.871Z</time>
      </trkpt>
      <trkpt lat="42.18104" lon="18.99517">
        <ele>210.319469</ele>
        <time>2022-05-27T09:50:48.871Z</time>
      </trkpt>
      <trkpt lat="42.18112" lon="18.99511">
        <ele>209.77568</ele>
        <time>2022-05-27T09:50:49.873Z</time>
      </trkpt>
      <trkpt lat="42.18122" lon="18.99504">
        <ele>209.078554</ele>
        <time>2022-05-27T09:50:50.879Z</time>
      </trkpt>
      <trkpt lat="42.18137" lon="18.99494">
        <ele>208.120648</ele>
        <time>2022-05-27T09:50:52.917Z</time>
      </trkpt>
      <trkpt lat="42.18152" lon="18.99483">
        <ele>207.071785</ele>
        <time>2022-05-27T09:50:54.881Z</time>
      </trkpt>
      <trkpt lat="42.18161" lon="18.99477">
        <ele>206.513812</ele>
        <time>2022-05-27T09:50:55.914Z</time>
      </trkpt>
      <trkpt lat="42.1817" lon="18.99472">
        <ele>205.9105</ele>
        <time>2022-05-27T09:50:56.891Z</time>
      </trkpt>
      <trkpt lat="42.18179" lon="18.99467">
        <ele>205.354218</ele>
        <time>2022-05-27T09:50:57.881Z</time>
      </trkpt>
      <trkpt lat="42.18195" lon="18.9946">
        <ele>204.33505</ele>
        <time>2022-05-27T09:50:59.877Z</time>
      </trkpt>
      <trkpt lat="42.18212" lon="18.99453">
        <ele>203.269467</ele>
        <time>2022-05-27T09:51:01.883Z</time>
      </trkpt>
      <trkpt lat="42.18221" lon="18.9945">
        <ele>202.692834</ele>
        <time>2022-05-27T09:51:02.862Z</time>
      </trkpt>
      <trkpt lat="42.18231" lon="18.99447">
        <ele>202.13271</ele>
        <time>2022-05-27T09:51:03.906Z</time>
      </trkpt>
      <trkpt lat="42.1824" lon="18.99445">
        <ele>201.575151</ele>
        <time>2022-05-27T09:51:04.854Z</time>
      </trkpt>
      <trkpt lat="42.1825" lon="18.99443">
        <ele>200.975763</ele>
        <time>2022-05-27T09:51:05.863Z</time>
      </trkpt>
      <trkpt lat="42.18259" lon="18.9944">
        <ele>200.388882</ele>
        <time>2022-05-27T09:51:06.852Z</time>
      </trkpt>
      <trkpt lat="42.18269" lon="18.99439">
        <ele>199.799512</ele>
        <time>2022-05-27T09:51:07.848Z</time>
      </trkpt>
      <trkpt lat="42.18279" lon="18.99437">
        <ele>199.201257</ele>
        <time>2022-05-27T09:51:08.851Z</time>
      </trkpt>
      <trkpt lat="42.1829" lon="18.99436">
        <ele>198.579946</ele>
        <time>2022-05-27T09:51:09.882Z</time>
      </trkpt>
      <trkpt lat="42.183" lon="18.99436">
        <ele>197.913316</ele>
        <time>2022-05-27T09:51:10.846Z</time>
      </trkpt>
      <trkpt lat="42.1831" lon="18.99436">
        <ele>197.11409</ele>
        <time>2022-05-27T09:51:11.864Z</time>
      </trkpt>
      <trkpt lat="42.1832" lon="18.99436">
        <ele>196.274502</ele>
        <time>2022-05-27T09:51:12.878Z</time>
      </trkpt>
      <trkpt lat="42.1833" lon="18.99436">
        <ele>195.442987</ele>
        <time>2022-05-27T09:51:13.852Z</time>
      </trkpt>
      <trkpt lat="42.18341" lon="18.99436">
        <ele>194.595263</ele>
        <time>2022-05-27T09:51:14.858Z</time>
      </trkpt>
      <trkpt lat="42.18351" lon="18.99435">
        <ele>193.730463</ele>
        <time>2022-05-27T09:51:15.858Z</time>
      </trkpt>
      <trkpt lat="42.18361" lon="18.99434">
        <ele>192.951586</ele>
        <time>2022-05-27T09:51:16.842Z</time>
      </trkpt>
      <trkpt lat="42.18378" lon="18.99427">
        <ele>191.551133</ele>
        <time>2022-05-27T09:51:18.902Z</time>
      </trkpt>
      <trkpt lat="42.18391" lon="18.99412">
        <ele>190.136995</ele>
        <time>2022-05-27T09:51:20.852Z</time>
      </trkpt>
      <trkpt lat="42.184" lon="18.99402">
        <ele>189.22216</ele>
        <time>2022-05-27T09:51:21.870Z</time>
      </trkpt>
      <trkpt lat="42.18408" lon="18.99392">
        <ele>188.311903</ele>
        <time>2022-05-27T09:51:22.881Z</time>
      </trkpt>
      <trkpt lat="42.18415" lon="18.9938">
        <ele>187.411314</ele>
        <time>2022-05-27T09:51:23.893Z</time>
      </trkpt>
      <trkpt lat="42.18422" lon="18.99367">
        <ele>186.459618</ele>
        <time>2022-05-27T09:51:24.876Z</time>
      </trkpt>
      <trkpt lat="42.18429" lon="18.99352">
        <ele>185.421724</ele>
        <time>2022-05-27T09:51:25.935Z</time>
      </trkpt>
      <trkpt lat="42.18435" lon="18.99338">
        <ele>184.417277</ele>
        <time>2022-05-27T09:51:26.893Z</time>
      </trkpt>
      <trkpt lat="42.1844" lon="18.99325">
        <ele>183.584358</ele>
        <time>2022-05-27T09:51:27.865Z</time>
      </trkpt>
      <trkpt lat="42.18444" lon="18.99311">
        <ele>182.993814</ele>
        <time>2022-05-27T09:51:28.870Z</time>
      </trkpt>
      <trkpt lat="42.18448" lon="18.99298">
        <ele>182.420021</ele>
        <time>2022-05-27T09:51:29.854Z</time>
      </trkpt>
      <trkpt lat="42.18452" lon="18.99286">
        <ele>181.886929</ele>
        <time>2022-05-27T09:51:30.842Z</time>
      </trkpt>
      <trkpt lat="42.18457" lon="18.99274">
        <ele>181.327606</ele>
        <time>2022-05-27T09:51:31.871Z</time>
      </trkpt>
      <trkpt lat="42.18462" lon="18.9926">
        <ele>180.709352</ele>
        <time>2022-05-27T09:51:32.894Z</time>
      </trkpt>
      <trkpt lat="42.18468" lon="18.99247">
        <ele>180.093608</ele>
        <time>2022-05-27T09:51:33.876Z</time>
      </trkpt>
      <trkpt lat="42.18471" lon="18.99235">
        <ele>179.591701</ele>
        <time>2022-05-27T09:51:34.850Z</time>
      </trkpt>
      <trkpt lat="42.18477" lon="18.9921">
        <ele>178.516867</ele>
        <time>2022-05-27T09:51:36.889Z</time>
      </trkpt>
      <trkpt lat="42.1848" lon="18.99195">
        <ele>177.908704</ele>
        <time>2022-05-27T09:51:37.864Z</time>
      </trkpt>
      <trkpt lat="42.18482" lon="18.99181">
        <ele>177.318864</ele>
        <time>2022-05-27T09:51:38.869Z</time>
      </trkpt>
      <trkpt lat="42.18484" lon="18.99168">
        <ele>176.811489</ele>
        <time>2022-05-27T09:51:39.864Z</time>
      </trkpt>
      <trkpt lat="42.18487" lon="18.99154">
        <ele>176.210471</ele>
        <time>2022-05-27T09:51:40.880Z</time>
      </trkpt>
      <trkpt lat="42.18491" lon="18.9914">
        <ele>175.623612</ele>
        <time>2022-05-27T09:51:41.857Z</time>
      </trkpt>
      <trkpt lat="42.18495" lon="18.99127">
        <ele>175.035048</ele>
        <time>2022-05-27T09:51:42.865Z</time>
      </trkpt>
      <trkpt lat="42.18499" lon="18.99113">
        <ele>174.429368</ele>
        <time>2022-05-27T09:51:43.879Z</time>
      </trkpt>
      <trkpt lat="42.18503" lon="18.99099">
        <ele>173.813555</ele>
        <time>2022-05-27T09:51:44.878Z</time>
      </trkpt>
      <trkpt lat="42.18507" lon="18.99088">
        <ele>173.11458</ele>
        <time>2022-05-27T09:51:45.869Z</time>
      </trkpt>
      <trkpt lat="42.18512" lon="18.99074">
        <ele>172.251452</ele>
        <time>2022-05-27T09:51:46.868Z</time>
      </trkpt>
      <trkpt lat="42.18517" lon="18.9906">
        <ele>171.37857</ele>
        <time>2022-05-27T09:51:47.898Z</time>
      </trkpt>
      <trkpt lat="42.18522" lon="18.99048">
        <ele>170.616834</ele>
        <time>2022-05-27T09:51:48.872Z</time>
      </trkpt>
      <trkpt lat="42.18527" lon="18.99034">
        <ele>169.758442</ele>
        <time>2022-05-27T09:51:49.870Z</time>
      </trkpt>
      <trkpt lat="42.18533" lon="18.99021">
        <ele>168.889061</ele>
        <time>2022-05-27T09:51:50.875Z</time>
      </trkpt>
      <trkpt lat="42.18539" lon="18.99008">
        <ele>168.031307</ele>
        <time>2022-05-27T09:51:51.868Z</time>
      </trkpt>
      <trkpt lat="42.18545" lon="18.98995">
        <ele>167.16685</ele>
        <time>2022-05-27T09:51:52.871Z</time>
      </trkpt>
      <trkpt lat="42.18551" lon="18.98983">
        <ele>166.342891</ele>
        <time>2022-05-27T09:51:53.862Z</time>
      </trkpt>
      <trkpt lat="42.18557" lon="18.98971">
        <ele>165.564098</ele>
        <time>2022-05-27T09:51:54.861Z</time>
      </trkpt>
      <trkpt lat="42.18563" lon="18.98959">
        <ele>164.789962</ele>
        <time>2022-05-27T09:51:55.861Z</time>
      </trkpt>
      <trkpt lat="42.18568" lon="18.98948">
        <ele>164.041684</ele>
        <time>2022-05-27T09:51:56.865Z</time>
      </trkpt>
      <trkpt lat="42.18574" lon="18.98936">
        <ele>163.234701</ele>
        <time>2022-05-27T09:51:57.859Z</time>
      </trkpt>
      <trkpt lat="42.18579" lon="18.98924">
        <ele>162.447462</ele>
        <time>2022-05-27T09:51:58.890Z</time>
      </trkpt>
      <trkpt lat="42.18586" lon="18.98912">
        <ele>161.570602</ele>
        <time>2022-05-27T09:51:59.887Z</time>
      </trkpt>
      <trkpt lat="42.18593" lon="18.989">
        <ele>160.725144</ele>
        <time>2022-05-27T09:52:00.874Z</time>
      </trkpt>
      <trkpt lat="42.18607" lon="18.98883">
        <ele>159.161205</ele>
        <time>2022-05-27T09:52:02.861Z</time>
      </trkpt>
      <trkpt lat="42.18616" lon="18.98875">
        <ele>158.256872</ele>
        <time>2022-05-27T09:52:03.861Z</time>
      </trkpt>
      <trkpt lat="42.18624" lon="18.98867">
        <ele>157.375337</ele>
        <time>2022-05-27T09:52:04.856Z</time>
      </trkpt>
      <trkpt lat="42.18633" lon="18.98862">
        <ele>156.598401</ele>
        <time>2022-05-27T09:52:05.854Z</time>
      </trkpt>
      <trkpt lat="42.18649" lon="18.98859">
        <ele>155.168629</ele>
        <time>2022-05-27T09:52:07.865Z</time>
      </trkpt>
      <trkpt lat="42.18659" lon="18.98858">
        <ele>154.350927</ele>
        <time>2022-05-27T09:52:08.885Z</time>
      </trkpt>
      <trkpt lat="42.18668" lon="18.98859">
        <ele>153.505226</ele>
        <time>2022-05-27T09:52:09.897Z</time>
      </trkpt>
      <trkpt lat="42.18679" lon="18.98861">
        <ele>152.620041</ele>
        <time>2022-05-27T09:52:10.849Z</time>
      </trkpt>
      <trkpt lat="42.18689" lon="18.98864">
        <ele>151.721726</ele>
        <time>2022-05-27T09:52:11.869Z</time>
      </trkpt>
      <trkpt lat="42.18699" lon="18.98868">
        <ele>150.771245</ele>
        <time>2022-05-27T09:52:12.890Z</time>
      </trkpt>
      <trkpt lat="42.1871" lon="18.98872">
        <ele>149.800894</ele>
        <time>2022-05-27T09:52:13.935Z</time>
      </trkpt>
      <trkpt lat="42.18723" lon="18.98874">
        <ele>148.70406</ele>
        <time>2022-05-27T09:52:14.881Z</time>
      </trkpt>
      <trkpt lat="42.18735" lon="18.98877">
        <ele>147.681565</ele>
        <time>2022-05-27T09:52:15.903Z</time>
      </trkpt>
      <trkpt lat="42.18746" lon="18.98879">
        <ele>146.734987</ele>
        <time>2022-05-27T09:52:16.850Z</time>
      </trkpt>
      <trkpt lat="42.18756" lon="18.98881">
        <ele>145.847119</ele>
        <time>2022-05-27T09:52:17.883Z</time>
      </trkpt>
      <trkpt lat="42.1877" lon="18.98884">
        <ele>144.581931</ele>
        <time>2022-05-27T09:52:19.871Z</time>
      </trkpt>
      <trkpt lat="42.18781" lon="18.98885">
        <ele>143.730095</ele>
        <time>2022-05-27T09:52:20.916Z</time>
      </trkpt>
      <trkpt lat="42.1879" lon="18.98886">
        <ele>143.001367</ele>
        <time>2022-05-27T09:52:21.874Z</time>
      </trkpt>
      <trkpt lat="42.188" lon="18.98886">
        <ele>142.166774</ele>
        <time>2022-05-27T09:52:22.877Z</time>
      </trkpt>
      <trkpt lat="42.18812" lon="18.98887">
        <ele>141.210324</ele>
        <time>2022-05-27T09:52:23.861Z</time>
      </trkpt>
      <trkpt lat="42.18824" lon="18.98889">
        <ele>140.252691</ele>
        <time>2022-05-27T09:52:24.885Z</time>
      </trkpt>
      <trkpt lat="42.18835" lon="18.9889">
        <ele>139.325762</ele>
        <time>2022-05-27T09:52:25.859Z</time>
      </trkpt>
      <trkpt lat="42.18845" lon="18.98892">
        <ele>138.552658</ele>
        <time>2022-05-27T09:52:26.911Z</time>
      </trkpt>
      <trkpt lat="42.18855" lon="18.98895">
        <ele>137.706543</ele>
        <time>2022-05-27T09:52:27.970Z</time>
      </trkpt>
      <trkpt lat="42.18864" lon="18.989">
        <ele>136.889856</ele>
        <time>2022-05-27T09:52:28.857Z</time>
      </trkpt>
      <trkpt lat="42.18882" lon="18.9891">
        <ele>135.359667</ele>
        <time>2022-05-27T09:52:30.869Z</time>
      </trkpt>
      <trkpt lat="42.18892" lon="18.98915">
        <ele>134.49242</ele>
        <time>2022-05-27T09:52:31.869Z</time>
      </trkpt>
      <trkpt lat="42.18902" lon="18.9892">
        <ele>133.622999</ele>
        <time>2022-05-27T09:52:32.879Z</time>
      </trkpt>
      <trkpt lat="42.18912" lon="18.98925">
        <ele>132.708604</ele>
        <time>2022-05-27T09:52:33.878Z</time>
      </trkpt>
      <trkpt lat="42.18924" lon="18.98929">
        <ele>131.761673</ele>
        <time>2022-05-27T09:52:34.859Z</time>
      </trkpt>
      <trkpt lat="42.18933" lon="18.98932">
        <ele>130.998601</ele>
        <time>2022-05-27T09:52:35.860Z</time>
      </trkpt>
      <trkpt lat="42.18944" lon="18.98934">
        <ele>130.130277</ele>
        <time>2022-05-27T09:52:36.872Z</time>
      </trkpt>
      <trkpt lat="42.18953" lon="18.98928">
        <ele>129.368401</ele>
        <time>2022-05-27T09:52:37.918Z</time>
      </trkpt>
      <trkpt lat="42.18965" lon="18.98923">
        <ele>128.496789</ele>
        <time>2022-05-27T09:52:38.881Z</time>
      </trkpt>
      <trkpt lat="42.18975" lon="18.98918">
        <ele>127.67421</ele>
        <time>2022-05-27T09:52:39.874Z</time>
      </trkpt>
      <trkpt lat="42.18984" lon="18.98913">
        <ele>126.943135</ele>
        <time>2022-05-27T09:52:40.868Z</time>
      </trkpt>
      <trkpt lat="42.18993" lon="18.98908">
        <ele>126.210003</ele>
        <time>2022-05-27T09:52:41.949Z</time>
      </trkpt>
      <trkpt lat="42.19002" lon="18.98902">
        <ele>125.511986</ele>
        <time>2022-05-27T09:52:42.917Z</time>
      </trkpt>
      <trkpt lat="42.19017" lon="18.98888">
        <ele>124.176282</ele>
        <time>2022-05-27T09:52:44.865Z</time>
      </trkpt>
      <trkpt lat="42.19023" lon="18.98879">
        <ele>123.507586</ele>
        <time>2022-05-27T09:52:45.879Z</time>
      </trkpt>
      <trkpt lat="42.19029" lon="18.9887">
        <ele>122.838201</ele>
        <time>2022-05-27T09:52:46.896Z</time>
      </trkpt>
      <trkpt lat="42.19039" lon="18.9885">
        <ele>121.510357</ele>
        <time>2022-05-27T09:52:48.897Z</time>
      </trkpt>
      <trkpt lat="42.19045" lon="18.98832">
        <ele>120.451296</ele>
        <time>2022-05-27T09:52:50.853Z</time>
      </trkpt>
      <trkpt lat="42.19053" lon="18.98815">
        <ele>119.32899</ele>
        <time>2022-05-27T09:52:52.874Z</time>
      </trkpt>
      <trkpt lat="42.19061" lon="18.98796">
        <ele>118.175956</ele>
        <time>2022-05-27T09:52:54.880Z</time>
      </trkpt>
      <trkpt lat="42.1907" lon="18.98778">
        <ele>116.983439</ele>
        <time>2022-05-27T09:52:56.874Z</time>
      </trkpt>
      <trkpt lat="42.19081" lon="18.98759">
        <ele>116.229594</ele>
        <time>2022-05-27T09:52:58.861Z</time>
      </trkpt>
      <trkpt lat="42.19092" lon="18.9874">
        <ele>115.447845</ele>
        <time>2022-05-27T09:53:00.893Z</time>
      </trkpt>
      <trkpt lat="42.19098" lon="18.98731">
        <ele>115.053898</ele>
        <time>2022-05-27T09:53:01.875Z</time>
      </trkpt>
      <trkpt lat="42.19104" lon="18.98721">
        <ele>114.661998</ele>
        <time>2022-05-27T09:53:02.870Z</time>
      </trkpt>
      <trkpt lat="42.1911" lon="18.98712">
        <ele>114.262859</ele>
        <time>2022-05-27T09:53:03.854Z</time>
      </trkpt>
      <trkpt lat="42.19116" lon="18.98701">
        <ele>113.856789</ele>
        <time>2022-05-27T09:53:04.867Z</time>
      </trkpt>
      <trkpt lat="42.19126" lon="18.98682">
        <ele>113.102928</ele>
        <time>2022-05-27T09:53:06.873Z</time>
      </trkpt>
      <trkpt lat="42.19131" lon="18.98671">
        <ele>112.687848</ele>
        <time>2022-05-27T09:53:07.864Z</time>
      </trkpt>
      <trkpt lat="42.19136" lon="18.98659">
        <ele>112.259695</ele>
        <time>2022-05-27T09:53:08.868Z</time>
      </trkpt>
      <trkpt lat="42.19141" lon="18.98648">
        <ele>111.835344</ele>
        <time>2022-05-27T09:53:09.867Z</time>
      </trkpt>
      <trkpt lat="42.19146" lon="18.98636">
        <ele>111.417561</ele>
        <time>2022-05-27T09:53:10.893Z</time>
      </trkpt>
      <trkpt lat="42.19151" lon="18.98625">
        <ele>110.990232</ele>
        <time>2022-05-27T09:53:11.887Z</time>
      </trkpt>
      <trkpt lat="42.19157" lon="18.98613">
        <ele>110.532791</ele>
        <time>2022-05-27T09:53:12.869Z</time>
      </trkpt>
      <trkpt lat="42.19164" lon="18.98603">
        <ele>110.089995</ele>
        <time>2022-05-27T09:53:13.866Z</time>
      </trkpt>
      <trkpt lat="42.19171" lon="18.98593">
        <ele>109.67312</ele>
        <time>2022-05-27T09:53:14.879Z</time>
      </trkpt>
      <trkpt lat="42.19179" lon="18.98584">
        <ele>109.19542</ele>
        <time>2022-05-27T09:53:15.869Z</time>
      </trkpt>
      <trkpt lat="42.19187" lon="18.98575">
        <ele>108.620428</ele>
        <time>2022-05-27T09:53:16.875Z</time>
      </trkpt>
      <trkpt lat="42.19196" lon="18.98567">
        <ele>108.033388</ele>
        <time>2022-05-27T09:53:17.884Z</time>
      </trkpt>
      <trkpt lat="42.19205" lon="18.9856">
        <ele>107.474099</ele>
        <time>2022-05-27T09:53:18.884Z</time>
      </trkpt>
      <trkpt lat="42.19215" lon="18.98554">
        <ele>106.917517</ele>
        <time>2022-05-27T09:53:19.870Z</time>
      </trkpt>
      <trkpt lat="42.19225" lon="18.98547">
        <ele>106.295302</ele>
        <time>2022-05-27T09:53:20.860Z</time>
      </trkpt>
      <trkpt lat="42.19237" lon="18.98538">
        <ele>105.568226</ele>
        <time>2022-05-27T09:53:21.871Z</time>
      </trkpt>
      <trkpt lat="42.19248" lon="18.98529">
        <ele>104.876298</ele>
        <time>2022-05-27T09:53:22.852Z</time>
      </trkpt>
      <trkpt lat="42.19257" lon="18.9852">
        <ele>104.271459</ele>
        <time>2022-05-27T09:53:23.882Z</time>
      </trkpt>
      <trkpt lat="42.19264" lon="18.98512">
        <ele>103.748266</ele>
        <time>2022-05-27T09:53:24.861Z</time>
      </trkpt>
      <trkpt lat="42.19277" lon="18.98493">
        <ele>102.758262</ele>
        <time>2022-05-27T09:53:26.914Z</time>
      </trkpt>
      <trkpt lat="42.19286" lon="18.98484">
        <ele>102.141436</ele>
        <time>2022-05-27T09:53:27.874Z</time>
      </trkpt>
      <trkpt lat="42.19294" lon="18.98476">
        <ele>101.605842</ele>
        <time>2022-05-27T09:53:28.870Z</time>
      </trkpt>
      <trkpt lat="42.19311" lon="18.98463">
        <ele>100.562416</ele>
        <time>2022-05-27T09:53:30.892Z</time>
      </trkpt>
      <trkpt lat="42.1932" lon="18.98458">
        <ele>100.044879</ele>
        <time>2022-05-27T09:53:31.876Z</time>
      </trkpt>
      <trkpt lat="42.1933" lon="18.98452">
        <ele>99.445262</ele>
        <time>2022-05-27T09:53:32.868Z</time>
      </trkpt>
      <trkpt lat="42.19341" lon="18.98446">
        <ele>98.88998</ele>
        <time>2022-05-27T09:53:33.863Z</time>
      </trkpt>
      <trkpt lat="42.19351" lon="18.9844">
        <ele>98.35531</ele>
        <time>2022-05-27T09:53:34.889Z</time>
      </trkpt>
      <trkpt lat="42.19362" lon="18.98432">
        <ele>97.762471</ele>
        <time>2022-05-27T09:53:35.871Z</time>
      </trkpt>
      <trkpt lat="42.19372" lon="18.98424">
        <ele>97.199956</ele>
        <time>2022-05-27T09:53:36.852Z</time>
      </trkpt>
      <trkpt lat="42.19381" lon="18.98416">
        <ele>96.679911</ele>
        <time>2022-05-27T09:53:37.911Z</time>
      </trkpt>
      <trkpt lat="42.19392" lon="18.98398">
        <ele>95.829827</ele>
        <time>2022-05-27T09:53:39.879Z</time>
      </trkpt>
      <trkpt lat="42.19401" lon="18.98387">
        <ele>95.256686</ele>
        <time>2022-05-27T09:53:40.864Z</time>
      </trkpt>
      <trkpt lat="42.1941" lon="18.98376">
        <ele>94.676379</ele>
        <time>2022-05-27T09:53:41.847Z</time>
      </trkpt>
      <trkpt lat="42.19419" lon="18.98367">
        <ele>94.139368</ele>
        <time>2022-05-27T09:53:42.869Z</time>
      </trkpt>
      <trkpt lat="42.19427" lon="18.9836">
        <ele>93.679306</ele>
        <time>2022-05-27T09:53:43.889Z</time>
      </trkpt>
      <trkpt lat="42.19443" lon="18.98352">
        <ele>92.837259</ele>
        <time>2022-05-27T09:53:45.878Z</time>
      </trkpt>
      <trkpt lat="42.19461" lon="18.98345">
        <ele>91.968213</ele>
        <time>2022-05-27T09:53:47.859Z</time>
      </trkpt>
      <trkpt lat="42.1947" lon="18.98343">
        <ele>91.532835</ele>
        <time>2022-05-27T09:53:48.864Z</time>
      </trkpt>
      <trkpt lat="42.19479" lon="18.98342">
        <ele>91.089641</ele>
        <time>2022-05-27T09:53:49.858Z</time>
      </trkpt>
      <trkpt lat="42.19496" lon="18.98339">
        <ele>89.991038</ele>
        <time>2022-05-27T09:53:51.874Z</time>
      </trkpt>
      <trkpt lat="42.19505" lon="18.98337">
        <ele>89.374704</ele>
        <time>2022-05-27T09:53:52.866Z</time>
      </trkpt>
      <trkpt lat="42.19514" lon="18.98336">
        <ele>88.76669</ele>
        <time>2022-05-27T09:53:53.861Z</time>
      </trkpt>
      <trkpt lat="42.19533" lon="18.98334">
        <ele>87.501156</ele>
        <time>2022-05-27T09:53:55.863Z</time>
      </trkpt>
      <trkpt lat="42.19544" lon="18.98334">
        <ele>86.78912</ele>
        <time>2022-05-27T09:53:56.863Z</time>
      </trkpt>
      <trkpt lat="42.19553" lon="18.98333">
        <ele>86.164066</ele>
        <time>2022-05-27T09:53:57.863Z</time>
      </trkpt>
      <trkpt lat="42.19565" lon="18.98333">
        <ele>85.386286</ele>
        <time>2022-05-27T09:53:58.871Z</time>
      </trkpt>
      <trkpt lat="42.19577" lon="18.98332">
        <ele>84.627806</ele>
        <time>2022-05-27T09:53:59.870Z</time>
      </trkpt>
      <trkpt lat="42.19586" lon="18.9833">
        <ele>84.015207</ele>
        <time>2022-05-27T09:54:00.872Z</time>
      </trkpt>
      <trkpt lat="42.19596" lon="18.98325">
        <ele>83.32112</ele>
        <time>2022-05-27T09:54:01.847Z</time>
      </trkpt>
      <trkpt lat="42.19609" lon="18.98308">
        <ele>82.082816</ele>
        <time>2022-05-27T09:54:03.876Z</time>
      </trkpt>
      <trkpt lat="42.19619" lon="18.98298">
        <ele>81.238761</ele>
        <time>2022-05-27T09:54:04.877Z</time>
      </trkpt>
      <trkpt lat="42.19628" lon="18.98287">
        <ele>80.422149</ele>
        <time>2022-05-27T09:54:05.906Z</time>
      </trkpt>
      <trkpt lat="42.19637" lon="18.98274">
        <ele>79.589177</ele>
        <time>2022-05-27T09:54:06.902Z</time>
      </trkpt>
      <trkpt lat="42.19643" lon="18.98261">
        <ele>78.968263</ele>
        <time>2022-05-27T09:54:07.860Z</time>
      </trkpt>
      <trkpt lat="42.19647" lon="18.98248">
        <ele>78.782285</ele>
        <time>2022-05-27T09:54:08.866Z</time>
      </trkpt>
      <trkpt lat="42.19653" lon="18.98233">
        <ele>78.57407</ele>
        <time>2022-05-27T09:54:09.866Z</time>
      </trkpt>
      <trkpt lat="42.19658" lon="18.98219">
        <ele>78.385199</ele>
        <time>2022-05-27T09:54:10.857Z</time>
      </trkpt>
      <trkpt lat="42.19663" lon="18.98204">
        <ele>78.181856</ele>
        <time>2022-05-27T09:54:11.960Z</time>
      </trkpt>
      <trkpt lat="42.19667" lon="18.9819">
        <ele>77.992952</ele>
        <time>2022-05-27T09:54:12.863Z</time>
      </trkpt>
      <trkpt lat="42.1967" lon="18.98177">
        <ele>77.823919</ele>
        <time>2022-05-27T09:54:13.866Z</time>
      </trkpt>
      <trkpt lat="42.19675" lon="18.98155">
        <ele>77.538065</ele>
        <time>2022-05-27T09:54:15.873Z</time>
      </trkpt>
      <trkpt lat="42.19675" lon="18.98135">
        <ele>77.292675</ele>
        <time>2022-05-27T09:54:17.880Z</time>
      </trkpt>
      <trkpt lat="42.19683" lon="18.98114">
        <ele>77.0064</ele>
        <time>2022-05-27T09:54:19.860Z</time>
      </trkpt>
      <trkpt lat="42.19682" lon="18.98096">
        <ele>76.781857</ele>
        <time>2022-05-27T09:54:21.861Z</time>
      </trkpt>
      <trkpt lat="42.1968" lon="18.98075">
        <ele>76.516651</ele>
        <time>2022-05-27T09:54:23.874Z</time>
      </trkpt>
      <trkpt lat="42.19676" lon="18.98057">
        <ele>76.284179</ele>
        <time>2022-05-27T09:54:25.854Z</time>
      </trkpt>
      <trkpt lat="42.19671" lon="18.98041">
        <ele>76.071545</ele>
        <time>2022-05-27T09:54:27.882Z</time>
      </trkpt>
      <trkpt lat="42.19668" lon="18.98024">
        <ele>76.167853</ele>
        <time>2022-05-27T09:54:29.868Z</time>
      </trkpt>
      <trkpt lat="42.19665" lon="18.98011">
        <ele>76.360407</ele>
        <time>2022-05-27T09:54:31.857Z</time>
      </trkpt>
      <trkpt lat="42.19663" lon="18.97995">
        <ele>76.585777</ele>
        <time>2022-05-27T09:54:34.862Z</time>
      </trkpt>
      <trkpt lat="42.19662" lon="18.9798">
        <ele>76.792087</ele>
        <time>2022-05-27T09:54:37.880Z</time>
      </trkpt>
      <trkpt lat="42.19662" lon="18.97967">
        <ele>76.976268</ele>
        <time>2022-05-27T09:54:40.870Z</time>
      </trkpt>
      <trkpt lat="42.19665" lon="18.97955">
        <ele>77.162864</ele>
        <time>2022-05-27T09:54:43.866Z</time>
      </trkpt>
      <trkpt lat="42.19668" lon="18.97942">
        <ele>77.350583</ele>
        <time>2022-05-27T09:54:46.863Z</time>
      </trkpt>
      <trkpt lat="42.19671" lon="18.97931">
        <ele>77.524099</ele>
        <time>2022-05-27T09:54:49.867Z</time>
      </trkpt>
      <trkpt lat="42.19676" lon="18.97917">
        <ele>77.74145</ele>
        <time>2022-05-27T09:54:53.862Z</time>
      </trkpt>
      <trkpt lat="42.19684" lon="18.97905">
        <ele>77.962963</ele>
        <time>2022-05-27T09:54:57.871Z</time>
      </trkpt>
      <trkpt lat="42.1969" lon="18.97896">
        <ele>78.143829</ele>
        <time>2022-05-27T09:55:00.877Z</time>
      </trkpt>
      <trkpt lat="42.19697" lon="18.97887">
        <ele>78.324243</ele>
        <time>2022-05-27T09:55:03.871Z</time>
      </trkpt>
      <trkpt lat="42.19705" lon="18.97878">
        <ele>78.51995</ele>
        <time>2022-05-27T09:55:07.884Z</time>
      </trkpt>
      <trkpt lat="42.19713" lon="18.9787">
        <ele>78.703909</ele>
        <time>2022-05-27T09:55:10.865Z</time>
      </trkpt>
      <trkpt lat="42.19723" lon="18.97862">
        <ele>78.933518</ele>
        <time>2022-05-27T09:55:13.865Z</time>
      </trkpt>
      <trkpt lat="42.19735" lon="18.97855">
        <ele>79.191649</ele>
        <time>2022-05-27T09:55:16.851Z</time>
      </trkpt>
      <trkpt lat="42.19748" lon="18.97847">
        <ele>79.423982</ele>
        <time>2022-05-27T09:55:19.861Z</time>
      </trkpt>
      <trkpt lat="42.19757" lon="18.97841">
        <ele>79.306638</ele>
        <time>2022-05-27T09:55:21.871Z</time>
      </trkpt>
      <trkpt lat="42.19766" lon="18.97835">
        <ele>79.187566</ele>
        <time>2022-05-27T09:55:23.917Z</time>
      </trkpt>
      <trkpt lat="42.19775" lon="18.97827">
        <ele>79.058823</ele>
        <time>2022-05-27T09:55:25.870Z</time>
      </trkpt>
      <trkpt lat="42.19784" lon="18.97818">
        <ele>78.920514</ele>
        <time>2022-05-27T09:55:27.861Z</time>
      </trkpt>
      <trkpt lat="42.19793" lon="18.97807">
        <ele>78.773225</ele>
        <time>2022-05-27T09:55:29.882Z</time>
      </trkpt>
      <trkpt lat="42.19802" lon="18.97793">
        <ele>78.614171</ele>
        <time>2022-05-27T09:55:31.865Z</time>
      </trkpt>
      <trkpt lat="42.19809" lon="18.97776">
        <ele>78.442903</ele>
        <time>2022-05-27T09:55:33.878Z</time>
      </trkpt>
      <trkpt lat="42.19814" lon="18.97756">
        <ele>78.255049</ele>
        <time>2022-05-27T09:55:35.877Z</time>
      </trkpt>
      <trkpt lat="42.19817" lon="18.97735">
        <ele>78.063177</ele>
        <time>2022-05-27T09:55:37.869Z</time>
      </trkpt>
      <trkpt lat="42.19817" lon="18.9771">
        <ele>77.845048</ele>
        <time>2022-05-27T09:55:39.869Z</time>
      </trkpt>
      <trkpt lat="42.19815" lon="18.97688">
        <ele>77.649593</ele>
        <time>2022-05-27T09:55:41.865Z</time>
      </trkpt>
      <trkpt lat="42.19809" lon="18.9767">
        <ele>77.471377</ele>
        <time>2022-05-27T09:55:43.864Z</time>
      </trkpt>
      <trkpt lat="42.19799" lon="18.97649">
        <ele>77.172563</ele>
        <time>2022-05-27T09:55:45.879Z</time>
      </trkpt>
      <trkpt lat="42.19794" lon="18.97639">
        <ele>76.763328</ele>
        <time>2022-05-27T09:55:46.897Z</time>
      </trkpt>
      <trkpt lat="42.19783" lon="18.97619">
        <ele>75.960968</ele>
        <time>2022-05-27T09:55:48.875Z</time>
      </trkpt>
      <trkpt lat="42.19778" lon="18.97609">
        <ele>75.543915</ele>
        <time>2022-05-27T09:55:49.864Z</time>
      </trkpt>
      <trkpt lat="42.19767" lon="18.97591">
        <ele>74.773181</ele>
        <time>2022-05-27T09:55:51.877Z</time>
      </trkpt>
      <trkpt lat="42.19758" lon="18.97572">
        <ele>74.062049</ele>
        <time>2022-05-27T09:55:53.874Z</time>
      </trkpt>
      <trkpt lat="42.19754" lon="18.97562">
        <ele>73.665087</ele>
        <time>2022-05-27T09:55:54.901Z</time>
      </trkpt>
      <trkpt lat="42.1975" lon="18.9755">
        <ele>73.22915</ele>
        <time>2022-05-27T09:55:55.877Z</time>
      </trkpt>
      <trkpt lat="42.19742" lon="18.97527">
        <ele>72.389903</ele>
        <time>2022-05-27T09:55:57.871Z</time>
      </trkpt>
      <trkpt lat="42.19738" lon="18.97515">
        <ele>71.979819</ele>
        <time>2022-05-27T09:55:58.928Z</time>
      </trkpt>
      <trkpt lat="42.19735" lon="18.97502">
        <ele>71.52382</ele>
        <time>2022-05-27T09:55:59.880Z</time>
      </trkpt>
      <trkpt lat="42.19731" lon="18.97489">
        <ele>71.057164</ele>
        <time>2022-05-27T09:56:00.862Z</time>
      </trkpt>
      <trkpt lat="42.19727" lon="18.97473">
        <ele>70.507346</ele>
        <time>2022-05-27T09:56:01.868Z</time>
      </trkpt>
      <trkpt lat="42.19723" lon="18.97459">
        <ele>70.017157</ele>
        <time>2022-05-27T09:56:02.871Z</time>
      </trkpt>
      <trkpt lat="42.1972" lon="18.97445">
        <ele>69.54083</ele>
        <time>2022-05-27T09:56:03.862Z</time>
      </trkpt>
      <trkpt lat="42.19718" lon="18.97432">
        <ele>69.121021</ele>
        <time>2022-05-27T09:56:04.873Z</time>
      </trkpt>
      <trkpt lat="42.19715" lon="18.97419">
        <ele>68.751484</ele>
        <time>2022-05-27T09:56:05.874Z</time>
      </trkpt>
      <trkpt lat="42.19713" lon="18.97405">
        <ele>68.370415</ele>
        <time>2022-05-27T09:56:06.898Z</time>
      </trkpt>
      <trkpt lat="42.19711" lon="18.97393">
        <ele>68.011522</ele>
        <time>2022-05-27T09:56:07.876Z</time>
      </trkpt>
      <trkpt lat="42.19707" lon="18.9737">
        <ele>67.377946</ele>
        <time>2022-05-27T09:56:09.876Z</time>
      </trkpt>
      <trkpt lat="42.19704" lon="18.97347">
        <ele>66.736388</ele>
        <time>2022-05-27T09:56:11.884Z</time>
      </trkpt>
      <trkpt lat="42.19702" lon="18.97325">
        <ele>66.111796</ele>
        <time>2022-05-27T09:56:13.867Z</time>
      </trkpt>
      <trkpt lat="42.19701" lon="18.97302">
        <ele>65.475992</ele>
        <time>2022-05-27T09:56:15.866Z</time>
      </trkpt>
      <trkpt lat="42.19699" lon="18.97279">
        <ele>64.852165</ele>
        <time>2022-05-27T09:56:17.871Z</time>
      </trkpt>
      <trkpt lat="42.19699" lon="18.97259">
        <ele>64.277023</ele>
        <time>2022-05-27T09:56:19.857Z</time>
      </trkpt>
      <trkpt lat="42.19699" lon="18.97239">
        <ele>63.745975</ele>
        <time>2022-05-27T09:56:21.882Z</time>
      </trkpt>
      <trkpt lat="42.19701" lon="18.9722">
        <ele>63.213368</ele>
        <time>2022-05-27T09:56:23.874Z</time>
      </trkpt>
      <trkpt lat="42.19703" lon="18.97201">
        <ele>62.688891</ele>
        <time>2022-05-27T09:56:25.871Z</time>
      </trkpt>
      <trkpt lat="42.19705" lon="18.97183">
        <ele>62.665999</ele>
        <time>2022-05-27T09:56:27.868Z</time>
      </trkpt>
      <trkpt lat="42.19707" lon="18.97167">
        <ele>62.728169</ele>
        <time>2022-05-27T09:56:29.861Z</time>
      </trkpt>
      <trkpt lat="42.1971" lon="18.97151">
        <ele>62.789241</ele>
        <time>2022-05-27T09:56:31.875Z</time>
      </trkpt>
      <trkpt lat="42.19714" lon="18.97134">
        <ele>62.853483</ele>
        <time>2022-05-27T09:56:33.861Z</time>
      </trkpt>
      <trkpt lat="42.19718" lon="18.97119">
        <ele>62.914929</ele>
        <time>2022-05-27T09:56:35.872Z</time>
      </trkpt>
      <trkpt lat="42.19723" lon="18.97102">
        <ele>62.981257</ele>
        <time>2022-05-27T09:56:37.876Z</time>
      </trkpt>
      <trkpt lat="42.19727" lon="18.97085">
        <ele>63.047751</ele>
        <time>2022-05-27T09:56:39.877Z</time>
      </trkpt>
      <trkpt lat="42.19732" lon="18.9707">
        <ele>63.110435</ele>
        <time>2022-05-27T09:56:41.877Z</time>
      </trkpt>
      <trkpt lat="42.19737" lon="18.97056">
        <ele>63.169293</ele>
        <time>2022-05-27T09:56:43.911Z</time>
      </trkpt>
      <trkpt lat="42.19742" lon="18.97041">
        <ele>63.228953</ele>
        <time>2022-05-27T09:56:45.867Z</time>
      </trkpt>
      <trkpt lat="42.19747" lon="18.97026">
        <ele>63.288916</ele>
        <time>2022-05-27T09:56:47.881Z</time>
      </trkpt>
      <trkpt lat="42.19753" lon="18.97012">
        <ele>63.349323</ele>
        <time>2022-05-27T09:56:49.912Z</time>
      </trkpt>
      <trkpt lat="42.19758" lon="18.96998">
        <ele>63.410093</ele>
        <time>2022-05-27T09:56:51.850Z</time>
      </trkpt>
      <trkpt lat="42.19764" lon="18.96983">
        <ele>63.472085</ele>
        <time>2022-05-27T09:56:53.860Z</time>
      </trkpt>
      <trkpt lat="42.1977" lon="18.96969">
        <ele>63.553479</ele>
        <time>2022-05-27T09:56:55.872Z</time>
      </trkpt>
      <trkpt lat="42.19776" lon="18.96955">
        <ele>63.671099</ele>
        <time>2022-05-27T09:56:57.877Z</time>
      </trkpt>
      <trkpt lat="42.19782" lon="18.96943">
        <ele>63.78421</ele>
        <time>2022-05-27T09:56:59.871Z</time>
      </trkpt>
      <trkpt lat="42.19788" lon="18.96931">
        <ele>63.892446</ele>
        <time>2022-05-27T09:57:01.861Z</time>
      </trkpt>
      <trkpt lat="42.19794" lon="18.9692">
        <ele>63.993951</ele>
        <time>2022-05-27T09:57:03.874Z</time>
      </trkpt>
      <trkpt lat="42.198" lon="18.96911">
        <ele>64.085359</ele>
        <time>2022-05-27T09:57:05.878Z</time>
      </trkpt>
      <trkpt lat="42.19808" lon="18.96898">
        <ele>64.210707</ele>
        <time>2022-05-27T09:57:08.859Z</time>
      </trkpt>
      <trkpt lat="42.19816" lon="18.96886">
        <ele>64.335254</ele>
        <time>2022-05-27T09:57:11.898Z</time>
      </trkpt>
      <trkpt lat="42.19824" lon="18.96876">
        <ele>64.448507</ele>
        <time>2022-05-27T09:57:14.882Z</time>
      </trkpt>
      <trkpt lat="42.19832" lon="18.96865">
        <ele>64.558211</ele>
        <time>2022-05-27T09:57:17.882Z</time>
      </trkpt>
      <trkpt lat="42.1984" lon="18.96856">
        <ele>64.666365</ele>
        <time>2022-05-27T09:57:20.876Z</time>
      </trkpt>
      <trkpt lat="42.19847" lon="18.96847">
        <ele>64.764949</ele>
        <time>2022-05-27T09:57:23.873Z</time>
      </trkpt>
      <trkpt lat="42.19854" lon="18.96838">
        <ele>64.864789</ele>
        <time>2022-05-27T09:57:26.886Z</time>
      </trkpt>
      <trkpt lat="42.19861" lon="18.96829">
        <ele>64.959476</ele>
        <time>2022-05-27T09:57:29.859Z</time>
      </trkpt>
      <trkpt lat="42.19867" lon="18.9682">
        <ele>65.05437</ele>
        <time>2022-05-27T09:57:32.861Z</time>
      </trkpt>
      <trkpt lat="42.19874" lon="18.9681">
        <ele>65.15416</ele>
        <time>2022-05-27T09:57:35.885Z</time>
      </trkpt>
      <trkpt lat="42.1988" lon="18.968">
        <ele>65.249916</ele>
        <time>2022-05-27T09:57:38.861Z</time>
      </trkpt>
      <trkpt lat="42.19887" lon="18.96789">
        <ele>65.328795</ele>
        <time>2022-05-27T09:57:42.873Z</time>
      </trkpt>
      <trkpt lat="42.19894" lon="18.96778">
        <ele>65.290622</ele>
        <time>2022-05-27T09:57:46.870Z</time>
      </trkpt>
      <trkpt lat="42.19899" lon="18.96768">
        <ele>65.256821</ele>
        <time>2022-05-27T09:57:49.862Z</time>
      </trkpt>
      <trkpt lat="42.19905" lon="18.96758">
        <ele>65.221941</ele>
        <time>2022-05-27T09:57:52.868Z</time>
      </trkpt>
      <trkpt lat="42.1991" lon="18.96747">
        <ele>65.186736</ele>
        <time>2022-05-27T09:57:55.884Z</time>
      </trkpt>
      <trkpt lat="42.19915" lon="18.96735">
        <ele>65.151214</ele>
        <time>2022-05-27T09:57:58.866Z</time>
      </trkpt>
      <trkpt lat="42.1992" lon="18.96722">
        <ele>65.109293</ele>
        <time>2022-05-27T09:58:02.938Z</time>
      </trkpt>
      <trkpt lat="42.19925" lon="18.96711">
        <ele>65.075077</ele>
        <time>2022-05-27T09:58:05.866Z</time>
      </trkpt>
      <trkpt lat="42.1993" lon="18.96698">
        <ele>65.034583</ele>
        <time>2022-05-27T09:58:09.871Z</time>
      </trkpt>
      <trkpt lat="42.19935" lon="18.96685">
        <ele>64.995253</ele>
        <time>2022-05-27T09:58:13.925Z</time>
      </trkpt>
      <trkpt lat="42.19939" lon="18.96672">
        <ele>64.957454</ele>
        <time>2022-05-27T09:58:17.858Z</time>
      </trkpt>
      <trkpt lat="42.19942" lon="18.9666">
        <ele>64.923864</ele>
        <time>2022-05-27T09:58:21.874Z</time>
      </trkpt>
      <trkpt lat="42.19946" lon="18.96649">
        <ele>64.888906</ele>
        <time>2022-05-27T09:58:25.872Z</time>
      </trkpt>
      <trkpt lat="42.19949" lon="18.96637">
        <ele>64.855435</ele>
        <time>2022-05-27T09:58:29.890Z</time>
      </trkpt>
      <trkpt lat="42.19953" lon="18.96625">
        <ele>64.819807</ele>
        <time>2022-05-27T09:58:33.854Z</time>
      </trkpt>
      <trkpt lat="42.19956" lon="18.96611">
        <ele>64.781124</ele>
        <time>2022-05-27T09:58:37.875Z</time>
      </trkpt>
      <trkpt lat="42.1996" lon="18.96597">
        <ele>64.73851</ele>
        <time>2022-05-27T09:58:41.860Z</time>
      </trkpt>
      <trkpt lat="42.19963" lon="18.96582">
        <ele>64.697984</ele>
        <time>2022-05-27T09:58:45.872Z</time>
      </trkpt>
      <trkpt lat="42.19966" lon="18.96568">
        <ele>64.787083</ele>
        <time>2022-05-27T09:58:49.852Z</time>
      </trkpt>
      <trkpt lat="42.19968" lon="18.96554">
        <ele>64.992767</ele>
        <time>2022-05-27T09:58:54.853Z</time>
      </trkpt>
      <trkpt lat="42.1997" lon="18.96541">
        <ele>65.169439</ele>
        <time>2022-05-27T09:58:58.873Z</time>
      </trkpt>
      <trkpt lat="42.19969" lon="18.96529">
        <ele>65.349398</ele>
        <time>2022-05-27T09:59:04.876Z</time>
      </trkpt>
      <trkpt lat="42.19994" lon="18.96495">
        <ele>66.02248</ele>
        <time>2022-05-27T11:35:22.852Z</time>
      </trkpt>
      <trkpt lat="42.19998" lon="18.96481">
        <ele>66.232208</ele>
        <time>2022-05-27T11:35:26.845Z</time>
      </trkpt>
      <trkpt lat="42.20003" lon="18.96471">
        <ele>66.402506</ele>
        <time>2022-05-27T11:35:29.864Z</time>
      </trkpt>
      <trkpt lat="42.20011" lon="18.96458">
        <ele>66.63146</ele>
        <time>2022-05-27T11:35:33.850Z</time>
      </trkpt>
      <trkpt lat="42.20016" lon="18.96449">
        <ele>66.806197</ele>
        <time>2022-05-27T11:35:36.842Z</time>
      </trkpt>
      <trkpt lat="42.20023" lon="18.96436">
        <ele>67.029482</ele>
        <time>2022-05-27T11:35:40.866Z</time>
      </trkpt>
      <trkpt lat="42.2003" lon="18.96425">
        <ele>67.230354</ele>
        <time>2022-05-27T11:35:44.848Z</time>
      </trkpt>
      <trkpt lat="42.20036" lon="18.96414">
        <ele>67.415218</ele>
        <time>2022-05-27T11:35:48.852Z</time>
      </trkpt>
      <trkpt lat="42.20042" lon="18.96404">
        <ele>67.600557</ele>
        <time>2022-05-27T11:35:52.843Z</time>
      </trkpt>
      <trkpt lat="42.20048" lon="18.96395">
        <ele>67.773914</ele>
        <time>2022-05-27T11:35:56.889Z</time>
      </trkpt>
      <trkpt lat="42.20056" lon="18.96385">
        <ele>67.983321</ele>
        <time>2022-05-27T11:36:00.843Z</time>
      </trkpt>
      <trkpt lat="42.20063" lon="18.96374">
        <ele>68.335428</ele>
        <time>2022-05-27T11:36:04.852Z</time>
      </trkpt>
      <trkpt lat="42.20071" lon="18.96364">
        <ele>68.904586</ele>
        <time>2022-05-27T11:36:08.869Z</time>
      </trkpt>
      <trkpt lat="42.20077" lon="18.96354">
        <ele>69.440433</ele>
        <time>2022-05-27T11:36:12.844Z</time>
      </trkpt>
      <trkpt lat="42.20084" lon="18.96342">
        <ele>70.004118</ele>
        <time>2022-05-27T11:36:16.844Z</time>
      </trkpt>
      <trkpt lat="42.20091" lon="18.9633">
        <ele>70.621644</ele>
        <time>2022-05-27T11:36:20.841Z</time>
      </trkpt>
      <trkpt lat="42.20095" lon="18.96318">
        <ele>71.149297</ele>
        <time>2022-05-27T11:36:24.838Z</time>
      </trkpt>
      <trkpt lat="42.20101" lon="18.96306">
        <ele>71.684788</ele>
        <time>2022-05-27T11:36:28.846Z</time>
      </trkpt>
      <trkpt lat="42.20106" lon="18.96295">
        <ele>72.239574</ele>
        <time>2022-05-27T11:36:33.841Z</time>
      </trkpt>
      <trkpt lat="42.20112" lon="18.96282">
        <ele>72.830876</ele>
        <time>2022-05-27T11:36:38.845Z</time>
      </trkpt>
      <trkpt lat="42.20117" lon="18.9627">
        <ele>73.350389</ele>
        <time>2022-05-27T11:36:42.844Z</time>
      </trkpt>
      <trkpt lat="42.20122" lon="18.96259">
        <ele>73.871835</ele>
        <time>2022-05-27T11:36:46.842Z</time>
      </trkpt>
      <trkpt lat="42.20127" lon="18.96248">
        <ele>74.37092</ele>
        <time>2022-05-27T11:36:50.852Z</time>
      </trkpt>
      <trkpt lat="42.20132" lon="18.96235">
        <ele>74.958264</ele>
        <time>2022-05-27T11:36:55.842Z</time>
      </trkpt>
      <trkpt lat="42.20138" lon="18.96222">
        <ele>75.552358</ele>
        <time>2022-05-27T11:37:00.914Z</time>
      </trkpt>
      <trkpt lat="42.20143" lon="18.96209">
        <ele>76.120101</ele>
        <time>2022-05-27T11:37:05.882Z</time>
      </trkpt>
      <trkpt lat="42.20146" lon="18.96196">
        <ele>76.676276</ele>
        <time>2022-05-27T11:37:10.857Z</time>
      </trkpt>
      <trkpt lat="42.20151" lon="18.96182">
        <ele>77.266853</ele>
        <time>2022-05-27T11:37:15.850Z</time>
      </trkpt>
      <trkpt lat="42.20155" lon="18.96169">
        <ele>77.799705</ele>
        <time>2022-05-27T11:37:20.897Z</time>
      </trkpt>
      <trkpt lat="42.20158" lon="18.96157">
        <ele>78.166508</ele>
        <time>2022-05-27T11:37:24.866Z</time>
      </trkpt>
      <trkpt lat="42.20163" lon="18.96143">
        <ele>78.606265</ele>
        <time>2022-05-27T11:37:29.877Z</time>
      </trkpt>
      <trkpt lat="42.20166" lon="18.96132">
        <ele>78.960793</ele>
        <time>2022-05-27T11:37:33.868Z</time>
      </trkpt>
      <trkpt lat="42.2017" lon="18.96118">
        <ele>79.394406</ele>
        <time>2022-05-27T11:37:38.858Z</time>
      </trkpt>
      <trkpt lat="42.20174" lon="18.96105">
        <ele>79.820274</ele>
        <time>2022-05-27T11:37:43.871Z</time>
      </trkpt>
      <trkpt lat="42.20179" lon="18.96091">
        <ele>80.244908</ele>
        <time>2022-05-27T11:37:48.893Z</time>
      </trkpt>
      <trkpt lat="42.20185" lon="18.96079">
        <ele>80.665705</ele>
        <time>2022-05-27T11:37:52.861Z</time>
      </trkpt>
      <trkpt lat="42.20191" lon="18.96068">
        <ele>81.058315</ele>
        <time>2022-05-27T11:37:56.862Z</time>
      </trkpt>
      <trkpt lat="42.20196" lon="18.96058">
        <ele>81.427523</ele>
        <time>2022-05-27T11:38:00.874Z</time>
      </trkpt>
      <trkpt lat="42.20203" lon="18.96049">
        <ele>81.802019</ele>
        <time>2022-05-27T11:38:04.891Z</time>
      </trkpt>
      <trkpt lat="42.2021" lon="18.96038">
        <ele>82.234089</ele>
        <time>2022-05-27T11:38:09.860Z</time>
      </trkpt>
      <trkpt lat="42.20218" lon="18.96027">
        <ele>82.650136</ele>
        <time>2022-05-27T11:38:14.876Z</time>
      </trkpt>
      <trkpt lat="42.20224" lon="18.96017">
        <ele>83.050909</ele>
        <time>2022-05-27T11:38:19.861Z</time>
      </trkpt>
      <trkpt lat="42.20231" lon="18.96008">
        <ele>83.40886</ele>
        <time>2022-05-27T11:38:23.876Z</time>
      </trkpt>
      <trkpt lat="42.20239" lon="18.95999">
        <ele>83.838491</ele>
        <time>2022-05-27T11:38:28.932Z</time>
      </trkpt>
      <trkpt lat="42.20247" lon="18.95991">
        <ele>84.210141</ele>
        <time>2022-05-27T11:38:33.870Z</time>
      </trkpt>
      <trkpt lat="42.20254" lon="18.95982">
        <ele>84.596453</ele>
        <time>2022-05-27T11:38:38.863Z</time>
      </trkpt>
      <trkpt lat="42.20263" lon="18.95975">
        <ele>84.981148</ele>
        <time>2022-05-27T11:38:43.895Z</time>
      </trkpt>
      <trkpt lat="42.20272" lon="18.95966">
        <ele>85.359817</ele>
        <time>2022-05-27T11:38:48.865Z</time>
      </trkpt>
      <trkpt lat="42.2028" lon="18.95959">
        <ele>85.728834</ele>
        <time>2022-05-27T11:38:53.868Z</time>
      </trkpt>
      <trkpt lat="42.20289" lon="18.95951">
        <ele>86.084749</ele>
        <time>2022-05-27T11:38:58.874Z</time>
      </trkpt>
      <trkpt lat="42.20298" lon="18.95943">
        <ele>86.446589</ele>
        <time>2022-05-27T11:39:03.886Z</time>
      </trkpt>
      <trkpt lat="42.20306" lon="18.95935">
        <ele>86.822889</ele>
        <time>2022-05-27T11:39:08.862Z</time>
      </trkpt>
      <trkpt lat="42.20315" lon="18.95926">
        <ele>87.194012</ele>
        <time>2022-05-27T11:39:13.873Z</time>
      </trkpt>
      <trkpt lat="42.20322" lon="18.95919">
        <ele>87.519245</ele>
        <time>2022-05-27T11:39:17.894Z</time>
      </trkpt>
      <trkpt lat="42.20331" lon="18.9591">
        <ele>87.900316</ele>
        <time>2022-05-27T11:39:22.869Z</time>
      </trkpt>
      <trkpt lat="42.20337" lon="18.959">
        <ele>88.243822</ele>
        <time>2022-05-27T11:39:27.878Z</time>
      </trkpt>
      <trkpt lat="42.20343" lon="18.95891">
        <ele>88.561597</ele>
        <time>2022-05-27T11:39:31.874Z</time>
      </trkpt>
      <trkpt lat="42.2035" lon="18.95883">
        <ele>88.881342</ele>
        <time>2022-05-27T11:39:35.863Z</time>
      </trkpt>
      <trkpt lat="42.20356" lon="18.95872">
        <ele>89.223652</ele>
        <time>2022-05-27T11:39:39.859Z</time>
      </trkpt>
      <trkpt lat="42.20362" lon="18.9586">
        <ele>89.593317</ele>
        <time>2022-05-27T11:39:44.868Z</time>
      </trkpt>
      <trkpt lat="42.20366" lon="18.95849">
        <ele>89.920212</ele>
        <time>2022-05-27T11:39:48.858Z</time>
      </trkpt>
      <trkpt lat="42.20371" lon="18.95836">
        <ele>90.294305</ele>
        <time>2022-05-27T11:39:53.858Z</time>
      </trkpt>
      <trkpt lat="42.20375" lon="18.95824">
        <ele>90.643862</ele>
        <time>2022-05-27T11:39:58.866Z</time>
      </trkpt>
      <trkpt lat="42.20379" lon="18.95811">
        <ele>91.008353</ele>
        <time>2022-05-27T11:40:03.895Z</time>
      </trkpt>
      <trkpt lat="42.20383" lon="18.95799">
        <ele>91.193142</ele>
        <time>2022-05-27T11:40:07.858Z</time>
      </trkpt>
      <trkpt lat="42.20386" lon="18.95787">
        <ele>91.352892</ele>
        <time>2022-05-27T11:40:11.872Z</time>
      </trkpt>
      <trkpt lat="42.2039" lon="18.95775">
        <ele>91.538973</ele>
        <time>2022-05-27T11:40:16.877Z</time>
      </trkpt>
      <trkpt lat="42.20394" lon="18.95763">
        <ele>91.704302</ele>
        <time>2022-05-27T11:40:20.852Z</time>
      </trkpt>
      <trkpt lat="42.20397" lon="18.95751">
        <ele>91.864648</ele>
        <time>2022-05-27T11:40:24.868Z</time>
      </trkpt>
      <trkpt lat="42.20401" lon="18.95738">
        <ele>92.056375</ele>
        <time>2022-05-27T11:40:29.861Z</time>
      </trkpt>
      <trkpt lat="42.20403" lon="18.95726">
        <ele>92.219706</ele>
        <time>2022-05-27T11:40:33.874Z</time>
      </trkpt>
      <trkpt lat="42.20405" lon="18.95713">
        <ele>92.394278</ele>
        <time>2022-05-27T11:40:37.883Z</time>
      </trkpt>
      <trkpt lat="42.20406" lon="18.957">
        <ele>92.562028</ele>
        <time>2022-05-27T11:40:42.890Z</time>
      </trkpt>
      <trkpt lat="42.20408" lon="18.95688">
        <ele>92.72759</ele>
        <time>2022-05-27T11:40:47.867Z</time>
      </trkpt>
      <trkpt lat="42.20409" lon="18.95674">
        <ele>92.90275</ele>
        <time>2022-05-27T11:40:53.874Z</time>
      </trkpt>
      <trkpt lat="42.20407" lon="18.95661">
        <ele>93.082976</ele>
        <time>2022-05-27T11:40:59.892Z</time>
      </trkpt>
      <trkpt lat="42.20414" lon="18.95564">
        <ele>94.599776</ele>
        <time>2022-05-27T11:41:25.861Z</time>
      </trkpt>
      <trkpt lat="42.20406" lon="18.95576">
        <ele>95.193061</ele>
        <time>2022-05-27T11:41:26.877Z</time>
      </trkpt>
      <trkpt lat="42.20407" lon="18.95558">
        <ele>95.834934</ele>
        <time>2022-05-27T11:41:27.870Z</time>
      </trkpt>
      <trkpt lat="42.20405" lon="18.95544">
        <ele>96.364032</ele>
        <time>2022-05-27T11:41:34.909Z</time>
      </trkpt>
      <trkpt lat="42.20402" lon="18.95531">
        <ele>96.847758</ele>
        <time>2022-05-27T11:41:38.869Z</time>
      </trkpt>
      <trkpt lat="42.20398" lon="18.95516">
        <ele>97.394623</ele>
        <time>2022-05-27T11:41:43.867Z</time>
      </trkpt>
      <trkpt lat="42.20395" lon="18.95504">
        <ele>97.859352</ele>
        <time>2022-05-27T11:41:47.864Z</time>
      </trkpt>
      <trkpt lat="42.20391" lon="18.95493">
        <ele>98.298878</ele>
        <time>2022-05-27T11:41:51.858Z</time>
      </trkpt>
      <trkpt lat="42.20387" lon="18.95482">
        <ele>98.743716</ele>
        <time>2022-05-27T11:41:55.850Z</time>
      </trkpt>
      <trkpt lat="42.20382" lon="18.95469">
        <ele>99.268855</ele>
        <time>2022-05-27T11:42:00.874Z</time>
      </trkpt>
      <trkpt lat="42.2038" lon="18.95457">
        <ele>99.71215</ele>
        <time>2022-05-27T11:42:04.876Z</time>
      </trkpt>
      <trkpt lat="42.20376" lon="18.95445">
        <ele>100.15182</ele>
        <time>2022-05-27T11:42:08.866Z</time>
      </trkpt>
      <trkpt lat="42.20373" lon="18.95431">
        <ele>100.698634</ele>
        <time>2022-05-27T11:42:13.901Z</time>
      </trkpt>
      <trkpt lat="42.2037" lon="18.95419">
        <ele>101.138523</ele>
        <time>2022-05-27T11:42:17.862Z</time>
      </trkpt>
      <trkpt lat="42.20367" lon="18.95407">
        <ele>101.608618</ele>
        <time>2022-05-27T11:42:21.859Z</time>
      </trkpt>
      <trkpt lat="42.20364" lon="18.95394">
        <ele>102.081775</ele>
        <time>2022-05-27T11:42:25.864Z</time>
      </trkpt>
      <trkpt lat="42.20361" lon="18.95381">
        <ele>102.5627</ele>
        <time>2022-05-27T11:42:29.890Z</time>
      </trkpt>
      <trkpt lat="42.20359" lon="18.95368">
        <ele>102.961046</ele>
        <time>2022-05-27T11:42:33.866Z</time>
      </trkpt>
      <trkpt lat="42.20358" lon="18.95355">
        <ele>103.172691</ele>
        <time>2022-05-27T11:42:37.869Z</time>
      </trkpt>
      <trkpt lat="42.20357" lon="18.95342">
        <ele>103.374287</ele>
        <time>2022-05-27T11:42:41.857Z</time>
      </trkpt>
      <trkpt lat="42.20357" lon="18.95328">
        <ele>103.582941</ele>
        <time>2022-05-27T11:42:45.857Z</time>
      </trkpt>
      <trkpt lat="42.20358" lon="18.95315">
        <ele>103.777591</ele>
        <time>2022-05-27T11:42:49.861Z</time>
      </trkpt>
      <trkpt lat="42.20358" lon="18.95302">
        <ele>103.985998</ele>
        <time>2022-05-27T11:42:53.902Z</time>
      </trkpt>
      <trkpt lat="42.20358" lon="18.95287">
        <ele>104.211403</ele>
        <time>2022-05-27T11:42:58.858Z</time>
      </trkpt>
      <trkpt lat="42.20361" lon="18.95274">
        <ele>104.419764</ele>
        <time>2022-05-27T11:43:02.887Z</time>
      </trkpt>
      <trkpt lat="42.20364" lon="18.95259">
        <ele>104.649377</ele>
        <time>2022-05-27T11:43:06.875Z</time>
      </trkpt>
      <trkpt lat="42.20367" lon="18.95245">
        <ele>104.886817</ele>
        <time>2022-05-27T11:43:10.884Z</time>
      </trkpt>
      <trkpt lat="42.20371" lon="18.9523">
        <ele>105.120503</ele>
        <time>2022-05-27T11:43:14.867Z</time>
      </trkpt>
      <trkpt lat="42.20375" lon="18.95216">
        <ele>105.356992</ele>
        <time>2022-05-27T11:43:18.869Z</time>
      </trkpt>
      <trkpt lat="42.20381" lon="18.95202">
        <ele>105.60324</ele>
        <time>2022-05-27T11:43:22.874Z</time>
      </trkpt>
      <trkpt lat="42.20387" lon="18.9519">
        <ele>105.827634</ele>
        <time>2022-05-27T11:43:26.883Z</time>
      </trkpt>
      <trkpt lat="42.20393" lon="18.95178">
        <ele>106.043126</ele>
        <time>2022-05-27T11:43:30.878Z</time>
      </trkpt>
      <trkpt lat="42.20399" lon="18.95165">
        <ele>106.274358</ele>
        <time>2022-05-27T11:43:34.928Z</time>
      </trkpt>
      <trkpt lat="42.20404" lon="18.95154">
        <ele>106.476959</ele>
        <time>2022-05-27T11:43:38.866Z</time>
      </trkpt>
      <trkpt lat="42.20406" lon="18.95141">
        <ele>106.648201</ele>
        <time>2022-05-27T11:43:42.870Z</time>
      </trkpt>
      <trkpt lat="42.20413" lon="18.9513">
        <ele>106.724051</ele>
        <time>2022-05-27T11:43:46.866Z</time>
      </trkpt>
      <trkpt lat="42.2042" lon="18.9512">
        <ele>106.803578</ele>
        <time>2022-05-27T11:43:50.865Z</time>
      </trkpt>
      <trkpt lat="42.20426" lon="18.95109">
        <ele>106.881238</ele>
        <time>2022-05-27T11:43:54.868Z</time>
      </trkpt>
      <trkpt lat="42.2043" lon="18.95098">
        <ele>106.955957</ele>
        <time>2022-05-27T11:43:58.868Z</time>
      </trkpt>
      <trkpt lat="42.20433" lon="18.95084">
        <ele>107.034112</ele>
        <time>2022-05-27T11:44:03.869Z</time>
      </trkpt>
      <trkpt lat="42.20439" lon="18.95072">
        <ele>107.116</ele>
        <time>2022-05-27T11:44:06.861Z</time>
      </trkpt>
      <trkpt lat="42.20447" lon="18.95062">
        <ele>107.204013</ele>
        <time>2022-05-27T11:44:08.874Z</time>
      </trkpt>
      <trkpt lat="42.20458" lon="18.95052">
        <ele>107.306432</ele>
        <time>2022-05-27T11:44:10.930Z</time>
      </trkpt>
      <trkpt lat="42.2047" lon="18.95038">
        <ele>107.426475</ele>
        <time>2022-05-27T11:44:12.895Z</time>
      </trkpt>
      <trkpt lat="42.20481" lon="18.95025">
        <ele>107.539363</ele>
        <time>2022-05-27T11:44:14.858Z</time>
      </trkpt>
      <trkpt lat="42.20491" lon="18.95011">
        <ele>107.64824</ele>
        <time>2022-05-27T11:44:16.948Z</time>
      </trkpt>
      <trkpt lat="42.20501" lon="18.94997">
        <ele>107.758096</ele>
        <time>2022-05-27T11:44:18.854Z</time>
      </trkpt>
      <trkpt lat="42.20509" lon="18.94983">
        <ele>107.859949</ele>
        <time>2022-05-27T11:44:20.859Z</time>
      </trkpt>
      <trkpt lat="42.20516" lon="18.94969">
        <ele>107.954948</ele>
        <time>2022-05-27T11:44:22.863Z</time>
      </trkpt>
      <trkpt lat="42.20523" lon="18.94956">
        <ele>107.639165</ele>
        <time>2022-05-27T11:44:24.873Z</time>
      </trkpt>
      <trkpt lat="42.20531" lon="18.94942">
        <ele>106.763306</ele>
        <time>2022-05-27T11:44:26.871Z</time>
      </trkpt>
      <trkpt lat="42.20538" lon="18.94928">
        <ele>105.89111</ele>
        <time>2022-05-27T11:44:28.854Z</time>
      </trkpt>
      <trkpt lat="42.20544" lon="18.94914">
        <ele>105.049354</ele>
        <time>2022-05-27T11:44:30.863Z</time>
      </trkpt>
      <trkpt lat="42.20551" lon="18.949">
        <ele>104.222192</ele>
        <time>2022-05-27T11:44:32.871Z</time>
      </trkpt>
      <trkpt lat="42.20562" lon="18.94889">
        <ele>103.292619</ele>
        <time>2022-05-27T11:44:34.873Z</time>
      </trkpt>
      <trkpt lat="42.20574" lon="18.94878">
        <ele>102.299545</ele>
        <time>2022-05-27T11:44:36.874Z</time>
      </trkpt>
      <trkpt lat="42.20586" lon="18.94868">
        <ele>101.33823</ele>
        <time>2022-05-27T11:44:38.905Z</time>
      </trkpt>
      <trkpt lat="42.20596" lon="18.94853">
        <ele>100.311585</ele>
        <time>2022-05-27T11:44:40.847Z</time>
      </trkpt>
      <trkpt lat="42.20603" lon="18.94835">
        <ele>99.260409</ele>
        <time>2022-05-27T11:44:42.920Z</time>
      </trkpt>
      <trkpt lat="42.20609" lon="18.94815">
        <ele>98.212381</ele>
        <time>2022-05-27T11:44:44.857Z</time>
      </trkpt>
      <trkpt lat="42.20614" lon="18.94794">
        <ele>97.06871</ele>
        <time>2022-05-27T11:44:46.873Z</time>
      </trkpt>
      <trkpt lat="42.20622" lon="18.94772">
        <ele>95.847527</ele>
        <time>2022-05-27T11:44:48.861Z</time>
      </trkpt>
      <trkpt lat="42.20627" lon="18.94762">
        <ele>95.394287</ele>
        <time>2022-05-27T11:44:49.864Z</time>
      </trkpt>
      <trkpt lat="42.20632" lon="18.94752">
        <ele>94.987708</ele>
        <time>2022-05-27T11:44:50.926Z</time>
      </trkpt>
      <trkpt lat="42.20638" lon="18.94742">
        <ele>94.583738</ele>
        <time>2022-05-27T11:44:51.859Z</time>
      </trkpt>
      <trkpt lat="42.20643" lon="18.94732">
        <ele>94.182155</ele>
        <time>2022-05-27T11:44:52.873Z</time>
      </trkpt>
      <trkpt lat="42.20654" lon="18.94714">
        <ele>93.420884</ele>
        <time>2022-05-27T11:44:54.863Z</time>
      </trkpt>
      <trkpt lat="42.20664" lon="18.94696">
        <ele>92.701458</ele>
        <time>2022-05-27T11:44:56.929Z</time>
      </trkpt>
      <trkpt lat="42.20674" lon="18.9468">
        <ele>92.015511</ele>
        <time>2022-05-27T11:44:58.866Z</time>
      </trkpt>
      <trkpt lat="42.20683" lon="18.94664">
        <ele>91.370798</ele>
        <time>2022-05-27T11:45:00.851Z</time>
      </trkpt>
      <trkpt lat="42.20692" lon="18.94651">
        <ele>90.803914</ele>
        <time>2022-05-27T11:45:02.867Z</time>
      </trkpt>
      <trkpt lat="42.207" lon="18.94639">
        <ele>90.286867</ele>
        <time>2022-05-27T11:45:04.858Z</time>
      </trkpt>
      <trkpt lat="42.20707" lon="18.94628">
        <ele>89.787881</ele>
        <time>2022-05-27T11:45:06.881Z</time>
      </trkpt>
      <trkpt lat="42.20715" lon="18.94615">
        <ele>89.256126</ele>
        <time>2022-05-27T11:45:08.884Z</time>
      </trkpt>
      <trkpt lat="42.20723" lon="18.94603">
        <ele>88.713041</ele>
        <time>2022-05-27T11:45:10.953Z</time>
      </trkpt>
      <trkpt lat="42.20732" lon="18.94592">
        <ele>88.189056</ele>
        <time>2022-05-27T11:45:12.885Z</time>
      </trkpt>
      <trkpt lat="42.20739" lon="18.94583">
        <ele>87.883248</ele>
        <time>2022-05-27T11:45:14.863Z</time>
      </trkpt>
      <trkpt lat="42.20748" lon="18.94575">
        <ele>88.334604</ele>
        <time>2022-05-27T11:45:17.895Z</time>
      </trkpt>
      <trkpt lat="42.20757" lon="18.94569">
        <ele>88.773342</ele>
        <time>2022-05-27T11:45:20.867Z</time>
      </trkpt>
      <trkpt lat="42.20766" lon="18.94563">
        <ele>89.200245</ele>
        <time>2022-05-27T11:45:23.866Z</time>
      </trkpt>
      <trkpt lat="42.20775" lon="18.94561">
        <ele>89.614639</ele>
        <time>2022-05-27T11:45:27.872Z</time>
      </trkpt>
      <trkpt lat="42.20785" lon="18.94564">
        <ele>90.066426</ele>
        <time>2022-05-27T11:45:32.898Z</time>
      </trkpt>
      <trkpt lat="42.20795" lon="18.94567">
        <ele>90.503169</ele>
        <time>2022-05-27T11:45:37.871Z</time>
      </trkpt>
      <trkpt lat="42.20805" lon="18.94569">
        <ele>90.956591</ele>
        <time>2022-05-27T11:45:42.870Z</time>
      </trkpt>
      <trkpt lat="42.20816" lon="18.9457">
        <ele>91.417222</ele>
        <time>2022-05-27T11:45:47.882Z</time>
      </trkpt>
      <trkpt lat="42.20826" lon="18.9457">
        <ele>91.894859</ele>
        <time>2022-05-27T11:45:52.882Z</time>
      </trkpt>
      <trkpt lat="42.20836" lon="18.94567">
        <ele>92.329398</ele>
        <time>2022-05-27T11:45:56.872Z</time>
      </trkpt>
      <trkpt lat="42.20846" lon="18.94559">
        <ele>92.805907</ele>
        <time>2022-05-27T11:46:01.879Z</time>
      </trkpt>
      <trkpt lat="42.20854" lon="18.94551">
        <ele>93.275938</ele>
        <time>2022-05-27T11:46:06.857Z</time>
      </trkpt>
      <trkpt lat="42.20862" lon="18.94542">
        <ele>93.716409</ele>
        <time>2022-05-27T11:46:11.878Z</time>
      </trkpt>
      <trkpt lat="42.20868" lon="18.94533">
        <ele>94.126605</ele>
        <time>2022-05-27T11:46:16.870Z</time>
      </trkpt>
      <trkpt lat="42.20875" lon="18.94523">
        <ele>94.543216</ele>
        <time>2022-05-27T11:46:21.865Z</time>
      </trkpt>
      <trkpt lat="42.20882" lon="18.94514">
        <ele>94.971262</ele>
        <time>2022-05-27T11:46:26.902Z</time>
      </trkpt>
      <trkpt lat="42.20888" lon="18.94504">
        <ele>95.393091</ele>
        <time>2022-05-27T11:46:32.857Z</time>
      </trkpt>
      <trkpt lat="42.20896" lon="18.94496">
        <ele>96.023894</ele>
        <time>2022-05-27T11:46:39.863Z</time>
      </trkpt>
      <trkpt lat="42.20906" lon="18.94491">
        <ele>97.078661</ele>
        <time>2022-05-27T11:46:44.877Z</time>
      </trkpt>
      <trkpt lat="42.20915" lon="18.94484">
        <ele>98.122127</ele>
        <time>2022-05-27T11:46:49.880Z</time>
      </trkpt>
      <trkpt lat="42.20922" lon="18.94475">
        <ele>99.08757</ele>
        <time>2022-05-27T11:46:54.860Z</time>
      </trkpt>
      <trkpt lat="42.20929" lon="18.94465">
        <ele>100.09957</ele>
        <time>2022-05-27T11:47:00.877Z</time>
      </trkpt>
      <trkpt lat="42.20935" lon="18.94453">
        <ele>101.114239</ele>
        <time>2022-05-27T11:47:06.875Z</time>
      </trkpt>
      <trkpt lat="42.2094" lon="18.94442">
        <ele>102.103719</ele>
        <time>2022-05-27T11:47:12.860Z</time>
      </trkpt>
      <trkpt lat="42.20947" lon="18.94432">
        <ele>103.102026</ele>
        <time>2022-05-27T11:47:17.869Z</time>
      </trkpt>
      <trkpt lat="42.20952" lon="18.9442">
        <ele>104.142758</ele>
        <time>2022-05-27T11:47:23.866Z</time>
      </trkpt>
      <trkpt lat="42.20961" lon="18.94413">
        <ele>105.093073</ele>
        <time>2022-05-27T11:47:28.861Z</time>
      </trkpt>
      <trkpt lat="42.2097" lon="18.94408">
        <ele>106.048843</ele>
        <time>2022-05-27T11:47:34.869Z</time>
      </trkpt>
      <trkpt lat="42.20978" lon="18.94403">
        <ele>107.013414</ele>
        <time>2022-05-27T11:47:39.868Z</time>
      </trkpt>
      <trkpt lat="42.20987" lon="18.94397">
        <ele>108.008611</ele>
        <time>2022-05-27T11:47:45.865Z</time>
      </trkpt>
      <trkpt lat="42.20997" lon="18.94391">
        <ele>109.055323</ele>
        <time>2022-05-27T11:47:51.863Z</time>
      </trkpt>
      <trkpt lat="42.21006" lon="18.94385">
        <ele>110.006323</ele>
        <time>2022-05-27T11:47:56.880Z</time>
      </trkpt>
      <trkpt lat="42.21014" lon="18.94382">
        <ele>110.915901</ele>
        <time>2022-05-27T11:48:02.870Z</time>
      </trkpt>
      <trkpt lat="42.21023" lon="18.94375">
        <ele>111.902416</ele>
        <time>2022-05-27T11:48:08.875Z</time>
      </trkpt>
      <trkpt lat="42.21031" lon="18.94368">
        <ele>112.869043</ele>
        <time>2022-05-27T11:48:15.866Z</time>
      </trkpt>
      <trkpt lat="42.21039" lon="18.94361">
        <ele>113.625015</ele>
        <time>2022-05-27T11:48:22.866Z</time>
      </trkpt>
      <trkpt lat="42.21047" lon="18.94353">
        <ele>113.972381</ele>
        <time>2022-05-27T11:48:29.882Z</time>
      </trkpt>
      <trkpt lat="42.21055" lon="18.94344">
        <ele>114.288743</ele>
        <time>2022-05-27T11:48:35.871Z</time>
      </trkpt>
      <trkpt lat="42.21063" lon="18.94338">
        <ele>114.620677</ele>
        <time>2022-05-27T11:48:42.863Z</time>
      </trkpt>
      <trkpt lat="42.2107" lon="18.9433">
        <ele>114.931924</ele>
        <time>2022-05-27T11:48:49.900Z</time>
      </trkpt>
      <trkpt lat="42.21074" lon="18.94317">
        <ele>115.269411</ele>
        <time>2022-05-27T11:48:55.871Z</time>
      </trkpt>
      <trkpt lat="42.21076" lon="18.94304">
        <ele>115.624527</ele>
        <time>2022-05-27T11:49:01.872Z</time>
      </trkpt>
      <trkpt lat="42.21076" lon="18.9429">
        <ele>115.973536</ele>
        <time>2022-05-27T11:49:07.872Z</time>
      </trkpt>
      <trkpt lat="42.21074" lon="18.94277">
        <ele>116.311973</ele>
        <time>2022-05-27T11:49:13.867Z</time>
      </trkpt>
      <trkpt lat="42.21069" lon="18.94266">
        <ele>116.627142</ele>
        <time>2022-05-27T11:49:19.876Z</time>
      </trkpt>
      <trkpt lat="42.21055" lon="18.94237">
        <ele>117.495281</ele>
        <time>2022-05-27T11:51:46.869Z</time>
      </trkpt>
      <trkpt lat="42.2105" lon="18.94224">
        <ele>117.848355</ele>
        <time>2022-05-27T11:51:53.964Z</time>
      </trkpt>
      <trkpt lat="42.21048" lon="18.9421">
        <ele>118.205548</ele>
        <time>2022-05-27T11:52:00.854Z</time>
      </trkpt>
      <trkpt lat="42.21046" lon="18.94197">
        <ele>118.540997</ele>
        <time>2022-05-27T11:52:06.857Z</time>
      </trkpt>
      <trkpt lat="42.21046" lon="18.94184">
        <ele>118.878148</ele>
        <time>2022-05-27T11:52:12.864Z</time>
      </trkpt>
      <trkpt lat="42.21045" lon="18.94172">
        <ele>119.183132</ele>
        <time>2022-05-27T11:52:18.868Z</time>
      </trkpt>
      <trkpt lat="42.21044" lon="18.94159">
        <ele>119.512105</ele>
        <time>2022-05-27T11:52:25.863Z</time>
      </trkpt>
      <trkpt lat="42.21042" lon="18.94146">
        <ele>119.891162</ele>
        <time>2022-05-27T11:52:31.869Z</time>
      </trkpt>
      <trkpt lat="42.21041" lon="18.94132">
        <ele>120.328849</ele>
        <time>2022-05-27T11:52:38.860Z</time>
      </trkpt>
      <trkpt lat="42.21042" lon="18.94119">
        <ele>120.752115</ele>
        <time>2022-05-27T11:52:44.872Z</time>
      </trkpt>
      <trkpt lat="42.21043" lon="18.94105">
        <ele>121.169796</ele>
        <time>2022-05-27T11:52:50.855Z</time>
      </trkpt>
      <trkpt lat="42.21042" lon="18.94092">
        <ele>121.586544</ele>
        <time>2022-05-27T11:52:56.867Z</time>
      </trkpt>
      <trkpt lat="42.21042" lon="18.94078">
        <ele>122.01293</ele>
        <time>2022-05-27T11:53:02.867Z</time>
      </trkpt>
      <trkpt lat="42.21039" lon="18.94065">
        <ele>122.44816</ele>
        <time>2022-05-27T11:53:09.909Z</time>
      </trkpt>
      <trkpt lat="42.21037" lon="18.94053">
        <ele>122.834432</ele>
        <time>2022-05-27T11:53:15.849Z</time>
      </trkpt>
      <trkpt lat="42.21034" lon="18.9404">
        <ele>123.248457</ele>
        <time>2022-05-27T11:53:21.858Z</time>
      </trkpt>
      <trkpt lat="42.21031" lon="18.94027">
        <ele>123.679655</ele>
        <time>2022-05-27T11:53:27.878Z</time>
      </trkpt>
      <trkpt lat="42.21026" lon="18.94014">
        <ele>124.132258</ele>
        <time>2022-05-27T11:53:33.849Z</time>
      </trkpt>
      <trkpt lat="42.21021" lon="18.94003">
        <ele>124.563424</ele>
        <time>2022-05-27T11:53:40.862Z</time>
      </trkpt>
      <trkpt lat="42.21017" lon="18.93991">
        <ele>124.954994</ele>
        <time>2022-05-27T11:53:46.857Z</time>
      </trkpt>
      <trkpt lat="42.21015" lon="18.93978">
        <ele>125.373134</ele>
        <time>2022-05-27T11:53:52.872Z</time>
      </trkpt>
      <trkpt lat="42.21013" lon="18.93965">
        <ele>125.79218</ele>
        <time>2022-05-27T11:53:58.867Z</time>
      </trkpt>
      <trkpt lat="42.21013" lon="18.93952">
        <ele>126.186469</ele>
        <time>2022-05-27T11:54:03.859Z</time>
      </trkpt>
      <trkpt lat="42.21015" lon="18.93939">
        <ele>126.603532</ele>
        <time>2022-05-27T11:54:08.857Z</time>
      </trkpt>
      <trkpt lat="42.21015" lon="18.93926">
        <ele>127.005296</ele>
        <time>2022-05-27T11:54:14.862Z</time>
      </trkpt>
      <trkpt lat="42.21017" lon="18.93913">
        <ele>127.508839</ele>
        <time>2022-05-27T11:54:21.870Z</time>
      </trkpt>
      <trkpt lat="42.21019" lon="18.939">
        <ele>128.119738</ele>
        <time>2022-05-27T11:54:28.851Z</time>
      </trkpt>
      <trkpt lat="42.21021" lon="18.93888">
        <ele>128.660772</ele>
        <time>2022-05-27T11:54:34.864Z</time>
      </trkpt>
      <trkpt lat="42.21021" lon="18.93874">
        <ele>129.257025</ele>
        <time>2022-05-27T11:54:40.872Z</time>
      </trkpt>
      <trkpt lat="42.21023" lon="18.93861">
        <ele>129.867524</ele>
        <time>2022-05-27T11:54:46.872Z</time>
      </trkpt>
      <trkpt lat="42.21023" lon="18.93847">
        <ele>130.471884</ele>
        <time>2022-05-27T11:54:52.860Z</time>
      </trkpt>
      <trkpt lat="42.21022" lon="18.93833">
        <ele>131.101096</ele>
        <time>2022-05-27T11:54:58.895Z</time>
      </trkpt>
      <trkpt lat="42.21022" lon="18.9382">
        <ele>131.658052</ele>
        <time>2022-05-27T11:55:04.865Z</time>
      </trkpt>
      <trkpt lat="42.21019" lon="18.93808">
        <ele>132.221928</ele>
        <time>2022-05-27T11:55:11.912Z</time>
      </trkpt>
      <trkpt lat="42.21016" lon="18.93796">
        <ele>132.770369</ele>
        <time>2022-05-27T11:55:17.865Z</time>
      </trkpt>
      <trkpt lat="42.2101" lon="18.93785">
        <ele>133.383682</ele>
        <time>2022-05-27T11:55:24.886Z</time>
      </trkpt>
      <trkpt lat="42.21004" lon="18.93775">
        <ele>133.955568</ele>
        <time>2022-05-27T11:55:31.868Z</time>
      </trkpt>
      <trkpt lat="42.20997" lon="18.93764">
        <ele>134.566918</ele>
        <time>2022-05-27T11:55:39.887Z</time>
      </trkpt>
      <trkpt lat="42.20996" lon="18.93751">
        <ele>135.166703</ele>
        <time>2022-05-27T11:55:45.854Z</time>
      </trkpt>
      <trkpt lat="42.20996" lon="18.93738">
        <ele>135.749102</ele>
        <time>2022-05-27T11:55:52.871Z</time>
      </trkpt>
      <trkpt lat="42.20999" lon="18.93726">
        <ele>136.291096</ele>
        <time>2022-05-27T11:56:00.858Z</time>
      </trkpt>
      <trkpt lat="42.21007" lon="18.93718">
        <ele>136.882569</ele>
        <time>2022-05-27T11:56:08.872Z</time>
      </trkpt>
      <trkpt lat="42.21013" lon="18.93707">
        <ele>137.486211</ele>
        <time>2022-05-27T11:56:16.884Z</time>
      </trkpt>
      <trkpt lat="42.2102" lon="18.93699">
        <ele>137.965992</ele>
        <time>2022-05-27T11:56:22.857Z</time>
      </trkpt>
      <trkpt lat="42.21024" lon="18.93687">
        <ele>138.226033</ele>
        <time>2022-05-27T11:56:27.859Z</time>
      </trkpt>
      <trkpt lat="42.21026" lon="18.93674">
        <ele>138.46732</ele>
        <time>2022-05-27T11:56:31.846Z</time>
      </trkpt>
      <trkpt lat="42.21024" lon="18.9366">
        <ele>138.747934</ele>
        <time>2022-05-27T11:56:36.864Z</time>
      </trkpt>
      <trkpt lat="42.21024" lon="18.93645">
        <ele>139.023591</ele>
        <time>2022-05-27T11:56:41.864Z</time>
      </trkpt>
      <trkpt lat="42.21023" lon="18.9363">
        <ele>139.305458</ele>
        <time>2022-05-27T11:56:46.847Z</time>
      </trkpt>
      <trkpt lat="42.21022" lon="18.93615">
        <ele>139.586368</ele>
        <time>2022-05-27T11:56:51.870Z</time>
      </trkpt>
      <trkpt lat="42.21021" lon="18.93603">
        <ele>139.828266</ele>
        <time>2022-05-27T11:56:56.856Z</time>
      </trkpt>
      <trkpt lat="42.21018" lon="18.9359">
        <ele>140.070679</ele>
        <time>2022-05-27T11:57:01.865Z</time>
      </trkpt>
      <trkpt lat="42.21017" lon="18.93578">
        <ele>140.302588</ele>
        <time>2022-05-27T11:57:06.866Z</time>
      </trkpt>
      <trkpt lat="42.21016" lon="18.93565">
        <ele>140.557926</ele>
        <time>2022-05-27T11:57:11.871Z</time>
      </trkpt>
      <trkpt lat="42.21014" lon="18.93553">
        <ele>140.78659</ele>
        <time>2022-05-27T11:57:16.873Z</time>
      </trkpt>
      <trkpt lat="42.2101" lon="18.93539">
        <ele>141.059178</ele>
        <time>2022-05-27T11:57:22.849Z</time>
      </trkpt>
      <trkpt lat="42.21008" lon="18.93525">
        <ele>141.329747</ele>
        <time>2022-05-27T11:57:28.851Z</time>
      </trkpt>
      <trkpt lat="42.21006" lon="18.93513">
        <ele>141.565372</ele>
        <time>2022-05-27T11:57:33.855Z</time>
      </trkpt>
      <trkpt lat="42.21004" lon="18.935">
        <ele>141.813977</ele>
        <time>2022-05-27T11:57:38.860Z</time>
      </trkpt>
      <trkpt lat="42.21" lon="18.93488">
        <ele>142.05639</ele>
        <time>2022-05-27T11:57:43.869Z</time>
      </trkpt>
      <trkpt lat="42.20997" lon="18.93477">
        <ele>142.289897</ele>
        <time>2022-05-27T11:57:48.869Z</time>
      </trkpt>
      <trkpt lat="42.20994" lon="18.93464">
        <ele>142.591615</ele>
        <time>2022-05-27T11:57:54.876Z</time>
      </trkpt>
      <trkpt lat="42.20991" lon="18.9345">
        <ele>143.044242</ele>
        <time>2022-05-27T11:58:00.864Z</time>
      </trkpt>
      <trkpt lat="42.20989" lon="18.93437">
        <ele>143.474015</ele>
        <time>2022-05-27T11:58:06.921Z</time>
      </trkpt>
      <trkpt lat="42.20986" lon="18.93425">
        <ele>143.888444</ele>
        <time>2022-05-27T11:58:12.870Z</time>
      </trkpt>
      <trkpt lat="42.20983" lon="18.93413">
        <ele>144.319598</ele>
        <time>2022-05-27T11:58:18.865Z</time>
      </trkpt>
      <trkpt lat="42.20978" lon="18.93399">
        <ele>144.794723</ele>
        <time>2022-05-27T11:58:24.859Z</time>
      </trkpt>
      <trkpt lat="42.20974" lon="18.93388">
        <ele>145.195316</ele>
        <time>2022-05-27T11:58:29.869Z</time>
      </trkpt>
      <trkpt lat="42.2097" lon="18.93376">
        <ele>145.628034</ele>
        <time>2022-05-27T11:58:35.861Z</time>
      </trkpt>
      <trkpt lat="42.20967" lon="18.93363">
        <ele>146.065317</ele>
        <time>2022-05-27T11:58:41.872Z</time>
      </trkpt>
      <trkpt lat="42.20965" lon="18.9335">
        <ele>146.481193</ele>
        <time>2022-05-27T11:58:47.868Z</time>
      </trkpt>
      <trkpt lat="42.20961" lon="18.93339">
        <ele>146.892631</ele>
        <time>2022-05-27T11:58:53.907Z</time>
      </trkpt>
      <trkpt lat="42.20955" lon="18.93329">
        <ele>147.315536</ele>
        <time>2022-05-27T11:58:59.870Z</time>
      </trkpt>
      <trkpt lat="42.20948" lon="18.9332">
        <ele>147.71864</ele>
        <time>2022-05-27T11:59:04.851Z</time>
      </trkpt>
      <trkpt lat="42.20942" lon="18.93309">
        <ele>148.1613</ele>
        <time>2022-05-27T11:59:09.857Z</time>
      </trkpt>
      <trkpt lat="42.20935" lon="18.933">
        <ele>148.575872</ele>
        <time>2022-05-27T11:59:14.857Z</time>
      </trkpt>
      <trkpt lat="42.20928" lon="18.9329">
        <ele>149.028347</ele>
        <time>2022-05-27T11:59:20.862Z</time>
      </trkpt>
      <trkpt lat="42.20921" lon="18.93282">
        <ele>149.449493</ele>
        <time>2022-05-27T11:59:26.878Z</time>
      </trkpt>
      <trkpt lat="42.20915" lon="18.93272">
        <ele>149.865729</ele>
        <time>2022-05-27T11:59:32.894Z</time>
      </trkpt>
      <trkpt lat="42.20908" lon="18.93263">
        <ele>150.289526</ele>
        <time>2022-05-27T11:59:38.872Z</time>
      </trkpt>
      <trkpt lat="42.209" lon="18.93255">
        <ele>150.694547</ele>
        <time>2022-05-27T11:59:44.901Z</time>
      </trkpt>
      <trkpt lat="42.20893" lon="18.93245">
        <ele>151.054688</ele>
        <time>2022-05-27T11:59:49.872Z</time>
      </trkpt>
      <trkpt lat="42.20888" lon="18.93233">
        <ele>151.453011</ele>
        <time>2022-05-27T11:59:55.867Z</time>
      </trkpt>
      <trkpt lat="42.20883" lon="18.93222">
        <ele>151.810441</ele>
        <time>2022-05-27T12:00:00.851Z</time>
      </trkpt>
      <trkpt lat="42.2088" lon="18.93209">
        <ele>152.212102</ele>
        <time>2022-05-27T12:00:06.879Z</time>
      </trkpt>
      <trkpt lat="42.20876" lon="18.93198">
        <ele>152.566124</ele>
        <time>2022-05-27T12:00:11.850Z</time>
      </trkpt>
      <trkpt lat="42.20874" lon="18.93184">
        <ele>152.959299</ele>
        <time>2022-05-27T12:00:17.877Z</time>
      </trkpt>
      <trkpt lat="42.20873" lon="18.93171">
        <ele>153.346611</ele>
        <time>2022-05-27T12:00:23.871Z</time>
      </trkpt>
      <trkpt lat="42.20874" lon="18.93157">
        <ele>153.742054</ele>
        <time>2022-05-27T12:00:29.866Z</time>
      </trkpt>
      <trkpt lat="42.20874" lon="18.93143">
        <ele>154.143185</ele>
        <time>2022-05-27T12:00:36.902Z</time>
      </trkpt>
      <trkpt lat="42.20874" lon="18.9313">
        <ele>154.498919</ele>
        <time>2022-05-27T12:00:42.862Z</time>
      </trkpt>
      <trkpt lat="42.20873" lon="18.93116">
        <ele>154.889472</ele>
        <time>2022-05-27T12:00:48.876Z</time>
      </trkpt>
      <trkpt lat="42.20872" lon="18.93103">
        <ele>155.283871</ele>
        <time>2022-05-27T12:00:55.874Z</time>
      </trkpt>
      <trkpt lat="42.20871" lon="18.93089">
        <ele>155.686103</ele>
        <time>2022-05-27T12:01:01.870Z</time>
      </trkpt>
      <trkpt lat="42.20868" lon="18.93075">
        <ele>156.077271</ele>
        <time>2022-05-27T12:01:07.874Z</time>
      </trkpt>
      <trkpt lat="42.20865" lon="18.93063">
        <ele>156.4329</ele>
        <time>2022-05-27T12:01:12.872Z</time>
      </trkpt>
      <trkpt lat="42.20851" lon="18.93023">
        <ele>158.610648</ele>
        <time>2022-05-27T12:02:43.907Z</time>
      </trkpt>
      <trkpt lat="42.20846" lon="18.93013">
        <ele>159.673366</ele>
        <time>2022-05-27T12:02:48.873Z</time>
      </trkpt>
      <trkpt lat="42.20841" lon="18.93003">
        <ele>160.781812</ele>
        <time>2022-05-27T12:02:53.871Z</time>
      </trkpt>
      <trkpt lat="42.20836" lon="18.9299">
        <ele>162.058585</ele>
        <time>2022-05-27T12:03:00.872Z</time>
      </trkpt>
      <trkpt lat="42.2083" lon="18.9298">
        <ele>163.167032</ele>
        <time>2022-05-27T12:03:05.859Z</time>
      </trkpt>
      <trkpt lat="42.20826" lon="18.92967">
        <ele>164.374746</ele>
        <time>2022-05-27T12:03:10.863Z</time>
      </trkpt>
      <trkpt lat="42.20826" lon="18.92954">
        <ele>165.534547</ele>
        <time>2022-05-27T12:03:16.870Z</time>
      </trkpt>
      <trkpt lat="42.20824" lon="18.9294">
        <ele>166.793497</ele>
        <time>2022-05-27T12:03:22.868Z</time>
      </trkpt>
      <trkpt lat="42.20822" lon="18.92927">
        <ele>167.90992</ele>
        <time>2022-05-27T12:03:29.869Z</time>
      </trkpt>
      <trkpt lat="42.20821" lon="18.92913">
        <ele>169.15313</ele>
        <time>2022-05-27T12:03:35.872Z</time>
      </trkpt>
      <trkpt lat="42.20821" lon="18.92901">
        <ele>170.269775</ele>
        <time>2022-05-27T12:03:41.845Z</time>
      </trkpt>
      <trkpt lat="42.2082" lon="18.92888">
        <ele>171.352614</ele>
        <time>2022-05-27T12:03:46.858Z</time>
      </trkpt>
      <trkpt lat="42.20822" lon="18.92874">
        <ele>172.59649</ele>
        <time>2022-05-27T12:03:56.905Z</time>
      </trkpt>
      <trkpt lat="42.20822" lon="18.92861">
        <ele>173.747509</ele>
        <time>2022-05-27T12:04:01.870Z</time>
      </trkpt>
      <trkpt lat="42.20823" lon="18.92849">
        <ele>174.829633</ele>
        <time>2022-05-27T12:04:06.864Z</time>
      </trkpt>
      <trkpt lat="42.20825" lon="18.92836">
        <ele>176.041415</ele>
        <time>2022-05-27T12:04:12.865Z</time>
      </trkpt>
      <trkpt lat="42.20829" lon="18.92824">
        <ele>177.1765</ele>
        <time>2022-05-27T12:04:18.867Z</time>
      </trkpt>
      <trkpt lat="42.20834" lon="18.92812">
        <ele>178.346419</ele>
        <time>2022-05-27T12:04:24.909Z</time>
      </trkpt>
      <trkpt lat="42.20839" lon="18.92801">
        <ele>178.617331</ele>
        <time>2022-05-27T12:04:30.900Z</time>
      </trkpt>
      <trkpt lat="42.20845" lon="18.92792">
        <ele>178.637368</ele>
        <time>2022-05-27T12:04:36.865Z</time>
      </trkpt>
      <trkpt lat="42.20853" lon="18.92782">
        <ele>178.661213</ele>
        <time>2022-05-27T12:04:44.869Z</time>
      </trkpt>
      <trkpt lat="42.20862" lon="18.92776">
        <ele>178.682667</ele>
        <time>2022-05-27T12:04:50.839Z</time>
      </trkpt>
      <trkpt lat="42.20871" lon="18.92772">
        <ele>178.703916</ele>
        <time>2022-05-27T12:04:57.844Z</time>
      </trkpt>
      <trkpt lat="42.2088" lon="18.92771">
        <ele>178.724283</ele>
        <time>2022-05-27T12:05:03.845Z</time>
      </trkpt>
      <trkpt lat="42.20889" lon="18.9277">
        <ele>178.744182</ele>
        <time>2022-05-27T12:05:08.845Z</time>
      </trkpt>
      <trkpt lat="42.20899" lon="18.9277">
        <ele>178.766881</ele>
        <time>2022-05-27T12:05:14.847Z</time>
      </trkpt>
      <trkpt lat="42.20909" lon="18.92771">
        <ele>178.788098</ele>
        <time>2022-05-27T12:05:20.841Z</time>
      </trkpt>
      <trkpt lat="42.20919" lon="18.92775">
        <ele>178.810869</ele>
        <time>2022-05-27T12:05:26.849Z</time>
      </trkpt>
      <trkpt lat="42.20928" lon="18.92779">
        <ele>178.832479</ele>
        <time>2022-05-27T12:05:33.854Z</time>
      </trkpt>
      <trkpt lat="42.20937" lon="18.92784">
        <ele>178.85389</ele>
        <time>2022-05-27T12:05:38.843Z</time>
      </trkpt>
      <trkpt lat="42.20946" lon="18.92789">
        <ele>178.873852</ele>
        <time>2022-05-27T12:05:44.844Z</time>
      </trkpt>
      <trkpt lat="42.20955" lon="18.92794">
        <ele>178.895502</ele>
        <time>2022-05-27T12:05:51.844Z</time>
      </trkpt>
      <trkpt lat="42.20964" lon="18.92799">
        <ele>178.917339</ele>
        <time>2022-05-27T12:05:57.849Z</time>
      </trkpt>
      <trkpt lat="42.20971" lon="18.92806">
        <ele>178.937284</ele>
        <time>2022-05-27T12:06:03.844Z</time>
      </trkpt>
      <trkpt lat="42.2098" lon="18.92812">
        <ele>178.959082</ele>
        <time>2022-05-27T12:06:09.841Z</time>
      </trkpt>
      <trkpt lat="42.20988" lon="18.92819">
        <ele>178.979456</ele>
        <time>2022-05-27T12:06:15.861Z</time>
      </trkpt>
      <trkpt lat="42.20994" lon="18.92828">
        <ele>179.054794</ele>
        <time>2022-05-27T12:06:21.842Z</time>
      </trkpt>
      <trkpt lat="42.21002" lon="18.92837">
        <ele>179.327956</ele>
        <time>2022-05-27T12:06:27.849Z</time>
      </trkpt>
      <trkpt lat="42.21008" lon="18.92846">
        <ele>179.605086</ele>
        <time>2022-05-27T12:06:34.838Z</time>
      </trkpt>
      <trkpt lat="42.21017" lon="18.92853">
        <ele>179.91539</ele>
        <time>2022-05-27T12:06:41.848Z</time>
      </trkpt>
      <trkpt lat="42.21025" lon="18.92861">
        <ele>180.179487</ele>
        <time>2022-05-27T12:06:47.833Z</time>
      </trkpt>
      <trkpt lat="42.21033" lon="18.92868">
        <ele>180.45609</ele>
        <time>2022-05-27T12:06:53.837Z</time>
      </trkpt>
      <trkpt lat="42.21042" lon="18.92873">
        <ele>180.754951</ele>
        <time>2022-05-27T12:07:00.837Z</time>
      </trkpt>
      <trkpt lat="42.21051" lon="18.92877">
        <ele>181.015136</ele>
        <time>2022-05-27T12:07:05.873Z</time>
      </trkpt>
      <trkpt lat="42.21061" lon="18.92881">
        <ele>181.316721</ele>
        <time>2022-05-27T12:07:11.841Z</time>
      </trkpt>
      <trkpt lat="42.21069" lon="18.92886">
        <ele>181.588853</ele>
        <time>2022-05-27T12:07:17.845Z</time>
      </trkpt>
      <trkpt lat="42.21079" lon="18.92889">
        <ele>181.872792</ele>
        <time>2022-05-27T12:07:24.848Z</time>
      </trkpt>
      <trkpt lat="42.21087" lon="18.92895">
        <ele>182.134602</ele>
        <time>2022-05-27T12:07:29.847Z</time>
      </trkpt>
      <trkpt lat="42.21095" lon="18.92904">
        <ele>182.446023</ele>
        <time>2022-05-27T12:07:34.836Z</time>
      </trkpt>
      <trkpt lat="42.21104" lon="18.92912">
        <ele>182.754087</ele>
        <time>2022-05-27T12:07:39.839Z</time>
      </trkpt>
      <trkpt lat="42.21113" lon="18.92917">
        <ele>183.044221</ele>
        <time>2022-05-27T12:07:44.831Z</time>
      </trkpt>
      <trkpt lat="42.21122" lon="18.92922">
        <ele>183.322538</ele>
        <time>2022-05-27T12:07:49.835Z</time>
      </trkpt>
      <trkpt lat="42.21132" lon="18.92928">
        <ele>183.62847</ele>
        <time>2022-05-27T12:07:55.856Z</time>
      </trkpt>
      <trkpt lat="42.2114" lon="18.92932">
        <ele>183.899163</ele>
        <time>2022-05-27T12:08:00.846Z</time>
      </trkpt>
      <trkpt lat="42.2115" lon="18.92938">
        <ele>184.193751</ele>
        <time>2022-05-27T12:08:05.850Z</time>
      </trkpt>
      <trkpt lat="42.21158" lon="18.92942">
        <ele>184.195809</ele>
        <time>2022-05-27T12:08:09.830Z</time>
      </trkpt>
      <trkpt lat="42.21168" lon="18.92948">
        <ele>184.174977</ele>
        <time>2022-05-27T12:08:13.858Z</time>
      </trkpt>
      <trkpt lat="42.21177" lon="18.92952">
        <ele>184.156318</ele>
        <time>2022-05-27T12:08:17.844Z</time>
      </trkpt>
      <trkpt lat="42.21186" lon="18.92956">
        <ele>184.138341</ele>
        <time>2022-05-27T12:08:21.866Z</time>
      </trkpt>
      <trkpt lat="42.21196" lon="18.92964">
        <ele>184.116412</ele>
        <time>2022-05-27T12:08:25.850Z</time>
      </trkpt>
      <trkpt lat="42.21205" lon="18.92972">
        <ele>184.095001</ele>
        <time>2022-05-27T12:08:29.861Z</time>
      </trkpt>
      <trkpt lat="42.21215" lon="18.9298">
        <ele>184.073207</ele>
        <time>2022-05-27T12:08:33.844Z</time>
      </trkpt>
      <trkpt lat="42.21225" lon="18.92988">
        <ele>184.050559</ele>
        <time>2022-05-27T12:08:37.861Z</time>
      </trkpt>
      <trkpt lat="42.21235" lon="18.92997">
        <ele>184.028239</ele>
        <time>2022-05-27T12:08:41.846Z</time>
      </trkpt>
      <trkpt lat="42.21244" lon="18.93007">
        <ele>184.005769</ele>
        <time>2022-05-27T12:08:45.838Z</time>
      </trkpt>
      <trkpt lat="42.21252" lon="18.93015">
        <ele>183.985998</ele>
        <time>2022-05-27T12:08:49.841Z</time>
      </trkpt>
      <trkpt lat="42.21259" lon="18.93023">
        <ele>183.968116</ele>
        <time>2022-05-27T12:08:53.840Z</time>
      </trkpt>
      <trkpt lat="42.21268" lon="18.93032">
        <ele>183.947457</ele>
        <time>2022-05-27T12:08:58.848Z</time>
      </trkpt>
      <trkpt lat="42.21274" lon="18.93041">
        <ele>183.928937</ele>
        <time>2022-05-27T12:09:02.857Z</time>
      </trkpt>
      <trkpt lat="42.21281" lon="18.93049">
        <ele>183.911189</ele>
        <time>2022-05-27T12:09:06.872Z</time>
      </trkpt>
      <trkpt lat="42.21289" lon="18.93057">
        <ele>183.892346</ele>
        <time>2022-05-27T12:09:10.858Z</time>
      </trkpt>
      <trkpt lat="42.21297" lon="18.93067">
        <ele>183.871193</ele>
        <time>2022-05-27T12:09:14.877Z</time>
      </trkpt>
      <trkpt lat="42.21306" lon="18.93076">
        <ele>184.327846</ele>
        <time>2022-05-27T12:09:18.879Z</time>
      </trkpt>
      <trkpt lat="42.21314" lon="18.93084">
        <ele>184.925004</ele>
        <time>2022-05-27T12:09:22.894Z</time>
      </trkpt>
      <trkpt lat="42.21323" lon="18.9309">
        <ele>185.508099</ele>
        <time>2022-05-27T12:09:26.893Z</time>
      </trkpt>
      <trkpt lat="42.21331" lon="18.93096">
        <ele>186.061274</ele>
        <time>2022-05-27T12:09:30.873Z</time>
      </trkpt>
      <trkpt lat="42.21339" lon="18.93104">
        <ele>186.6611</ele>
        <time>2022-05-27T12:09:34.871Z</time>
      </trkpt>
      <trkpt lat="42.21347" lon="18.9311">
        <ele>187.199004</ele>
        <time>2022-05-27T12:09:38.867Z</time>
      </trkpt>
      <trkpt lat="42.21355" lon="18.93117">
        <ele>187.801098</ele>
        <time>2022-05-27T12:09:42.857Z</time>
      </trkpt>
      <trkpt lat="42.21364" lon="18.93125">
        <ele>188.39093</ele>
        <time>2022-05-27T12:09:46.877Z</time>
      </trkpt>
      <trkpt lat="42.21372" lon="18.9313">
        <ele>188.93418</ele>
        <time>2022-05-27T12:09:50.870Z</time>
      </trkpt>
      <trkpt lat="42.21382" lon="18.93137">
        <ele>189.580961</ele>
        <time>2022-05-27T12:09:55.902Z</time>
      </trkpt>
      <trkpt lat="42.2139" lon="18.93143">
        <ele>190.172006</ele>
        <time>2022-05-27T12:10:00.858Z</time>
      </trkpt>
      <trkpt lat="42.214" lon="18.93147">
        <ele>190.762979</ele>
        <time>2022-05-27T12:10:05.940Z</time>
      </trkpt>
      <trkpt lat="42.21409" lon="18.93152">
        <ele>191.386066</ele>
        <time>2022-05-27T12:10:11.862Z</time>
      </trkpt>
      <trkpt lat="42.21418" lon="18.93156">
        <ele>191.93488</ele>
        <time>2022-05-27T12:10:17.854Z</time>
      </trkpt>
      <trkpt lat="42.21428" lon="18.93157">
        <ele>192.495452</ele>
        <time>2022-05-27T12:10:23.875Z</time>
      </trkpt>
      <trkpt lat="42.21438" lon="18.9316">
        <ele>193.107112</ele>
        <time>2022-05-27T12:10:29.861Z</time>
      </trkpt>
      <trkpt lat="42.21448" lon="18.93166">
        <ele>193.749197</ele>
        <time>2022-05-27T12:10:35.864Z</time>
      </trkpt>
      <trkpt lat="42.21476" lon="18.93179">
        <ele>195.573159</ele>
        <time>2022-05-27T12:17:03.903Z</time>
      </trkpt>
      <trkpt lat="42.21485" lon="18.9318">
        <ele>196.160204</ele>
        <time>2022-05-27T12:17:08.882Z</time>
      </trkpt>
      <trkpt lat="42.21496" lon="18.9318">
        <ele>196.820549</ele>
        <time>2022-05-27T12:17:15.866Z</time>
      </trkpt>
      <trkpt lat="42.21506" lon="18.93176">
        <ele>197.489101</ele>
        <time>2022-05-27T12:17:21.866Z</time>
      </trkpt>
      <trkpt lat="42.21515" lon="18.93167">
        <ele>198.144902</ele>
        <time>2022-05-27T12:17:26.895Z</time>
      </trkpt>
      <trkpt lat="42.21523" lon="18.93162">
        <ele>198.708065</ele>
        <time>2022-05-27T12:17:31.859Z</time>
      </trkpt>
      <trkpt lat="42.21528" lon="18.93151">
        <ele>199.312054</ele>
        <time>2022-05-27T12:17:36.881Z</time>
      </trkpt>
      <trkpt lat="42.21538" lon="18.93147">
        <ele>199.965451</ele>
        <time>2022-05-27T12:17:42.867Z</time>
      </trkpt>
      <trkpt lat="42.21546" lon="18.93137">
        <ele>200.610255</ele>
        <time>2022-05-27T12:17:48.873Z</time>
      </trkpt>
      <trkpt lat="42.21551" lon="18.93126">
        <ele>201.236248</ele>
        <time>2022-05-27T12:17:53.927Z</time>
      </trkpt>
      <trkpt lat="42.21554" lon="18.93112">
        <ele>201.868957</ele>
        <time>2022-05-27T12:17:58.875Z</time>
      </trkpt>
      <trkpt lat="42.21558" lon="18.93101">
        <ele>202.465788</ele>
        <time>2022-05-27T12:18:03.867Z</time>
      </trkpt>
      <trkpt lat="42.2156" lon="18.93086">
        <ele>203.145039</ele>
        <time>2022-05-27T12:18:09.868Z</time>
      </trkpt>
      <trkpt lat="42.21561" lon="18.93072">
        <ele>203.815489</ele>
        <time>2022-05-27T12:18:14.867Z</time>
      </trkpt>
      <trkpt lat="42.2156" lon="18.93059">
        <ele>204.384826</ele>
        <time>2022-05-27T12:18:18.871Z</time>
      </trkpt>
      <trkpt lat="42.21559" lon="18.93047">
        <ele>204.943169</ele>
        <time>2022-05-27T12:18:22.874Z</time>
      </trkpt>
      <trkpt lat="42.21555" lon="18.93034">
        <ele>205.583228</ele>
        <time>2022-05-27T12:18:27.853Z</time>
      </trkpt>
      <trkpt lat="42.2155" lon="18.93022">
        <ele>205.963727</ele>
        <time>2022-05-27T12:18:32.868Z</time>
      </trkpt>
      <trkpt lat="42.21543" lon="18.93012">
        <ele>206.221547</ele>
        <time>2022-05-27T12:18:37.914Z</time>
      </trkpt>
      <trkpt lat="42.21536" lon="18.93002">
        <ele>206.480945</ele>
        <time>2022-05-27T12:18:41.872Z</time>
      </trkpt>
      <trkpt lat="42.21529" lon="18.92993">
        <ele>206.722151</ele>
        <time>2022-05-27T12:18:45.878Z</time>
      </trkpt>
      <trkpt lat="42.21521" lon="18.92985">
        <ele>206.963454</ele>
        <time>2022-05-27T12:18:49.910Z</time>
      </trkpt>
      <trkpt lat="42.21514" lon="18.92976">
        <ele>207.223978</ele>
        <time>2022-05-27T12:18:53.861Z</time>
      </trkpt>
      <trkpt lat="42.21507" lon="18.92966">
        <ele>207.477815</ele>
        <time>2022-05-27T12:18:57.865Z</time>
      </trkpt>
      <trkpt lat="42.215" lon="18.92954">
        <ele>207.762169</ele>
        <time>2022-05-27T12:19:01.875Z</time>
      </trkpt>
      <trkpt lat="42.21495" lon="18.9294">
        <ele>208.056756</ele>
        <time>2022-05-27T12:19:05.875Z</time>
      </trkpt>
      <trkpt lat="42.2149" lon="18.92925">
        <ele>208.349353</ele>
        <time>2022-05-27T12:19:09.860Z</time>
      </trkpt>
      <trkpt lat="42.21488" lon="18.9291">
        <ele>208.648967</ele>
        <time>2022-05-27T12:19:13.857Z</time>
      </trkpt>
      <trkpt lat="42.21487" lon="18.92895">
        <ele>208.929555</ele>
        <time>2022-05-27T12:19:17.883Z</time>
      </trkpt>
      <trkpt lat="42.21486" lon="18.9288">
        <ele>209.210926</ele>
        <time>2022-05-27T12:19:21.867Z</time>
      </trkpt>
      <trkpt lat="42.21487" lon="18.92866">
        <ele>209.473215</ele>
        <time>2022-05-27T12:19:25.867Z</time>
      </trkpt>
      <trkpt lat="42.21491" lon="18.92853">
        <ele>209.738389</ele>
        <time>2022-05-27T12:19:29.872Z</time>
      </trkpt>
      <trkpt lat="42.21494" lon="18.92839">
        <ele>210.011946</ele>
        <time>2022-05-27T12:19:33.897Z</time>
      </trkpt>
      <trkpt lat="42.21496" lon="18.92825">
        <ele>210.267632</ele>
        <time>2022-05-27T12:19:37.870Z</time>
      </trkpt>
      <trkpt lat="42.21502" lon="18.92814">
        <ele>210.34177</ele>
        <time>2022-05-27T12:19:41.865Z</time>
      </trkpt>
      <trkpt lat="42.21509" lon="18.92802">
        <ele>210.371826</ele>
        <time>2022-05-27T12:19:45.879Z</time>
      </trkpt>
      <trkpt lat="42.21517" lon="18.92791">
        <ele>210.404589</ele>
        <time>2022-05-27T12:19:49.866Z</time>
      </trkpt>
      <trkpt lat="42.21526" lon="18.92781">
        <ele>210.437443</ele>
        <time>2022-05-27T12:19:53.865Z</time>
      </trkpt>
      <trkpt lat="42.21534" lon="18.92773">
        <ele>210.462502</ele>
        <time>2022-05-27T12:19:56.874Z</time>
      </trkpt>
      <trkpt lat="42.21541" lon="18.92764">
        <ele>210.489345</ele>
        <time>2022-05-27T12:19:59.857Z</time>
      </trkpt>
      <trkpt lat="42.21549" lon="18.92754">
        <ele>210.519037</ele>
        <time>2022-05-27T12:20:02.858Z</time>
      </trkpt>
      <trkpt lat="42.21556" lon="18.92744">
        <ele>210.547426</ele>
        <time>2022-05-27T12:20:05.861Z</time>
      </trkpt>
      <trkpt lat="42.21562" lon="18.92732">
        <ele>210.576981</ele>
        <time>2022-05-27T12:20:08.870Z</time>
      </trkpt>
      <trkpt lat="42.21568" lon="18.9272">
        <ele>210.606159</ele>
        <time>2022-05-27T12:20:11.866Z</time>
      </trkpt>
      <trkpt lat="42.21573" lon="18.92705">
        <ele>210.639242</ele>
        <time>2022-05-27T12:20:14.859Z</time>
      </trkpt>
      <trkpt lat="42.21578" lon="18.9269">
        <ele>210.672692</ele>
        <time>2022-05-27T12:20:17.919Z</time>
      </trkpt>
      <trkpt lat="42.21581" lon="18.92674">
        <ele>210.708013</ele>
        <time>2022-05-27T12:20:20.888Z</time>
      </trkpt>
      <trkpt lat="42.21584" lon="18.92656">
        <ele>210.74352</ele>
        <time>2022-05-27T12:20:23.865Z</time>
      </trkpt>
      <trkpt lat="42.21586" lon="18.92639">
        <ele>210.779732</ele>
        <time>2022-05-27T12:20:26.867Z</time>
      </trkpt>
      <trkpt lat="42.21587" lon="18.92622">
        <ele>210.800928</ele>
        <time>2022-05-27T12:20:29.857Z</time>
      </trkpt>
      <trkpt lat="42.21588" lon="18.9261">
        <ele>210.549727</ele>
        <time>2022-05-27T12:20:31.870Z</time>
      </trkpt>
      <trkpt lat="42.21589" lon="18.92596">
        <ele>210.279758</ele>
        <time>2022-05-27T12:20:33.884Z</time>
      </trkpt>
      <trkpt lat="42.2159" lon="18.92583">
        <ele>209.996283</ele>
        <time>2022-05-27T12:20:35.884Z</time>
      </trkpt>
      <trkpt lat="42.21592" lon="18.9257">
        <ele>209.731987</ele>
        <time>2022-05-27T12:20:37.868Z</time>
      </trkpt>
      <trkpt lat="42.21595" lon="18.92556">
        <ele>209.432267</ele>
        <time>2022-05-27T12:20:39.901Z</time>
      </trkpt>
      <trkpt lat="42.21598" lon="18.92543">
        <ele>209.162514</ele>
        <time>2022-05-27T12:20:41.879Z</time>
      </trkpt>
      <trkpt lat="42.216" lon="18.92528">
        <ele>208.858646</ele>
        <time>2022-05-27T12:20:43.858Z</time>
      </trkpt>
      <trkpt lat="42.21603" lon="18.92515">
        <ele>208.568568</ele>
        <time>2022-05-27T12:20:45.870Z</time>
      </trkpt>
      <trkpt lat="42.21605" lon="18.925">
        <ele>208.271162</ele>
        <time>2022-05-27T12:20:47.858Z</time>
      </trkpt>
      <trkpt lat="42.21608" lon="18.92486">
        <ele>207.963947</ele>
        <time>2022-05-27T12:20:49.848Z</time>
      </trkpt>
      <trkpt lat="42.21611" lon="18.9247">
        <ele>207.647498</ele>
        <time>2022-05-27T12:20:51.862Z</time>
      </trkpt>
      <trkpt lat="42.21613" lon="18.92455">
        <ele>207.323108</ele>
        <time>2022-05-27T12:20:53.878Z</time>
      </trkpt>
      <trkpt lat="42.21615" lon="18.92439">
        <ele>207.006247</ele>
        <time>2022-05-27T12:20:55.845Z</time>
      </trkpt>
      <trkpt lat="42.21616" lon="18.92424">
        <ele>206.698978</ele>
        <time>2022-05-27T12:20:57.876Z</time>
      </trkpt>
      <trkpt lat="42.21616" lon="18.92411">
        <ele>206.428616</ele>
        <time>2022-05-27T12:20:59.850Z</time>
      </trkpt>
      <trkpt lat="42.21616" lon="18.92397">
        <ele>206.140017</ele>
        <time>2022-05-27T12:21:01.868Z</time>
      </trkpt>
      <trkpt lat="42.21615" lon="18.92382">
        <ele>205.835685</ele>
        <time>2022-05-27T12:21:03.870Z</time>
      </trkpt>
      <trkpt lat="42.21614" lon="18.92365">
        <ele>205.451368</ele>
        <time>2022-05-27T12:21:05.866Z</time>
      </trkpt>
      <trkpt lat="42.21612" lon="18.92347">
        <ele>205.03538</ele>
        <time>2022-05-27T12:21:07.867Z</time>
      </trkpt>
      <trkpt lat="42.2161" lon="18.92329">
        <ele>204.635809</ele>
        <time>2022-05-27T12:21:09.854Z</time>
      </trkpt>
      <trkpt lat="42.21609" lon="18.92313">
        <ele>204.25871</ele>
        <time>2022-05-27T12:21:11.871Z</time>
      </trkpt>
      <trkpt lat="42.2161" lon="18.92296">
        <ele>203.891359</ele>
        <time>2022-05-27T12:21:13.913Z</time>
      </trkpt>
      <trkpt lat="42.2161" lon="18.92279">
        <ele>203.507983</ele>
        <time>2022-05-27T12:21:15.866Z</time>
      </trkpt>
      <trkpt lat="42.21612" lon="18.92263">
        <ele>203.129267</ele>
        <time>2022-05-27T12:21:17.908Z</time>
      </trkpt>
      <trkpt lat="42.21614" lon="18.92246">
        <ele>202.74584</ele>
        <time>2022-05-27T12:21:19.852Z</time>
      </trkpt>
      <trkpt lat="42.21616" lon="18.9223">
        <ele>202.372321</ele>
        <time>2022-05-27T12:21:21.860Z</time>
      </trkpt>
      <trkpt lat="42.2162" lon="18.92213">
        <ele>201.973049</ele>
        <time>2022-05-27T12:21:23.856Z</time>
      </trkpt>
      <trkpt lat="42.21624" lon="18.92198">
        <ele>201.608527</ele>
        <time>2022-05-27T12:21:25.854Z</time>
      </trkpt>
      <trkpt lat="42.21629" lon="18.92182">
        <ele>201.234557</ele>
        <time>2022-05-27T12:21:27.853Z</time>
      </trkpt>
      <trkpt lat="42.21635" lon="18.92167">
        <ele>200.833053</ele>
        <time>2022-05-27T12:21:29.857Z</time>
      </trkpt>
      <trkpt lat="42.21643" lon="18.92151">
        <ele>200.409898</ele>
        <time>2022-05-27T12:21:31.871Z</time>
      </trkpt>
      <trkpt lat="42.21651" lon="18.92135">
        <ele>199.397219</ele>
        <time>2022-05-27T12:21:33.867Z</time>
      </trkpt>
      <trkpt lat="42.2166" lon="18.92119">
        <ele>198.316147</ele>
        <time>2022-05-27T12:21:35.867Z</time>
      </trkpt>
      <trkpt lat="42.21671" lon="18.92103">
        <ele>197.143227</ele>
        <time>2022-05-27T12:21:37.908Z</time>
      </trkpt>
      <trkpt lat="42.21684" lon="18.92088">
        <ele>195.935498</ele>
        <time>2022-05-27T12:21:39.849Z</time>
      </trkpt>
      <trkpt lat="42.21697" lon="18.92073">
        <ele>194.662202</ele>
        <time>2022-05-27T12:21:41.868Z</time>
      </trkpt>
      <trkpt lat="42.21705" lon="18.92066">
        <ele>194.005491</ele>
        <time>2022-05-27T12:21:42.857Z</time>
      </trkpt>
      <trkpt lat="42.21712" lon="18.92058">
        <ele>193.342925</ele>
        <time>2022-05-27T12:21:43.865Z</time>
      </trkpt>
      <trkpt lat="42.2172" lon="18.92051">
        <ele>192.659616</ele>
        <time>2022-05-27T12:21:44.868Z</time>
      </trkpt>
      <trkpt lat="42.21728" lon="18.92044">
        <ele>191.964299</ele>
        <time>2022-05-27T12:21:45.872Z</time>
      </trkpt>
      <trkpt lat="42.21736" lon="18.92036">
        <ele>191.271233</ele>
        <time>2022-05-27T12:21:46.865Z</time>
      </trkpt>
      <trkpt lat="42.21743" lon="18.92027">
        <ele>190.580671</ele>
        <time>2022-05-27T12:21:47.861Z</time>
      </trkpt>
      <trkpt lat="42.2175" lon="18.92018">
        <ele>189.877344</ele>
        <time>2022-05-27T12:21:48.901Z</time>
      </trkpt>
      <trkpt lat="42.21757" lon="18.92008">
        <ele>189.148553</ele>
        <time>2022-05-27T12:21:49.869Z</time>
      </trkpt>
      <trkpt lat="42.21762" lon="18.91998">
        <ele>188.467221</ele>
        <time>2022-05-27T12:21:50.879Z</time>
      </trkpt>
      <trkpt lat="42.21768" lon="18.91986">
        <ele>187.733332</ele>
        <time>2022-05-27T12:21:51.859Z</time>
      </trkpt>
      <trkpt lat="42.21773" lon="18.91974">
        <ele>187.039722</ele>
        <time>2022-05-27T12:21:52.850Z</time>
      </trkpt>
      <trkpt lat="42.21777" lon="18.91961">
        <ele>186.337348</ele>
        <time>2022-05-27T12:21:53.864Z</time>
      </trkpt>
      <trkpt lat="42.21781" lon="18.91949">
        <ele>185.674089</ele>
        <time>2022-05-27T12:21:54.910Z</time>
      </trkpt>
      <trkpt lat="42.21785" lon="18.91935">
        <ele>184.953454</ele>
        <time>2022-05-27T12:21:55.851Z</time>
      </trkpt>
      <trkpt lat="42.21789" lon="18.91921">
        <ele>184.22823</ele>
        <time>2022-05-27T12:21:56.866Z</time>
      </trkpt>
      <trkpt lat="42.21792" lon="18.91907">
        <ele>183.507596</ele>
        <time>2022-05-27T12:21:57.871Z</time>
      </trkpt>
      <trkpt lat="42.21796" lon="18.91894">
        <ele>182.789204</ele>
        <time>2022-05-27T12:21:58.871Z</time>
      </trkpt>
      <trkpt lat="42.218" lon="18.9188">
        <ele>182.089224</ele>
        <time>2022-05-27T12:21:59.876Z</time>
      </trkpt>
      <trkpt lat="42.21804" lon="18.91867">
        <ele>181.39383</ele>
        <time>2022-05-27T12:22:00.864Z</time>
      </trkpt>
      <trkpt lat="42.21808" lon="18.91853">
        <ele>180.689125</ele>
        <time>2022-05-27T12:22:01.909Z</time>
      </trkpt>
      <trkpt lat="42.21811" lon="18.9184">
        <ele>179.984559</ele>
        <time>2022-05-27T12:22:02.873Z</time>
      </trkpt>
      <trkpt lat="42.21815" lon="18.91827">
        <ele>179.291461</ele>
        <time>2022-05-27T12:22:03.875Z</time>
      </trkpt>
      <trkpt lat="42.21818" lon="18.91814">
        <ele>178.607551</ele>
        <time>2022-05-27T12:22:04.864Z</time>
      </trkpt>
      <trkpt lat="42.21822" lon="18.91801">
        <ele>177.94653</ele>
        <time>2022-05-27T12:22:05.867Z</time>
      </trkpt>
      <trkpt lat="42.21825" lon="18.91788">
        <ele>177.294748</ele>
        <time>2022-05-27T12:22:06.865Z</time>
      </trkpt>
      <trkpt lat="42.21829" lon="18.91776">
        <ele>176.647558</ele>
        <time>2022-05-27T12:22:07.858Z</time>
      </trkpt>
      <trkpt lat="42.21833" lon="18.91764">
        <ele>176.017758</ele>
        <time>2022-05-27T12:22:08.889Z</time>
      </trkpt>
      <trkpt lat="42.21837" lon="18.91753">
        <ele>175.477219</ele>
        <time>2022-05-27T12:22:09.878Z</time>
      </trkpt>
      <trkpt lat="42.2184" lon="18.91741">
        <ele>175.148297</ele>
        <time>2022-05-27T12:22:10.872Z</time>
      </trkpt>
      <trkpt lat="42.21844" lon="18.9173">
        <ele>174.817274</ele>
        <time>2022-05-27T12:22:11.868Z</time>
      </trkpt>
      <trkpt lat="42.21849" lon="18.91719">
        <ele>174.499878</ele>
        <time>2022-05-27T12:22:12.913Z</time>
      </trkpt>
      <trkpt lat="42.21858" lon="18.91698">
        <ele>173.856716</ele>
        <time>2022-05-27T12:22:14.869Z</time>
      </trkpt>
      <trkpt lat="42.21863" lon="18.91688">
        <ele>173.536956</ele>
        <time>2022-05-27T12:22:15.862Z</time>
      </trkpt>
      <trkpt lat="42.21868" lon="18.91678">
        <ele>173.215659</ele>
        <time>2022-05-27T12:22:16.868Z</time>
      </trkpt>
      <trkpt lat="42.21879" lon="18.91658">
        <ele>172.575391</ele>
        <time>2022-05-27T12:22:18.939Z</time>
      </trkpt>
      <trkpt lat="42.21884" lon="18.91648">
        <ele>172.254238</ele>
        <time>2022-05-27T12:22:19.858Z</time>
      </trkpt>
      <trkpt lat="42.2189" lon="18.91638">
        <ele>171.928888</ele>
        <time>2022-05-27T12:22:20.869Z</time>
      </trkpt>
      <trkpt lat="42.21901" lon="18.91619">
        <ele>171.303344</ele>
        <time>2022-05-27T12:22:22.860Z</time>
      </trkpt>
      <trkpt lat="42.21912" lon="18.91599">
        <ele>170.663082</ele>
        <time>2022-05-27T12:22:24.865Z</time>
      </trkpt>
      <trkpt lat="42.21922" lon="18.9158">
        <ele>170.037569</ele>
        <time>2022-05-27T12:22:26.866Z</time>
      </trkpt>
      <trkpt lat="42.21933" lon="18.91561">
        <ele>169.412055</ele>
        <time>2022-05-27T12:22:28.870Z</time>
      </trkpt>
      <trkpt lat="42.21938" lon="18.91551">
        <ele>169.170409</ele>
        <time>2022-05-27T12:22:29.856Z</time>
      </trkpt>
      <trkpt lat="42.21943" lon="18.91541">
        <ele>169.038556</ele>
        <time>2022-05-27T12:22:30.854Z</time>
      </trkpt>
      <trkpt lat="42.21949" lon="18.91531">
        <ele>168.906736</ele>
        <time>2022-05-27T12:22:31.863Z</time>
      </trkpt>
      <trkpt lat="42.21954" lon="18.91521">
        <ele>168.774041</ele>
        <time>2022-05-27T12:22:32.876Z</time>
      </trkpt>
      <trkpt lat="42.21963" lon="18.91501">
        <ele>168.518554</ele>
        <time>2022-05-27T12:22:34.864Z</time>
      </trkpt>
      <trkpt lat="42.21972" lon="18.91482">
        <ele>168.269542</ele>
        <time>2022-05-27T12:22:36.874Z</time>
      </trkpt>
      <trkpt lat="42.2198" lon="18.91462">
        <ele>168.028991</ele>
        <time>2022-05-27T12:22:38.866Z</time>
      </trkpt>
      <trkpt lat="42.21988" lon="18.91443">
        <ele>167.793513</ele>
        <time>2022-05-27T12:22:40.874Z</time>
      </trkpt>
      <trkpt lat="42.21995" lon="18.91423">
        <ele>167.552578</ele>
        <time>2022-05-27T12:22:42.865Z</time>
      </trkpt>
      <trkpt lat="42.22002" lon="18.91404">
        <ele>167.326471</ele>
        <time>2022-05-27T12:22:44.862Z</time>
      </trkpt>
      <trkpt lat="42.22008" lon="18.91386">
        <ele>167.114452</ele>
        <time>2022-05-27T12:22:46.898Z</time>
      </trkpt>
      <trkpt lat="42.22013" lon="18.91369">
        <ele>166.912288</ele>
        <time>2022-05-27T12:22:48.867Z</time>
      </trkpt>
      <trkpt lat="42.22018" lon="18.91353">
        <ele>166.7239</ele>
        <time>2022-05-27T12:22:50.876Z</time>
      </trkpt>
      <trkpt lat="42.22023" lon="18.91337">
        <ele>166.594812</ele>
        <time>2022-05-27T12:22:52.880Z</time>
      </trkpt>
      <trkpt lat="42.22027" lon="18.91322">
        <ele>166.572434</ele>
        <time>2022-05-27T12:22:54.858Z</time>
      </trkpt>
      <trkpt lat="42.22031" lon="18.91308">
        <ele>166.551433</ele>
        <time>2022-05-27T12:22:56.889Z</time>
      </trkpt>
      <trkpt lat="42.22035" lon="18.91295">
        <ele>166.531367</ele>
        <time>2022-05-27T12:22:58.870Z</time>
      </trkpt>
      <trkpt lat="42.22039" lon="18.91283">
        <ele>166.51255</ele>
        <time>2022-05-27T12:23:00.863Z</time>
      </trkpt>
      <trkpt lat="42.22043" lon="18.91271">
        <ele>166.494458</ele>
        <time>2022-05-27T12:23:02.859Z</time>
      </trkpt>
      <trkpt lat="42.22047" lon="18.9126">
        <ele>166.476655</ele>
        <time>2022-05-27T12:23:04.866Z</time>
      </trkpt>
      <trkpt lat="42.22051" lon="18.91248">
        <ele>166.459152</ele>
        <time>2022-05-27T12:23:06.859Z</time>
      </trkpt>
      <trkpt lat="42.22055" lon="18.91238">
        <ele>166.442195</ele>
        <time>2022-05-27T12:23:08.854Z</time>
      </trkpt>
      <trkpt lat="42.2206" lon="18.91227">
        <ele>166.424148</ele>
        <time>2022-05-27T12:23:10.864Z</time>
      </trkpt>
      <trkpt lat="42.22065" lon="18.91217">
        <ele>166.406727</ele>
        <time>2022-05-27T12:23:12.881Z</time>
      </trkpt>
      <trkpt lat="42.22071" lon="18.91207">
        <ele>166.388274</ele>
        <time>2022-05-27T12:23:14.861Z</time>
      </trkpt>
      <trkpt lat="42.22078" lon="18.91198">
        <ele>166.370913</ele>
        <time>2022-05-27T12:23:16.867Z</time>
      </trkpt>
      <trkpt lat="42.22085" lon="18.9119">
        <ele>166.353585</ele>
        <time>2022-05-27T12:23:18.858Z</time>
      </trkpt>
      <trkpt lat="42.22092" lon="18.91182">
        <ele>166.336249</ele>
        <time>2022-05-27T12:23:20.853Z</time>
      </trkpt>
      <trkpt lat="42.221" lon="18.91176">
        <ele>166.318121</ele>
        <time>2022-05-27T12:23:22.871Z</time>
      </trkpt>
      <trkpt lat="42.22109" lon="18.9117">
        <ele>166.300267</ele>
        <time>2022-05-27T12:23:24.889Z</time>
      </trkpt>
      <trkpt lat="42.22117" lon="18.91167">
        <ele>166.283128</ele>
        <time>2022-05-27T12:23:26.839Z</time>
      </trkpt>
      <trkpt lat="42.22127" lon="18.91164">
        <ele>166.264246</ele>
        <time>2022-05-27T12:23:28.868Z</time>
      </trkpt>
      <trkpt lat="42.22136" lon="18.91163">
        <ele>166.144925</ele>
        <time>2022-05-27T12:23:30.864Z</time>
      </trkpt>
      <trkpt lat="42.22148" lon="18.91163">
        <ele>165.946182</ele>
        <time>2022-05-27T12:23:33.863Z</time>
      </trkpt>
      <trkpt lat="42.22161" lon="18.91165">
        <ele>165.7505</ele>
        <time>2022-05-27T12:23:36.866Z</time>
      </trkpt>
      <trkpt lat="42.22174" lon="18.91168">
        <ele>165.540206</ele>
        <time>2022-05-27T12:23:39.866Z</time>
      </trkpt>
      <trkpt lat="42.22183" lon="18.9117">
        <ele>165.390662</ele>
        <time>2022-05-27T12:23:41.886Z</time>
      </trkpt>
      <trkpt lat="42.22192" lon="18.91172">
        <ele>165.245429</ele>
        <time>2022-05-27T12:23:43.865Z</time>
      </trkpt>
      <trkpt lat="42.22205" lon="18.91175">
        <ele>165.02773</ele>
        <time>2022-05-27T12:23:46.907Z</time>
      </trkpt>
      <trkpt lat="42.22215" lon="18.91177">
        <ele>164.862537</ele>
        <time>2022-05-27T12:23:48.859Z</time>
      </trkpt>
      <trkpt lat="42.22226" lon="18.91179">
        <ele>164.683492</ele>
        <time>2022-05-27T12:23:50.882Z</time>
      </trkpt>
      <trkpt lat="42.22238" lon="18.91179">
        <ele>164.497559</ele>
        <time>2022-05-27T12:23:52.874Z</time>
      </trkpt>
      <trkpt lat="42.2225" lon="18.91177">
        <ele>164.308229</ele>
        <time>2022-05-27T12:23:54.863Z</time>
      </trkpt>
      <trkpt lat="42.22262" lon="18.91172">
        <ele>164.104564</ele>
        <time>2022-05-27T12:23:56.854Z</time>
      </trkpt>
      <trkpt lat="42.22275" lon="18.91165">
        <ele>163.873856</ele>
        <time>2022-05-27T12:23:58.890Z</time>
      </trkpt>
      <trkpt lat="42.22289" lon="18.91156">
        <ele>163.625754</ele>
        <time>2022-05-27T12:24:00.859Z</time>
      </trkpt>
      <trkpt lat="42.22304" lon="18.91145">
        <ele>163.354911</ele>
        <time>2022-05-27T12:24:02.872Z</time>
      </trkpt>
      <trkpt lat="42.22319" lon="18.91134">
        <ele>162.981764</ele>
        <time>2022-05-27T12:24:04.867Z</time>
      </trkpt>
      <trkpt lat="42.22334" lon="18.91122">
        <ele>162.601</ele>
        <time>2022-05-27T12:24:06.898Z</time>
      </trkpt>
      <trkpt lat="42.2235" lon="18.91112">
        <ele>162.226321</ele>
        <time>2022-05-27T12:24:08.897Z</time>
      </trkpt>
      <trkpt lat="42.22365" lon="18.91102">
        <ele>161.862753</ele>
        <time>2022-05-27T12:24:10.867Z</time>
      </trkpt>
      <trkpt lat="42.2238" lon="18.91093">
        <ele>161.513647</ele>
        <time>2022-05-27T12:24:12.878Z</time>
      </trkpt>
      <trkpt lat="42.22394" lon="18.91086">
        <ele>161.173993</ele>
        <time>2022-05-27T12:24:14.860Z</time>
      </trkpt>
      <trkpt lat="42.22409" lon="18.91081">
        <ele>160.844028</ele>
        <time>2022-05-27T12:24:16.859Z</time>
      </trkpt>
      <trkpt lat="42.22424" lon="18.91077">
        <ele>160.50495</ele>
        <time>2022-05-27T12:24:18.873Z</time>
      </trkpt>
      <trkpt lat="42.22439" lon="18.91075">
        <ele>160.187256</ele>
        <time>2022-05-27T12:24:20.872Z</time>
      </trkpt>
      <trkpt lat="42.22454" lon="18.91074">
        <ele>159.86818</ele>
        <time>2022-05-27T12:24:22.873Z</time>
      </trkpt>
      <trkpt lat="42.22469" lon="18.91075">
        <ele>159.545055</ele>
        <time>2022-05-27T12:24:24.875Z</time>
      </trkpt>
      <trkpt lat="42.22486" lon="18.91077">
        <ele>158.426119</ele>
        <time>2022-05-27T12:24:26.872Z</time>
      </trkpt>
      <trkpt lat="42.22502" lon="18.91081">
        <ele>157.22454</ele>
        <time>2022-05-27T12:24:28.861Z</time>
      </trkpt>
      <trkpt lat="42.22517" lon="18.91085">
        <ele>156.163591</ele>
        <time>2022-05-27T12:24:30.875Z</time>
      </trkpt>
      <trkpt lat="42.22532" lon="18.91091">
        <ele>155.02219</ele>
        <time>2022-05-27T12:24:32.860Z</time>
      </trkpt>
      <trkpt lat="42.22545" lon="18.91098">
        <ele>153.985526</ele>
        <time>2022-05-27T12:24:34.874Z</time>
      </trkpt>
      <trkpt lat="42.22558" lon="18.91105">
        <ele>153.005547</ele>
        <time>2022-05-27T12:24:36.899Z</time>
      </trkpt>
      <trkpt lat="42.22571" lon="18.91113">
        <ele>151.946506</ele>
        <time>2022-05-27T12:24:38.867Z</time>
      </trkpt>
      <trkpt lat="42.22583" lon="18.91122">
        <ele>150.93945</ele>
        <time>2022-05-27T12:24:40.869Z</time>
      </trkpt>
      <trkpt lat="42.22594" lon="18.9113">
        <ele>150.042186</ele>
        <time>2022-05-27T12:24:42.867Z</time>
      </trkpt>
      <trkpt lat="42.22607" lon="18.91138">
        <ele>149.021332</ele>
        <time>2022-05-27T12:24:44.874Z</time>
      </trkpt>
      <trkpt lat="42.2262" lon="18.91147">
        <ele>147.972277</ele>
        <time>2022-05-27T12:24:46.864Z</time>
      </trkpt>
      <trkpt lat="42.22633" lon="18.91156">
        <ele>146.883657</ele>
        <time>2022-05-27T12:24:48.873Z</time>
      </trkpt>
      <trkpt lat="42.22647" lon="18.91166">
        <ele>146.102144</ele>
        <time>2022-05-27T12:24:50.878Z</time>
      </trkpt>
      <trkpt lat="42.22662" lon="18.91176">
        <ele>145.533055</ele>
        <time>2022-05-27T12:24:52.860Z</time>
      </trkpt>
      <trkpt lat="42.22679" lon="18.91182">
        <ele>144.934109</ele>
        <time>2022-05-27T12:24:54.861Z</time>
      </trkpt>
      <trkpt lat="42.22689" lon="18.91184">
        <ele>144.579148</ele>
        <time>2022-05-27T12:24:55.865Z</time>
      </trkpt>
      <trkpt lat="42.227" lon="18.91185">
        <ele>144.213692</ele>
        <time>2022-05-27T12:24:56.875Z</time>
      </trkpt>
      <trkpt lat="42.2271" lon="18.91185">
        <ele>143.855907</ele>
        <time>2022-05-27T12:24:57.868Z</time>
      </trkpt>
      <trkpt lat="42.2272" lon="18.91184">
        <ele>143.508087</ele>
        <time>2022-05-27T12:24:58.861Z</time>
      </trkpt>
      <trkpt lat="42.2273" lon="18.91183">
        <ele>143.166506</ele>
        <time>2022-05-27T12:24:59.878Z</time>
      </trkpt>
      <trkpt lat="42.2274" lon="18.91182">
        <ele>142.82201</ele>
        <time>2022-05-27T12:25:00.877Z</time>
      </trkpt>
      <trkpt lat="42.22749" lon="18.91182">
        <ele>142.488302</ele>
        <time>2022-05-27T12:25:01.858Z</time>
      </trkpt>
      <trkpt lat="42.22759" lon="18.91181">
        <ele>142.146924</ele>
        <time>2022-05-27T12:25:02.873Z</time>
      </trkpt>
      <trkpt lat="42.22769" lon="18.9118">
        <ele>141.805546</ele>
        <time>2022-05-27T12:25:03.870Z</time>
      </trkpt>
      <trkpt lat="42.22778" lon="18.91178">
        <ele>141.483003</ele>
        <time>2022-05-27T12:25:04.868Z</time>
      </trkpt>
      <trkpt lat="42.22787" lon="18.91176">
        <ele>141.16618</ele>
        <time>2022-05-27T12:25:05.864Z</time>
      </trkpt>
      <trkpt lat="42.22796" lon="18.91174">
        <ele>140.854337</ele>
        <time>2022-05-27T12:25:06.863Z</time>
      </trkpt>
      <trkpt lat="42.22812" lon="18.91168">
        <ele>140.263465</ele>
        <time>2022-05-27T12:25:08.889Z</time>
      </trkpt>
      <trkpt lat="42.22828" lon="18.9116">
        <ele>139.887809</ele>
        <time>2022-05-27T12:25:10.893Z</time>
      </trkpt>
      <trkpt lat="42.22844" lon="18.91151">
        <ele>139.540051</ele>
        <time>2022-05-27T12:25:12.857Z</time>
      </trkpt>
      <trkpt lat="42.22858" lon="18.91141">
        <ele>139.202854</ele>
        <time>2022-05-27T12:25:14.859Z</time>
      </trkpt>
      <trkpt lat="42.22872" lon="18.9113">
        <ele>138.865272</ele>
        <time>2022-05-27T12:25:16.867Z</time>
      </trkpt>
      <trkpt lat="42.22884" lon="18.91118">
        <ele>138.546179</ele>
        <time>2022-05-27T12:25:18.886Z</time>
      </trkpt>
      <trkpt lat="42.22895" lon="18.91107">
        <ele>138.256831</ele>
        <time>2022-05-27T12:25:20.857Z</time>
      </trkpt>
      <trkpt lat="42.22903" lon="18.91098">
        <ele>138.036556</ele>
        <time>2022-05-27T12:25:22.855Z</time>
      </trkpt>
      <trkpt lat="42.22913" lon="18.91086">
        <ele>137.775497</ele>
        <time>2022-05-27T12:25:25.868Z</time>
      </trkpt>
      <trkpt lat="42.2292" lon="18.91076">
        <ele>137.548244</ele>
        <time>2022-05-27T12:25:28.861Z</time>
      </trkpt>
      <trkpt lat="42.22928" lon="18.91065">
        <ele>137.313218</ele>
        <time>2022-05-27T12:25:31.862Z</time>
      </trkpt>
      <trkpt lat="42.22935" lon="18.91054">
        <ele>137.092115</ele>
        <time>2022-05-27T12:25:34.879Z</time>
      </trkpt>
      <trkpt lat="42.2294" lon="18.91043">
        <ele>136.892165</ele>
        <time>2022-05-27T12:25:37.862Z</time>
      </trkpt>
      <trkpt lat="42.22946" lon="18.91031">
        <ele>136.664796</ele>
        <time>2022-05-27T12:25:41.876Z</time>
      </trkpt>
      <trkpt lat="42.22952" lon="18.91018">
        <ele>136.551627</ele>
        <time>2022-05-27T12:25:45.869Z</time>
      </trkpt>
      <trkpt lat="42.22958" lon="18.91005">
        <ele>137.382034</ele>
        <time>2022-05-27T12:25:49.879Z</time>
      </trkpt>
      <trkpt lat="42.22963" lon="18.90991">
        <ele>138.227759</ele>
        <time>2022-05-27T12:25:54.871Z</time>
      </trkpt>
      <trkpt lat="42.22968" lon="18.90981">
        <ele>138.893397</ele>
        <time>2022-05-27T12:25:58.906Z</time>
      </trkpt>
      <trkpt lat="42.22972" lon="18.90969">
        <ele>139.59735</ele>
        <time>2022-05-27T12:26:02.861Z</time>
      </trkpt>
      <trkpt lat="42.22977" lon="18.90957">
        <ele>140.333353</ele>
        <time>2022-05-27T12:26:06.864Z</time>
      </trkpt>
      <trkpt lat="42.22983" lon="18.90946">
        <ele>141.119682</ele>
        <time>2022-05-27T12:26:10.879Z</time>
      </trkpt>
      <trkpt lat="42.22988" lon="18.90933">
        <ele>141.933094</ele>
        <time>2022-05-27T12:26:15.893Z</time>
      </trkpt>
      <trkpt lat="42.22993" lon="18.90923">
        <ele>142.605023</ele>
        <time>2022-05-27T12:26:20.866Z</time>
      </trkpt>
      <trkpt lat="42.22999" lon="18.90913">
        <ele>143.303516</ele>
        <time>2022-05-27T12:26:25.867Z</time>
      </trkpt>
      <trkpt lat="42.23007" lon="18.90902">
        <ele>144.099171</ele>
        <time>2022-05-27T12:26:31.856Z</time>
      </trkpt>
      <trkpt lat="42.23015" lon="18.90894">
        <ele>144.841363</ele>
        <time>2022-05-27T12:26:36.866Z</time>
      </trkpt>
      <trkpt lat="42.23023" lon="18.90887">
        <ele>145.564838</ele>
        <time>2022-05-27T12:26:41.872Z</time>
      </trkpt>
      <trkpt lat="42.23031" lon="18.90882">
        <ele>146.264273</ele>
        <time>2022-05-27T12:26:47.865Z</time>
      </trkpt>
      <trkpt lat="42.23041" lon="18.90877">
        <ele>147.052769</ele>
        <time>2022-05-27T12:26:53.874Z</time>
      </trkpt>
      <trkpt lat="42.23052" lon="18.90874">
        <ele>147.86999</ele>
        <time>2022-05-27T12:26:59.876Z</time>
      </trkpt>
      <trkpt lat="42.23063" lon="18.90872">
        <ele>148.664466</ele>
        <time>2022-05-27T12:27:04.867Z</time>
      </trkpt>
      <trkpt lat="42.23072" lon="18.90871">
        <ele>149.391999</ele>
        <time>2022-05-27T12:27:09.853Z</time>
      </trkpt>
      <trkpt lat="42.23083" lon="18.90871">
        <ele>149.798938</ele>
        <time>2022-05-27T12:27:13.857Z</time>
      </trkpt>
      <trkpt lat="42.23092" lon="18.90871">
        <ele>149.783519</ele>
        <time>2022-05-27T12:27:17.877Z</time>
      </trkpt>
      <trkpt lat="42.23102" lon="18.90871">
        <ele>149.765895</ele>
        <time>2022-05-27T12:27:22.852Z</time>
      </trkpt>
      <trkpt lat="42.23112" lon="18.90871">
        <ele>149.748782</ele>
        <time>2022-05-27T12:27:27.871Z</time>
      </trkpt>
      <trkpt lat="42.23122" lon="18.90871">
        <ele>149.731838</ele>
        <time>2022-05-27T12:27:31.855Z</time>
      </trkpt>
      <trkpt lat="42.23133" lon="18.90872">
        <ele>149.713687</ele>
        <time>2022-05-27T12:27:35.859Z</time>
      </trkpt>
      <trkpt lat="42.23142" lon="18.90873">
        <ele>149.698252</ele>
        <time>2022-05-27T12:27:38.871Z</time>
      </trkpt>
      <trkpt lat="42.23152" lon="18.90875">
        <ele>149.681477</ele>
        <time>2022-05-27T12:27:41.909Z</time>
      </trkpt>
      <trkpt lat="42.23163" lon="18.90878">
        <ele>149.6622</ele>
        <time>2022-05-27T12:27:44.866Z</time>
      </trkpt>
      <trkpt lat="42.23176" lon="18.90881">
        <ele>149.640564</ele>
        <time>2022-05-27T12:27:47.877Z</time>
      </trkpt>
      <trkpt lat="42.23185" lon="18.90883">
        <ele>149.623751</ele>
        <time>2022-05-27T12:27:49.874Z</time>
      </trkpt>
      <trkpt lat="42.23196" lon="18.90885">
        <ele>149.605342</ele>
        <time>2022-05-27T12:27:51.866Z</time>
      </trkpt>
      <trkpt lat="42.23208" lon="18.90886">
        <ele>149.585778</ele>
        <time>2022-05-27T12:27:53.869Z</time>
      </trkpt>
      <trkpt lat="42.2322" lon="18.90886">
        <ele>149.565442</ele>
        <time>2022-05-27T12:27:55.866Z</time>
      </trkpt>
      <trkpt lat="42.2323" lon="18.90884">
        <ele>149.547187</ele>
        <time>2022-05-27T12:27:58.870Z</time>
      </trkpt>
      <trkpt lat="42.2324" lon="18.90884">
        <ele>149.53057</ele>
        <time>2022-05-27T12:28:00.865Z</time>
      </trkpt>
      <trkpt lat="42.23249" lon="18.90884">
        <ele>149.515139</ele>
        <time>2022-05-27T12:28:02.869Z</time>
      </trkpt>
      <trkpt lat="42.2326" lon="18.90884">
        <ele>149.433648</ele>
        <time>2022-05-27T12:28:04.870Z</time>
      </trkpt>
      <trkpt lat="42.2327" lon="18.90881">
        <ele>149.155623</ele>
        <time>2022-05-27T12:28:06.876Z</time>
      </trkpt>
      <trkpt lat="42.23281" lon="18.90876">
        <ele>148.859646</ele>
        <time>2022-05-27T12:28:08.871Z</time>
      </trkpt>
      <trkpt lat="42.23292" lon="18.9087">
        <ele>148.547603</ele>
        <time>2022-05-27T12:28:10.870Z</time>
      </trkpt>
      <trkpt lat="42.23303" lon="18.90862">
        <ele>148.226909</ele>
        <time>2022-05-27T12:28:12.850Z</time>
      </trkpt>
      <trkpt lat="42.23312" lon="18.90853">
        <ele>147.933625</ele>
        <time>2022-05-27T12:28:14.874Z</time>
      </trkpt>
      <trkpt lat="42.23323" lon="18.90842">
        <ele>147.572346</ele>
        <time>2022-05-27T12:28:16.871Z</time>
      </trkpt>
      <trkpt lat="42.23336" lon="18.9083">
        <ele>147.176723</ele>
        <time>2022-05-27T12:28:18.868Z</time>
      </trkpt>
      <trkpt lat="42.23347" lon="18.90817">
        <ele>146.795234</ele>
        <time>2022-05-27T12:28:20.881Z</time>
      </trkpt>
      <trkpt lat="42.23359" lon="18.90805">
        <ele>146.411375</ele>
        <time>2022-05-27T12:28:22.870Z</time>
      </trkpt>
      <trkpt lat="42.23373" lon="18.90793">
        <ele>145.985959</ele>
        <time>2022-05-27T12:28:24.857Z</time>
      </trkpt>
      <trkpt lat="42.23386" lon="18.90783">
        <ele>145.582652</ele>
        <time>2022-05-27T12:28:26.860Z</time>
      </trkpt>
      <trkpt lat="42.23401" lon="18.90776">
        <ele>145.185896</ele>
        <time>2022-05-27T12:28:28.865Z</time>
      </trkpt>
      <trkpt lat="42.23414" lon="18.90772">
        <ele>144.833548</ele>
        <time>2022-05-27T12:28:30.892Z</time>
      </trkpt>
      <trkpt lat="42.23427" lon="18.90771">
        <ele>144.729306</ele>
        <time>2022-05-27T12:28:32.861Z</time>
      </trkpt>
      <trkpt lat="42.23439" lon="18.9077">
        <ele>144.631949</ele>
        <time>2022-05-27T12:28:34.864Z</time>
      </trkpt>
      <trkpt lat="42.2345" lon="18.9077">
        <ele>144.541206</ele>
        <time>2022-05-27T12:28:36.862Z</time>
      </trkpt>
      <trkpt lat="42.23461" lon="18.9077">
        <ele>144.448808</ele>
        <time>2022-05-27T12:28:38.861Z</time>
      </trkpt>
      <trkpt lat="42.23471" lon="18.9077">
        <ele>144.367957</ele>
        <time>2022-05-27T12:28:40.871Z</time>
      </trkpt>
      <trkpt lat="42.23484" lon="18.9077">
        <ele>144.261542</ele>
        <time>2022-05-27T12:28:43.877Z</time>
      </trkpt>
      <trkpt lat="42.23494" lon="18.90768">
        <ele>144.177149</ele>
        <time>2022-05-27T12:28:46.865Z</time>
      </trkpt>
      <trkpt lat="42.23503" lon="18.90765">
        <ele>144.099854</ele>
        <time>2022-05-27T12:28:49.866Z</time>
      </trkpt>
      <trkpt lat="42.23513" lon="18.90762">
        <ele>144.013473</ele>
        <time>2022-05-27T12:28:53.865Z</time>
      </trkpt>
      <trkpt lat="42.23523" lon="18.90758">
        <ele>143.927686</ele>
        <time>2022-05-27T12:28:57.857Z</time>
      </trkpt>
      <trkpt lat="42.23532" lon="18.90751">
        <ele>143.842872</ele>
        <time>2022-05-27T12:29:01.870Z</time>
      </trkpt>
      <trkpt lat="42.23541" lon="18.90743">
        <ele>143.755019</ele>
        <time>2022-05-27T12:29:05.859Z</time>
      </trkpt>
      <trkpt lat="42.23551" lon="18.90734">
        <ele>143.65862</ele>
        <time>2022-05-27T12:29:09.857Z</time>
      </trkpt>
      <trkpt lat="42.2356" lon="18.90725">
        <ele>143.561833</ele>
        <time>2022-05-27T12:29:13.854Z</time>
      </trkpt>
      <trkpt lat="42.23568" lon="18.90716">
        <ele>143.474286</ele>
        <time>2022-05-27T12:29:17.872Z</time>
      </trkpt>
      <trkpt lat="42.23576" lon="18.90708">
        <ele>143.393603</ele>
        <time>2022-05-27T12:29:21.855Z</time>
      </trkpt>
      <trkpt lat="42.23584" lon="18.90701">
        <ele>143.515848</ele>
        <time>2022-05-27T12:29:25.868Z</time>
      </trkpt>
      <trkpt lat="42.23593" lon="18.90694">
        <ele>143.813084</ele>
        <time>2022-05-27T12:29:29.868Z</time>
      </trkpt>
      <trkpt lat="42.23601" lon="18.90688">
        <ele>144.10146</ele>
        <time>2022-05-27T12:29:33.864Z</time>
      </trkpt>
      <trkpt lat="42.2361" lon="18.90681">
        <ele>144.432793</ele>
        <time>2022-05-27T12:29:38.867Z</time>
      </trkpt>
      <trkpt lat="42.23621" lon="18.90676">
        <ele>144.783206</ele>
        <time>2022-05-27T12:29:43.864Z</time>
      </trkpt>
      <trkpt lat="42.2363" lon="18.9067">
        <ele>145.089981</ele>
        <time>2022-05-27T12:29:47.860Z</time>
      </trkpt>
      <trkpt lat="42.23639" lon="18.90667">
        <ele>145.385208</ele>
        <time>2022-05-27T12:29:52.864Z</time>
      </trkpt>
      <trkpt lat="42.23648" lon="18.90662">
        <ele>145.674145</ele>
        <time>2022-05-27T12:29:56.875Z</time>
      </trkpt>
      <trkpt lat="42.23659" lon="18.90658">
        <ele>146.03105</ele>
        <time>2022-05-27T12:30:01.875Z</time>
      </trkpt>
      <trkpt lat="42.23667" lon="18.90654">
        <ele>146.319761</ele>
        <time>2022-05-27T12:30:05.855Z</time>
      </trkpt>
      <trkpt lat="42.23677" lon="18.90651">
        <ele>146.628159</ele>
        <time>2022-05-27T12:30:09.862Z</time>
      </trkpt>
      <trkpt lat="42.23687" lon="18.90647">
        <ele>146.961195</ele>
        <time>2022-05-27T12:30:14.887Z</time>
      </trkpt>
      <trkpt lat="42.23698" lon="18.90642">
        <ele>147.308093</ele>
        <time>2022-05-27T12:30:19.895Z</time>
      </trkpt>
      <trkpt lat="42.23708" lon="18.90637">
        <ele>147.636481</ele>
        <time>2022-05-27T12:30:24.870Z</time>
      </trkpt>
      <trkpt lat="42.23718" lon="18.90633">
        <ele>147.96271</ele>
        <time>2022-05-27T12:30:29.865Z</time>
      </trkpt>
      <trkpt lat="42.23727" lon="18.90629">
        <ele>148.248354</ele>
        <time>2022-05-27T12:30:34.865Z</time>
      </trkpt>
      <trkpt lat="42.23737" lon="18.90626">
        <ele>148.570106</ele>
        <time>2022-05-27T12:30:39.868Z</time>
      </trkpt>
      <trkpt lat="42.23746" lon="18.90624">
        <ele>148.868164</ele>
        <time>2022-05-27T12:30:44.863Z</time>
      </trkpt>
      <trkpt lat="42.23756" lon="18.90619">
        <ele>149.268493</ele>
        <time>2022-05-27T12:30:50.860Z</time>
      </trkpt>
      <trkpt lat="42.23766" lon="18.90617">
        <ele>149.68684</ele>
        <time>2022-05-27T12:30:56.855Z</time>
      </trkpt>
      <trkpt lat="42.23776" lon="18.90615">
        <ele>150.063372</ele>
        <time>2022-05-27T12:31:01.870Z</time>
      </trkpt>
      <trkpt lat="42.23786" lon="18.90613">
        <ele>150.508102</ele>
        <time>2022-05-27T12:31:06.852Z</time>
      </trkpt>
      <trkpt lat="42.23796" lon="18.90611">
        <ele>150.923791</ele>
        <time>2022-05-27T12:31:11.882Z</time>
      </trkpt>
      <trkpt lat="42.23806" lon="18.90608">
        <ele>151.315951</ele>
        <time>2022-05-27T12:31:16.863Z</time>
      </trkpt>
      <trkpt lat="42.23816" lon="18.90606">
        <ele>151.742857</ele>
        <time>2022-05-27T12:31:22.859Z</time>
      </trkpt>
      <trkpt lat="42.23826" lon="18.90603">
        <ele>152.141295</ele>
        <time>2022-05-27T12:31:27.857Z</time>
      </trkpt>
      <trkpt lat="42.23836" lon="18.906">
        <ele>152.553983</ele>
        <time>2022-05-27T12:31:32.858Z</time>
      </trkpt>
      <trkpt lat="42.23846" lon="18.90598">
        <ele>152.967767</ele>
        <time>2022-05-27T12:31:37.855Z</time>
      </trkpt>
      <trkpt lat="42.23856" lon="18.90595">
        <ele>153.380026</ele>
        <time>2022-05-27T12:31:43.856Z</time>
      </trkpt>
      <trkpt lat="42.23866" lon="18.90592">
        <ele>153.798374</ele>
        <time>2022-05-27T12:31:48.877Z</time>
      </trkpt>
      <trkpt lat="42.23876" lon="18.90589">
        <ele>154.22528</ele>
        <time>2022-05-27T12:31:53.871Z</time>
      </trkpt>
      <trkpt lat="42.23886" lon="18.90586">
        <ele>154.625655</ele>
        <time>2022-05-27T12:31:58.859Z</time>
      </trkpt>
      <trkpt lat="42.23895" lon="18.90585">
        <ele>154.998153</ele>
        <time>2022-05-27T12:32:03.856Z</time>
      </trkpt>
      <trkpt lat="42.23904" lon="18.90582">
        <ele>155.385308</ele>
        <time>2022-05-27T12:32:09.867Z</time>
      </trkpt>
      <trkpt lat="42.23913" lon="18.90579">
        <ele>155.76722</ele>
        <time>2022-05-27T12:32:14.866Z</time>
      </trkpt>
      <trkpt lat="42.23924" lon="18.90576">
        <ele>156.211255</ele>
        <time>2022-05-27T12:32:20.866Z</time>
      </trkpt>
      <trkpt lat="42.23934" lon="18.90573">
        <ele>156.579265</ele>
        <time>2022-05-27T12:32:25.869Z</time>
      </trkpt>
      <trkpt lat="42.23943" lon="18.9057">
        <ele>156.924407</ele>
        <time>2022-05-27T12:32:29.872Z</time>
      </trkpt>
      <trkpt lat="42.23951" lon="18.90566">
        <ele>157.263816</ele>
        <time>2022-05-27T12:32:33.862Z</time>
      </trkpt>
      <trkpt lat="42.23961" lon="18.9056">
        <ele>157.652338</ele>
        <time>2022-05-27T12:32:38.880Z</time>
      </trkpt>
      <trkpt lat="42.2397" lon="18.90554">
        <ele>158.00654</ele>
        <time>2022-05-27T12:32:43.858Z</time>
      </trkpt>
      <trkpt lat="42.23977" lon="18.90547">
        <ele>158.350857</ele>
        <time>2022-05-27T12:32:48.852Z</time>
      </trkpt>
      <trkpt lat="42.23985" lon="18.9054">
        <ele>158.681488</ele>
        <time>2022-05-27T12:32:53.872Z</time>
      </trkpt>
      <trkpt lat="42.23992" lon="18.90533">
        <ele>159.013708</ele>
        <time>2022-05-27T12:32:58.858Z</time>
      </trkpt>
      <trkpt lat="42.23999" lon="18.90525">
        <ele>159.366866</ele>
        <time>2022-05-27T12:33:03.888Z</time>
      </trkpt>
      <trkpt lat="42.24006" lon="18.90516">
        <ele>159.720023</ele>
        <time>2022-05-27T12:33:08.854Z</time>
      </trkpt>
      <trkpt lat="42.24014" lon="18.90507">
        <ele>160.102459</ele>
        <time>2022-05-27T12:33:13.872Z</time>
      </trkpt>
      <trkpt lat="42.24022" lon="18.90498">
        <ele>160.487685</ele>
        <time>2022-05-27T12:33:18.865Z</time>
      </trkpt>
      <trkpt lat="42.2403" lon="18.90488">
        <ele>160.888806</ele>
        <time>2022-05-27T12:33:23.872Z</time>
      </trkpt>
      <trkpt lat="42.24038" lon="18.9048">
        <ele>161.257503</ele>
        <time>2022-05-27T12:33:28.864Z</time>
      </trkpt>
      <trkpt lat="42.24046" lon="18.90471">
        <ele>161.642595</ele>
        <time>2022-05-27T12:33:33.872Z</time>
      </trkpt>
      <trkpt lat="42.24053" lon="18.90463">
        <ele>161.980212</ele>
        <time>2022-05-27T12:33:38.902Z</time>
      </trkpt>
      <trkpt lat="42.24062" lon="18.90454">
        <ele>162.378368</ele>
        <time>2022-05-27T12:33:43.866Z</time>
      </trkpt>
      <trkpt lat="42.2407" lon="18.90446">
        <ele>162.770319</ele>
        <time>2022-05-27T12:33:48.861Z</time>
      </trkpt>
      <trkpt lat="42.24079" lon="18.90437">
        <ele>163.045191</ele>
        <time>2022-05-27T12:33:53.910Z</time>
      </trkpt>
      <trkpt lat="42.24088" lon="18.90429">
        <ele>163.267058</ele>
        <time>2022-05-27T12:33:58.871Z</time>
      </trkpt>
      <trkpt lat="42.24096" lon="18.90422">
        <ele>163.468656</ele>
        <time>2022-05-27T12:34:02.850Z</time>
      </trkpt>
      <trkpt lat="42.24105" lon="18.90414">
        <ele>163.679522</ele>
        <time>2022-05-27T12:34:06.864Z</time>
      </trkpt>
      <trkpt lat="42.24113" lon="18.90408">
        <ele>163.866828</ele>
        <time>2022-05-27T12:34:10.865Z</time>
      </trkpt>
      <trkpt lat="42.24121" lon="18.90401">
        <ele>164.057851</ele>
        <time>2022-05-27T12:34:14.844Z</time>
      </trkpt>
      <trkpt lat="42.2413" lon="18.90394">
        <ele>164.26987</ele>
        <time>2022-05-27T12:34:18.874Z</time>
      </trkpt>
      <trkpt lat="42.24139" lon="18.90388">
        <ele>164.473837</ele>
        <time>2022-05-27T12:34:22.876Z</time>
      </trkpt>
      <trkpt lat="42.24148" lon="18.90383">
        <ele>164.675102</ele>
        <time>2022-05-27T12:34:26.895Z</time>
      </trkpt>
      <trkpt lat="42.24157" lon="18.90377">
        <ele>164.885928</ele>
        <time>2022-05-27T12:34:30.910Z</time>
      </trkpt>
      <trkpt lat="42.24166" lon="18.90373">
        <ele>165.082958</ele>
        <time>2022-05-27T12:34:34.861Z</time>
      </trkpt>
      <trkpt lat="42.24176" lon="18.90369">
        <ele>165.286777</ele>
        <time>2022-05-27T12:34:38.886Z</time>
      </trkpt>
      <trkpt lat="42.24186" lon="18.90365">
        <ele>165.499497</ele>
        <time>2022-05-27T12:34:42.872Z</time>
      </trkpt>
      <trkpt lat="42.24195" lon="18.90361">
        <ele>165.686979</ele>
        <time>2022-05-27T12:34:46.875Z</time>
      </trkpt>
      <trkpt lat="42.24204" lon="18.90359">
        <ele>165.883075</ele>
        <time>2022-05-27T12:34:50.847Z</time>
      </trkpt>
      <trkpt lat="42.24213" lon="18.90356">
        <ele>166.072566</ele>
        <time>2022-05-27T12:34:54.858Z</time>
      </trkpt>
      <trkpt lat="42.24223" lon="18.90354">
        <ele>166.286441</ele>
        <time>2022-05-27T12:34:59.859Z</time>
      </trkpt>
      <trkpt lat="42.24232" lon="18.90352">
        <ele>166.472166</ele>
        <time>2022-05-27T12:35:03.868Z</time>
      </trkpt>
      <trkpt lat="42.24244" lon="18.9035">
        <ele>166.614459</ele>
        <time>2022-05-27T12:35:08.841Z</time>
      </trkpt>
      <trkpt lat="42.24253" lon="18.90349">
        <ele>166.686787</ele>
        <time>2022-05-27T12:35:12.860Z</time>
      </trkpt>
      <trkpt lat="42.24262" lon="18.90348">
        <ele>166.75749</ele>
        <time>2022-05-27T12:35:16.865Z</time>
      </trkpt>
      <trkpt lat="42.24272" lon="18.90347">
        <ele>166.831207</ele>
        <time>2022-05-27T12:35:20.854Z</time>
      </trkpt>
      <trkpt lat="42.24281" lon="18.90345">
        <ele>166.90201</ele>
        <time>2022-05-27T12:35:24.867Z</time>
      </trkpt>
      <trkpt lat="42.24291" lon="18.90345">
        <ele>166.975727</ele>
        <time>2022-05-27T12:35:28.866Z</time>
      </trkpt>
      <trkpt lat="42.24301" lon="18.90343">
        <ele>167.057497</ele>
        <time>2022-05-27T12:35:32.833Z</time>
      </trkpt>
      <trkpt lat="42.2431" lon="18.90341">
        <ele>167.128419</ele>
        <time>2022-05-27T12:35:36.864Z</time>
      </trkpt>
      <trkpt lat="42.2432" lon="18.9034">
        <ele>167.199476</ele>
        <time>2022-05-27T12:35:40.859Z</time>
      </trkpt>
      <trkpt lat="42.24329" lon="18.90337">
        <ele>167.272344</ele>
        <time>2022-05-27T12:35:44.855Z</time>
      </trkpt>
      <trkpt lat="42.24339" lon="18.90333">
        <ele>167.350203</ele>
        <time>2022-05-27T12:35:48.863Z</time>
      </trkpt>
      <trkpt lat="42.24347" lon="18.90328">
        <ele>167.422692</ele>
        <time>2022-05-27T12:35:52.859Z</time>
      </trkpt>
      <trkpt lat="42.24357" lon="18.90323">
        <ele>167.500227</ele>
        <time>2022-05-27T12:35:57.878Z</time>
      </trkpt>
      <trkpt lat="42.24366" lon="18.90315">
        <ele>167.583673</ele>
        <time>2022-05-27T12:36:02.853Z</time>
      </trkpt>
      <trkpt lat="42.24374" lon="18.90308">
        <ele>167.654137</ele>
        <time>2022-05-27T12:36:06.870Z</time>
      </trkpt>
      <trkpt lat="42.2438" lon="18.903">
        <ele>167.724634</ele>
        <time>2022-05-27T12:36:10.863Z</time>
      </trkpt>
      <trkpt lat="42.24372" lon="18.90292">
        <ele>167.79986</ele>
        <time>2022-05-27T12:36:15.878Z</time>
      </trkpt>
      <trkpt lat="42.24369" lon="18.90277">
        <ele>167.888057</ele>
        <time>2022-05-27T12:36:19.856Z</time>
      </trkpt>
      <trkpt lat="42.24368" lon="18.90263">
        <ele>167.896793</ele>
        <time>2022-05-27T12:36:22.864Z</time>
      </trkpt>
      <trkpt lat="42.2437" lon="18.90251">
        <ele>167.78694</ele>
        <time>2022-05-27T12:36:25.862Z</time>
      </trkpt>
      <trkpt lat="42.24382" lon="18.90261">
        <ele>167.616856</ele>
        <time>2022-05-27T12:38:28.859Z</time>
      </trkpt>
      <trkpt lat="42.2439" lon="18.9027">
        <ele>167.502279</ele>
        <time>2022-05-27T12:38:33.876Z</time>
      </trkpt>
      <trkpt lat="42.244" lon="18.90274">
        <ele>167.377459</ele>
        <time>2022-05-27T12:38:39.866Z</time>
      </trkpt>
      <trkpt lat="42.24408" lon="18.90266">
        <ele>167.261605</ele>
        <time>2022-05-27T12:38:42.859Z</time>
      </trkpt>
      <trkpt lat="42.24415" lon="18.90257">
        <ele>167.148793</ele>
        <time>2022-05-27T12:38:45.868Z</time>
      </trkpt>
      <trkpt lat="42.24424" lon="18.90249">
        <ele>167.024762</ele>
        <time>2022-05-27T12:38:48.877Z</time>
      </trkpt>
      <trkpt lat="42.24435" lon="18.90243">
        <ele>166.890572</ele>
        <time>2022-05-27T12:38:51.872Z</time>
      </trkpt>
      <trkpt lat="42.24446" lon="18.90238">
        <ele>166.748774</ele>
        <time>2022-05-27T12:38:54.865Z</time>
      </trkpt>
      <trkpt lat="42.2446" lon="18.90237">
        <ele>166.59469</ele>
        <time>2022-05-27T12:38:57.866Z</time>
      </trkpt>
      <trkpt lat="42.24469" lon="18.90237">
        <ele>166.48054</ele>
        <time>2022-05-27T12:38:59.890Z</time>
      </trkpt>
      <trkpt lat="42.2448" lon="18.90238">
        <ele>166.353019</ele>
        <time>2022-05-27T12:39:01.867Z</time>
      </trkpt>
      <trkpt lat="42.24491" lon="18.9024">
        <ele>166.2317</ele>
        <time>2022-05-27T12:39:03.859Z</time>
      </trkpt>
      <trkpt lat="42.24501" lon="18.90244">
        <ele>166.110477</ele>
        <time>2022-05-27T12:39:05.857Z</time>
      </trkpt>
      <trkpt lat="42.24509" lon="18.90249">
        <ele>166.005547</ele>
        <time>2022-05-27T12:39:07.865Z</time>
      </trkpt>
      <trkpt lat="42.24518" lon="18.90254">
        <ele>165.892209</ele>
        <time>2022-05-27T12:39:09.872Z</time>
      </trkpt>
      <trkpt lat="42.24527" lon="18.90259">
        <ele>165.578508</ele>
        <time>2022-05-27T12:39:11.867Z</time>
      </trkpt>
      <trkpt lat="42.24537" lon="18.90264">
        <ele>165.052421</ele>
        <time>2022-05-27T12:39:13.865Z</time>
      </trkpt>
      <trkpt lat="42.24547" lon="18.9027">
        <ele>164.464311</ele>
        <time>2022-05-27T12:39:15.856Z</time>
      </trkpt>
      <trkpt lat="42.2456" lon="18.90275">
        <ele>163.815763</ele>
        <time>2022-05-27T12:39:17.858Z</time>
      </trkpt>
      <trkpt lat="42.24574" lon="18.9028">
        <ele>163.074672</ele>
        <time>2022-05-27T12:39:19.895Z</time>
      </trkpt>
      <trkpt lat="42.24588" lon="18.90282">
        <ele>162.39028</ele>
        <time>2022-05-27T12:39:21.898Z</time>
      </trkpt>
      <trkpt lat="42.24602" lon="18.90284">
        <ele>161.659429</ele>
        <time>2022-05-27T12:39:23.864Z</time>
      </trkpt>
      <trkpt lat="42.24618" lon="18.90284">
        <ele>160.87982</ele>
        <time>2022-05-27T12:39:25.899Z</time>
      </trkpt>
      <trkpt lat="42.24634" lon="18.90284">
        <ele>160.070371</ele>
        <time>2022-05-27T12:39:27.865Z</time>
      </trkpt>
      <trkpt lat="42.24651" lon="18.90285">
        <ele>159.215754</ele>
        <time>2022-05-27T12:39:29.901Z</time>
      </trkpt>
      <trkpt lat="42.24668" lon="18.90285">
        <ele>158.386187</ele>
        <time>2022-05-27T12:39:31.867Z</time>
      </trkpt>
      <trkpt lat="42.24684" lon="18.90287">
        <ele>157.56839</ele>
        <time>2022-05-27T12:39:33.870Z</time>
      </trkpt>
      <trkpt lat="42.24701" lon="18.90291">
        <ele>156.740261</ele>
        <time>2022-05-27T12:39:35.872Z</time>
      </trkpt>
      <trkpt lat="42.2471" lon="18.90293">
        <ele>156.346949</ele>
        <time>2022-05-27T12:39:36.845Z</time>
      </trkpt>
      <trkpt lat="42.24719" lon="18.90295">
        <ele>155.955481</ele>
        <time>2022-05-27T12:39:37.861Z</time>
      </trkpt>
      <trkpt lat="42.24728" lon="18.90298">
        <ele>155.55432</ele>
        <time>2022-05-27T12:39:38.871Z</time>
      </trkpt>
      <trkpt lat="42.24737" lon="18.903">
        <ele>155.146356</ele>
        <time>2022-05-27T12:39:39.842Z</time>
      </trkpt>
      <trkpt lat="42.24746" lon="18.90302">
        <ele>154.753597</ele>
        <time>2022-05-27T12:39:40.853Z</time>
      </trkpt>
      <trkpt lat="42.24755" lon="18.90302">
        <ele>154.358815</ele>
        <time>2022-05-27T12:39:41.876Z</time>
      </trkpt>
      <trkpt lat="42.24772" lon="18.90302">
        <ele>153.61889</ele>
        <time>2022-05-27T12:39:43.891Z</time>
      </trkpt>
      <trkpt lat="42.24789" lon="18.90298">
        <ele>152.874824</ele>
        <time>2022-05-27T12:39:45.876Z</time>
      </trkpt>
      <trkpt lat="42.24806" lon="18.90289">
        <ele>152.111911</ele>
        <time>2022-05-27T12:39:47.875Z</time>
      </trkpt>
      <trkpt lat="42.2482" lon="18.90278">
        <ele>151.384862</ele>
        <time>2022-05-27T12:39:49.869Z</time>
      </trkpt>
      <trkpt lat="42.24834" lon="18.90264">
        <ele>150.658141</ele>
        <time>2022-05-27T12:39:51.862Z</time>
      </trkpt>
      <trkpt lat="42.24846" lon="18.90251">
        <ele>149.978363</ele>
        <time>2022-05-27T12:39:53.873Z</time>
      </trkpt>
      <trkpt lat="42.24858" lon="18.90236">
        <ele>149.281608</ele>
        <time>2022-05-27T12:39:55.890Z</time>
      </trkpt>
      <trkpt lat="42.2487" lon="18.90222">
        <ele>148.892415</ele>
        <time>2022-05-27T12:39:57.876Z</time>
      </trkpt>
      <trkpt lat="42.24883" lon="18.90207">
        <ele>148.636681</ele>
        <time>2022-05-27T12:39:59.870Z</time>
      </trkpt>
      <trkpt lat="42.24896" lon="18.90193">
        <ele>148.391154</ele>
        <time>2022-05-27T12:40:01.856Z</time>
      </trkpt>
      <trkpt lat="42.24907" lon="18.90181">
        <ele>148.162244</ele>
        <time>2022-05-27T12:40:03.866Z</time>
      </trkpt>
      <trkpt lat="42.24919" lon="18.90169">
        <ele>147.941252</ele>
        <time>2022-05-27T12:40:05.898Z</time>
      </trkpt>
      <trkpt lat="42.2493" lon="18.90159">
        <ele>147.73632</ele>
        <time>2022-05-27T12:40:07.867Z</time>
      </trkpt>
      <trkpt lat="42.24942" lon="18.90149">
        <ele>147.530978</ele>
        <time>2022-05-27T12:40:09.847Z</time>
      </trkpt>
      <trkpt lat="42.24954" lon="18.90141">
        <ele>147.317155</ele>
        <time>2022-05-27T12:40:11.863Z</time>
      </trkpt>
      <trkpt lat="42.24966" lon="18.90133">
        <ele>147.106894</ele>
        <time>2022-05-27T12:40:13.869Z</time>
      </trkpt>
      <trkpt lat="42.2498" lon="18.90124">
        <ele>146.879046</ele>
        <time>2022-05-27T12:40:15.872Z</time>
      </trkpt>
      <trkpt lat="42.24995" lon="18.90115">
        <ele>146.622464</ele>
        <time>2022-05-27T12:40:17.858Z</time>
      </trkpt>
      <trkpt lat="42.2501" lon="18.90106">
        <ele>146.376555</ele>
        <time>2022-05-27T12:40:19.855Z</time>
      </trkpt>
      <trkpt lat="42.25024" lon="18.90097">
        <ele>145.880633</ele>
        <time>2022-05-27T12:40:21.873Z</time>
      </trkpt>
      <trkpt lat="42.25038" lon="18.90088">
        <ele>145.305266</ele>
        <time>2022-05-27T12:40:23.878Z</time>
      </trkpt>
      <trkpt lat="42.25051" lon="18.9008">
        <ele>144.773836</ele>
        <time>2022-05-27T12:40:25.862Z</time>
      </trkpt>
      <trkpt lat="42.25065" lon="18.90072">
        <ele>144.204571</ele>
        <time>2022-05-27T12:40:27.891Z</time>
      </trkpt>
      <trkpt lat="42.25082" lon="18.90064">
        <ele>143.551435</ele>
        <time>2022-05-27T12:40:29.877Z</time>
      </trkpt>
      <trkpt lat="42.25098" lon="18.90057">
        <ele>142.927312</ele>
        <time>2022-05-27T12:40:31.869Z</time>
      </trkpt>
      <trkpt lat="42.25113" lon="18.90051">
        <ele>142.317125</ele>
        <time>2022-05-27T12:40:33.898Z</time>
      </trkpt>
      <trkpt lat="42.25129" lon="18.90045">
        <ele>141.715201</ele>
        <time>2022-05-27T12:40:35.860Z</time>
      </trkpt>
      <trkpt lat="42.25145" lon="18.90038">
        <ele>141.093567</ele>
        <time>2022-05-27T12:40:37.869Z</time>
      </trkpt>
      <trkpt lat="42.25161" lon="18.90031">
        <ele>140.463211</ele>
        <time>2022-05-27T12:40:39.891Z</time>
      </trkpt>
      <trkpt lat="42.25177" lon="18.90024">
        <ele>139.84948</ele>
        <time>2022-05-27T12:40:41.865Z</time>
      </trkpt>
      <trkpt lat="42.25192" lon="18.90019">
        <ele>138.731977</ele>
        <time>2022-05-27T12:40:43.855Z</time>
      </trkpt>
      <trkpt lat="42.25206" lon="18.90015">
        <ele>137.46725</ele>
        <time>2022-05-27T12:40:45.869Z</time>
      </trkpt>
      <trkpt lat="42.25221" lon="18.90012">
        <ele>136.224421</ele>
        <time>2022-05-27T12:40:47.871Z</time>
      </trkpt>
      <trkpt lat="42.25235" lon="18.90011">
        <ele>134.976494</ele>
        <time>2022-05-27T12:40:49.892Z</time>
      </trkpt>
      <trkpt lat="42.25249" lon="18.90012">
        <ele>133.761967</ele>
        <time>2022-05-27T12:40:51.866Z</time>
      </trkpt>
      <trkpt lat="42.25263" lon="18.90014">
        <ele>132.566345</ele>
        <time>2022-05-27T12:40:53.856Z</time>
      </trkpt>
      <trkpt lat="42.25275" lon="18.90019">
        <ele>131.460742</ele>
        <time>2022-05-27T12:40:55.871Z</time>
      </trkpt>
      <trkpt lat="42.25288" lon="18.90021">
        <ele>130.368178</ele>
        <time>2022-05-27T12:40:57.862Z</time>
      </trkpt>
      <trkpt lat="42.25299" lon="18.90024">
        <ele>129.381021</ele>
        <time>2022-05-27T12:40:59.857Z</time>
      </trkpt>
      <trkpt lat="42.2531" lon="18.90028">
        <ele>128.365627</ele>
        <time>2022-05-27T12:41:01.892Z</time>
      </trkpt>
      <trkpt lat="42.25323" lon="18.90032">
        <ele>127.248516</ele>
        <time>2022-05-27T12:41:03.855Z</time>
      </trkpt>
      <trkpt lat="42.25335" lon="18.90038">
        <ele>126.089069</ele>
        <time>2022-05-27T12:41:05.852Z</time>
      </trkpt>
      <trkpt lat="42.25347" lon="18.90043">
        <ele>124.997653</ele>
        <time>2022-05-27T12:41:07.880Z</time>
      </trkpt>
      <trkpt lat="42.25359" lon="18.90048">
        <ele>123.999591</ele>
        <time>2022-05-27T12:41:09.867Z</time>
      </trkpt>
      <trkpt lat="42.2537" lon="18.90053">
        <ele>123.451633</ele>
        <time>2022-05-27T12:41:11.861Z</time>
      </trkpt>
      <trkpt lat="42.25381" lon="18.90057">
        <ele>122.906232</ele>
        <time>2022-05-27T12:41:13.870Z</time>
      </trkpt>
      <trkpt lat="42.25392" lon="18.90059">
        <ele>122.371451</ele>
        <time>2022-05-27T12:41:15.856Z</time>
      </trkpt>
      <trkpt lat="42.25405" lon="18.9006">
        <ele>121.771645</ele>
        <time>2022-05-27T12:41:17.878Z</time>
      </trkpt>
      <trkpt lat="42.25417" lon="18.9006">
        <ele>121.178928</ele>
        <time>2022-05-27T12:41:19.851Z</time>
      </trkpt>
      <trkpt lat="42.25428" lon="18.90058">
        <ele>120.651632</ele>
        <time>2022-05-27T12:41:21.874Z</time>
      </trkpt>
      <trkpt lat="42.25438" lon="18.90054">
        <ele>120.141969</ele>
        <time>2022-05-27T12:41:23.892Z</time>
      </trkpt>
      <trkpt lat="42.25449" lon="18.90048">
        <ele>119.604202</ele>
        <time>2022-05-27T12:41:25.851Z</time>
      </trkpt>
      <trkpt lat="42.25459" lon="18.9004">
        <ele>119.029769</ele>
        <time>2022-05-27T12:41:27.870Z</time>
      </trkpt>
      <trkpt lat="42.25469" lon="18.90032">
        <ele>118.47474</ele>
        <time>2022-05-27T12:41:29.866Z</time>
      </trkpt>
      <trkpt lat="42.25478" lon="18.90023">
        <ele>117.953158</ele>
        <time>2022-05-27T12:41:31.865Z</time>
      </trkpt>
      <trkpt lat="42.25486" lon="18.90013">
        <ele>117.427292</ele>
        <time>2022-05-27T12:41:33.857Z</time>
      </trkpt>
      <trkpt lat="42.25494" lon="18.90003">
        <ele>116.90852</ele>
        <time>2022-05-27T12:41:35.865Z</time>
      </trkpt>
      <trkpt lat="42.25501" lon="18.89992">
        <ele>116.373587</ele>
        <time>2022-05-27T12:41:37.868Z</time>
      </trkpt>
      <trkpt lat="42.25509" lon="18.89979">
        <ele>115.780507</ele>
        <time>2022-05-27T12:41:39.870Z</time>
      </trkpt>
      <trkpt lat="42.25517" lon="18.89967">
        <ele>115.326746</ele>
        <time>2022-05-27T12:41:41.866Z</time>
      </trkpt>
      <trkpt lat="42.25525" lon="18.89954">
        <ele>115.008705</ele>
        <time>2022-05-27T12:41:43.861Z</time>
      </trkpt>
      <trkpt lat="42.25533" lon="18.89941">
        <ele>114.687681</ele>
        <time>2022-05-27T12:41:45.885Z</time>
      </trkpt>
      <trkpt lat="42.25541" lon="18.89928">
        <ele>114.356143</ele>
        <time>2022-05-27T12:41:47.875Z</time>
      </trkpt>
      <trkpt lat="42.25547" lon="18.89914">
        <ele>114.032423</ele>
        <time>2022-05-27T12:41:49.875Z</time>
      </trkpt>
      <trkpt lat="42.25552" lon="18.899">
        <ele>113.73004</ele>
        <time>2022-05-27T12:41:51.893Z</time>
      </trkpt>
      <trkpt lat="42.25557" lon="18.89886">
        <ele>113.427031</ele>
        <time>2022-05-27T12:41:53.866Z</time>
      </trkpt>
      <trkpt lat="42.25561" lon="18.89872">
        <ele>113.131907</ele>
        <time>2022-05-27T12:41:55.856Z</time>
      </trkpt>
      <trkpt lat="42.25565" lon="18.89859">
        <ele>112.859839</ele>
        <time>2022-05-27T12:41:57.912Z</time>
      </trkpt>
      <trkpt lat="42.25569" lon="18.89846">
        <ele>112.586744</ele>
        <time>2022-05-27T12:41:59.867Z</time>
      </trkpt>
      <trkpt lat="42.25574" lon="18.89834">
        <ele>112.312493</ele>
        <time>2022-05-27T12:42:01.858Z</time>
      </trkpt>
      <trkpt lat="42.2558" lon="18.89822">
        <ele>112.040021</ele>
        <time>2022-05-27T12:42:03.855Z</time>
      </trkpt>
      <trkpt lat="42.25587" lon="18.89812">
        <ele>111.779668</ele>
        <time>2022-05-27T12:42:05.862Z</time>
      </trkpt>
      <trkpt lat="42.25593" lon="18.89803">
        <ele>111.534087</ele>
        <time>2022-05-27T12:42:07.867Z</time>
      </trkpt>
      <trkpt lat="42.25602" lon="18.89794">
        <ele>111.243361</ele>
        <time>2022-05-27T12:42:10.870Z</time>
      </trkpt>
      <trkpt lat="42.2561" lon="18.89788">
        <ele>111.000583</ele>
        <time>2022-05-27T12:42:13.870Z</time>
      </trkpt>
      <trkpt lat="42.25619" lon="18.89782">
        <ele>110.755629</ele>
        <time>2022-05-27T12:42:18.872Z</time>
      </trkpt>
      <trkpt lat="42.25627" lon="18.89777">
        <ele>110.895526</ele>
        <time>2022-05-27T12:42:23.862Z</time>
      </trkpt>
      <trkpt lat="42.25636" lon="18.89769">
        <ele>111.05553</ele>
        <time>2022-05-27T12:42:28.858Z</time>
      </trkpt>
      <trkpt lat="42.25641" lon="18.89758">
        <ele>111.195039</ele>
        <time>2022-05-27T12:42:35.856Z</time>
      </trkpt>
      <trkpt lat="42.25655" lon="18.89749">
        <ele>111.418541</ele>
        <time>2022-05-27T13:00:51.945Z</time>
      </trkpt>
      <trkpt lat="42.25666" lon="18.89744">
        <ele>111.591501</ele>
        <time>2022-05-27T13:00:55.860Z</time>
      </trkpt>
      <trkpt lat="42.25674" lon="18.89737">
        <ele>111.747366</ele>
        <time>2022-05-27T13:00:58.862Z</time>
      </trkpt>
      <trkpt lat="42.25683" lon="18.89728">
        <ele>111.912878</ele>
        <time>2022-05-27T13:01:01.903Z</time>
      </trkpt>
      <trkpt lat="42.25692" lon="18.89716">
        <ele>112.099439</ele>
        <time>2022-05-27T13:01:04.856Z</time>
      </trkpt>
      <trkpt lat="42.257" lon="18.89702">
        <ele>112.297394</ele>
        <time>2022-05-27T13:01:07.911Z</time>
      </trkpt>
      <trkpt lat="42.25706" lon="18.89691">
        <ele>112.451194</ele>
        <time>2022-05-27T13:01:09.854Z</time>
      </trkpt>
      <trkpt lat="42.25713" lon="18.89679">
        <ele>112.619311</ele>
        <time>2022-05-27T13:01:11.859Z</time>
      </trkpt>
      <trkpt lat="42.2572" lon="18.89667">
        <ele>112.794828</ele>
        <time>2022-05-27T13:01:13.853Z</time>
      </trkpt>
      <trkpt lat="42.25728" lon="18.89654">
        <ele>112.98199</ele>
        <time>2022-05-27T13:01:15.850Z</time>
      </trkpt>
      <trkpt lat="42.25738" lon="18.89643">
        <ele>113.168806</ele>
        <time>2022-05-27T13:01:17.882Z</time>
      </trkpt>
      <trkpt lat="42.25748" lon="18.89633">
        <ele>113.359381</ele>
        <time>2022-05-27T13:01:19.864Z</time>
      </trkpt>
      <trkpt lat="42.25759" lon="18.89624">
        <ele>113.222507</ele>
        <time>2022-05-27T13:01:21.874Z</time>
      </trkpt>
      <trkpt lat="42.25771" lon="18.89617">
        <ele>112.736623</ele>
        <time>2022-05-27T13:01:23.899Z</time>
      </trkpt>
      <trkpt lat="42.25785" lon="18.89612">
        <ele>112.211514</ele>
        <time>2022-05-27T13:01:25.863Z</time>
      </trkpt>
      <trkpt lat="42.25799" lon="18.89609">
        <ele>111.695149</ele>
        <time>2022-05-27T13:01:27.873Z</time>
      </trkpt>
      <trkpt lat="42.25814" lon="18.89609">
        <ele>111.170053</ele>
        <time>2022-05-27T13:01:29.853Z</time>
      </trkpt>
      <trkpt lat="42.25828" lon="18.89611">
        <ele>110.642019</ele>
        <time>2022-05-27T13:01:31.868Z</time>
      </trkpt>
      <trkpt lat="42.25842" lon="18.89616">
        <ele>110.11691</ele>
        <time>2022-05-27T13:01:33.865Z</time>
      </trkpt>
      <trkpt lat="42.25855" lon="18.89624">
        <ele>109.581382</ele>
        <time>2022-05-27T13:01:35.860Z</time>
      </trkpt>
      <trkpt lat="42.25869" lon="18.89631">
        <ele>109.044829</ele>
        <time>2022-05-27T13:01:37.868Z</time>
      </trkpt>
      <trkpt lat="42.25882" lon="18.89639">
        <ele>108.520445</ele>
        <time>2022-05-27T13:01:39.866Z</time>
      </trkpt>
      <trkpt lat="42.25896" lon="18.89646">
        <ele>107.992925</ele>
        <time>2022-05-27T13:01:41.858Z</time>
      </trkpt>
      <trkpt lat="42.25908" lon="18.89652">
        <ele>107.508396</ele>
        <time>2022-05-27T13:01:43.854Z</time>
      </trkpt>
      <trkpt lat="42.25921" lon="18.89659">
        <ele>107.011347</ele>
        <time>2022-05-27T13:01:45.877Z</time>
      </trkpt>
      <trkpt lat="42.25932" lon="18.89666">
        <ele>106.757415</ele>
        <time>2022-05-27T13:01:47.894Z</time>
      </trkpt>
      <trkpt lat="42.25944" lon="18.89675">
        <ele>106.560897</ele>
        <time>2022-05-27T13:01:49.866Z</time>
      </trkpt>
      <trkpt lat="42.25954" lon="18.89685">
        <ele>106.36987</ele>
        <time>2022-05-27T13:01:51.861Z</time>
      </trkpt>
      <trkpt lat="42.25962" lon="18.89694">
        <ele>106.209139</ele>
        <time>2022-05-27T13:01:53.898Z</time>
      </trkpt>
      <trkpt lat="42.25971" lon="18.89707">
        <ele>106.019098</ele>
        <time>2022-05-27T13:01:55.863Z</time>
      </trkpt>
      <trkpt lat="42.25978" lon="18.89722">
        <ele>105.818904</ele>
        <time>2022-05-27T13:01:57.865Z</time>
      </trkpt>
      <trkpt lat="42.25986" lon="18.89736">
        <ele>105.626763</ele>
        <time>2022-05-27T13:01:59.858Z</time>
      </trkpt>
      <trkpt lat="42.25995" lon="18.8975">
        <ele>105.425616</ele>
        <time>2022-05-27T13:02:01.866Z</time>
      </trkpt>
      <trkpt lat="42.26005" lon="18.89762">
        <ele>105.230213</ele>
        <time>2022-05-27T13:02:03.867Z</time>
      </trkpt>
      <trkpt lat="42.26015" lon="18.89773">
        <ele>105.031102</ele>
        <time>2022-05-27T13:02:05.867Z</time>
      </trkpt>
      <trkpt lat="42.26025" lon="18.89783">
        <ele>104.843011</ele>
        <time>2022-05-27T13:02:07.870Z</time>
      </trkpt>
      <trkpt lat="42.26036" lon="18.89791">
        <ele>104.663887</ele>
        <time>2022-05-27T13:02:09.852Z</time>
      </trkpt>
      <trkpt lat="42.26047" lon="18.89795">
        <ele>104.49573</ele>
        <time>2022-05-27T13:02:11.863Z</time>
      </trkpt>
      <trkpt lat="42.26057" lon="18.89798">
        <ele>104.334974</ele>
        <time>2022-05-27T13:02:13.889Z</time>
      </trkpt>
      <trkpt lat="42.26067" lon="18.898">
        <ele>104.197698</ele>
        <time>2022-05-27T13:02:15.934Z</time>
      </trkpt>
      <trkpt lat="42.26077" lon="18.89802">
        <ele>104.088102</ele>
        <time>2022-05-27T13:02:17.887Z</time>
      </trkpt>
      <trkpt lat="42.26086" lon="18.89803">
        <ele>103.984935</ele>
        <time>2022-05-27T13:02:19.859Z</time>
      </trkpt>
      <trkpt lat="42.26095" lon="18.89803">
        <ele>103.882969</ele>
        <time>2022-05-27T13:02:21.862Z</time>
      </trkpt>
      <trkpt lat="42.26105" lon="18.89802">
        <ele>103.775352</ele>
        <time>2022-05-27T13:02:23.859Z</time>
      </trkpt>
      <trkpt lat="42.26114" lon="18.89801">
        <ele>103.672982</ele>
        <time>2022-05-27T13:02:25.871Z</time>
      </trkpt>
      <trkpt lat="42.26123" lon="18.89798">
        <ele>103.563854</ele>
        <time>2022-05-27T13:02:27.856Z</time>
      </trkpt>
      <trkpt lat="42.26132" lon="18.89793">
        <ele>103.45556</ele>
        <time>2022-05-27T13:02:29.875Z</time>
      </trkpt>
      <trkpt lat="42.2614" lon="18.89785">
        <ele>103.343673</ele>
        <time>2022-05-27T13:02:31.868Z</time>
      </trkpt>
      <trkpt lat="42.26148" lon="18.89777">
        <ele>103.234333</ele>
        <time>2022-05-27T13:02:33.861Z</time>
      </trkpt>
      <trkpt lat="42.26154" lon="18.89767">
        <ele>103.12198</ele>
        <time>2022-05-27T13:02:35.864Z</time>
      </trkpt>
      <trkpt lat="42.2616" lon="18.89756">
        <ele>103.013331</ele>
        <time>2022-05-27T13:02:37.930Z</time>
      </trkpt>
      <trkpt lat="42.26168" lon="18.89743">
        <ele>102.873908</ele>
        <time>2022-05-27T13:02:40.849Z</time>
      </trkpt>
      <trkpt lat="42.26175" lon="18.89731">
        <ele>102.743863</ele>
        <time>2022-05-27T13:02:43.898Z</time>
      </trkpt>
      <trkpt lat="42.26184" lon="18.89717">
        <ele>102.59247</ele>
        <time>2022-05-27T13:02:46.855Z</time>
      </trkpt>
      <trkpt lat="42.26192" lon="18.89703">
        <ele>102.443501</ele>
        <time>2022-05-27T13:02:49.867Z</time>
      </trkpt>
      <trkpt lat="42.26201" lon="18.89689">
        <ele>102.296522</ele>
        <time>2022-05-27T13:02:52.869Z</time>
      </trkpt>
      <trkpt lat="42.26208" lon="18.89677">
        <ele>102.443344</ele>
        <time>2022-05-27T13:02:55.857Z</time>
      </trkpt>
      <trkpt lat="42.26215" lon="18.89665">
        <ele>103.149144</ele>
        <time>2022-05-27T13:02:58.853Z</time>
      </trkpt>
      <trkpt lat="42.26223" lon="18.89654">
        <ele>103.835238</ele>
        <time>2022-05-27T13:03:01.984Z</time>
      </trkpt>
      <trkpt lat="42.26231" lon="18.89644">
        <ele>104.534239</ele>
        <time>2022-05-27T13:03:04.856Z</time>
      </trkpt>
      <trkpt lat="42.26239" lon="18.89634">
        <ele>105.214866</ele>
        <time>2022-05-27T13:03:07.873Z</time>
      </trkpt>
      <trkpt lat="42.26247" lon="18.89626">
        <ele>105.86983</ele>
        <time>2022-05-27T13:03:10.864Z</time>
      </trkpt>
      <trkpt lat="42.26256" lon="18.89619">
        <ele>106.479693</ele>
        <time>2022-05-27T13:03:13.856Z</time>
      </trkpt>
      <trkpt lat="42.26265" lon="18.89614">
        <ele>107.095014</ele>
        <time>2022-05-27T13:03:16.863Z</time>
      </trkpt>
      <trkpt lat="42.26275" lon="18.8961">
        <ele>107.743626</ele>
        <time>2022-05-27T13:03:20.874Z</time>
      </trkpt>
      <trkpt lat="42.26284" lon="18.89608">
        <ele>108.315319</ele>
        <time>2022-05-27T13:03:24.894Z</time>
      </trkpt>
      <trkpt lat="42.26294" lon="18.89606">
        <ele>108.975381</ele>
        <time>2022-05-27T13:03:28.874Z</time>
      </trkpt>
      <trkpt lat="42.26306" lon="18.89605">
        <ele>109.692416</ele>
        <time>2022-05-27T13:03:32.859Z</time>
      </trkpt>
      <trkpt lat="42.26317" lon="18.89604">
        <ele>110.383103</ele>
        <time>2022-05-27T13:03:36.893Z</time>
      </trkpt>
      <trkpt lat="42.26327" lon="18.89602">
        <ele>111.023571</ele>
        <time>2022-05-27T13:03:40.849Z</time>
      </trkpt>
      <trkpt lat="42.26336" lon="18.896">
        <ele>111.606876</ele>
        <time>2022-05-27T13:03:44.859Z</time>
      </trkpt>
      <trkpt lat="42.26345" lon="18.89599">
        <ele>112.205334</ele>
        <time>2022-05-27T13:03:48.863Z</time>
      </trkpt>
      <trkpt lat="42.26357" lon="18.89599">
        <ele>112.926111</ele>
        <time>2022-05-27T13:03:53.909Z</time>
      </trkpt>
      <trkpt lat="42.26367" lon="18.89597">
        <ele>113.459411</ele>
        <time>2022-05-27T13:03:59.862Z</time>
      </trkpt>
      <trkpt lat="42.26377" lon="18.89595">
        <ele>113.342195</ele>
        <time>2022-05-27T13:04:04.894Z</time>
      </trkpt>
      <trkpt lat="42.26387" lon="18.89595">
        <ele>113.211762</ele>
        <time>2022-05-27T13:04:09.860Z</time>
      </trkpt>
      <trkpt lat="42.26396" lon="18.89593">
        <ele>113.095594</ele>
        <time>2022-05-27T13:04:13.865Z</time>
      </trkpt>
      <trkpt lat="42.26406" lon="18.89594">
        <ele>112.972687</ele>
        <time>2022-05-27T13:04:17.874Z</time>
      </trkpt>
      <trkpt lat="42.26417" lon="18.89593">
        <ele>112.839801</ele>
        <time>2022-05-27T13:04:22.866Z</time>
      </trkpt>
      <trkpt lat="42.26427" lon="18.89593">
        <ele>112.720534</ele>
        <time>2022-05-27T13:04:26.864Z</time>
      </trkpt>
      <trkpt lat="42.26436" lon="18.8959">
        <ele>112.601941</ele>
        <time>2022-05-27T13:04:30.865Z</time>
      </trkpt>
      <trkpt lat="42.26447" lon="18.89589">
        <ele>112.467333</ele>
        <time>2022-05-27T13:04:34.845Z</time>
      </trkpt>
      <trkpt lat="42.26456" lon="18.89587">
        <ele>112.353287</ele>
        <time>2022-05-27T13:04:37.879Z</time>
      </trkpt>
      <trkpt lat="42.26465" lon="18.89586">
        <ele>112.241101</ele>
        <time>2022-05-27T13:04:40.845Z</time>
      </trkpt>
      <trkpt lat="42.26474" lon="18.89585">
        <ele>112.126442</ele>
        <time>2022-05-27T13:04:43.866Z</time>
      </trkpt>
      <trkpt lat="42.26484" lon="18.89583">
        <ele>111.997623</ele>
        <time>2022-05-27T13:04:46.856Z</time>
      </trkpt>
      <trkpt lat="42.26495" lon="18.89582">
        <ele>111.864404</ele>
        <time>2022-05-27T13:04:49.884Z</time>
      </trkpt>
      <trkpt lat="42.26507" lon="18.89581">
        <ele>111.719648</ele>
        <time>2022-05-27T13:04:52.878Z</time>
      </trkpt>
      <trkpt lat="42.26519" lon="18.89579">
        <ele>111.570888</ele>
        <time>2022-05-27T13:04:55.857Z</time>
      </trkpt>
      <trkpt lat="42.26531" lon="18.89575">
        <ele>111.413831</ele>
        <time>2022-05-27T13:04:58.870Z</time>
      </trkpt>
      <trkpt lat="42.2654" lon="18.89571">
        <ele>111.297969</ele>
        <time>2022-05-27T13:05:00.898Z</time>
      </trkpt>
      <trkpt lat="42.26549" lon="18.89565">
        <ele>110.924992</ele>
        <time>2022-05-27T13:05:02.854Z</time>
      </trkpt>
      <trkpt lat="42.26558" lon="18.89557">
        <ele>110.34927</ele>
        <time>2022-05-27T13:05:04.865Z</time>
      </trkpt>
      <trkpt lat="42.26568" lon="18.89546">
        <ele>109.704826</ele>
        <time>2022-05-27T13:05:06.866Z</time>
      </trkpt>
      <trkpt lat="42.26576" lon="18.89532">
        <ele>109.019235</ele>
        <time>2022-05-27T13:05:08.862Z</time>
      </trkpt>
      <trkpt lat="42.26584" lon="18.89516">
        <ele>108.276214</ele>
        <time>2022-05-27T13:05:10.861Z</time>
      </trkpt>
      <trkpt lat="42.26594" lon="18.895">
        <ele>107.455556</ele>
        <time>2022-05-27T13:05:12.857Z</time>
      </trkpt>
      <trkpt lat="42.26605" lon="18.89483">
        <ele>106.602444</ele>
        <time>2022-05-27T13:05:14.854Z</time>
      </trkpt>
      <trkpt lat="42.26617" lon="18.89469">
        <ele>105.765868</ele>
        <time>2022-05-27T13:05:16.854Z</time>
      </trkpt>
      <trkpt lat="42.26631" lon="18.89458">
        <ele>104.926108</ele>
        <time>2022-05-27T13:05:18.858Z</time>
      </trkpt>
      <trkpt lat="42.26647" lon="18.89449">
        <ele>104.029968</ele>
        <time>2022-05-27T13:05:20.897Z</time>
      </trkpt>
      <trkpt lat="42.26656" lon="18.89446">
        <ele>103.544645</ele>
        <time>2022-05-27T13:05:21.877Z</time>
      </trkpt>
      <trkpt lat="42.26665" lon="18.89444">
        <ele>103.070578</ele>
        <time>2022-05-27T13:05:22.907Z</time>
      </trkpt>
      <trkpt lat="42.26674" lon="18.89447">
        <ele>102.572072</ele>
        <time>2022-05-27T13:05:23.869Z</time>
      </trkpt>
      <trkpt lat="42.26692" lon="18.8945">
        <ele>101.658589</ele>
        <time>2022-05-27T13:05:25.846Z</time>
      </trkpt>
      <trkpt lat="42.26701" lon="18.89453">
        <ele>101.163997</ele>
        <time>2022-05-27T13:05:26.863Z</time>
      </trkpt>
      <trkpt lat="42.26711" lon="18.89457">
        <ele>100.632202</ele>
        <time>2022-05-27T13:05:27.862Z</time>
      </trkpt>
      <trkpt lat="42.26719" lon="18.89462">
        <ele>100.140276</ele>
        <time>2022-05-27T13:05:28.897Z</time>
      </trkpt>
      <trkpt lat="42.26727" lon="18.8947">
        <ele>99.624987</ele>
        <time>2022-05-27T13:05:29.864Z</time>
      </trkpt>
      <trkpt lat="42.26735" lon="18.89478">
        <ele>99.104065</ele>
        <time>2022-05-27T13:05:30.861Z</time>
      </trkpt>
      <trkpt lat="42.26742" lon="18.89488">
        <ele>98.582944</ele>
        <time>2022-05-27T13:05:31.871Z</time>
      </trkpt>
      <trkpt lat="42.26748" lon="18.89498">
        <ele>98.076667</ele>
        <time>2022-05-27T13:05:32.870Z</time>
      </trkpt>
      <trkpt lat="42.26753" lon="18.89508">
        <ele>97.574959</ele>
        <time>2022-05-27T13:05:33.853Z</time>
      </trkpt>
      <trkpt lat="42.26758" lon="18.89519">
        <ele>97.066815</ele>
        <time>2022-05-27T13:05:34.850Z</time>
      </trkpt>
      <trkpt lat="42.26763" lon="18.8953">
        <ele>96.579153</ele>
        <time>2022-05-27T13:05:35.868Z</time>
      </trkpt>
      <trkpt lat="42.26767" lon="18.89541">
        <ele>96.105761</ele>
        <time>2022-05-27T13:05:36.862Z</time>
      </trkpt>
      <trkpt lat="42.26776" lon="18.89561">
        <ele>95.201404</ele>
        <time>2022-05-27T13:05:38.865Z</time>
      </trkpt>
      <trkpt lat="42.26783" lon="18.8957">
        <ele>94.679473</ele>
        <time>2022-05-27T13:05:39.897Z</time>
      </trkpt>
      <trkpt lat="42.26791" lon="18.8958">
        <ele>94.097158</ele>
        <time>2022-05-27T13:05:40.867Z</time>
      </trkpt>
      <trkpt lat="42.26801" lon="18.89589">
        <ele>93.492264</ele>
        <time>2022-05-27T13:05:41.849Z</time>
      </trkpt>
      <trkpt lat="42.26811" lon="18.89597">
        <ele>92.897393</ele>
        <time>2022-05-27T13:05:42.874Z</time>
      </trkpt>
      <trkpt lat="42.26822" lon="18.89604">
        <ele>92.165553</ele>
        <time>2022-05-27T13:05:43.856Z</time>
      </trkpt>
      <trkpt lat="42.26833" lon="18.89609">
        <ele>91.170769</ele>
        <time>2022-05-27T13:05:44.868Z</time>
      </trkpt>
      <trkpt lat="42.26843" lon="18.89611">
        <ele>90.283919</ele>
        <time>2022-05-27T13:05:45.868Z</time>
      </trkpt>
      <trkpt lat="42.26854" lon="18.89613">
        <ele>89.316927</ele>
        <time>2022-05-27T13:05:46.871Z</time>
      </trkpt>
      <trkpt lat="42.26865" lon="18.89613">
        <ele>88.400355</ele>
        <time>2022-05-27T13:05:47.854Z</time>
      </trkpt>
      <trkpt lat="42.26882" lon="18.89608">
        <ele>86.907552</ele>
        <time>2022-05-27T13:05:49.861Z</time>
      </trkpt>
      <trkpt lat="42.26898" lon="18.89601">
        <ele>85.520041</ele>
        <time>2022-05-27T13:05:51.860Z</time>
      </trkpt>
      <trkpt lat="42.26912" lon="18.89589">
        <ele>84.11282</ele>
        <time>2022-05-27T13:05:53.871Z</time>
      </trkpt>
      <trkpt lat="42.26924" lon="18.89574">
        <ele>82.74251</ele>
        <time>2022-05-27T13:05:55.863Z</time>
      </trkpt>
      <trkpt lat="42.26935" lon="18.89558">
        <ele>81.356263</ele>
        <time>2022-05-27T13:05:57.874Z</time>
      </trkpt>
      <trkpt lat="42.26944" lon="18.8954">
        <ele>79.96552</ele>
        <time>2022-05-27T13:05:59.857Z</time>
      </trkpt>
      <trkpt lat="42.26949" lon="18.8952">
        <ele>78.664108</ele>
        <time>2022-05-27T13:06:01.891Z</time>
      </trkpt>
      <trkpt lat="42.26953" lon="18.89498">
        <ele>77.240674</ele>
        <time>2022-05-27T13:06:03.855Z</time>
      </trkpt>
      <trkpt lat="42.26954" lon="18.89474">
        <ele>76.029332</ele>
        <time>2022-05-27T13:06:05.858Z</time>
      </trkpt>
      <trkpt lat="42.26953" lon="18.8945">
        <ele>74.837782</ele>
        <time>2022-05-27T13:06:07.905Z</time>
      </trkpt>
      <trkpt lat="42.26952" lon="18.89436">
        <ele>74.177702</ele>
        <time>2022-05-27T13:06:08.882Z</time>
      </trkpt>
      <trkpt lat="42.26951" lon="18.89422">
        <ele>73.477961</ele>
        <time>2022-05-27T13:06:09.861Z</time>
      </trkpt>
      <trkpt lat="42.2695" lon="18.89408">
        <ele>72.777438</ele>
        <time>2022-05-27T13:06:10.872Z</time>
      </trkpt>
      <trkpt lat="42.26949" lon="18.89395">
        <ele>72.159274</ele>
        <time>2022-05-27T13:06:11.869Z</time>
      </trkpt>
      <trkpt lat="42.2695" lon="18.89381">
        <ele>71.463264</ele>
        <time>2022-05-27T13:06:12.862Z</time>
      </trkpt>
      <trkpt lat="42.26952" lon="18.89366">
        <ele>70.707117</ele>
        <time>2022-05-27T13:06:13.866Z</time>
      </trkpt>
      <trkpt lat="42.26957" lon="18.89352">
        <ele>69.967798</ele>
        <time>2022-05-27T13:06:14.860Z</time>
      </trkpt>
      <trkpt lat="42.26962" lon="18.89338">
        <ele>69.201526</ele>
        <time>2022-05-27T13:06:15.861Z</time>
      </trkpt>
      <trkpt lat="42.26968" lon="18.89325">
        <ele>68.432035</ele>
        <time>2022-05-27T13:06:16.867Z</time>
      </trkpt>
      <trkpt lat="42.26974" lon="18.89314">
        <ele>67.762754</ele>
        <time>2022-05-27T13:06:17.867Z</time>
      </trkpt>
      <trkpt lat="42.26979" lon="18.89303">
        <ele>67.140933</ele>
        <time>2022-05-27T13:06:18.900Z</time>
      </trkpt>
      <trkpt lat="42.26989" lon="18.89284">
        <ele>65.990915</ele>
        <time>2022-05-27T13:06:20.880Z</time>
      </trkpt>
      <trkpt lat="42.26996" lon="18.89266">
        <ele>65.393896</ele>
        <time>2022-05-27T13:06:22.839Z</time>
      </trkpt>
      <trkpt lat="42.27002" lon="18.89247">
        <ele>66.110844</ele>
        <time>2022-05-27T13:06:24.844Z</time>
      </trkpt>
      <trkpt lat="42.27009" lon="18.8923">
        <ele>66.787945</ele>
        <time>2022-05-27T13:06:26.839Z</time>
      </trkpt>
      <trkpt lat="42.27015" lon="18.89214">
        <ele>67.407826</ele>
        <time>2022-05-27T13:06:28.835Z</time>
      </trkpt>
      <trkpt lat="42.2702" lon="18.892">
        <ele>67.917143</ele>
        <time>2022-05-27T13:06:30.840Z</time>
      </trkpt>
      <trkpt lat="42.27023" lon="18.89188">
        <ele>68.356013</ele>
        <time>2022-05-27T13:06:32.829Z</time>
      </trkpt>
      <trkpt lat="42.27029" lon="18.89173">
        <ele>68.927146</ele>
        <time>2022-05-27T13:06:35.848Z</time>
      </trkpt>
      <trkpt lat="42.27035" lon="18.89162">
        <ele>69.371653</ele>
        <time>2022-05-27T13:06:38.833Z</time>
      </trkpt>
      <trkpt lat="42.27042" lon="18.89151">
        <ele>69.87248</ele>
        <time>2022-05-27T13:06:43.830Z</time>
      </trkpt>
      <trkpt lat="42.27048" lon="18.89142">
        <ele>70.292833</ele>
        <time>2022-05-27T13:06:48.849Z</time>
      </trkpt>
      <trkpt lat="42.27054" lon="18.89133">
        <ele>70.735474</ele>
        <time>2022-05-27T13:06:55.829Z</time>
      </trkpt>
      <trkpt lat="42.27061" lon="18.89123">
        <ele>71.198054</ele>
        <time>2022-05-27T13:07:03.840Z</time>
      </trkpt>
      <trkpt lat="42.27068" lon="18.89113">
        <ele>71.669975</ele>
        <time>2022-05-27T13:07:10.834Z</time>
      </trkpt>
      <trkpt lat="42.27075" lon="18.89104">
        <ele>72.089987</ele>
        <time>2022-05-27T13:07:16.829Z</time>
      </trkpt>
      <trkpt lat="42.27083" lon="18.89095">
        <ele>72.562662</ele>
        <time>2022-05-27T13:07:22.836Z</time>
      </trkpt>
      <trkpt lat="42.2709" lon="18.89088">
        <ele>72.977976</ele>
        <time>2022-05-27T13:07:28.834Z</time>
      </trkpt>
      <trkpt lat="42.27098" lon="18.8908">
        <ele>73.44385</ele>
        <time>2022-05-27T13:07:34.829Z</time>
      </trkpt>
      <trkpt lat="42.27106" lon="18.89073">
        <ele>73.783345</ele>
        <time>2022-05-27T13:07:40.843Z</time>
      </trkpt>
      <trkpt lat="42.27115" lon="18.89067">
        <ele>74.087315</ele>
        <time>2022-05-27T13:07:46.827Z</time>
      </trkpt>
      <trkpt lat="42.27125" lon="18.89062">
        <ele>74.418105</ele>
        <time>2022-05-27T13:07:52.852Z</time>
      </trkpt>
      <trkpt lat="42.27134" lon="18.89058">
        <ele>74.724813</ele>
        <time>2022-05-27T13:07:58.850Z</time>
      </trkpt>
      <trkpt lat="42.27143" lon="18.89055">
        <ele>75.012823</ele>
        <time>2022-05-27T13:08:03.831Z</time>
      </trkpt>
      <trkpt lat="42.27152" lon="18.89053">
        <ele>75.307184</ele>
        <time>2022-05-27T13:08:08.845Z</time>
      </trkpt>
      <trkpt lat="42.27161" lon="18.89053">
        <ele>75.602769</ele>
        <time>2022-05-27T13:08:13.829Z</time>
      </trkpt>
      <trkpt lat="42.27172" lon="18.89053">
        <ele>75.942325</ele>
        <time>2022-05-27T13:08:18.841Z</time>
      </trkpt>
      <trkpt lat="42.27182" lon="18.89055">
        <ele>76.279882</ele>
        <time>2022-05-27T13:08:23.836Z</time>
      </trkpt>
      <trkpt lat="42.27192" lon="18.89058">
        <ele>76.609088</ele>
        <time>2022-05-27T13:08:27.844Z</time>
      </trkpt>
      <trkpt lat="42.27204" lon="18.89063">
        <ele>77.004555</ele>
        <time>2022-05-27T13:08:31.835Z</time>
      </trkpt>
      <trkpt lat="42.27215" lon="18.89069">
        <ele>77.380992</ele>
        <time>2022-05-27T13:08:34.851Z</time>
      </trkpt>
      <trkpt lat="42.27227" lon="18.89077">
        <ele>77.786207</ele>
        <time>2022-05-27T13:08:37.829Z</time>
      </trkpt>
      <trkpt lat="42.27239" lon="18.89084">
        <ele>78.199963</ele>
        <time>2022-05-27T13:08:40.836Z</time>
      </trkpt>
      <trkpt lat="42.2725" lon="18.89091">
        <ele>78.597674</ele>
        <time>2022-05-27T13:08:43.862Z</time>
      </trkpt>
      <trkpt lat="42.2726" lon="18.89099">
        <ele>78.968494</ele>
        <time>2022-05-27T13:08:46.843Z</time>
      </trkpt>
      <trkpt lat="42.2727" lon="18.89107">
        <ele>79.075434</ele>
        <time>2022-05-27T13:08:48.846Z</time>
      </trkpt>
      <trkpt lat="42.2728" lon="18.89114">
        <ele>78.271104</ele>
        <time>2022-05-27T13:08:50.830Z</time>
      </trkpt>
      <trkpt lat="42.27291" lon="18.89121">
        <ele>77.382479</ele>
        <time>2022-05-27T13:08:52.840Z</time>
      </trkpt>
      <trkpt lat="42.27304" lon="18.89129">
        <ele>76.388658</ele>
        <time>2022-05-27T13:08:54.860Z</time>
      </trkpt>
      <trkpt lat="42.27316" lon="18.89135">
        <ele>75.434911</ele>
        <time>2022-05-27T13:08:56.836Z</time>
      </trkpt>
      <trkpt lat="42.2733" lon="18.89139">
        <ele>74.441256</ele>
        <time>2022-05-27T13:08:58.842Z</time>
      </trkpt>
      <trkpt lat="42.27344" lon="18.89139">
        <ele>73.436288</ele>
        <time>2022-05-27T13:09:00.845Z</time>
      </trkpt>
      <trkpt lat="42.27358" lon="18.89135">
        <ele>72.416704</ele>
        <time>2022-05-27T13:09:02.834Z</time>
      </trkpt>
      <trkpt lat="42.27373" lon="18.89127">
        <ele>71.321434</ele>
        <time>2022-05-27T13:09:04.835Z</time>
      </trkpt>
      <trkpt lat="42.27385" lon="18.89115">
        <ele>70.256672</ele>
        <time>2022-05-27T13:09:06.842Z</time>
      </trkpt>
      <trkpt lat="42.27395" lon="18.89101">
        <ele>69.241485</ele>
        <time>2022-05-27T13:09:08.878Z</time>
      </trkpt>
      <trkpt lat="42.27402" lon="18.89085">
        <ele>68.264541</ele>
        <time>2022-05-27T13:09:10.866Z</time>
      </trkpt>
      <trkpt lat="42.27407" lon="18.89068">
        <ele>67.290976</ele>
        <time>2022-05-27T13:09:12.858Z</time>
      </trkpt>
      <trkpt lat="42.27413" lon="18.89048">
        <ele>66.48155</ele>
        <time>2022-05-27T13:09:14.835Z</time>
      </trkpt>
      <trkpt lat="42.27418" lon="18.89028">
        <ele>66.368723</ele>
        <time>2022-05-27T13:09:16.836Z</time>
      </trkpt>
      <trkpt lat="42.27424" lon="18.89005">
        <ele>66.246806</ele>
        <time>2022-05-27T13:09:18.896Z</time>
      </trkpt>
      <trkpt lat="42.27427" lon="18.88994">
        <ele>66.184179</ele>
        <time>2022-05-27T13:09:19.836Z</time>
      </trkpt>
      <trkpt lat="42.27433" lon="18.88971">
        <ele>66.063243</ele>
        <time>2022-05-27T13:09:21.840Z</time>
      </trkpt>
      <trkpt lat="42.27439" lon="18.8895">
        <ele>65.948303</ele>
        <time>2022-05-27T13:09:23.849Z</time>
      </trkpt>
      <trkpt lat="42.27446" lon="18.8893">
        <ele>65.834247</ele>
        <time>2022-05-27T13:09:25.841Z</time>
      </trkpt>
      <trkpt lat="42.27453" lon="18.88913">
        <ele>65.733914</ele>
        <time>2022-05-27T13:09:27.836Z</time>
      </trkpt>
      <trkpt lat="42.2746" lon="18.88898">
        <ele>65.642589</ele>
        <time>2022-05-27T13:09:29.839Z</time>
      </trkpt>
      <trkpt lat="42.27468" lon="18.88884">
        <ele>65.550449</ele>
        <time>2022-05-27T13:09:31.856Z</time>
      </trkpt>
      <trkpt lat="42.27477" lon="18.88871">
        <ele>65.464971</ele>
        <time>2022-05-27T13:09:33.846Z</time>
      </trkpt>
      <trkpt lat="42.27484" lon="18.88862">
        <ele>65.393536</ele>
        <time>2022-05-27T13:09:35.830Z</time>
      </trkpt>
      <trkpt lat="42.27493" lon="18.88851">
        <ele>65.310264</ele>
        <time>2022-05-27T13:09:38.843Z</time>
      </trkpt>
      <trkpt lat="42.27502" lon="18.88842">
        <ele>65.639454</ele>
        <time>2022-05-27T13:09:41.848Z</time>
      </trkpt>
      <trkpt lat="42.27509" lon="18.88835">
        <ele>66.361375</ele>
        <time>2022-05-27T13:09:44.839Z</time>
      </trkpt>
      <trkpt lat="42.27518" lon="18.88827">
        <ele>67.1773</ele>
        <time>2022-05-27T13:09:48.837Z</time>
      </trkpt>
      <trkpt lat="42.27528" lon="18.88821">
        <ele>68.032332</ele>
        <time>2022-05-27T13:09:52.850Z</time>
      </trkpt>
      <trkpt lat="42.27537" lon="18.88814">
        <ele>68.802887</ele>
        <time>2022-05-27T13:09:56.826Z</time>
      </trkpt>
      <trkpt lat="42.27546" lon="18.88808">
        <ele>69.591174</ele>
        <time>2022-05-27T13:10:01.843Z</time>
      </trkpt>
      <trkpt lat="42.27555" lon="18.88802">
        <ele>70.334335</ele>
        <time>2022-05-27T13:10:06.829Z</time>
      </trkpt>
      <trkpt lat="42.27563" lon="18.88796">
        <ele>71.047909</ele>
        <time>2022-05-27T13:10:11.843Z</time>
      </trkpt>
      <trkpt lat="42.27571" lon="18.8879">
        <ele>71.747683</ele>
        <time>2022-05-27T13:10:16.862Z</time>
      </trkpt>
      <trkpt lat="42.27579" lon="18.88784">
        <ele>72.476015</ele>
        <time>2022-05-27T13:10:21.830Z</time>
      </trkpt>
      <trkpt lat="42.27587" lon="18.88778">
        <ele>73.192453</ele>
        <time>2022-05-27T13:10:27.834Z</time>
      </trkpt>
      <trkpt lat="42.27596" lon="18.8877">
        <ele>74.032802</ele>
        <time>2022-05-27T13:10:35.840Z</time>
      </trkpt>
      <trkpt lat="42.27603" lon="18.88762">
        <ele>74.735184</ele>
        <time>2022-05-27T13:10:41.841Z</time>
      </trkpt>
      <trkpt lat="42.27609" lon="18.88752">
        <ele>75.485178</ele>
        <time>2022-05-27T13:10:48.858Z</time>
      </trkpt>
      <trkpt lat="42.27615" lon="18.88742">
        <ele>76.24458</ele>
        <time>2022-05-27T13:10:55.861Z</time>
      </trkpt>
      <trkpt lat="42.27621" lon="18.88731">
        <ele>76.999621</ele>
        <time>2022-05-27T13:11:02.842Z</time>
      </trkpt>
      <trkpt lat="42.27625" lon="18.88719">
        <ele>77.737319</ele>
        <time>2022-05-27T13:11:08.835Z</time>
      </trkpt>
      <trkpt lat="42.27629" lon="18.88708">
        <ele>78.462314</ele>
        <time>2022-05-27T13:11:15.840Z</time>
      </trkpt>
      <trkpt lat="42.27631" lon="18.88694">
        <ele>79.109057</ele>
        <time>2022-05-27T13:11:24.833Z</time>
      </trkpt>
      <trkpt lat="42.27634" lon="18.88682">
        <ele>78.031343</ele>
        <time>2022-05-27T13:11:33.838Z</time>
      </trkpt>
      <trkpt lat="42.27637" lon="18.8867">
        <ele>76.978562</ele>
        <time>2022-05-27T13:11:41.882Z</time>
      </trkpt>
      <trkpt lat="42.2764" lon="18.88658">
        <ele>75.99545</ele>
        <time>2022-05-27T13:11:49.838Z</time>
      </trkpt>
      <trkpt lat="42.27643" lon="18.88647">
        <ele>74.98981</ele>
        <time>2022-05-27T13:11:56.834Z</time>
      </trkpt>
      <trkpt lat="42.27641" lon="18.88634">
        <ele>73.967465</ele>
        <time>2022-05-27T13:12:05.830Z</time>
      </trkpt>
      <trkpt lat="42.27642" lon="18.88621">
        <ele>72.892818</ele>
        <time>2022-05-27T13:12:12.853Z</time>
      </trkpt>
      <trkpt lat="42.27643" lon="18.88609">
        <ele>71.898243</ele>
        <time>2022-05-27T13:12:18.869Z</time>
      </trkpt>
      <trkpt lat="42.27642" lon="18.88596">
        <ele>70.861125</ele>
        <time>2022-05-27T13:12:23.841Z</time>
      </trkpt>
      <trkpt lat="42.2764" lon="18.88582">
        <ele>69.711241</ele>
        <time>2022-05-27T13:12:27.836Z</time>
      </trkpt>
      <trkpt lat="42.27636" lon="18.88567">
        <ele>68.401503</ele>
        <time>2022-05-27T13:12:31.843Z</time>
      </trkpt>
      <trkpt lat="42.27633" lon="18.88553">
        <ele>67.245906</ele>
        <time>2022-05-27T13:12:35.840Z</time>
      </trkpt>
      <trkpt lat="42.2763" lon="18.88542">
        <ele>66.251618</ele>
        <time>2022-05-27T13:12:38.844Z</time>
      </trkpt>
      <trkpt lat="42.27627" lon="18.88528">
        <ele>65.099203</ele>
        <time>2022-05-27T13:12:42.843Z</time>
      </trkpt>
      <trkpt lat="42.27623" lon="18.88514">
        <ele>63.83822</ele>
        <time>2022-05-27T13:12:47.842Z</time>
      </trkpt>
      <trkpt lat="42.2762" lon="18.88502">
        <ele>62.817335</ele>
        <time>2022-05-27T13:12:50.863Z</time>
      </trkpt>
      <trkpt lat="42.27615" lon="18.88491">
        <ele>61.808159</ele>
        <time>2022-05-27T13:12:54.840Z</time>
      </trkpt>
      <trkpt lat="42.27613" lon="18.88479">
        <ele>60.743754</ele>
        <time>2022-05-27T13:13:00.837Z</time>
      </trkpt>
      <trkpt lat="42.27609" lon="18.88466">
        <ele>59.603659</ele>
        <time>2022-05-27T13:13:07.834Z</time>
      </trkpt>
      <trkpt lat="42.27607" lon="18.88454">
        <ele>59.362719</ele>
        <time>2022-05-27T13:13:12.833Z</time>
      </trkpt>
      <trkpt lat="42.27603" lon="18.88442">
        <ele>59.259116</ele>
        <time>2022-05-27T13:13:17.829Z</time>
      </trkpt>
      <trkpt lat="42.27602" lon="18.88429">
        <ele>59.153661</ele>
        <time>2022-05-27T13:13:24.841Z</time>
      </trkpt>
      <trkpt lat="42.27604" lon="18.88417">
        <ele>59.054482</ele>
        <time>2022-05-27T13:13:30.835Z</time>
      </trkpt>
      <trkpt lat="42.27605" lon="18.88404">
        <ele>58.953239</ele>
        <time>2022-05-27T13:13:36.841Z</time>
      </trkpt>
      <trkpt lat="42.27614" lon="18.88381">
        <ele>58.735449</ele>
        <time>2022-05-27T13:14:04.839Z</time>
      </trkpt>
      <trkpt lat="42.27644" lon="18.88314">
        <ele>58.105447</ele>
        <time>2022-05-27T13:14:05.836Z</time>
      </trkpt>
      <trkpt lat="42.27649" lon="18.88225">
        <ele>56.905861</ele>
        <time>2022-05-27T13:18:07.002Z</time>
      </trkpt>
      <trkpt lat="42.27664" lon="18.88192">
        <ele>54.947627</ele>
        <time>2022-05-27T13:18:15.853Z</time>
      </trkpt>
      <trkpt lat="42.27667" lon="18.88179">
        <ele>54.256802</ele>
        <time>2022-05-27T13:18:18.871Z</time>
      </trkpt>
      <trkpt lat="42.27671" lon="18.88166">
        <ele>53.513903</ele>
        <time>2022-05-27T13:18:22.857Z</time>
      </trkpt>
      <trkpt lat="42.27674" lon="18.88153">
        <ele>52.837459</ele>
        <time>2022-05-27T13:18:26.865Z</time>
      </trkpt>
      <trkpt lat="42.27679" lon="18.88143">
        <ele>52.224207</ele>
        <time>2022-05-27T13:18:31.876Z</time>
      </trkpt>
      <trkpt lat="42.27687" lon="18.88135">
        <ele>51.543877</ele>
        <time>2022-05-27T13:18:35.862Z</time>
      </trkpt>
      <trkpt lat="42.27696" lon="18.88126">
        <ele>50.775907</ele>
        <time>2022-05-27T13:18:39.891Z</time>
      </trkpt>
      <trkpt lat="42.27704" lon="18.88117">
        <ele>50.072883</ele>
        <time>2022-05-27T13:18:43.850Z</time>
      </trkpt>
      <trkpt lat="42.2771" lon="18.88108">
        <ele>49.441101</ele>
        <time>2022-05-27T13:18:47.863Z</time>
      </trkpt>
      <trkpt lat="42.27717" lon="18.88097">
        <ele>48.710605</ele>
        <time>2022-05-27T13:18:52.856Z</time>
      </trkpt>
      <trkpt lat="42.27724" lon="18.88088">
        <ele>48.061846</ele>
        <time>2022-05-27T13:18:57.866Z</time>
      </trkpt>
      <trkpt lat="42.2773" lon="18.88078">
        <ele>47.416909</ele>
        <time>2022-05-27T13:19:02.854Z</time>
      </trkpt>
      <trkpt lat="42.27738" lon="18.88084">
        <ele>46.782625</ele>
        <time>2022-05-27T13:19:08.857Z</time>
      </trkpt>
      <trkpt lat="42.27747" lon="18.88076">
        <ele>46.050889</ele>
        <time>2022-05-27T13:19:13.868Z</time>
      </trkpt>
      <trkpt lat="42.27758" lon="18.88074">
        <ele>45.321583</ele>
        <time>2022-05-27T13:19:17.889Z</time>
      </trkpt>
      <trkpt lat="42.27764" lon="18.88084">
        <ele>45.225463</ele>
        <time>2022-05-27T13:19:20.858Z</time>
      </trkpt>
      <trkpt lat="42.27772" lon="18.88094">
        <ele>45.289545</ele>
        <time>2022-05-27T13:19:23.820Z</time>
      </trkpt>
      <trkpt lat="42.27779" lon="18.88102">
        <ele>45.349203</ele>
        <time>2022-05-27T13:19:27.847Z</time>
      </trkpt>
      <trkpt lat="42.27786" lon="18.8811">
        <ele>45.407423</ele>
        <time>2022-05-27T13:19:31.878Z</time>
      </trkpt>
      <trkpt lat="42.27793" lon="18.88121">
        <ele>45.470694</ele>
        <time>2022-05-27T13:19:35.859Z</time>
      </trkpt>
      <trkpt lat="42.27801" lon="18.88128">
        <ele>45.529375</ele>
        <time>2022-05-27T13:19:39.882Z</time>
      </trkpt>
      <trkpt lat="42.27809" lon="18.88135">
        <ele>45.588028</ele>
        <time>2022-05-27T13:19:42.829Z</time>
      </trkpt>
      <trkpt lat="42.27818" lon="18.88145">
        <ele>45.657476</ele>
        <time>2022-05-27T13:19:46.839Z</time>
      </trkpt>
      <trkpt lat="42.27827" lon="18.88153">
        <ele>45.728866</ele>
        <time>2022-05-27T13:19:50.900Z</time>
      </trkpt>
      <trkpt lat="42.27834" lon="18.88162">
        <ele>45.785489</ele>
        <time>2022-05-27T13:19:54.847Z</time>
      </trkpt>
      <trkpt lat="42.27842" lon="18.88171">
        <ele>45.847351</ele>
        <time>2022-05-27T13:19:58.834Z</time>
      </trkpt>
      <trkpt lat="42.27849" lon="18.88179">
        <ele>45.906499</ele>
        <time>2022-05-27T13:20:02.845Z</time>
      </trkpt>
      <trkpt lat="42.27858" lon="18.88188">
        <ele>45.973559</ele>
        <time>2022-05-27T13:20:06.843Z</time>
      </trkpt>
      <trkpt lat="42.27867" lon="18.88195">
        <ele>46.039395</ele>
        <time>2022-05-27T13:20:10.842Z</time>
      </trkpt>
      <trkpt lat="42.27876" lon="18.88197">
        <ele>46.095997</ele>
        <time>2022-05-27T13:20:14.847Z</time>
      </trkpt>
      <trkpt lat="42.27887" lon="18.88197">
        <ele>46.162479</ele>
        <time>2022-05-27T13:20:18.903Z</time>
      </trkpt>
      <trkpt lat="42.27897" lon="18.88194">
        <ele>46.22714</ele>
        <time>2022-05-27T13:20:22.843Z</time>
      </trkpt>
      <trkpt lat="42.27906" lon="18.88189">
        <ele>46.294864</ele>
        <time>2022-05-27T13:20:26.846Z</time>
      </trkpt>
      <trkpt lat="42.27918" lon="18.88191">
        <ele>46.50063</ele>
        <time>2022-05-27T13:20:31.851Z</time>
      </trkpt>
      <trkpt lat="42.27927" lon="18.88191">
        <ele>46.666004</ele>
        <time>2022-05-27T13:20:36.871Z</time>
      </trkpt>
      <trkpt lat="42.27935" lon="18.88181">
        <ele>46.871297</ele>
        <time>2022-05-27T13:20:42.833Z</time>
      </trkpt>
      <trkpt lat="42.27943" lon="18.88172">
        <ele>47.061689</ele>
        <time>2022-05-27T13:20:47.854Z</time>
      </trkpt>
      <trkpt lat="42.27951" lon="18.88163">
        <ele>47.249636</ele>
        <time>2022-05-27T13:20:53.884Z</time>
      </trkpt>
      <trkpt lat="42.27958" lon="18.88152">
        <ele>47.454248</ele>
        <time>2022-05-27T13:20:58.891Z</time>
      </trkpt>
      <trkpt lat="42.27966" lon="18.88143">
        <ele>47.638998</ele>
        <time>2022-05-27T13:21:03.878Z</time>
      </trkpt>
      <trkpt lat="42.27973" lon="18.88134">
        <ele>47.819204</ele>
        <time>2022-05-27T13:21:08.837Z</time>
      </trkpt>
      <trkpt lat="42.2798" lon="18.88125">
        <ele>47.988053</ele>
        <time>2022-05-27T13:21:12.853Z</time>
      </trkpt>
      <trkpt lat="42.27986" lon="18.88117">
        <ele>48.152781</ele>
        <time>2022-05-27T13:21:17.858Z</time>
      </trkpt>
      <trkpt lat="42.27993" lon="18.88109">
        <ele>48.320713</ele>
        <time>2022-05-27T13:21:26.842Z</time>
      </trkpt>
      <trkpt lat="42.28001" lon="18.88101">
        <ele>48.502288</ele>
        <time>2022-05-27T13:21:33.839Z</time>
      </trkpt>
      <trkpt lat="42.28008" lon="18.88093">
        <ele>48.671605</ele>
        <time>2022-05-27T13:21:37.858Z</time>
      </trkpt>
      <trkpt lat="42.28016" lon="18.88086">
        <ele>48.836071</ele>
        <time>2022-05-27T13:21:40.854Z</time>
      </trkpt>
      <trkpt lat="42.28025" lon="18.88076">
        <ele>49.050152</ele>
        <time>2022-05-27T13:21:44.849Z</time>
      </trkpt>
      <trkpt lat="42.28032" lon="18.88066">
        <ele>49.242107</ele>
        <time>2022-05-27T13:21:48.842Z</time>
      </trkpt>
      <trkpt lat="42.28038" lon="18.88054">
        <ele>49.443214</ele>
        <time>2022-05-27T13:21:53.852Z</time>
      </trkpt>
      <trkpt lat="42.28044" lon="18.88041">
        <ele>49.684392</ele>
        <time>2022-05-27T13:21:57.852Z</time>
      </trkpt>
      <trkpt lat="42.28047" lon="18.88029">
        <ele>49.960521</ele>
        <time>2022-05-27T13:22:00.838Z</time>
      </trkpt>
      <trkpt lat="42.28048" lon="18.88017">
        <ele>50.249409</ele>
        <time>2022-05-27T13:22:03.848Z</time>
      </trkpt>
      <trkpt lat="42.28049" lon="18.88001">
        <ele>50.593715</ele>
        <time>2022-05-27T13:22:07.871Z</time>
      </trkpt>
      <trkpt lat="42.2805" lon="18.87986">
        <ele>50.925047</ele>
        <time>2022-05-27T13:22:11.926Z</time>
      </trkpt>
      <trkpt lat="42.28053" lon="18.87973">
        <ele>51.231864</ele>
        <time>2022-05-27T13:22:15.845Z</time>
      </trkpt>
      <trkpt lat="42.28056" lon="18.8796">
        <ele>51.545552</ele>
        <time>2022-05-27T13:22:19.852Z</time>
      </trkpt>
      <trkpt lat="42.28059" lon="18.87948">
        <ele>51.825489</ele>
        <time>2022-05-27T13:22:23.859Z</time>
      </trkpt>
      <trkpt lat="42.28064" lon="18.87935">
        <ele>52.129775</ele>
        <time>2022-05-27T13:22:28.876Z</time>
      </trkpt>
      <trkpt lat="42.28067" lon="18.87921">
        <ele>52.456761</ele>
        <time>2022-05-27T13:22:33.852Z</time>
      </trkpt>
      <trkpt lat="42.2807" lon="18.87907">
        <ele>52.788903</ele>
        <time>2022-05-27T13:22:38.848Z</time>
      </trkpt>
      <trkpt lat="42.28072" lon="18.87894">
        <ele>53.095295</ele>
        <time>2022-05-27T13:22:42.853Z</time>
      </trkpt>
      <trkpt lat="42.28074" lon="18.8788">
        <ele>53.407672</ele>
        <time>2022-05-27T13:22:45.845Z</time>
      </trkpt>
      <trkpt lat="42.28077" lon="18.87868">
        <ele>53.692632</ele>
        <time>2022-05-27T13:22:48.886Z</time>
      </trkpt>
      <trkpt lat="42.2808" lon="18.87856">
        <ele>53.96876</ele>
        <time>2022-05-27T13:22:52.844Z</time>
      </trkpt>
      <trkpt lat="42.28081" lon="18.87841">
        <ele>54.303665</ele>
        <time>2022-05-27T13:22:57.865Z</time>
      </trkpt>
      <trkpt lat="42.2808" lon="18.87827">
        <ele>54.608781</ele>
        <time>2022-05-27T13:23:02.856Z</time>
      </trkpt>
      <trkpt lat="42.28084" lon="18.87816">
        <ele>54.882983</ele>
        <time>2022-05-27T13:23:07.864Z</time>
      </trkpt>
      <trkpt lat="42.28088" lon="18.87804">
        <ele>54.891523</ele>
        <time>2022-05-27T13:23:11.854Z</time>
      </trkpt>
      <trkpt lat="42.28092" lon="18.87789">
        <ele>54.67705</ele>
        <time>2022-05-27T13:23:15.834Z</time>
      </trkpt>
      <trkpt lat="42.28095" lon="18.87776">
        <ele>54.492851</ele>
        <time>2022-05-27T13:23:18.848Z</time>
      </trkpt>
      <trkpt lat="42.28101" lon="18.87763">
        <ele>54.289998</ele>
        <time>2022-05-27T13:23:22.857Z</time>
      </trkpt>
      <trkpt lat="42.28105" lon="18.8775">
        <ele>54.09813</ele>
        <time>2022-05-27T13:23:26.858Z</time>
      </trkpt>
      <trkpt lat="42.2811" lon="18.87737">
        <ele>53.913467</ele>
        <time>2022-05-27T13:23:30.860Z</time>
      </trkpt>
      <trkpt lat="42.28113" lon="18.87724">
        <ele>53.721081</ele>
        <time>2022-05-27T13:23:34.849Z</time>
      </trkpt>
      <trkpt lat="42.28116" lon="18.87711">
        <ele>53.534324</ele>
        <time>2022-05-27T13:23:38.853Z</time>
      </trkpt>
      <trkpt lat="42.28118" lon="18.87698">
        <ele>53.359671</ele>
        <time>2022-05-27T13:23:41.862Z</time>
      </trkpt>
      <trkpt lat="42.28119" lon="18.87686">
        <ele>53.192545</ele>
        <time>2022-05-27T13:23:44.879Z</time>
      </trkpt>
      <trkpt lat="42.28123" lon="18.87671">
        <ele>52.990696</ele>
        <time>2022-05-27T13:23:47.877Z</time>
      </trkpt>
      <trkpt lat="42.28123" lon="18.87656">
        <ele>52.787457</ele>
        <time>2022-05-27T13:23:50.849Z</time>
      </trkpt>
      <trkpt lat="42.28125" lon="18.87643">
        <ele>52.602763</ele>
        <time>2022-05-27T13:23:53.848Z</time>
      </trkpt>
      <trkpt lat="42.28127" lon="18.87629">
        <ele>52.41035</ele>
        <time>2022-05-27T13:23:56.855Z</time>
      </trkpt>
      <trkpt lat="42.28129" lon="18.87616">
        <ele>52.23043</ele>
        <time>2022-05-27T13:23:59.878Z</time>
      </trkpt>
      <trkpt lat="42.28132" lon="18.87603">
        <ele>52.047793</ele>
        <time>2022-05-27T13:24:02.851Z</time>
      </trkpt>
      <trkpt lat="42.28135" lon="18.8759">
        <ele>51.872416</ele>
        <time>2022-05-27T13:24:05.850Z</time>
      </trkpt>
      <trkpt lat="42.28138" lon="18.87575">
        <ele>51.544661</ele>
        <time>2022-05-27T13:24:09.849Z</time>
      </trkpt>
      <trkpt lat="42.28139" lon="18.87562">
        <ele>51.094927</ele>
        <time>2022-05-27T13:24:12.826Z</time>
      </trkpt>
      <trkpt lat="42.28141" lon="18.87549">
        <ele>50.646641</ele>
        <time>2022-05-27T13:24:15.837Z</time>
      </trkpt>
      <trkpt lat="42.28142" lon="18.87534">
        <ele>50.106365</ele>
        <time>2022-05-27T13:24:19.866Z</time>
      </trkpt>
      <trkpt lat="42.28143" lon="18.87518">
        <ele>49.538375</ele>
        <time>2022-05-27T13:24:23.827Z</time>
      </trkpt>
      <trkpt lat="42.28144" lon="18.87505">
        <ele>49.081145</ele>
        <time>2022-05-27T13:24:26.855Z</time>
      </trkpt>
      <trkpt lat="42.28146" lon="18.87491">
        <ele>48.583223</ele>
        <time>2022-05-27T13:24:29.834Z</time>
      </trkpt>
      <trkpt lat="42.28147" lon="18.87478">
        <ele>48.130595</ele>
        <time>2022-05-27T13:24:32.841Z</time>
      </trkpt>
      <trkpt lat="42.28146" lon="18.87465">
        <ele>47.689787</ele>
        <time>2022-05-27T13:24:35.832Z</time>
      </trkpt>
      <trkpt lat="42.28147" lon="18.87453">
        <ele>47.245081</ele>
        <time>2022-05-27T13:24:38.837Z</time>
      </trkpt>
      <trkpt lat="42.28147" lon="18.87437">
        <ele>46.693842</ele>
        <time>2022-05-27T13:24:42.867Z</time>
      </trkpt>
      <trkpt lat="42.28147" lon="18.87425">
        <ele>46.268486</ele>
        <time>2022-05-27T13:24:45.825Z</time>
      </trkpt>
      <trkpt lat="42.28147" lon="18.87412">
        <ele>45.839646</ele>
        <time>2022-05-27T13:24:48.827Z</time>
      </trkpt>
      <trkpt lat="42.28147" lon="18.87397">
        <ele>45.292396</ele>
        <time>2022-05-27T13:24:52.831Z</time>
      </trkpt>
      <trkpt lat="42.28147" lon="18.87381">
        <ele>44.748612</ele>
        <time>2022-05-27T13:24:56.831Z</time>
      </trkpt>
      <trkpt lat="42.28146" lon="18.87366">
        <ele>44.219248</ele>
        <time>2022-05-27T13:25:00.832Z</time>
      </trkpt>
      <trkpt lat="42.28146" lon="18.87353">
        <ele>43.769499</ele>
        <time>2022-05-27T13:25:04.836Z</time>
      </trkpt>
      <trkpt lat="42.28148" lon="18.87339">
        <ele>43.274778</ele>
        <time>2022-05-27T13:25:10.861Z</time>
      </trkpt>
      <trkpt lat="42.28151" lon="18.87305">
        <ele>43.185292</ele>
        <time>2022-05-27T13:25:41.860Z</time>
      </trkpt>
      <trkpt lat="42.28152" lon="18.87292">
        <ele>43.157923</ele>
        <time>2022-05-27T13:25:44.894Z</time>
      </trkpt>
      <trkpt lat="42.28154" lon="18.8728">
        <ele>43.131138</ele>
        <time>2022-05-27T13:25:47.869Z</time>
      </trkpt>
      <trkpt lat="42.28154" lon="18.87264">
        <ele>43.098684</ele>
        <time>2022-05-27T13:25:51.864Z</time>
      </trkpt>
      <trkpt lat="42.28155" lon="18.87249">
        <ele>43.066068</ele>
        <time>2022-05-27T13:25:55.909Z</time>
      </trkpt>
      <trkpt lat="42.28155" lon="18.87234">
        <ele>43.035164</ele>
        <time>2022-05-27T13:25:59.869Z</time>
      </trkpt>
      <trkpt lat="42.28155" lon="18.87219">
        <ele>43.00319</ele>
        <time>2022-05-27T13:26:03.857Z</time>
      </trkpt>
      <trkpt lat="42.28155" lon="18.87205">
        <ele>42.973725</ele>
        <time>2022-05-27T13:26:07.862Z</time>
      </trkpt>
      <trkpt lat="42.28154" lon="18.87192">
        <ele>42.947189</ele>
        <time>2022-05-27T13:26:10.858Z</time>
      </trkpt>
      <trkpt lat="42.28153" lon="18.87178">
        <ele>42.917918</ele>
        <time>2022-05-27T13:26:13.842Z</time>
      </trkpt>
      <trkpt lat="42.28153" lon="18.87165">
        <ele>42.890576</ele>
        <time>2022-05-27T13:26:16.857Z</time>
      </trkpt>
      <trkpt lat="42.28152" lon="18.87153">
        <ele>42.86405</ele>
        <time>2022-05-27T13:26:19.872Z</time>
      </trkpt>
      <trkpt lat="42.28151" lon="18.8714">
        <ele>42.836849</ele>
        <time>2022-05-27T13:26:22.870Z</time>
      </trkpt>
      <trkpt lat="42.28149" lon="18.87128">
        <ele>42.810078</ele>
        <time>2022-05-27T13:26:25.858Z</time>
      </trkpt>
      <trkpt lat="42.28147" lon="18.87113">
        <ele>42.778398</ele>
        <time>2022-05-27T13:26:29.848Z</time>
      </trkpt>
      <trkpt lat="42.28145" lon="18.87098">
        <ele>42.746704</ele>
        <time>2022-05-27T13:26:33.854Z</time>
      </trkpt>
      <trkpt lat="42.28142" lon="18.87083">
        <ele>42.783803</ele>
        <time>2022-05-27T13:26:37.879Z</time>
      </trkpt>
      <trkpt lat="42.28138" lon="18.87069">
        <ele>42.826815</ele>
        <time>2022-05-27T13:26:41.870Z</time>
      </trkpt>
      <trkpt lat="42.28134" lon="18.87055">
        <ele>42.868985</ele>
        <time>2022-05-27T13:26:45.884Z</time>
      </trkpt>
      <trkpt lat="42.2813" lon="18.87044">
        <ele>42.903493</ele>
        <time>2022-05-27T13:26:48.868Z</time>
      </trkpt>
      <trkpt lat="42.28127" lon="18.87033">
        <ele>42.937671</ele>
        <time>2022-05-27T13:26:51.888Z</time>
      </trkpt>
      <trkpt lat="42.28124" lon="18.8702">
        <ele>42.974617</ele>
        <time>2022-05-27T13:26:54.849Z</time>
      </trkpt>
      <trkpt lat="42.28123" lon="18.87007">
        <ele>43.011287</ele>
        <time>2022-05-27T13:26:57.898Z</time>
      </trkpt>
      <trkpt lat="42.28125" lon="18.86992">
        <ele>43.055488</ele>
        <time>2022-05-27T13:27:01.876Z</time>
      </trkpt>
      <trkpt lat="42.28127" lon="18.86977">
        <ele>43.099136</ele>
        <time>2022-05-27T13:27:05.856Z</time>
      </trkpt>
      <trkpt lat="42.28131" lon="18.86963">
        <ele>43.140571</ele>
        <time>2022-05-27T13:27:09.863Z</time>
      </trkpt>
      <trkpt lat="42.28137" lon="18.86951">
        <ele>43.180454</ele>
        <time>2022-05-27T13:27:13.862Z</time>
      </trkpt>
      <trkpt lat="42.28141" lon="18.86938">
        <ele>43.220964</ele>
        <time>2022-05-27T13:27:17.869Z</time>
      </trkpt>
      <trkpt lat="42.28143" lon="18.86924">
        <ele>43.261667</ele>
        <time>2022-05-27T13:27:21.858Z</time>
      </trkpt>
      <trkpt lat="42.28145" lon="18.8691">
        <ele>43.301581</ele>
        <time>2022-05-27T13:27:25.885Z</time>
      </trkpt>
      <trkpt lat="42.28146" lon="18.86896">
        <ele>43.341618</ele>
        <time>2022-05-27T13:27:29.857Z</time>
      </trkpt>
      <trkpt lat="42.28144" lon="18.86883">
        <ele>43.378314</ele>
        <time>2022-05-27T13:27:32.868Z</time>
      </trkpt>
      <trkpt lat="42.28142" lon="18.8687">
        <ele>43.415522</ele>
        <time>2022-05-27T13:27:35.838Z</time>
      </trkpt>
      <trkpt lat="42.2814" lon="18.86856">
        <ele>43.406588</ele>
        <time>2022-05-27T13:27:38.870Z</time>
      </trkpt>
      <trkpt lat="42.28138" lon="18.86843">
        <ele>43.376582</ele>
        <time>2022-05-27T13:27:41.868Z</time>
      </trkpt>
      <trkpt lat="42.28136" lon="18.8683">
        <ele>43.348481</ele>
        <time>2022-05-27T13:27:44.867Z</time>
      </trkpt>
      <trkpt lat="42.28134" lon="18.86815">
        <ele>43.313118</ele>
        <time>2022-05-27T13:27:48.864Z</time>
      </trkpt>
      <trkpt lat="42.28133" lon="18.86801">
        <ele>43.283143</ele>
        <time>2022-05-27T13:27:51.865Z</time>
      </trkpt>
      <trkpt lat="42.28134" lon="18.86787">
        <ele>43.252121</ele>
        <time>2022-05-27T13:27:54.851Z</time>
      </trkpt>
      <trkpt lat="42.28133" lon="18.86773">
        <ele>43.221104</ele>
        <time>2022-05-27T13:27:57.870Z</time>
      </trkpt>
      <trkpt lat="42.28134" lon="18.86759">
        <ele>43.189859</ele>
        <time>2022-05-27T13:28:00.852Z</time>
      </trkpt>
      <trkpt lat="42.28134" lon="18.86744">
        <ele>43.155941</ele>
        <time>2022-05-27T13:28:03.864Z</time>
      </trkpt>
      <trkpt lat="42.28134" lon="18.8673">
        <ele>43.12374</ele>
        <time>2022-05-27T13:28:06.864Z</time>
      </trkpt>
      <trkpt lat="42.28135" lon="18.86716">
        <ele>43.092547</ele>
        <time>2022-05-27T13:28:09.869Z</time>
      </trkpt>
      <trkpt lat="42.28136" lon="18.86701">
        <ele>43.060052</ele>
        <time>2022-05-27T13:28:12.857Z</time>
      </trkpt>
      <trkpt lat="42.28135" lon="18.86687">
        <ele>43.028161</ele>
        <time>2022-05-27T13:28:15.858Z</time>
      </trkpt>
      <trkpt lat="42.28137" lon="18.86675">
        <ele>43.000021</ele>
        <time>2022-05-27T13:28:20.898Z</time>
      </trkpt>
      <trkpt lat="42.28135" lon="18.86662">
        <ele>42.971811</ele>
        <time>2022-05-27T13:28:24.862Z</time>
      </trkpt>
      <trkpt lat="42.28134" lon="18.86647">
        <ele>42.936754</ele>
        <time>2022-05-27T13:28:28.853Z</time>
      </trkpt>
      <trkpt lat="42.28132" lon="18.86632">
        <ele>42.903158</ele>
        <time>2022-05-27T13:28:32.853Z</time>
      </trkpt>
      <trkpt lat="42.28131" lon="18.86619">
        <ele>42.946688</ele>
        <time>2022-05-27T13:28:36.861Z</time>
      </trkpt>
      <trkpt lat="42.28128" lon="18.86606">
        <ele>43.118544</ele>
        <time>2022-05-27T13:28:41.858Z</time>
      </trkpt>
      <trkpt lat="42.28127" lon="18.86593">
        <ele>43.272347</ele>
        <time>2022-05-27T13:28:45.846Z</time>
      </trkpt>
      <trkpt lat="42.28125" lon="18.86579">
        <ele>43.448902</ele>
        <time>2022-05-27T13:28:51.859Z</time>
      </trkpt>
      <trkpt lat="42.28123" lon="18.86565">
        <ele>43.623997</ele>
        <time>2022-05-27T13:28:55.849Z</time>
      </trkpt>
      <trkpt lat="42.28121" lon="18.8655">
        <ele>43.810133</ele>
        <time>2022-05-27T13:28:59.885Z</time>
      </trkpt>
      <trkpt lat="42.28121" lon="18.86537">
        <ele>43.976071</ele>
        <time>2022-05-27T13:29:02.858Z</time>
      </trkpt>
      <trkpt lat="42.28122" lon="18.86525">
        <ele>44.126039</ele>
        <time>2022-05-27T13:29:05.865Z</time>
      </trkpt>
      <trkpt lat="42.2812" lon="18.8651">
        <ele>44.303132</ele>
        <time>2022-05-27T13:29:09.843Z</time>
      </trkpt>
      <trkpt lat="42.28119" lon="18.86494">
        <ele>44.500153</ele>
        <time>2022-05-27T13:29:13.829Z</time>
      </trkpt>
      <trkpt lat="42.28117" lon="18.86481">
        <ele>44.669689</ele>
        <time>2022-05-27T13:29:17.834Z</time>
      </trkpt>
      <trkpt lat="42.28115" lon="18.86468">
        <ele>44.827664</ele>
        <time>2022-05-27T13:29:21.848Z</time>
      </trkpt>
      <trkpt lat="42.28111" lon="18.86456">
        <ele>44.986212</ele>
        <time>2022-05-27T13:29:25.849Z</time>
      </trkpt>
      <trkpt lat="42.28116" lon="18.86446">
        <ele>45.137396</ele>
        <time>2022-05-27T13:29:31.854Z</time>
      </trkpt>
      <trkpt lat="42.28126" lon="18.86444">
        <ele>45.295691</ele>
        <time>2022-05-27T13:29:35.874Z</time>
      </trkpt>
      <trkpt lat="42.28137" lon="18.86443">
        <ele>45.477197</ele>
        <time>2022-05-27T13:29:39.851Z</time>
      </trkpt>
      <trkpt lat="42.28148" lon="18.86445">
        <ele>45.665791</ele>
        <time>2022-05-27T13:29:43.869Z</time>
      </trkpt>
      <trkpt lat="42.28158" lon="18.86449">
        <ele>45.844889</ele>
        <time>2022-05-27T13:29:47.846Z</time>
      </trkpt>
      <trkpt lat="42.28167" lon="18.86454">
        <ele>46.192722</ele>
        <time>2022-05-27T13:29:51.858Z</time>
      </trkpt>
      <trkpt lat="42.28178" lon="18.8646">
        <ele>46.659268</ele>
        <time>2022-05-27T13:29:55.891Z</time>
      </trkpt>
      <trkpt lat="42.28187" lon="18.86464">
        <ele>47.069363</ele>
        <time>2022-05-27T13:29:58.859Z</time>
      </trkpt>
      <trkpt lat="42.28197" lon="18.86467">
        <ele>47.472956</ele>
        <time>2022-05-27T13:30:01.857Z</time>
      </trkpt>
      <trkpt lat="42.28206" lon="18.86469">
        <ele>47.86841</ele>
        <time>2022-05-27T13:30:04.862Z</time>
      </trkpt>
      <trkpt lat="42.28215" lon="18.8647">
        <ele>48.238915</ele>
        <time>2022-05-27T13:30:07.857Z</time>
      </trkpt>
      <trkpt lat="42.28227" lon="18.86472">
        <ele>48.724916</ele>
        <time>2022-05-27T13:30:11.865Z</time>
      </trkpt>
      <trkpt lat="42.28237" lon="18.86472">
        <ele>49.14341</ele>
        <time>2022-05-27T13:30:15.871Z</time>
      </trkpt>
      <trkpt lat="42.28247" lon="18.86471">
        <ele>49.546225</ele>
        <time>2022-05-27T13:30:20.847Z</time>
      </trkpt>
      <trkpt lat="42.28256" lon="18.86467">
        <ele>49.94562</ele>
        <time>2022-05-27T13:30:24.849Z</time>
      </trkpt>
      <trkpt lat="42.28266" lon="18.86461">
        <ele>50.389055</ele>
        <time>2022-05-27T13:30:29.851Z</time>
      </trkpt>
      <trkpt lat="42.28277" lon="18.8646">
        <ele>50.835161</ele>
        <time>2022-05-27T13:30:33.870Z</time>
      </trkpt>
      <trkpt lat="42.28287" lon="18.86458">
        <ele>51.240166</ele>
        <time>2022-05-27T13:30:37.891Z</time>
      </trkpt>
      <trkpt lat="42.28296" lon="18.86454">
        <ele>51.657056</ele>
        <time>2022-05-27T13:30:41.851Z</time>
      </trkpt>
      <trkpt lat="42.28305" lon="18.86448">
        <ele>52.061129</ele>
        <time>2022-05-27T13:30:45.834Z</time>
      </trkpt>
      <trkpt lat="42.28314" lon="18.86443">
        <ele>52.441471</ele>
        <time>2022-05-27T13:30:49.830Z</time>
      </trkpt>
      <trkpt lat="42.28322" lon="18.86437">
        <ele>52.833512</ele>
        <time>2022-05-27T13:30:53.828Z</time>
      </trkpt>
      <trkpt lat="42.28324" lon="18.86422">
        <ele>53.264561</ele>
        <time>2022-05-27T13:30:58.827Z</time>
      </trkpt>
      <trkpt lat="42.28324" lon="18.8641">
        <ele>53.452351</ele>
        <time>2022-05-27T13:31:02.838Z</time>
      </trkpt>
      <trkpt lat="42.28323" lon="18.86394">
        <ele>53.680891</ele>
        <time>2022-05-27T13:31:06.828Z</time>
      </trkpt>
      <trkpt lat="42.28322" lon="18.86381">
        <ele>53.867628</ele>
        <time>2022-05-27T13:31:10.840Z</time>
      </trkpt>
      <trkpt lat="42.28321" lon="18.86369">
        <ele>54.045177</ele>
        <time>2022-05-27T13:31:15.830Z</time>
      </trkpt>
      <trkpt lat="42.28318" lon="18.86355">
        <ele>54.263312</ele>
        <time>2022-05-27T13:31:21.832Z</time>
      </trkpt>
      <trkpt lat="42.28316" lon="18.86342">
        <ele>54.453447</ele>
        <time>2022-05-27T13:31:25.833Z</time>
      </trkpt>
      <trkpt lat="42.28318" lon="18.86328">
        <ele>54.659859</ele>
        <time>2022-05-27T13:31:30.827Z</time>
      </trkpt>
      <trkpt lat="42.28325" lon="18.86319">
        <ele>54.851598</ele>
        <time>2022-05-27T13:31:36.827Z</time>
      </trkpt>
      <trkpt lat="42.28334" lon="18.86318">
        <ele>55.036137</ele>
        <time>2022-05-27T13:31:42.828Z</time>
      </trkpt>
      <trkpt lat="42.28343" lon="18.86315">
        <ele>55.222715</ele>
        <time>2022-05-27T13:31:48.830Z</time>
      </trkpt>
      <trkpt lat="42.28355" lon="18.86312">
        <ele>55.462432</ele>
        <time>2022-05-27T13:31:56.834Z</time>
      </trkpt>
      <trkpt lat="42.28363" lon="18.86306">
        <ele>55.647265</ele>
        <time>2022-05-27T13:32:01.829Z</time>
      </trkpt>
      <trkpt lat="42.28368" lon="18.86294">
        <ele>55.846109</ele>
        <time>2022-05-27T13:32:07.828Z</time>
      </trkpt>
      <trkpt lat="42.28367" lon="18.8628">
        <ele>56.04405</ele>
        <time>2022-05-27T13:32:12.828Z</time>
      </trkpt>
      <trkpt lat="42.28368" lon="18.86268">
        <ele>56.224785</ele>
        <time>2022-05-27T13:32:17.832Z</time>
      </trkpt>
      <trkpt lat="42.28368" lon="18.86256">
        <ele>56.40362</ele>
        <time>2022-05-27T13:32:22.836Z</time>
      </trkpt>
      <trkpt lat="42.28369" lon="18.86241">
        <ele>56.618993</ele>
        <time>2022-05-27T13:32:28.828Z</time>
      </trkpt>
      <trkpt lat="42.28369" lon="18.86229">
        <ele>56.799727</ele>
        <time>2022-05-27T13:32:33.825Z</time>
      </trkpt>
      <trkpt lat="42.2837" lon="18.86216">
        <ele>57.244519</ele>
        <time>2022-05-27T13:32:39.829Z</time>
      </trkpt>
      <trkpt lat="42.2837" lon="18.86203">
        <ele>57.701492</ele>
        <time>2022-05-27T13:32:44.830Z</time>
      </trkpt>
      <trkpt lat="42.2837" lon="18.8619">
        <ele>58.158642</ele>
        <time>2022-05-27T13:32:49.832Z</time>
      </trkpt>
      <trkpt lat="42.28371" lon="18.86178">
        <ele>58.601343</ele>
        <time>2022-05-27T13:32:55.829Z</time>
      </trkpt>
      <trkpt lat="42.28372" lon="18.86165">
        <ele>59.050976</ele>
        <time>2022-05-27T13:33:01.833Z</time>
      </trkpt>
      <trkpt lat="42.28371" lon="18.86152">
        <ele>59.529153</ele>
        <time>2022-05-27T13:33:07.832Z</time>
      </trkpt>
      <trkpt lat="42.28371" lon="18.86138">
        <ele>60.032862</ele>
        <time>2022-05-27T13:33:13.824Z</time>
      </trkpt>
      <trkpt lat="42.28369" lon="18.86126">
        <ele>60.475271</ele>
        <time>2022-05-27T13:33:18.828Z</time>
      </trkpt>
      <trkpt lat="42.28367" lon="18.86113">
        <ele>60.936086</ele>
        <time>2022-05-27T13:33:23.837Z</time>
      </trkpt>
      <trkpt lat="42.28363" lon="18.861">
        <ele>61.436441</ele>
        <time>2022-05-27T13:33:29.825Z</time>
      </trkpt>
      <trkpt lat="42.28358" lon="18.86088">
        <ele>61.926077</ele>
        <time>2022-05-27T13:33:35.831Z</time>
      </trkpt>
      <trkpt lat="42.28353" lon="18.86076">
        <ele>62.41815</ele>
        <time>2022-05-27T13:33:41.828Z</time>
      </trkpt>
      <trkpt lat="42.28347" lon="18.86066">
        <ele>62.871566</ele>
        <time>2022-05-27T13:33:47.852Z</time>
      </trkpt>
      <trkpt lat="42.2834" lon="18.86055">
        <ele>63.389309</ele>
        <time>2022-05-27T13:33:53.865Z</time>
      </trkpt>
      <trkpt lat="42.28333" lon="18.86046">
        <ele>63.862719</ele>
        <time>2022-05-27T13:33:58.828Z</time>
      </trkpt>
      <trkpt lat="42.28325" lon="18.86037">
        <ele>64.363951</ele>
        <time>2022-05-27T13:34:04.835Z</time>
      </trkpt>
      <trkpt lat="42.28318" lon="18.86029">
        <ele>64.796427</ele>
        <time>2022-05-27T13:34:09.831Z</time>
      </trkpt>
      <trkpt lat="42.28311" lon="18.86021">
        <ele>65.251242</ele>
        <time>2022-05-27T13:34:14.836Z</time>
      </trkpt>
      <trkpt lat="42.28303" lon="18.86013">
        <ele>65.630608</ele>
        <time>2022-05-27T13:34:20.842Z</time>
      </trkpt>
      <trkpt lat="42.28296" lon="18.86005">
        <ele>65.869335</ele>
        <time>2022-05-27T13:34:25.830Z</time>
      </trkpt>
      <trkpt lat="42.28288" lon="18.85996">
        <ele>66.131736</ele>
        <time>2022-05-27T13:34:31.827Z</time>
      </trkpt>
      <trkpt lat="42.2828" lon="18.85987">
        <ele>66.404254</ele>
        <time>2022-05-27T13:34:37.836Z</time>
      </trkpt>
      <trkpt lat="42.28274" lon="18.85977">
        <ele>66.650636</ele>
        <time>2022-05-27T13:34:42.832Z</time>
      </trkpt>
      <trkpt lat="42.28268" lon="18.85966">
        <ele>66.89641</ele>
        <time>2022-05-27T13:34:48.829Z</time>
      </trkpt>
      <trkpt lat="42.28262" lon="18.85955">
        <ele>67.16107</ele>
        <time>2022-05-27T13:34:54.825Z</time>
      </trkpt>
      <trkpt lat="42.28259" lon="18.85943">
        <ele>67.409274</ele>
        <time>2022-05-27T13:35:00.829Z</time>
      </trkpt>
      <trkpt lat="42.28256" lon="18.85928">
        <ele>67.696212</ele>
        <time>2022-05-27T13:35:06.826Z</time>
      </trkpt>
      <trkpt lat="42.28255" lon="18.85914">
        <ele>67.974472</ele>
        <time>2022-05-27T13:35:11.841Z</time>
      </trkpt>
      <trkpt lat="42.28256" lon="18.859">
        <ele>68.229441</ele>
        <time>2022-05-27T13:35:16.831Z</time>
      </trkpt>
      <trkpt lat="42.28258" lon="18.85888">
        <ele>68.475675</ele>
        <time>2022-05-27T13:35:21.831Z</time>
      </trkpt>
      <trkpt lat="42.28262" lon="18.85873">
        <ele>68.768713</ele>
        <time>2022-05-27T13:35:26.833Z</time>
      </trkpt>
      <trkpt lat="42.28266" lon="18.85862">
        <ele>69.006348</ele>
        <time>2022-05-27T13:35:30.841Z</time>
      </trkpt>
      <trkpt lat="42.28272" lon="18.85851">
        <ele>69.260384</ele>
        <time>2022-05-27T13:35:34.844Z</time>
      </trkpt>
      <trkpt lat="42.28277" lon="18.85838">
        <ele>69.539406</ele>
        <time>2022-05-27T13:35:38.843Z</time>
      </trkpt>
      <trkpt lat="42.28281" lon="18.85826">
        <ele>69.795896</ele>
        <time>2022-05-27T13:35:42.833Z</time>
      </trkpt>
      <trkpt lat="42.28287" lon="18.85813">
        <ele>70.088227</ele>
        <time>2022-05-27T13:35:46.827Z</time>
      </trkpt>
      <trkpt lat="42.28293" lon="18.85801">
        <ele>70.262121</ele>
        <time>2022-05-27T13:35:49.826Z</time>
      </trkpt>
      <trkpt lat="42.283" lon="18.85787">
        <ele>70.451236</ele>
        <time>2022-05-27T13:35:52.842Z</time>
      </trkpt>
      <trkpt lat="42.28304" lon="18.85776">
        <ele>70.584551</ele>
        <time>2022-05-27T13:35:54.842Z</time>
      </trkpt>
      <trkpt lat="42.28312" lon="18.85761">
        <ele>70.776969</ele>
        <time>2022-05-27T13:35:57.832Z</time>
      </trkpt>
      <trkpt lat="42.28321" lon="18.85749">
        <ele>70.966074</ele>
        <time>2022-05-27T13:36:00.841Z</time>
      </trkpt>
      <trkpt lat="42.28331" lon="18.85743">
        <ele>71.136184</ele>
        <time>2022-05-27T13:36:03.825Z</time>
      </trkpt>
      <trkpt lat="42.28339" lon="18.8573">
        <ele>71.312879</ele>
        <time>2022-05-27T13:36:06.838Z</time>
      </trkpt>
      <trkpt lat="42.28342" lon="18.85716">
        <ele>71.474131</ele>
        <time>2022-05-27T13:36:08.845Z</time>
      </trkpt>
      <trkpt lat="42.28346" lon="18.85702">
        <ele>71.634125</ele>
        <time>2022-05-27T13:36:10.829Z</time>
      </trkpt>
      <trkpt lat="42.28352" lon="18.85689">
        <ele>71.802254</ele>
        <time>2022-05-27T13:36:12.827Z</time>
      </trkpt>
      <trkpt lat="42.28359" lon="18.85676">
        <ele>71.974423</ele>
        <time>2022-05-27T13:36:14.839Z</time>
      </trkpt>
      <trkpt lat="42.28367" lon="18.85666">
        <ele>72.134822</ele>
        <time>2022-05-27T13:36:16.832Z</time>
      </trkpt>
      <trkpt lat="42.28376" lon="18.85655">
        <ele>72.313031</ele>
        <time>2022-05-27T13:36:18.835Z</time>
      </trkpt>
      <trkpt lat="42.28386" lon="18.85643">
        <ele>72.514106</ele>
        <time>2022-05-27T13:36:20.833Z</time>
      </trkpt>
      <trkpt lat="42.28397" lon="18.85629">
        <ele>72.734828</ele>
        <time>2022-05-27T13:36:22.840Z</time>
      </trkpt>
      <trkpt lat="42.28409" lon="18.85615">
        <ele>72.296705</ele>
        <time>2022-05-27T13:36:24.829Z</time>
      </trkpt>
      <trkpt lat="42.28422" lon="18.85602">
        <ele>71.678012</ele>
        <time>2022-05-27T13:36:26.837Z</time>
      </trkpt>
      <trkpt lat="42.28434" lon="18.85587">
        <ele>71.046913</ele>
        <time>2022-05-27T13:36:28.838Z</time>
      </trkpt>
      <trkpt lat="42.28446" lon="18.85571">
        <ele>70.410922</ele>
        <time>2022-05-27T13:36:30.848Z</time>
      </trkpt>
      <trkpt lat="42.28458" lon="18.85555">
        <ele>69.756486</ele>
        <time>2022-05-27T13:36:32.841Z</time>
      </trkpt>
      <trkpt lat="42.2847" lon="18.85538">
        <ele>69.089209</ele>
        <time>2022-05-27T13:36:34.828Z</time>
      </trkpt>
      <trkpt lat="42.28482" lon="18.85521">
        <ele>68.439524</ele>
        <time>2022-05-27T13:36:36.834Z</time>
      </trkpt>
      <trkpt lat="42.28493" lon="18.85505">
        <ele>67.815774</ele>
        <time>2022-05-27T13:36:38.826Z</time>
      </trkpt>
      <trkpt lat="42.28505" lon="18.85489">
        <ele>67.17543</ele>
        <time>2022-05-27T13:36:40.830Z</time>
      </trkpt>
      <trkpt lat="42.28519" lon="18.85473">
        <ele>66.478908</ele>
        <time>2022-05-27T13:36:42.829Z</time>
      </trkpt>
      <trkpt lat="42.28526" lon="18.85464">
        <ele>66.10792</ele>
        <time>2022-05-27T13:36:43.823Z</time>
      </trkpt>
      <trkpt lat="42.28534" lon="18.85457">
        <ele>65.58187</ele>
        <time>2022-05-27T13:36:44.827Z</time>
      </trkpt>
      <trkpt lat="42.28542" lon="18.85449">
        <ele>64.932411</ele>
        <time>2022-05-27T13:36:45.824Z</time>
      </trkpt>
      <trkpt lat="42.28551" lon="18.85442">
        <ele>64.209612</ele>
        <time>2022-05-27T13:36:46.843Z</time>
      </trkpt>
      <trkpt lat="42.2856" lon="18.85435">
        <ele>63.539644</ele>
        <time>2022-05-27T13:36:47.827Z</time>
      </trkpt>
      <trkpt lat="42.28575" lon="18.85423">
        <ele>62.382437</ele>
        <time>2022-05-27T13:36:49.828Z</time>
      </trkpt>
      <trkpt lat="42.28589" lon="18.8541">
        <ele>61.245788</ele>
        <time>2022-05-27T13:36:51.828Z</time>
      </trkpt>
      <trkpt lat="42.286" lon="18.85398">
        <ele>60.260172</ele>
        <time>2022-05-27T13:36:53.831Z</time>
      </trkpt>
      <trkpt lat="42.28612" lon="18.85385">
        <ele>59.228385</ele>
        <time>2022-05-27T13:36:55.831Z</time>
      </trkpt>
      <trkpt lat="42.28624" lon="18.85369">
        <ele>58.085267</ele>
        <time>2022-05-27T13:36:57.836Z</time>
      </trkpt>
      <trkpt lat="42.28635" lon="18.85353">
        <ele>57.01449</ele>
        <time>2022-05-27T13:36:59.845Z</time>
      </trkpt>
      <trkpt lat="42.28644" lon="18.85337">
        <ele>55.989675</ele>
        <time>2022-05-27T13:37:01.834Z</time>
      </trkpt>
      <trkpt lat="42.28652" lon="18.85319">
        <ele>54.92274</ele>
        <time>2022-05-27T13:37:03.844Z</time>
      </trkpt>
      <trkpt lat="42.28659" lon="18.85301">
        <ele>53.932651</ele>
        <time>2022-05-27T13:37:05.833Z</time>
      </trkpt>
      <trkpt lat="42.28665" lon="18.85286">
        <ele>53.289956</ele>
        <time>2022-05-27T13:37:07.837Z</time>
      </trkpt>
      <trkpt lat="42.28672" lon="18.85273">
        <ele>52.78792</ele>
        <time>2022-05-27T13:37:09.836Z</time>
      </trkpt>
      <trkpt lat="42.28677" lon="18.85263">
        <ele>52.37711</ele>
        <time>2022-05-27T13:37:11.830Z</time>
      </trkpt>
      <trkpt lat="42.28683" lon="18.85248">
        <ele>51.790975</ele>
        <time>2022-05-27T13:37:14.842Z</time>
      </trkpt>
      <trkpt lat="42.28689" lon="18.85233">
        <ele>51.232064</ele>
        <time>2022-05-27T13:37:17.829Z</time>
      </trkpt>
      <trkpt lat="42.28694" lon="18.85222">
        <ele>50.794781</ele>
        <time>2022-05-27T13:37:19.831Z</time>
      </trkpt>
      <trkpt lat="42.28697" lon="18.85207">
        <ele>50.27287</ele>
        <time>2022-05-27T13:37:21.828Z</time>
      </trkpt>
      <trkpt lat="42.28692" lon="18.85196">
        <ele>49.837169</ele>
        <time>2022-05-27T13:37:24.832Z</time>
      </trkpt>
      <trkpt lat="42.28682" lon="18.8519">
        <ele>49.339079</ele>
        <time>2022-05-27T13:37:27.895Z</time>
      </trkpt>
      <trkpt lat="42.28671" lon="18.85191">
        <ele>48.831784</ele>
        <time>2022-05-27T13:37:29.833Z</time>
      </trkpt>
      <trkpt lat="42.28661" lon="18.85193">
        <ele>48.363513</ele>
        <time>2022-05-27T13:37:31.830Z</time>
      </trkpt>
      <trkpt lat="42.28652" lon="18.85194">
        <ele>47.949806</ele>
        <time>2022-05-27T13:37:33.849Z</time>
      </trkpt>
      <trkpt lat="42.28639" lon="18.85196">
        <ele>47.37318</ele>
        <time>2022-05-27T13:37:36.827Z</time>
      </trkpt>
      <trkpt lat="42.28627" lon="18.85198">
        <ele>46.834405</ele>
        <time>2022-05-27T13:37:39.835Z</time>
      </trkpt>
      <trkpt lat="42.28619" lon="18.85187">
        <ele>46.312177</ele>
        <time>2022-05-27T13:37:42.826Z</time>
      </trkpt>
      <trkpt lat="42.28614" lon="18.85175">
        <ele>45.859674</ele>
        <time>2022-05-27T13:37:45.831Z</time>
      </trkpt>
      <trkpt lat="42.2861" lon="18.85163">
        <ele>45.672711</ele>
        <time>2022-05-27T13:37:48.845Z</time>
      </trkpt>
      <trkpt lat="42.28605" lon="18.8515">
        <ele>45.735384</ele>
        <time>2022-05-27T13:37:51.830Z</time>
      </trkpt>
      <trkpt lat="42.28601" lon="18.85135">
        <ele>45.801123</ele>
        <time>2022-05-27T13:37:54.827Z</time>
      </trkpt>
      <trkpt lat="42.28596" lon="18.85121">
        <ele>45.866074</ele>
        <time>2022-05-27T13:37:57.843Z</time>
      </trkpt>
      <trkpt lat="42.28592" lon="18.85109">
        <ele>45.923751</ele>
        <time>2022-05-27T13:38:00.833Z</time>
      </trkpt>
      <trkpt lat="42.28587" lon="18.85095">
        <ele>45.988839</ele>
        <time>2022-05-27T13:38:03.832Z</time>
      </trkpt>
      <trkpt lat="42.28582" lon="18.85079">
        <ele>46.064606</ele>
        <time>2022-05-27T13:38:06.839Z</time>
      </trkpt>
      <trkpt lat="42.28576" lon="18.85064">
        <ele>46.137562</ele>
        <time>2022-05-27T13:38:09.829Z</time>
      </trkpt>
      <trkpt lat="42.28569" lon="18.85051">
        <ele>46.206384</ele>
        <time>2022-05-27T13:38:12.827Z</time>
      </trkpt>
      <trkpt lat="42.2856" lon="18.85037">
        <ele>46.282207</ele>
        <time>2022-05-27T13:38:15.832Z</time>
      </trkpt>
      <trkpt lat="42.28558" lon="18.85021">
        <ele>46.353191</ele>
        <time>2022-05-27T13:38:18.842Z</time>
      </trkpt>
      <trkpt lat="42.28554" lon="18.85005">
        <ele>46.422957</ele>
        <time>2022-05-27T13:38:21.831Z</time>
      </trkpt>
      <trkpt lat="42.2855" lon="18.84993">
        <ele>46.480568</ele>
        <time>2022-05-27T13:38:24.845Z</time>
      </trkpt>
      <trkpt lat="42.28547" lon="18.84981">
        <ele>46.534597</ele>
        <time>2022-05-27T13:38:27.832Z</time>
      </trkpt>
      <trkpt lat="42.28543" lon="18.84967">
        <ele>46.601303</ele>
        <time>2022-05-27T13:38:30.836Z</time>
      </trkpt>
      <trkpt lat="42.28542" lon="18.84949">
        <ele>46.676367</ele>
        <time>2022-05-27T13:38:33.827Z</time>
      </trkpt>
      <trkpt lat="42.28543" lon="18.84936">
        <ele>46.698078</ele>
        <time>2022-05-27T13:38:35.826Z</time>
      </trkpt>
      <trkpt lat="42.28544" lon="18.84924">
        <ele>46.716728</ele>
        <time>2022-05-27T13:38:37.841Z</time>
      </trkpt>
      <trkpt lat="42.28544" lon="18.84906">
        <ele>46.743505</ele>
        <time>2022-05-27T13:38:40.834Z</time>
      </trkpt>
      <trkpt lat="42.28545" lon="18.8489">
        <ele>46.767967</ele>
        <time>2022-05-27T13:38:43.827Z</time>
      </trkpt>
      <trkpt lat="42.28546" lon="18.84873">
        <ele>46.793977</ele>
        <time>2022-05-27T13:38:46.825Z</time>
      </trkpt>
      <trkpt lat="42.28546" lon="18.84861">
        <ele>46.812475</ele>
        <time>2022-05-27T13:38:48.832Z</time>
      </trkpt>
      <trkpt lat="42.28547" lon="18.84844">
        <ele>46.838123</ele>
        <time>2022-05-27T13:38:51.833Z</time>
      </trkpt>
      <trkpt lat="42.28549" lon="18.84827">
        <ele>46.863638</ele>
        <time>2022-05-27T13:38:54.824Z</time>
      </trkpt>
      <trkpt lat="42.2855" lon="18.84811">
        <ele>46.887444</ele>
        <time>2022-05-27T13:38:57.839Z</time>
      </trkpt>
      <trkpt lat="42.28551" lon="18.84794">
        <ele>46.913074</ele>
        <time>2022-05-27T13:39:00.831Z</time>
      </trkpt>
      <trkpt lat="42.28551" lon="18.84777">
        <ele>46.939096</ele>
        <time>2022-05-27T13:39:03.830Z</time>
      </trkpt>
      <trkpt lat="42.28551" lon="18.84765">
        <ele>46.957695</ele>
        <time>2022-05-27T13:39:05.831Z</time>
      </trkpt>
      <trkpt lat="42.2855" lon="18.84747">
        <ele>46.984472</ele>
        <time>2022-05-27T13:39:08.842Z</time>
      </trkpt>
      <trkpt lat="42.28549" lon="18.84729">
        <ele>47.011609</ele>
        <time>2022-05-27T13:39:11.832Z</time>
      </trkpt>
      <trkpt lat="42.28547" lon="18.84711">
        <ele>47.038947</ele>
        <time>2022-05-27T13:39:14.838Z</time>
      </trkpt>
      <trkpt lat="42.28546" lon="18.84694">
        <ele>47.084699</ele>
        <time>2022-05-27T13:39:17.832Z</time>
      </trkpt>
      <trkpt lat="42.28545" lon="18.84677">
        <ele>47.140561</ele>
        <time>2022-05-27T13:39:20.829Z</time>
      </trkpt>
      <trkpt lat="42.28543" lon="18.84661">
        <ele>47.194662</ele>
        <time>2022-05-27T13:39:23.838Z</time>
      </trkpt>
      <trkpt lat="42.28542" lon="18.84645">
        <ele>47.246334</ele>
        <time>2022-05-27T13:39:26.829Z</time>
      </trkpt>
      <trkpt lat="42.28541" lon="18.84631">
        <ele>47.290652</ele>
        <time>2022-05-27T13:39:29.833Z</time>
      </trkpt>
      <trkpt lat="42.28539" lon="18.84615">
        <ele>47.342059</ele>
        <time>2022-05-27T13:39:32.834Z</time>
      </trkpt>
      <trkpt lat="42.28536" lon="18.84602">
        <ele>47.386563</ele>
        <time>2022-05-27T13:39:35.841Z</time>
      </trkpt>
      <trkpt lat="42.28533" lon="18.84587">
        <ele>47.437043</ele>
        <time>2022-05-27T13:39:39.831Z</time>
      </trkpt>
      <trkpt lat="42.2853" lon="18.84573">
        <ele>47.484594</ele>
        <time>2022-05-27T13:39:43.827Z</time>
      </trkpt>
      <trkpt lat="42.28528" lon="18.84559">
        <ele>47.529624</ele>
        <time>2022-05-27T13:39:46.826Z</time>
      </trkpt>
      <trkpt lat="42.28525" lon="18.84546">
        <ele>47.574762</ele>
        <time>2022-05-27T13:39:49.830Z</time>
      </trkpt>
      <trkpt lat="42.28523" lon="18.84532">
        <ele>47.621936</ele>
        <time>2022-05-27T13:39:52.833Z</time>
      </trkpt>
      <trkpt lat="42.28522" lon="18.84519">
        <ele>47.663302</ele>
        <time>2022-05-27T13:39:55.829Z</time>
      </trkpt>
      <trkpt lat="42.2852" lon="18.84507">
        <ele>47.704594</ele>
        <time>2022-05-27T13:39:58.827Z</time>
      </trkpt>
      <trkpt lat="42.28518" lon="18.84492">
        <ele>47.752991</ele>
        <time>2022-05-27T13:40:01.829Z</time>
      </trkpt>
      <trkpt lat="42.28515" lon="18.84476">
        <ele>47.807027</ele>
        <time>2022-05-27T13:40:04.834Z</time>
      </trkpt>
      <trkpt lat="42.28512" lon="18.84458">
        <ele>47.738595</ele>
        <time>2022-05-27T13:40:07.837Z</time>
      </trkpt>
      <trkpt lat="42.2851" lon="18.84446">
        <ele>47.611336</ele>
        <time>2022-05-27T13:40:09.828Z</time>
      </trkpt>
      <trkpt lat="42.28507" lon="18.84434">
        <ele>47.478383</ele>
        <time>2022-05-27T13:40:11.837Z</time>
      </trkpt>
      <trkpt lat="42.28505" lon="18.84422">
        <ele>47.350351</ele>
        <time>2022-05-27T13:40:13.831Z</time>
      </trkpt>
      <trkpt lat="42.28502" lon="18.84404">
        <ele>47.168022</ele>
        <time>2022-05-27T13:40:16.827Z</time>
      </trkpt>
      <trkpt lat="42.285" lon="18.84388">
        <ele>47.001499</ele>
        <time>2022-05-27T13:40:19.832Z</time>
      </trkpt>
      <trkpt lat="42.28497" lon="18.84371">
        <ele>46.817226</ele>
        <time>2022-05-27T13:40:22.841Z</time>
      </trkpt>
      <trkpt lat="42.28494" lon="18.84354">
        <ele>46.640895</ele>
        <time>2022-05-27T13:40:25.832Z</time>
      </trkpt>
      <trkpt lat="42.28492" lon="18.84338">
        <ele>46.477773</ele>
        <time>2022-05-27T13:40:28.826Z</time>
      </trkpt>
      <trkpt lat="42.2849" lon="18.84324">
        <ele>46.334525</ele>
        <time>2022-05-27T13:40:31.830Z</time>
      </trkpt>
      <trkpt lat="42.28487" lon="18.84311">
        <ele>46.188811</ele>
        <time>2022-05-27T13:40:34.828Z</time>
      </trkpt>
      <trkpt lat="42.28484" lon="18.84298">
        <ele>46.052719</ele>
        <time>2022-05-27T13:40:37.829Z</time>
      </trkpt>
      <trkpt lat="42.28481" lon="18.84286">
        <ele>45.917786</ele>
        <time>2022-05-27T13:40:40.840Z</time>
      </trkpt>
      <trkpt lat="42.28479" lon="18.84272">
        <ele>45.768328</ele>
        <time>2022-05-27T13:40:44.833Z</time>
      </trkpt>
      <trkpt lat="42.28476" lon="18.84257">
        <ele>45.615879</ele>
        <time>2022-05-27T13:40:48.829Z</time>
      </trkpt>
      <trkpt lat="42.28474" lon="18.84242">
        <ele>45.456442</ele>
        <time>2022-05-27T13:40:52.846Z</time>
      </trkpt>
      <trkpt lat="42.28471" lon="18.84228">
        <ele>45.405254</ele>
        <time>2022-05-27T13:40:55.837Z</time>
      </trkpt>
      <trkpt lat="42.28469" lon="18.84214">
        <ele>45.659756</ele>
        <time>2022-05-27T13:40:58.842Z</time>
      </trkpt>
      <trkpt lat="42.28465" lon="18.84198">
        <ele>45.957695</ele>
        <time>2022-05-27T13:41:01.830Z</time>
      </trkpt>
      <trkpt lat="42.28462" lon="18.84183">
        <ele>46.247825</ele>
        <time>2022-05-27T13:41:04.830Z</time>
      </trkpt>
      <trkpt lat="42.28456" lon="18.84166">
        <ele>46.575875</ele>
        <time>2022-05-27T13:41:07.859Z</time>
      </trkpt>
      <trkpt lat="42.28453" lon="18.84154">
        <ele>46.793785</ele>
        <time>2022-05-27T13:41:09.825Z</time>
      </trkpt>
      <trkpt lat="42.28448" lon="18.84137">
        <ele>47.119851</ele>
        <time>2022-05-27T13:41:12.837Z</time>
      </trkpt>
      <trkpt lat="42.28443" lon="18.84121">
        <ele>47.432853</ele>
        <time>2022-05-27T13:41:15.825Z</time>
      </trkpt>
      <trkpt lat="42.28438" lon="18.84107">
        <ele>47.713914</ele>
        <time>2022-05-27T13:41:18.826Z</time>
      </trkpt>
      <trkpt lat="42.28432" lon="18.84093">
        <ele>48.000316</ele>
        <time>2022-05-27T13:41:22.836Z</time>
      </trkpt>
      <trkpt lat="42.28428" lon="18.8408">
        <ele>48.261831</ele>
        <time>2022-05-27T13:41:26.830Z</time>
      </trkpt>
      <trkpt lat="42.28423" lon="18.84065">
        <ele>48.564316</ele>
        <time>2022-05-27T13:41:29.824Z</time>
      </trkpt>
      <trkpt lat="42.28417" lon="18.84051">
        <ele>48.841096</ele>
        <time>2022-05-27T13:41:32.837Z</time>
      </trkpt>
      <trkpt lat="42.28412" lon="18.8404">
        <ele>49.073851</ele>
        <time>2022-05-27T13:41:35.829Z</time>
      </trkpt>
      <trkpt lat="42.28407" lon="18.84027">
        <ele>49.334601</ele>
        <time>2022-05-27T13:41:39.826Z</time>
      </trkpt>
      <trkpt lat="42.28402" lon="18.84016">
        <ele>49.562549</ele>
        <time>2022-05-27T13:41:43.850Z</time>
      </trkpt>
      <trkpt lat="42.28396" lon="18.84003">
        <ele>49.689897</ele>
        <time>2022-05-27T13:41:47.829Z</time>
      </trkpt>
      <trkpt lat="42.28389" lon="18.83992">
        <ele>49.689897</ele>
        <time>2022-05-27T13:41:50.832Z</time>
      </trkpt>
      <trkpt lat="42.28381" lon="18.83978">
        <ele>49.689897</ele>
        <time>2022-05-27T13:41:53.828Z</time>
      </trkpt>
      <trkpt lat="42.28375" lon="18.83968">
        <ele>49.689897</ele>
        <time>2022-05-27T13:41:55.834Z</time>
      </trkpt>
      <trkpt lat="42.28368" lon="18.83957">
        <ele>49.689897</ele>
        <time>2022-05-27T13:41:57.838Z</time>
      </trkpt>
      <trkpt lat="42.28362" lon="18.83946">
        <ele>49.689897</ele>
        <time>2022-05-27T13:41:59.832Z</time>
      </trkpt>
      <trkpt lat="42.28356" lon="18.83932">
        <ele>49.689897</ele>
        <time>2022-05-27T13:42:02.836Z</time>
      </trkpt>
      <trkpt lat="42.2835" lon="18.83923">
        <ele>49.689897</ele>
        <time>2022-05-27T13:42:05.832Z</time>
      </trkpt>
      <trkpt lat="42.28341" lon="18.83912">
        <ele>49.689897</ele>
        <time>2022-05-27T13:42:08.826Z</time>
      </trkpt>
      <trkpt lat="42.28335" lon="18.83903">
        <ele>49.689897</ele>
        <time>2022-05-27T13:42:11.833Z</time>
      </trkpt>
      <trkpt lat="42.28326" lon="18.83894">
        <ele>49.689897</ele>
        <time>2022-05-27T13:42:15.832Z</time>
      </trkpt>
      <trkpt lat="42.28317" lon="18.83886">
        <ele>49.689897</ele>
        <time>2022-05-27T13:42:19.845Z</time>
      </trkpt>
      <trkpt lat="42.28308" lon="18.83876">
        <ele>49.689897</ele>
        <time>2022-05-27T13:42:23.830Z</time>
      </trkpt>
      <trkpt lat="42.283" lon="18.83868">
        <ele>49.689897</ele>
        <time>2022-05-27T13:42:26.848Z</time>
      </trkpt>
      <trkpt lat="42.28292" lon="18.83859">
        <ele>49.689897</ele>
        <time>2022-05-27T13:42:29.877Z</time>
      </trkpt>
      <trkpt lat="42.28285" lon="18.83851">
        <ele>49.689897</ele>
        <time>2022-05-27T13:42:32.831Z</time>
      </trkpt>
      <trkpt lat="42.28278" lon="18.83842">
        <ele>49.689897</ele>
        <time>2022-05-27T13:42:35.830Z</time>
      </trkpt>
      <trkpt lat="42.2827" lon="18.83833">
        <ele>49.689897</ele>
        <time>2022-05-27T13:42:38.832Z</time>
      </trkpt>
      <trkpt lat="42.28262" lon="18.83824">
        <ele>49.689897</ele>
        <time>2022-05-27T13:42:42.837Z</time>
      </trkpt>
      <trkpt lat="42.28269" lon="18.83815">
        <ele>49.689897</ele>
        <time>2022-05-27T13:43:00.835Z</time>
      </trkpt>
      <trkpt lat="42.28279" lon="18.83813">
        <ele>49.689897</ele>
        <time>2022-05-27T13:43:06.831Z</time>
      </trkpt>
      <trkpt lat="42.28281" lon="18.83788">
        <ele>49.689897</ele>
        <time>2022-05-27T13:44:22.050Z</time>
      </trkpt>
    </trkseg>
  </trk>
</gpx>